<?xml version='1.0' encoding='UTF-8'?><gpx version="1.1" creator="JPX - https://github.com/jenetics/jpx" xmlns="http://www.topografix.com/GPX/1/1"><trk><trkseg><trkpt lat="45.1480687" lon="10.7754693"><ele>21.0</ele><time>2026-04-26T05:38:01.426Z</time></trkpt><trkpt lat="45.1480174" lon="10.7754157"><ele>21.0</ele><time>2026-04-26T05:38:09.425Z</time></trkpt><trkpt lat="45.1479557" lon="10.7753505"><ele>21.0</ele><time>2026-04-26T05:38:13.426Z</time></trkpt><trkpt lat="45.1479477" lon="10.7752489"><ele>21.0</ele><time>2026-04-26T05:38:16.425Z</time></trkpt><trkpt lat="45.147985" lon="10.7751596"><ele>21.0</ele><time>2026-04-26T05:38:19.425Z</time></trkpt><trkpt lat="45.1480218" lon="10.7750744"><ele>21.0</ele><time>2026-04-26T05:38:22.425Z</time></trkpt><trkpt lat="45.1480641" lon="10.7749797"><ele>21.0</ele><time>2026-04-26T05:38:25.425Z</time></trkpt><trkpt lat="45.1481081" lon="10.7748903"><ele>21.0</ele><time>2026-04-26T05:38:28.425Z</time></trkpt><trkpt lat="45.1481412" lon="10.7747889"><ele>21.0</ele><time>2026-04-26T05:38:32.426Z</time></trkpt><trkpt lat="45.1481861" lon="10.7747205"><ele>21.0</ele><time>2026-04-26T05:38:36.425Z</time></trkpt><trkpt lat="45.1481969" lon="10.7746041"><ele>21.0</ele><time>2026-04-26T05:38:40.426Z</time></trkpt><trkpt lat="45.1482178" lon="10.7744908"><ele>21.0</ele><time>2026-04-26T05:38:44.424Z</time></trkpt><trkpt lat="45.1482589" lon="10.7744145"><ele>21.0</ele><time>2026-04-26T05:38:47.426Z</time></trkpt><trkpt lat="45.1483035" lon="10.7743332"><ele>21.6</ele><time>2026-04-26T05:38:50.426Z</time></trkpt><trkpt lat="45.1483592" lon="10.7742413"><ele>22.200000000000003</ele><time>2026-04-26T05:38:53.426Z</time></trkpt><trkpt lat="45.1484404" lon="10.7740991"><ele>22.799999999999997</ele><time>2026-04-26T05:38:58.332Z</time></trkpt><trkpt lat="45.1485025" lon="10.7739911"><ele>23.4</ele><time>2026-04-26T05:39:01.351Z</time></trkpt><trkpt lat="45.1485465" lon="10.7739033"><ele>24.0</ele><time>2026-04-26T05:39:03.426Z</time></trkpt><trkpt lat="45.1485914" lon="10.7738384"><ele>24.0</ele><time>2026-04-26T05:39:05.425Z</time></trkpt><trkpt lat="45.148635" lon="10.773772"><ele>24.0</ele><time>2026-04-26T05:39:07.426Z</time></trkpt><trkpt lat="45.1486789" lon="10.7736694"><ele>24.0</ele><time>2026-04-26T05:39:10.426Z</time></trkpt><trkpt lat="45.1487264" lon="10.7735865"><ele>24.0</ele><time>2026-04-26T05:39:13.426Z</time></trkpt><trkpt lat="45.1487668" lon="10.7734941"><ele>24.0</ele><time>2026-04-26T05:39:16.426Z</time></trkpt><trkpt lat="45.1488269" lon="10.7733864"><ele>24.0</ele><time>2026-04-26T05:39:19.425Z</time></trkpt><trkpt lat="45.1488788" lon="10.7732971"><ele>24.333333333333332</ele><time>2026-04-26T05:39:22.425Z</time></trkpt><trkpt lat="45.1489341" lon="10.7731874"><ele>24.666666666666664</ele><time>2026-04-26T05:39:25.425Z</time></trkpt><trkpt lat="45.1489875" lon="10.7731046"><ele>25.0</ele><time>2026-04-26T05:39:27.426Z</time></trkpt><trkpt lat="45.1490293" lon="10.7730138"><ele>25.333333333333332</ele><time>2026-04-26T05:39:29.426Z</time></trkpt><trkpt lat="45.1490822" lon="10.7729344"><ele>25.666666666666664</ele><time>2026-04-26T05:39:31.426Z</time></trkpt><trkpt lat="45.1491231" lon="10.772861"><ele>26.0</ele><time>2026-04-26T05:39:34.426Z</time></trkpt><trkpt lat="45.149081" lon="10.7727921"><ele>25.999999999999996</ele><time>2026-04-26T05:39:57.425Z</time></trkpt><trkpt lat="45.1491243" lon="10.7727128"><ele>26.0</ele><time>2026-04-26T05:40:02.425Z</time></trkpt><trkpt lat="45.1492048" lon="10.7725725"><ele>26.0</ele><time>2026-04-26T05:40:08.348Z</time></trkpt><trkpt lat="45.1492711" lon="10.7725483"><ele>26.0</ele><time>2026-04-26T05:40:10.426Z</time></trkpt><trkpt lat="45.1493327" lon="10.7725255"><ele>25.999999999999996</ele><time>2026-04-26T05:40:13.426Z</time></trkpt><trkpt lat="45.1494103" lon="10.7724995"><ele>26.0</ele><time>2026-04-26T05:40:16.425Z</time></trkpt><trkpt lat="45.1494711" lon="10.7724748"><ele>25.833333333333332</ele><time>2026-04-26T05:40:19.425Z</time></trkpt><trkpt lat="45.1495439" lon="10.7724693"><ele>25.666666666666664</ele><time>2026-04-26T05:40:22.426Z</time></trkpt><trkpt lat="45.1496181" lon="10.7724595"><ele>25.5</ele><time>2026-04-26T05:40:25.424Z</time></trkpt><trkpt lat="45.1496944" lon="10.7724637"><ele>25.333333333333336</ele><time>2026-04-26T05:40:28.423Z</time></trkpt><trkpt lat="45.1497716" lon="10.7724672"><ele>25.166666666666668</ele><time>2026-04-26T05:40:31.425Z</time></trkpt><trkpt lat="45.1498604" lon="10.7724581"><ele>25.0</ele><time>2026-04-26T05:40:34.426Z</time></trkpt><trkpt lat="45.1499419" lon="10.7724526"><ele>25.000000000000004</ele><time>2026-04-26T05:40:37.425Z</time></trkpt><trkpt lat="45.1500217" lon="10.7724542"><ele>25.0</ele><time>2026-04-26T05:40:40.426Z</time></trkpt><trkpt lat="45.1500881" lon="10.7724593"><ele>25.0</ele><time>2026-04-26T05:40:42.424Z</time></trkpt><trkpt lat="45.1501765" lon="10.772442"><ele>25.0</ele><time>2026-04-26T05:40:45.425Z</time></trkpt><trkpt lat="45.1502601" lon="10.7724382"><ele>25.000000000000004</ele><time>2026-04-26T05:40:48.426Z</time></trkpt><trkpt lat="45.1503454" lon="10.7724304"><ele>25.0</ele><time>2026-04-26T05:40:51.426Z</time></trkpt><trkpt lat="45.1504337" lon="10.7724289"><ele>25.000000000000004</ele><time>2026-04-26T05:40:54.426Z</time></trkpt><trkpt lat="45.1504988" lon="10.7724128"><ele>25.0</ele><time>2026-04-26T05:40:56.426Z</time></trkpt><trkpt lat="45.1505631" lon="10.7723853"><ele>25.0</ele><time>2026-04-26T05:40:58.423Z</time></trkpt><trkpt lat="45.1506459" lon="10.7723823"><ele>25.0</ele><time>2026-04-26T05:41:01.424Z</time></trkpt><trkpt lat="45.1507118" lon="10.7723928"><ele>25.000000000000004</ele><time>2026-04-26T05:41:03.425Z</time></trkpt><trkpt lat="45.1507991" lon="10.7723864"><ele>25.0</ele><time>2026-04-26T05:41:06.426Z</time></trkpt><trkpt lat="45.1508932" lon="10.7723616"><ele>24.833333333333336</ele><time>2026-04-26T05:41:09.426Z</time></trkpt><trkpt lat="45.1509581" lon="10.7723594"><ele>24.666666666666668</ele><time>2026-04-26T05:41:11.425Z</time></trkpt><trkpt lat="45.1510461" lon="10.7723587"><ele>24.5</ele><time>2026-04-26T05:41:14.425Z</time></trkpt><trkpt lat="45.1511107" lon="10.7723404"><ele>24.333333333333336</ele><time>2026-04-26T05:41:17.424Z</time></trkpt><trkpt lat="45.1512052" lon="10.772313"><ele>24.166666666666668</ele><time>2026-04-26T05:41:20.424Z</time></trkpt><trkpt lat="45.1512832" lon="10.7723176"><ele>24.0</ele><time>2026-04-26T05:41:22.424Z</time></trkpt><trkpt lat="45.1513578" lon="10.7723132"><ele>23.999999999999996</ele><time>2026-04-26T05:41:24.425Z</time></trkpt><trkpt lat="45.1514277" lon="10.7723131"><ele>24.0</ele><time>2026-04-26T05:41:26.425Z</time></trkpt><trkpt lat="45.1515101" lon="10.7723091"><ele>24.0</ele><time>2026-04-26T05:41:29.425Z</time></trkpt><trkpt lat="45.151575" lon="10.7722957"><ele>24.0</ele><time>2026-04-26T05:41:31.425Z</time></trkpt><trkpt lat="45.1516369" lon="10.772279"><ele>24.0</ele><time>2026-04-26T05:41:33.426Z</time></trkpt><trkpt lat="45.1516997" lon="10.772272"><ele>23.999999999999996</ele><time>2026-04-26T05:41:35.426Z</time></trkpt><trkpt lat="45.1517644" lon="10.7722643"><ele>24.0</ele><time>2026-04-26T05:41:37.425Z</time></trkpt><trkpt lat="45.1518466" lon="10.7722568"><ele>24.0</ele><time>2026-04-26T05:41:40.425Z</time></trkpt><trkpt lat="45.1519348" lon="10.7722576"><ele>24.0</ele><time>2026-04-26T05:41:43.425Z</time></trkpt><trkpt lat="45.1520253" lon="10.7722509"><ele>24.0</ele><time>2026-04-26T05:41:46.426Z</time></trkpt><trkpt lat="45.1520894" lon="10.7722426"><ele>24.0</ele><time>2026-04-26T05:41:48.425Z</time></trkpt><trkpt lat="45.1521759" lon="10.7722337"><ele>24.0</ele><time>2026-04-26T05:41:51.424Z</time></trkpt><trkpt lat="45.1522586" lon="10.7722089"><ele>24.0</ele><time>2026-04-26T05:41:54.424Z</time></trkpt><trkpt lat="45.1523363" lon="10.7722575"><ele>24.166666666666668</ele><time>2026-04-26T05:41:57.425Z</time></trkpt><trkpt lat="45.1524055" lon="10.7723233"><ele>24.333333333333336</ele><time>2026-04-26T05:42:00.425Z</time></trkpt><trkpt lat="45.1524962" lon="10.7723424"><ele>24.5</ele><time>2026-04-26T05:42:03.425Z</time></trkpt><trkpt lat="45.1525838" lon="10.7723641"><ele>24.666666666666668</ele><time>2026-04-26T05:42:06.425Z</time></trkpt><trkpt lat="45.152676" lon="10.7723762"><ele>24.833333333333336</ele><time>2026-04-26T05:42:09.425Z</time></trkpt><trkpt lat="45.1527579" lon="10.7724061"><ele>25.0</ele><time>2026-04-26T05:42:12.424Z</time></trkpt><trkpt lat="45.1528292" lon="10.7724224"><ele>25.000000000000004</ele><time>2026-04-26T05:42:15.425Z</time></trkpt><trkpt lat="45.1529084" lon="10.7724454"><ele>25.0</ele><time>2026-04-26T05:42:18.425Z</time></trkpt><trkpt lat="45.1529916" lon="10.7724611"><ele>25.0</ele><time>2026-04-26T05:42:21.425Z</time></trkpt><trkpt lat="45.1530738" lon="10.7724918"><ele>25.0</ele><time>2026-04-26T05:42:24.424Z</time></trkpt><trkpt lat="45.1531592" lon="10.7725258"><ele>25.000000000000004</ele><time>2026-04-26T05:42:27.424Z</time></trkpt><trkpt lat="45.1532396" lon="10.772566"><ele>25.0</ele><time>2026-04-26T05:42:30.425Z</time></trkpt><trkpt lat="45.1533276" lon="10.7726027"><ele>24.833333333333336</ele><time>2026-04-26T05:42:33.424Z</time></trkpt><trkpt lat="45.1534089" lon="10.7726423"><ele>24.666666666666668</ele><time>2026-04-26T05:42:36.424Z</time></trkpt><trkpt lat="45.1534907" lon="10.7726807"><ele>24.5</ele><time>2026-04-26T05:42:39.425Z</time></trkpt><trkpt lat="45.1535746" lon="10.7727223"><ele>24.333333333333336</ele><time>2026-04-26T05:42:42.425Z</time></trkpt><trkpt lat="45.1536609" lon="10.7727621"><ele>24.166666666666668</ele><time>2026-04-26T05:42:45.425Z</time></trkpt><trkpt lat="45.1537217" lon="10.7727911"><ele>24.0</ele><time>2026-04-26T05:42:47.424Z</time></trkpt><trkpt lat="45.153806" lon="10.7728344"><ele>23.999999999999996</ele><time>2026-04-26T05:42:50.425Z</time></trkpt><trkpt lat="45.1538802" lon="10.7728901"><ele>24.0</ele><time>2026-04-26T05:42:53.423Z</time></trkpt><trkpt lat="45.1539439" lon="10.7729487"><ele>24.0</ele><time>2026-04-26T05:42:56.423Z</time></trkpt><trkpt lat="45.1540108" lon="10.7729907"><ele>24.0</ele><time>2026-04-26T05:42:59.424Z</time></trkpt><trkpt lat="45.1540798" lon="10.7729684"><ele>24.0</ele><time>2026-04-26T05:43:02.425Z</time></trkpt><trkpt lat="45.1541101" lon="10.7728692"><ele>23.999999999999996</ele><time>2026-04-26T05:43:05.425Z</time></trkpt><trkpt lat="45.1541261" lon="10.7727753"><ele>24.0</ele><time>2026-04-26T05:43:08.424Z</time></trkpt><trkpt lat="45.1541563" lon="10.7726591"><ele>24.0</ele><time>2026-04-26T05:43:11.424Z</time></trkpt><trkpt lat="45.15417" lon="10.7725378"><ele>24.0</ele><time>2026-04-26T05:43:14.424Z</time></trkpt><trkpt lat="45.1541627" lon="10.7724099"><ele>24.0</ele><time>2026-04-26T05:43:17.425Z</time></trkpt><trkpt lat="45.1541431" lon="10.7722836"><ele>24.0</ele><time>2026-04-26T05:43:20.425Z</time></trkpt><trkpt lat="45.1541062" lon="10.7721692"><ele>24.0</ele><time>2026-04-26T05:43:23.425Z</time></trkpt><trkpt lat="45.1541742" lon="10.7721571"><ele>24.0</ele><time>2026-04-26T05:43:27.424Z</time></trkpt><trkpt lat="45.1542461" lon="10.772165"><ele>24.0</ele><time>2026-04-26T05:43:30.424Z</time></trkpt><trkpt lat="45.1542774" lon="10.7722519"><ele>24.0</ele><time>2026-04-26T05:43:33.424Z</time></trkpt><trkpt lat="45.1543486" lon="10.7722797"><ele>24.0</ele><time>2026-04-26T05:43:37.424Z</time></trkpt><trkpt lat="45.1543991" lon="10.7722021"><ele>24.0</ele><time>2026-04-26T05:43:40.425Z</time></trkpt><trkpt lat="45.154449" lon="10.7721119"><ele>24.0</ele><time>2026-04-26T05:43:43.425Z</time></trkpt><trkpt lat="45.1544971" lon="10.7720122"><ele>24.0</ele><time>2026-04-26T05:43:46.424Z</time></trkpt><trkpt lat="45.1545464" lon="10.7719296"><ele>23.833333333333332</ele><time>2026-04-26T05:43:49.424Z</time></trkpt><trkpt lat="45.1546066" lon="10.7718407"><ele>23.666666666666668</ele><time>2026-04-26T05:43:52.424Z</time></trkpt><trkpt lat="45.1546684" lon="10.7717418"><ele>23.5</ele><time>2026-04-26T05:43:55.425Z</time></trkpt><trkpt lat="45.1547236" lon="10.7716385"><ele>23.333333333333336</ele><time>2026-04-26T05:43:58.425Z</time></trkpt><trkpt lat="45.1547802" lon="10.771532"><ele>23.166666666666668</ele><time>2026-04-26T05:44:01.425Z</time></trkpt><trkpt lat="45.1548271" lon="10.7714562"><ele>23.0</ele><time>2026-04-26T05:44:03.425Z</time></trkpt><trkpt lat="45.1548744" lon="10.7713712"><ele>23.333333333333336</ele><time>2026-04-26T05:44:05.425Z</time></trkpt><trkpt lat="45.1549254" lon="10.7712819"><ele>23.666666666666668</ele><time>2026-04-26T05:44:07.425Z</time></trkpt><trkpt lat="45.1549788" lon="10.7711876"><ele>24.0</ele><time>2026-04-26T05:44:09.423Z</time></trkpt><trkpt lat="45.1550347" lon="10.7710871"><ele>24.333333333333336</ele><time>2026-04-26T05:44:11.424Z</time></trkpt><trkpt lat="45.1550859" lon="10.7709896"><ele>24.666666666666668</ele><time>2026-04-26T05:44:13.424Z</time></trkpt><trkpt lat="45.1551365" lon="10.7708975"><ele>25.0</ele><time>2026-04-26T05:44:15.424Z</time></trkpt><trkpt lat="45.1551901" lon="10.7708013"><ele>25.25</ele><time>2026-04-26T05:44:17.424Z</time></trkpt><trkpt lat="45.1552753" lon="10.7706307"><ele>25.5</ele><time>2026-04-26T05:44:21.366Z</time></trkpt><trkpt lat="45.1553364" lon="10.7704401"><ele>25.75</ele><time>2026-04-26T05:44:24.424Z</time></trkpt><trkpt lat="45.1553659" lon="10.7703342"><ele>26.0</ele><time>2026-04-26T05:44:26.424Z</time></trkpt><trkpt lat="45.1554284" lon="10.7702659"><ele>25.999999999999996</ele><time>2026-04-26T05:44:28.424Z</time></trkpt><trkpt lat="45.155497" lon="10.7702475"><ele>26.0</ele><time>2026-04-26T05:44:30.424Z</time></trkpt><trkpt lat="45.1555744" lon="10.7702413"><ele>26.0</ele><time>2026-04-26T05:44:32.424Z</time></trkpt><trkpt lat="45.1556589" lon="10.770259"><ele>26.0</ele><time>2026-04-26T05:44:34.423Z</time></trkpt><trkpt lat="45.1557448" lon="10.7702916"><ele>25.999999999999996</ele><time>2026-04-26T05:44:36.424Z</time></trkpt><trkpt lat="45.1558237" lon="10.7703549"><ele>26.0</ele><time>2026-04-26T05:44:38.424Z</time></trkpt><trkpt lat="45.1558936" lon="10.7704272"><ele>26.4</ele><time>2026-04-26T05:44:40.423Z</time></trkpt><trkpt lat="45.1559864" lon="10.7705035"><ele>26.8</ele><time>2026-04-26T05:44:42.424Z</time></trkpt><trkpt lat="45.1560758" lon="10.7705808"><ele>27.199999999999996</ele><time>2026-04-26T05:44:44.424Z</time></trkpt><trkpt lat="45.1561609" lon="10.7706593"><ele>27.599999999999998</ele><time>2026-04-26T05:44:46.425Z</time></trkpt><trkpt lat="45.1562048" lon="10.7707719"><ele>28.0</ele><time>2026-04-26T05:44:48.424Z</time></trkpt><trkpt lat="45.1562341" lon="10.7709182"><ele>27.500000000000004</ele><time>2026-04-26T05:44:50.424Z</time></trkpt><trkpt lat="45.1562521" lon="10.7710385"><ele>27.0</ele><time>2026-04-26T05:44:52.425Z</time></trkpt><trkpt lat="45.1562558" lon="10.7711376"><ele>26.5</ele><time>2026-04-26T05:44:54.425Z</time></trkpt><trkpt lat="45.1562733" lon="10.7712271"><ele>26.0</ele><time>2026-04-26T05:44:56.424Z</time></trkpt><trkpt lat="45.1563192" lon="10.7713101"><ele>25.500000000000004</ele><time>2026-04-26T05:44:59.425Z</time></trkpt><trkpt lat="45.1563669" lon="10.7714192"><ele>25.0</ele><time>2026-04-26T05:45:02.424Z</time></trkpt><trkpt lat="45.1564147" lon="10.771535"><ele>25.000000000000004</ele><time>2026-04-26T05:45:05.425Z</time></trkpt><trkpt lat="45.1564131" lon="10.7716674"><ele>25.0</ele><time>2026-04-26T05:45:08.425Z</time></trkpt><trkpt lat="45.1564007" lon="10.7717749"><ele>25.0</ele><time>2026-04-26T05:45:11.424Z</time></trkpt><trkpt lat="45.1564193" lon="10.7718841"><ele>25.0</ele><time>2026-04-26T05:45:14.424Z</time></trkpt><trkpt lat="45.1564307" lon="10.7719725"><ele>25.000000000000004</ele><time>2026-04-26T05:45:16.424Z</time></trkpt><trkpt lat="45.1564534" lon="10.7720983"><ele>25.0</ele><time>2026-04-26T05:45:19.424Z</time></trkpt><trkpt lat="45.1565016" lon="10.7721802"><ele>24.8</ele><time>2026-04-26T05:45:21.424Z</time></trkpt><trkpt lat="45.1565745" lon="10.7722807"><ele>24.6</ele><time>2026-04-26T05:45:23.423Z</time></trkpt><trkpt lat="45.1566737" lon="10.7723485"><ele>24.4</ele><time>2026-04-26T05:45:25.424Z</time></trkpt><trkpt lat="45.1567321" lon="10.7723822"><ele>24.2</ele><time>2026-04-26T05:45:26.423Z</time></trkpt><trkpt lat="45.1568447" lon="10.7724588"><ele>24.0</ele><time>2026-04-26T05:45:28.424Z</time></trkpt><trkpt lat="45.1569346" lon="10.7726394"><ele>24.2</ele><time>2026-04-26T05:45:31.338Z</time></trkpt><trkpt lat="45.1570072" lon="10.772847"><ele>24.4</ele><time>2026-04-26T05:45:34.34Z</time></trkpt><trkpt lat="45.1570467" lon="10.7729343"><ele>24.6</ele><time>2026-04-26T05:45:35.423Z</time></trkpt><trkpt lat="45.1571143" lon="10.7730535"><ele>24.8</ele><time>2026-04-26T05:45:37.424Z</time></trkpt><trkpt lat="45.1571766" lon="10.7731418"><ele>25.0</ele><time>2026-04-26T05:45:39.424Z</time></trkpt><trkpt lat="45.1572407" lon="10.7732069"><ele>25.000000000000004</ele><time>2026-04-26T05:45:41.424Z</time></trkpt><trkpt lat="45.1572849" lon="10.7732866"><ele>25.0</ele><time>2026-04-26T05:45:43.424Z</time></trkpt><trkpt lat="45.1573072" lon="10.7733802"><ele>25.0</ele><time>2026-04-26T05:45:45.423Z</time></trkpt><trkpt lat="45.1573093" lon="10.773471"><ele>25.0</ele><time>2026-04-26T05:45:47.424Z</time></trkpt><trkpt lat="45.157281" lon="10.7735546"><ele>25.0</ele><time>2026-04-26T05:45:49.424Z</time></trkpt><trkpt lat="45.15728" lon="10.7736526"><ele>25.000000000000004</ele><time>2026-04-26T05:45:51.424Z</time></trkpt><trkpt lat="45.1573032" lon="10.7737427"><ele>25.0</ele><time>2026-04-26T05:45:53.424Z</time></trkpt><trkpt lat="45.1573377" lon="10.7738273"><ele>24.833333333333336</ele><time>2026-04-26T05:45:55.424Z</time></trkpt><trkpt lat="45.1573743" lon="10.7739491"><ele>24.666666666666668</ele><time>2026-04-26T05:45:58.424Z</time></trkpt><trkpt lat="45.1574225" lon="10.7740556"><ele>24.5</ele><time>2026-04-26T05:46:01.424Z</time></trkpt><trkpt lat="45.1574568" lon="10.7741679"><ele>24.333333333333336</ele><time>2026-04-26T05:46:04.424Z</time></trkpt><trkpt lat="45.1574199" lon="10.774278"><ele>24.166666666666668</ele><time>2026-04-26T05:46:07.423Z</time></trkpt><trkpt lat="45.1573948" lon="10.7743779"><ele>24.0</ele><time>2026-04-26T05:46:10.424Z</time></trkpt><trkpt lat="45.1573703" lon="10.7744795"><ele>24.333333333333332</ele><time>2026-04-26T05:46:13.424Z</time></trkpt><trkpt lat="45.1573232" lon="10.7745971"><ele>24.666666666666664</ele><time>2026-04-26T05:46:16.424Z</time></trkpt><trkpt lat="45.1572821" lon="10.7746773"><ele>25.0</ele><time>2026-04-26T05:46:18.424Z</time></trkpt><trkpt lat="45.1572512" lon="10.7747695"><ele>25.333333333333332</ele><time>2026-04-26T05:46:20.425Z</time></trkpt><trkpt lat="45.1572238" lon="10.7748703"><ele>25.666666666666664</ele><time>2026-04-26T05:46:22.424Z</time></trkpt><trkpt lat="45.1571921" lon="10.7749716"><ele>26.0</ele><time>2026-04-26T05:46:24.424Z</time></trkpt><trkpt lat="45.1571619" lon="10.7750656"><ele>26.0</ele><time>2026-04-26T05:46:26.423Z</time></trkpt><trkpt lat="45.1571262" lon="10.7751606"><ele>26.0</ele><time>2026-04-26T05:46:28.423Z</time></trkpt><trkpt lat="45.1570674" lon="10.7753259"><ele>26.0</ele><time>2026-04-26T05:46:32.334Z</time></trkpt><trkpt lat="45.1570234" lon="10.7754745"><ele>26.0</ele><time>2026-04-26T05:46:35.356Z</time></trkpt><trkpt lat="45.1570231" lon="10.7756126"><ele>26.0</ele><time>2026-04-26T05:46:37.424Z</time></trkpt><trkpt lat="45.157019" lon="10.7757131"><ele>25.857142857142858</ele><time>2026-04-26T05:46:39.423Z</time></trkpt><trkpt lat="45.1569992" lon="10.7758069"><ele>25.714285714285715</ele><time>2026-04-26T05:46:41.424Z</time></trkpt><trkpt lat="45.156965" lon="10.7759255"><ele>25.571428571428573</ele><time>2026-04-26T05:46:44.424Z</time></trkpt><trkpt lat="45.1569309" lon="10.776021"><ele>25.42857142857143</ele><time>2026-04-26T05:46:47.423Z</time></trkpt><trkpt lat="45.1569131" lon="10.7761114"><ele>25.285714285714285</ele><time>2026-04-26T05:46:50.423Z</time></trkpt><trkpt lat="45.156944" lon="10.7762119"><ele>25.142857142857146</ele><time>2026-04-26T05:46:53.424Z</time></trkpt><trkpt lat="45.1569652" lon="10.7763081"><ele>25.0</ele><time>2026-04-26T05:46:56.423Z</time></trkpt><trkpt lat="45.1570345" lon="10.7763854"><ele>24.666666666666668</ele><time>2026-04-26T05:46:59.423Z</time></trkpt><trkpt lat="45.1570861" lon="10.7764782"><ele>24.333333333333336</ele><time>2026-04-26T05:47:02.424Z</time></trkpt><trkpt lat="45.1571329" lon="10.7765865"><ele>24.0</ele><time>2026-04-26T05:47:05.423Z</time></trkpt><trkpt lat="45.1571509" lon="10.776713"><ele>23.666666666666668</ele><time>2026-04-26T05:47:08.424Z</time></trkpt><trkpt lat="45.1571506" lon="10.7768322"><ele>23.333333333333336</ele><time>2026-04-26T05:47:11.423Z</time></trkpt><trkpt lat="45.1571583" lon="10.7769476"><ele>23.0</ele><time>2026-04-26T05:47:14.424Z</time></trkpt><trkpt lat="45.157153" lon="10.7770652"><ele>23.0</ele><time>2026-04-26T05:47:17.424Z</time></trkpt><trkpt lat="45.1571325" lon="10.7771521"><ele>23.0</ele><time>2026-04-26T05:47:19.423Z</time></trkpt><trkpt lat="45.1571311" lon="10.777276"><ele>23.0</ele><time>2026-04-26T05:47:22.424Z</time></trkpt><trkpt lat="45.1571821" lon="10.7773874"><ele>23.0</ele><time>2026-04-26T05:47:25.424Z</time></trkpt><trkpt lat="45.1572164" lon="10.7774636"><ele>23.0</ele><time>2026-04-26T05:47:27.424Z</time></trkpt><trkpt lat="45.1572467" lon="10.7775836"><ele>23.0</ele><time>2026-04-26T05:47:30.422Z</time></trkpt><trkpt lat="45.1572785" lon="10.7776609"><ele>22.857142857142858</ele><time>2026-04-26T05:47:32.423Z</time></trkpt><trkpt lat="45.157314" lon="10.7777358"><ele>22.71428571428571</ele><time>2026-04-26T05:47:34.424Z</time></trkpt><trkpt lat="45.1573491" lon="10.7778122"><ele>22.57142857142857</ele><time>2026-04-26T05:47:36.425Z</time></trkpt><trkpt lat="45.1573872" lon="10.7778862"><ele>22.42857142857143</ele><time>2026-04-26T05:47:38.424Z</time></trkpt><trkpt lat="45.157427" lon="10.7780024"><ele>22.285714285714285</ele><time>2026-04-26T05:47:41.424Z</time></trkpt><trkpt lat="45.1574757" lon="10.7781094"><ele>22.142857142857142</ele><time>2026-04-26T05:47:44.423Z</time></trkpt><trkpt lat="45.1575089" lon="10.7781905"><ele>22.0</ele><time>2026-04-26T05:47:46.424Z</time></trkpt><trkpt lat="45.1575402" lon="10.7782753"><ele>22.0</ele><time>2026-04-26T05:47:48.424Z</time></trkpt><trkpt lat="45.157575" lon="10.7783532"><ele>22.0</ele><time>2026-04-26T05:47:50.423Z</time></trkpt><trkpt lat="45.1576202" lon="10.7784672"><ele>22.0</ele><time>2026-04-26T05:47:53.424Z</time></trkpt><trkpt lat="45.1576725" lon="10.7785743"><ele>22.0</ele><time>2026-04-26T05:47:56.422Z</time></trkpt><trkpt lat="45.1577075" lon="10.7786509"><ele>22.0</ele><time>2026-04-26T05:47:58.423Z</time></trkpt><trkpt lat="45.157752" lon="10.7787581"><ele>22.0</ele><time>2026-04-26T05:48:01.424Z</time></trkpt><trkpt lat="45.1577759" lon="10.7788533"><ele>21.714285714285715</ele><time>2026-04-26T05:48:03.423Z</time></trkpt><trkpt lat="45.1577905" lon="10.7789436"><ele>21.428571428571427</ele><time>2026-04-26T05:48:05.423Z</time></trkpt><trkpt lat="45.1578301" lon="10.779031"><ele>21.142857142857142</ele><time>2026-04-26T05:48:08.422Z</time></trkpt><trkpt lat="45.1578874" lon="10.7791285"><ele>20.857142857142858</ele><time>2026-04-26T05:48:11.424Z</time></trkpt><trkpt lat="45.1579282" lon="10.7792232"><ele>20.571428571428573</ele><time>2026-04-26T05:48:13.424Z</time></trkpt><trkpt lat="45.1579687" lon="10.7793082"><ele>20.285714285714285</ele><time>2026-04-26T05:48:15.424Z</time></trkpt><trkpt lat="45.1580112" lon="10.7793876"><ele>20.0</ele><time>2026-04-26T05:48:17.424Z</time></trkpt><trkpt lat="45.1580613" lon="10.7794508"><ele>20.0</ele><time>2026-04-26T05:48:19.423Z</time></trkpt><trkpt lat="45.1581074" lon="10.7795148"><ele>20.0</ele><time>2026-04-26T05:48:21.424Z</time></trkpt><trkpt lat="45.1581609" lon="10.7796139"><ele>20.0</ele><time>2026-04-26T05:48:24.424Z</time></trkpt><trkpt lat="45.1581719" lon="10.7797486"><ele>20.0</ele><time>2026-04-26T05:48:27.423Z</time></trkpt><trkpt lat="45.1581902" lon="10.7798755"><ele>20.0</ele><time>2026-04-26T05:48:30.422Z</time></trkpt><trkpt lat="45.1582122" lon="10.7799599"><ele>20.0</ele><time>2026-04-26T05:48:32.423Z</time></trkpt><trkpt lat="45.1582425" lon="10.7800406"><ele>19.857142857142858</ele><time>2026-04-26T05:48:34.422Z</time></trkpt><trkpt lat="45.1582715" lon="10.7801267"><ele>19.714285714285715</ele><time>2026-04-26T05:48:36.423Z</time></trkpt><trkpt lat="45.1582969" lon="10.7802184"><ele>19.57142857142857</ele><time>2026-04-26T05:48:38.424Z</time></trkpt><trkpt lat="45.1583203" lon="10.7803096"><ele>19.42857142857143</ele><time>2026-04-26T05:48:40.423Z</time></trkpt><trkpt lat="45.1583398" lon="10.7804025"><ele>19.28571428571429</ele><time>2026-04-26T05:48:42.423Z</time></trkpt><trkpt lat="45.1583629" lon="10.7804881"><ele>19.142857142857142</ele><time>2026-04-26T05:48:44.423Z</time></trkpt><trkpt lat="45.1583856" lon="10.7805731"><ele>19.0</ele><time>2026-04-26T05:48:46.423Z</time></trkpt><trkpt lat="45.1584201" lon="10.7806908"><ele>19.0</ele><time>2026-04-26T05:48:49.422Z</time></trkpt><trkpt lat="45.1584464" lon="10.7808196"><ele>19.0</ele><time>2026-04-26T05:48:52.422Z</time></trkpt><trkpt lat="45.1584643" lon="10.7809055"><ele>19.0</ele><time>2026-04-26T05:48:54.423Z</time></trkpt><trkpt lat="45.1584892" lon="10.7809919"><ele>19.0</ele><time>2026-04-26T05:48:56.424Z</time></trkpt><trkpt lat="45.1585149" lon="10.7810848"><ele>19.0</ele><time>2026-04-26T05:48:58.423Z</time></trkpt><trkpt lat="45.1585471" lon="10.781175"><ele>19.0</ele><time>2026-04-26T05:49:00.423Z</time></trkpt><trkpt lat="45.1585848" lon="10.7812534"><ele>19.0</ele><time>2026-04-26T05:49:02.422Z</time></trkpt><trkpt lat="45.158626" lon="10.7813288"><ele>19.428571428571427</ele><time>2026-04-26T05:49:04.423Z</time></trkpt><trkpt lat="45.1586717" lon="10.7814018"><ele>19.857142857142858</ele><time>2026-04-26T05:49:06.424Z</time></trkpt><trkpt lat="45.1587145" lon="10.7814745"><ele>20.285714285714285</ele><time>2026-04-26T05:49:08.422Z</time></trkpt><trkpt lat="45.1587558" lon="10.7815431"><ele>20.714285714285715</ele><time>2026-04-26T05:49:10.423Z</time></trkpt><trkpt lat="45.1587954" lon="10.7816199"><ele>21.142857142857142</ele><time>2026-04-26T05:49:12.423Z</time></trkpt><trkpt lat="45.1588423" lon="10.7817311"><ele>21.571428571428573</ele><time>2026-04-26T05:49:15.422Z</time></trkpt><trkpt lat="45.1588715" lon="10.7818119"><ele>22.0</ele><time>2026-04-26T05:49:17.423Z</time></trkpt><trkpt lat="45.1589078" lon="10.781896"><ele>22.142857142857142</ele><time>2026-04-26T05:49:19.424Z</time></trkpt><trkpt lat="45.1589413" lon="10.7819786"><ele>22.285714285714285</ele><time>2026-04-26T05:49:21.423Z</time></trkpt><trkpt lat="45.1589742" lon="10.7820569"><ele>22.42857142857143</ele><time>2026-04-26T05:49:23.424Z</time></trkpt><trkpt lat="45.1590114" lon="10.7821438"><ele>22.57142857142857</ele><time>2026-04-26T05:49:25.423Z</time></trkpt><trkpt lat="45.1590511" lon="10.7822294"><ele>22.71428571428571</ele><time>2026-04-26T05:49:27.423Z</time></trkpt><trkpt lat="45.1590833" lon="10.7823104"><ele>22.857142857142858</ele><time>2026-04-26T05:49:29.424Z</time></trkpt><trkpt lat="45.1591197" lon="10.7823873"><ele>23.0</ele><time>2026-04-26T05:49:31.423Z</time></trkpt><trkpt lat="45.1591585" lon="10.7824675"><ele>22.666666666666668</ele><time>2026-04-26T05:49:33.423Z</time></trkpt><trkpt lat="45.1591973" lon="10.7825481"><ele>22.333333333333336</ele><time>2026-04-26T05:49:35.422Z</time></trkpt><trkpt lat="45.1592497" lon="10.7826611"><ele>22.0</ele><time>2026-04-26T05:49:38.422Z</time></trkpt><trkpt lat="45.1592847" lon="10.782738"><ele>21.666666666666668</ele><time>2026-04-26T05:49:40.423Z</time></trkpt><trkpt lat="45.159337" lon="10.7828474"><ele>21.333333333333332</ele><time>2026-04-26T05:49:43.423Z</time></trkpt><trkpt lat="45.1593718" lon="10.7829255"><ele>21.0</ele><time>2026-04-26T05:49:45.422Z</time></trkpt><trkpt lat="45.159413" lon="10.7830145"><ele>21.0</ele><time>2026-04-26T05:49:47.423Z</time></trkpt><trkpt lat="45.1594478" lon="10.7830953"><ele>21.0</ele><time>2026-04-26T05:49:49.424Z</time></trkpt><trkpt lat="45.1594802" lon="10.7831747"><ele>21.0</ele><time>2026-04-26T05:49:51.423Z</time></trkpt><trkpt lat="45.159513" lon="10.783258"><ele>21.0</ele><time>2026-04-26T05:49:53.422Z</time></trkpt><trkpt lat="45.1595497" lon="10.7833336"><ele>21.0</ele><time>2026-04-26T05:49:55.423Z</time></trkpt><trkpt lat="45.1595973" lon="10.7834456"><ele>21.0</ele><time>2026-04-26T05:49:58.421Z</time></trkpt><trkpt lat="45.1596371" lon="10.783553"><ele>21.0</ele><time>2026-04-26T05:50:01.422Z</time></trkpt><trkpt lat="45.1596709" lon="10.7836343"><ele>21.0</ele><time>2026-04-26T05:50:33.423Z</time></trkpt><trkpt lat="45.1597118" lon="10.7837217"><ele>21.0</ele><time>2026-04-26T05:50:37.422Z</time></trkpt><trkpt lat="45.1597435" lon="10.783824"><ele>21.0</ele><time>2026-04-26T05:50:40.423Z</time></trkpt><trkpt lat="45.1597791" lon="10.7839206"><ele>21.0</ele><time>2026-04-26T05:50:43.422Z</time></trkpt><trkpt lat="45.1598216" lon="10.7840187"><ele>21.0</ele><time>2026-04-26T05:50:46.423Z</time></trkpt><trkpt lat="45.1598556" lon="10.7841147"><ele>21.0</ele><time>2026-04-26T05:50:49.423Z</time></trkpt><trkpt lat="45.1598856" lon="10.784201"><ele>20.666666666666668</ele><time>2026-04-26T05:50:52.423Z</time></trkpt><trkpt lat="45.1599251" lon="10.7842856"><ele>20.333333333333332</ele><time>2026-04-26T05:50:55.423Z</time></trkpt><trkpt lat="45.159967" lon="10.7843852"><ele>20.0</ele><time>2026-04-26T05:50:58.422Z</time></trkpt><trkpt lat="45.1600105" lon="10.7844928"><ele>19.666666666666664</ele><time>2026-04-26T05:51:01.423Z</time></trkpt><trkpt lat="45.1600434" lon="10.7845772"><ele>19.333333333333332</ele><time>2026-04-26T05:51:03.423Z</time></trkpt><trkpt lat="45.1600755" lon="10.7846563"><ele>19.0</ele><time>2026-04-26T05:51:05.423Z</time></trkpt><trkpt lat="45.1601208" lon="10.7847713"><ele>19.0</ele><time>2026-04-26T05:51:08.422Z</time></trkpt><trkpt lat="45.1601633" lon="10.7848824"><ele>19.0</ele><time>2026-04-26T05:51:11.422Z</time></trkpt><trkpt lat="45.1602053" lon="10.7850002"><ele>19.0</ele><time>2026-04-26T05:51:14.422Z</time></trkpt><trkpt lat="45.160239" lon="10.7850799"><ele>19.0</ele><time>2026-04-26T05:51:16.422Z</time></trkpt><trkpt lat="45.160289" lon="10.7851923"><ele>19.0</ele><time>2026-04-26T05:51:19.423Z</time></trkpt><trkpt lat="45.160328" lon="10.7852726"><ele>19.0</ele><time>2026-04-26T05:51:21.422Z</time></trkpt><trkpt lat="45.1603728" lon="10.7853538"><ele>19.0</ele><time>2026-04-26T05:51:23.422Z</time></trkpt><trkpt lat="45.1604118" lon="10.7854351"><ele>19.0</ele><time>2026-04-26T05:51:25.423Z</time></trkpt><trkpt lat="45.1604551" lon="10.7855151"><ele>19.0</ele><time>2026-04-26T05:51:27.422Z</time></trkpt><trkpt lat="45.1604973" lon="10.7855826"><ele>19.0</ele><time>2026-04-26T05:51:29.422Z</time></trkpt><trkpt lat="45.1605245" lon="10.7856666"><ele>19.0</ele><time>2026-04-26T05:51:31.422Z</time></trkpt><trkpt lat="45.1605531" lon="10.7857632"><ele>19.0</ele><time>2026-04-26T05:51:33.423Z</time></trkpt><trkpt lat="45.1605854" lon="10.785845"><ele>19.0</ele><time>2026-04-26T05:51:35.421Z</time></trkpt><trkpt lat="45.1606567" lon="10.7859251"><ele>19.166666666666664</ele><time>2026-04-26T05:51:38.422Z</time></trkpt><trkpt lat="45.1607518" lon="10.7859401"><ele>19.333333333333332</ele><time>2026-04-26T05:51:41.422Z</time></trkpt><trkpt lat="45.1608293" lon="10.7859332"><ele>19.5</ele><time>2026-04-26T05:51:43.423Z</time></trkpt><trkpt lat="45.1609038" lon="10.7859574"><ele>19.666666666666668</ele><time>2026-04-26T05:51:45.423Z</time></trkpt><trkpt lat="45.1609745" lon="10.7859909"><ele>19.833333333333336</ele><time>2026-04-26T05:51:47.422Z</time></trkpt><trkpt lat="45.1610453" lon="10.7860323"><ele>20.0</ele><time>2026-04-26T05:51:49.422Z</time></trkpt><trkpt lat="45.1611171" lon="10.7860656"><ele>20.0</ele><time>2026-04-26T05:51:51.423Z</time></trkpt><trkpt lat="45.1611883" lon="10.7860872"><ele>20.0</ele><time>2026-04-26T05:51:53.422Z</time></trkpt><trkpt lat="45.1612625" lon="10.7861104"><ele>20.0</ele><time>2026-04-26T05:51:55.423Z</time></trkpt><trkpt lat="45.1613247" lon="10.7861539"><ele>20.0</ele><time>2026-04-26T05:51:57.423Z</time></trkpt><trkpt lat="45.1613862" lon="10.786187"><ele>20.0</ele><time>2026-04-26T05:51:59.423Z</time></trkpt><trkpt lat="45.1614541" lon="10.786209"><ele>20.0</ele><time>2026-04-26T05:52:01.422Z</time></trkpt><trkpt lat="45.1615266" lon="10.7862324"><ele>20.0</ele><time>2026-04-26T05:52:03.423Z</time></trkpt><trkpt lat="45.1616103" lon="10.7862656"><ele>19.833333333333336</ele><time>2026-04-26T05:52:05.422Z</time></trkpt><trkpt lat="45.1616922" lon="10.7863011"><ele>19.666666666666668</ele><time>2026-04-26T05:52:07.422Z</time></trkpt><trkpt lat="45.1617609" lon="10.7863345"><ele>19.5</ele><time>2026-04-26T05:52:09.422Z</time></trkpt><trkpt lat="45.16183" lon="10.7863933"><ele>19.333333333333332</ele><time>2026-04-26T05:52:11.422Z</time></trkpt><trkpt lat="45.1618953" lon="10.786437"><ele>19.166666666666664</ele><time>2026-04-26T05:52:13.423Z</time></trkpt><trkpt lat="45.1619638" lon="10.7864933"><ele>19.0</ele><time>2026-04-26T05:52:15.422Z</time></trkpt><trkpt lat="45.1620282" lon="10.7865614"><ele>19.0</ele><time>2026-04-26T05:52:17.423Z</time></trkpt><trkpt lat="45.1620914" lon="10.7866268"><ele>19.0</ele><time>2026-04-26T05:52:19.423Z</time></trkpt><trkpt lat="45.162145" lon="10.7867099"><ele>19.0</ele><time>2026-04-26T05:52:21.423Z</time></trkpt><trkpt lat="45.1622003" lon="10.7867966"><ele>19.0</ele><time>2026-04-26T05:52:23.422Z</time></trkpt><trkpt lat="45.1622443" lon="10.7868779"><ele>19.0</ele><time>2026-04-26T05:52:25.422Z</time></trkpt><trkpt lat="45.1622836" lon="10.7869694"><ele>19.0</ele><time>2026-04-26T05:52:27.421Z</time></trkpt><trkpt lat="45.1623293" lon="10.7870525"><ele>19.285714285714285</ele><time>2026-04-26T05:52:29.421Z</time></trkpt><trkpt lat="45.1623823" lon="10.7871238"><ele>19.571428571428573</ele><time>2026-04-26T05:52:31.422Z</time></trkpt><trkpt lat="45.1624331" lon="10.7871983"><ele>19.857142857142858</ele><time>2026-04-26T05:52:33.422Z</time></trkpt><trkpt lat="45.1624827" lon="10.7872727"><ele>20.142857142857142</ele><time>2026-04-26T05:52:35.423Z</time></trkpt><trkpt lat="45.1625305" lon="10.7873444"><ele>20.42857142857143</ele><time>2026-04-26T05:52:37.422Z</time></trkpt><trkpt lat="45.1625826" lon="10.787411"><ele>20.714285714285715</ele><time>2026-04-26T05:52:39.422Z</time></trkpt><trkpt lat="45.162636" lon="10.7874865"><ele>21.0</ele><time>2026-04-26T05:52:41.423Z</time></trkpt><trkpt lat="45.1626861" lon="10.7875552"><ele>21.0</ele><time>2026-04-26T05:52:43.422Z</time></trkpt><trkpt lat="45.1627349" lon="10.7876194"><ele>21.0</ele><time>2026-04-26T05:52:45.421Z</time></trkpt><trkpt lat="45.1628168" lon="10.7876721"><ele>21.0</ele><time>2026-04-26T05:52:48.422Z</time></trkpt><trkpt lat="45.1628921" lon="10.7876949"><ele>21.0</ele><time>2026-04-26T05:52:50.423Z</time></trkpt><trkpt lat="45.1629694" lon="10.7877192"><ele>21.0</ele><time>2026-04-26T05:52:52.421Z</time></trkpt><trkpt lat="45.1630369" lon="10.7877479"><ele>21.0</ele><time>2026-04-26T05:52:54.422Z</time></trkpt><trkpt lat="45.1631058" lon="10.7877765"><ele>21.0</ele><time>2026-04-26T05:52:56.423Z</time></trkpt><trkpt lat="45.1631728" lon="10.7878036"><ele>21.0</ele><time>2026-04-26T05:52:58.422Z</time></trkpt><trkpt lat="45.1632414" lon="10.7878308"><ele>21.0</ele><time>2026-04-26T05:53:00.421Z</time></trkpt><trkpt lat="45.1633109" lon="10.7878547"><ele>21.0</ele><time>2026-04-26T05:53:02.422Z</time></trkpt><trkpt lat="45.1633805" lon="10.7878662"><ele>21.0</ele><time>2026-04-26T05:53:04.423Z</time></trkpt><trkpt lat="45.1634506" lon="10.7878753"><ele>21.0</ele><time>2026-04-26T05:53:06.422Z</time></trkpt><trkpt lat="45.1635212" lon="10.7878771"><ele>21.0</ele><time>2026-04-26T05:53:08.423Z</time></trkpt><trkpt lat="45.1635888" lon="10.7878811"><ele>21.166666666666668</ele><time>2026-04-26T05:53:10.422Z</time></trkpt><trkpt lat="45.1636524" lon="10.7878847"><ele>21.333333333333332</ele><time>2026-04-26T05:53:12.422Z</time></trkpt><trkpt lat="45.163727" lon="10.7878993"><ele>21.5</ele><time>2026-04-26T05:53:14.423Z</time></trkpt><trkpt lat="45.1637946" lon="10.7879116"><ele>21.666666666666664</ele><time>2026-04-26T05:53:16.422Z</time></trkpt><trkpt lat="45.1638908" lon="10.7879209"><ele>21.833333333333332</ele><time>2026-04-26T05:53:19.421Z</time></trkpt><trkpt lat="45.1639594" lon="10.7879271"><ele>22.0</ele><time>2026-04-26T05:53:21.422Z</time></trkpt><trkpt lat="45.1640525" lon="10.7879432"><ele>21.5</ele><time>2026-04-26T05:53:24.421Z</time></trkpt><trkpt lat="45.1641427" lon="10.7879578"><ele>21.0</ele><time>2026-04-26T05:53:27.421Z</time></trkpt><trkpt lat="45.1642077" lon="10.7879592"><ele>20.5</ele><time>2026-04-26T05:53:29.422Z</time></trkpt><trkpt lat="45.1642764" lon="10.7879689"><ele>20.0</ele><time>2026-04-26T05:53:31.423Z</time></trkpt><trkpt lat="45.1643433" lon="10.7879797"><ele>19.5</ele><time>2026-04-26T05:53:33.422Z</time></trkpt><trkpt lat="45.164432" lon="10.7880097"><ele>19.0</ele><time>2026-04-26T05:53:36.421Z</time></trkpt><trkpt lat="45.1645199" lon="10.7880175"><ele>19.0</ele><time>2026-04-26T05:53:39.423Z</time></trkpt><trkpt lat="45.1646124" lon="10.7880087"><ele>19.0</ele><time>2026-04-26T05:53:42.423Z</time></trkpt><trkpt lat="45.1647018" lon="10.7879848"><ele>19.0</ele><time>2026-04-26T05:53:45.421Z</time></trkpt><trkpt lat="45.1647681" lon="10.7879756"><ele>19.0</ele><time>2026-04-26T05:53:47.422Z</time></trkpt><trkpt lat="45.1648346" lon="10.7879724"><ele>19.0</ele><time>2026-04-26T05:53:49.422Z</time></trkpt><trkpt lat="45.1649031" lon="10.7879827"><ele>19.0</ele><time>2026-04-26T05:53:51.422Z</time></trkpt><trkpt lat="45.1649637" lon="10.788013"><ele>18.428571428571427</ele><time>2026-04-26T05:53:53.421Z</time></trkpt><trkpt lat="45.1650252" lon="10.7880473"><ele>17.857142857142858</ele><time>2026-04-26T05:53:55.421Z</time></trkpt><trkpt lat="45.165101" lon="10.7880343"><ele>17.285714285714285</ele><time>2026-04-26T05:53:57.423Z</time></trkpt><trkpt lat="45.1651736" lon="10.7880199"><ele>16.714285714285715</ele><time>2026-04-26T05:53:59.422Z</time></trkpt><trkpt lat="45.1652457" lon="10.7880161"><ele>16.142857142857142</ele><time>2026-04-26T05:54:01.421Z</time></trkpt><trkpt lat="45.1653157" lon="10.7880081"><ele>15.571428571428573</ele><time>2026-04-26T05:54:03.421Z</time></trkpt><trkpt lat="45.1653956" lon="10.7879947"><ele>15.0</ele><time>2026-04-26T05:54:05.422Z</time></trkpt><trkpt lat="45.1654688" lon="10.7879835"><ele>15.0</ele><time>2026-04-26T05:54:07.422Z</time></trkpt><trkpt lat="45.1655485" lon="10.7879652"><ele>15.0</ele><time>2026-04-26T05:54:09.422Z</time></trkpt><trkpt lat="45.1656251" lon="10.7879553"><ele>15.0</ele><time>2026-04-26T05:54:11.422Z</time></trkpt><trkpt lat="45.1657025" lon="10.7879399"><ele>15.0</ele><time>2026-04-26T05:54:13.42Z</time></trkpt><trkpt lat="45.1657771" lon="10.7879205"><ele>15.0</ele><time>2026-04-26T05:54:15.422Z</time></trkpt><trkpt lat="45.1658513" lon="10.7879104"><ele>15.0</ele><time>2026-04-26T05:54:17.422Z</time></trkpt><trkpt lat="45.1659182" lon="10.7879085"><ele>15.0</ele><time>2026-04-26T05:54:19.423Z</time></trkpt><trkpt lat="45.1659882" lon="10.7878952"><ele>15.0</ele><time>2026-04-26T05:54:21.421Z</time></trkpt><trkpt lat="45.1660552" lon="10.7878577"><ele>15.0</ele><time>2026-04-26T05:54:23.421Z</time></trkpt><trkpt lat="45.1661179" lon="10.7878121"><ele>15.0</ele><time>2026-04-26T05:54:25.422Z</time></trkpt><trkpt lat="45.1661853" lon="10.7877806"><ele>15.0</ele><time>2026-04-26T05:54:27.422Z</time></trkpt><trkpt lat="45.1662539" lon="10.787761"><ele>15.0</ele><time>2026-04-26T05:54:29.423Z</time></trkpt><trkpt lat="45.1663228" lon="10.7877482"><ele>15.0</ele><time>2026-04-26T05:54:31.421Z</time></trkpt><trkpt lat="45.1663904" lon="10.7877293"><ele>15.0</ele><time>2026-04-26T05:54:33.422Z</time></trkpt><trkpt lat="45.1664598" lon="10.7877142"><ele>15.0</ele><time>2026-04-26T05:54:35.422Z</time></trkpt><trkpt lat="45.1665347" lon="10.7877017"><ele>15.0</ele><time>2026-04-26T05:54:37.422Z</time></trkpt><trkpt lat="45.1666126" lon="10.787689"><ele>15.0</ele><time>2026-04-26T05:54:39.421Z</time></trkpt><trkpt lat="45.1666869" lon="10.7876696"><ele>15.0</ele><time>2026-04-26T05:54:41.421Z</time></trkpt><trkpt lat="45.166763" lon="10.7876493"><ele>15.0</ele><time>2026-04-26T05:54:43.421Z</time></trkpt><trkpt lat="45.1668367" lon="10.7876291"><ele>15.0</ele><time>2026-04-26T05:54:45.42Z</time></trkpt><trkpt lat="45.1669105" lon="10.7876094"><ele>15.0</ele><time>2026-04-26T05:54:47.421Z</time></trkpt><trkpt lat="45.1669839" lon="10.7875909"><ele>15.0</ele><time>2026-04-26T05:54:49.422Z</time></trkpt><trkpt lat="45.167058" lon="10.7875783"><ele>15.0</ele><time>2026-04-26T05:54:51.421Z</time></trkpt><trkpt lat="45.1671312" lon="10.7875598"><ele>15.0</ele><time>2026-04-26T05:54:53.422Z</time></trkpt><trkpt lat="45.1672024" lon="10.7875443"><ele>15.0</ele><time>2026-04-26T05:54:55.422Z</time></trkpt><trkpt lat="45.1672768" lon="10.7875186"><ele>15.0</ele><time>2026-04-26T05:54:57.421Z</time></trkpt><trkpt lat="45.1673517" lon="10.7874918"><ele>15.0</ele><time>2026-04-26T05:54:59.421Z</time></trkpt><trkpt lat="45.1674244" lon="10.7874754"><ele>15.0</ele><time>2026-04-26T05:55:01.421Z</time></trkpt><trkpt lat="45.1674982" lon="10.7874536"><ele>15.0</ele><time>2026-04-26T05:55:03.422Z</time></trkpt><trkpt lat="45.1675633" lon="10.7874391"><ele>15.0</ele><time>2026-04-26T05:55:05.421Z</time></trkpt><trkpt lat="45.1676321" lon="10.7874279"><ele>15.0</ele><time>2026-04-26T05:55:07.421Z</time></trkpt><trkpt lat="45.1677082" lon="10.7874156"><ele>15.0</ele><time>2026-04-26T05:55:09.421Z</time></trkpt><trkpt lat="45.1677812" lon="10.7874162"><ele>15.0</ele><time>2026-04-26T05:55:11.422Z</time></trkpt><trkpt lat="45.1678525" lon="10.7874189"><ele>15.0</ele><time>2026-04-26T05:55:13.422Z</time></trkpt><trkpt lat="45.1679167" lon="10.7874225"><ele>15.0</ele><time>2026-04-26T05:55:15.421Z</time></trkpt><trkpt lat="45.1680053" lon="10.7874053"><ele>15.0</ele><time>2026-04-26T05:55:18.42Z</time></trkpt><trkpt lat="45.1680739" lon="10.787384"><ele>15.0</ele><time>2026-04-26T05:55:20.421Z</time></trkpt><trkpt lat="45.1681549" lon="10.7873757"><ele>15.0</ele><time>2026-04-26T05:55:22.421Z</time></trkpt><trkpt lat="45.1682489" lon="10.7873672"><ele>15.0</ele><time>2026-04-26T05:55:24.421Z</time></trkpt><trkpt lat="45.1683407" lon="10.7873413"><ele>15.0</ele><time>2026-04-26T05:55:26.422Z</time></trkpt><trkpt lat="45.1684329" lon="10.7873138"><ele>15.0</ele><time>2026-04-26T05:55:28.422Z</time></trkpt><trkpt lat="45.1685264" lon="10.7873027"><ele>15.0</ele><time>2026-04-26T05:55:30.422Z</time></trkpt><trkpt lat="45.1686256" lon="10.787291"><ele>15.0</ele><time>2026-04-26T05:55:32.422Z</time></trkpt><trkpt lat="45.1687133" lon="10.7872797"><ele>15.0</ele><time>2026-04-26T05:55:34.42Z</time></trkpt><trkpt lat="45.1687931" lon="10.7872648"><ele>15.0</ele><time>2026-04-26T05:55:36.421Z</time></trkpt><trkpt lat="45.1688788" lon="10.7872681"><ele>15.0</ele><time>2026-04-26T05:55:38.422Z</time></trkpt><trkpt lat="45.1689604" lon="10.7872562"><ele>15.0</ele><time>2026-04-26T05:55:40.421Z</time></trkpt><trkpt lat="45.1690386" lon="10.7872438"><ele>15.0</ele><time>2026-04-26T05:55:42.422Z</time></trkpt><trkpt lat="45.169109" lon="10.7872155"><ele>15.0</ele><time>2026-04-26T05:55:44.421Z</time></trkpt><trkpt lat="45.1691732" lon="10.7871833"><ele>15.0</ele><time>2026-04-26T05:55:46.421Z</time></trkpt><trkpt lat="45.1692469" lon="10.7871618"><ele>15.0</ele><time>2026-04-26T05:55:48.421Z</time></trkpt><trkpt lat="45.1693237" lon="10.7871367"><ele>15.0</ele><time>2026-04-26T05:55:50.422Z</time></trkpt><trkpt lat="45.1693996" lon="10.7871208"><ele>15.0</ele><time>2026-04-26T05:55:52.422Z</time></trkpt><trkpt lat="45.1694736" lon="10.7870893"><ele>15.0</ele><time>2026-04-26T05:55:54.421Z</time></trkpt><trkpt lat="45.1695478" lon="10.7870547"><ele>15.0</ele><time>2026-04-26T05:55:56.42Z</time></trkpt><trkpt lat="45.1696239" lon="10.7870237"><ele>15.0</ele><time>2026-04-26T05:55:58.422Z</time></trkpt><trkpt lat="45.1696997" lon="10.7869908"><ele>15.0</ele><time>2026-04-26T05:56:00.422Z</time></trkpt><trkpt lat="45.1697749" lon="10.7869627"><ele>15.0</ele><time>2026-04-26T05:56:02.421Z</time></trkpt><trkpt lat="45.1698484" lon="10.78694"><ele>15.0</ele><time>2026-04-26T05:56:04.422Z</time></trkpt><trkpt lat="45.1699232" lon="10.7869185"><ele>15.0</ele><time>2026-04-26T05:56:06.422Z</time></trkpt><trkpt lat="45.1699967" lon="10.7868959"><ele>15.0</ele><time>2026-04-26T05:56:08.42Z</time></trkpt><trkpt lat="45.1700732" lon="10.7868674"><ele>15.0</ele><time>2026-04-26T05:56:10.421Z</time></trkpt><trkpt lat="45.1701456" lon="10.7868422"><ele>15.166666666666666</ele><time>2026-04-26T05:56:12.421Z</time></trkpt><trkpt lat="45.1702132" lon="10.7868162"><ele>15.333333333333332</ele><time>2026-04-26T05:56:14.421Z</time></trkpt><trkpt lat="45.1702777" lon="10.7867957"><ele>15.5</ele><time>2026-04-26T05:56:16.422Z</time></trkpt><trkpt lat="45.1703688" lon="10.7867601"><ele>15.666666666666666</ele><time>2026-04-26T05:56:19.42Z</time></trkpt><trkpt lat="45.1704626" lon="10.7867289"><ele>15.833333333333332</ele><time>2026-04-26T05:56:22.421Z</time></trkpt><trkpt lat="45.1705329" lon="10.786705"><ele>16.0</ele><time>2026-04-26T05:56:24.421Z</time></trkpt><trkpt lat="45.1706056" lon="10.7866855"><ele>15.999999999999998</ele><time>2026-04-26T05:56:26.422Z</time></trkpt><trkpt lat="45.1706802" lon="10.7866568"><ele>16.0</ele><time>2026-04-26T05:56:28.421Z</time></trkpt><trkpt lat="45.1707621" lon="10.7866465"><ele>16.0</ele><time>2026-04-26T05:56:30.422Z</time></trkpt><trkpt lat="45.1708453" lon="10.786674"><ele>16.0</ele><time>2026-04-26T05:56:32.422Z</time></trkpt><trkpt lat="45.1709115" lon="10.7866667"><ele>15.999999999999998</ele><time>2026-04-26T05:56:34.422Z</time></trkpt><trkpt lat="45.171003" lon="10.7866465"><ele>16.0</ele><time>2026-04-26T05:56:37.421Z</time></trkpt><trkpt lat="45.171067" lon="10.786632"><ele>16.428571428571427</ele><time>2026-04-26T05:56:39.421Z</time></trkpt><trkpt lat="45.1711323" lon="10.7866033"><ele>16.857142857142854</ele><time>2026-04-26T05:56:41.419Z</time></trkpt><trkpt lat="45.1711829" lon="10.7865448"><ele>17.285714285714285</ele><time>2026-04-26T05:56:43.421Z</time></trkpt><trkpt lat="45.1712211" lon="10.7864649"><ele>17.714285714285715</ele><time>2026-04-26T05:56:45.422Z</time></trkpt><trkpt lat="45.1712195" lon="10.7863515"><ele>18.142857142857146</ele><time>2026-04-26T05:56:47.422Z</time></trkpt><trkpt lat="45.171208" lon="10.7862315"><ele>18.57142857142857</ele><time>2026-04-26T05:56:49.421Z</time></trkpt><trkpt lat="45.1712096" lon="10.7861197"><ele>19.0</ele><time>2026-04-26T05:56:51.421Z</time></trkpt><trkpt lat="45.171205" lon="10.786015"><ele>19.0</ele><time>2026-04-26T05:56:53.421Z</time></trkpt><trkpt lat="45.1712" lon="10.7859144"><ele>19.0</ele><time>2026-04-26T05:56:55.421Z</time></trkpt><trkpt lat="45.1711942" lon="10.7858106"><ele>19.0</ele><time>2026-04-26T05:56:57.421Z</time></trkpt><trkpt lat="45.1711911" lon="10.7857049"><ele>19.0</ele><time>2026-04-26T05:56:59.421Z</time></trkpt><trkpt lat="45.1711892" lon="10.785606"><ele>19.0</ele><time>2026-04-26T05:57:01.42Z</time></trkpt><trkpt lat="45.1711913" lon="10.785502"><ele>19.0</ele><time>2026-04-26T05:57:03.42Z</time></trkpt><trkpt lat="45.1711944" lon="10.7854016"><ele>19.0</ele><time>2026-04-26T05:57:05.421Z</time></trkpt><trkpt lat="45.1711854" lon="10.7853101"><ele>19.0</ele><time>2026-04-26T05:57:07.42Z</time></trkpt><trkpt lat="45.1711809" lon="10.7852141"><ele>19.0</ele><time>2026-04-26T05:57:09.421Z</time></trkpt><trkpt lat="45.1712206" lon="10.7851152"><ele>19.0</ele><time>2026-04-26T05:57:12.42Z</time></trkpt><trkpt lat="45.1712887" lon="10.7851103"><ele>19.0</ele><time>2026-04-26T05:57:14.42Z</time></trkpt><trkpt lat="45.1713608" lon="10.7851057"><ele>19.0</ele><time>2026-04-26T05:57:16.421Z</time></trkpt><trkpt lat="45.1714317" lon="10.7851037"><ele>19.0</ele><time>2026-04-26T05:57:18.421Z</time></trkpt><trkpt lat="45.1715017" lon="10.7850981"><ele>19.0</ele><time>2026-04-26T05:57:20.42Z</time></trkpt><trkpt lat="45.1715647" lon="10.7850772"><ele>19.142857142857142</ele><time>2026-04-26T05:57:22.421Z</time></trkpt><trkpt lat="45.1716213" lon="10.7850372"><ele>19.28571428571429</ele><time>2026-04-26T05:57:24.421Z</time></trkpt><trkpt lat="45.1716859" lon="10.7850192"><ele>19.42857142857143</ele><time>2026-04-26T05:57:26.42Z</time></trkpt><trkpt lat="45.1717532" lon="10.7850149"><ele>19.57142857142857</ele><time>2026-04-26T05:57:28.423Z</time></trkpt><trkpt lat="45.1718459" lon="10.7849877"><ele>19.714285714285715</ele><time>2026-04-26T05:57:31.42Z</time></trkpt><trkpt lat="45.1719169" lon="10.7849767"><ele>19.857142857142858</ele><time>2026-04-26T05:57:33.421Z</time></trkpt><trkpt lat="45.1719912" lon="10.7849641"><ele>20.0</ele><time>2026-04-26T05:57:35.42Z</time></trkpt><trkpt lat="45.1720695" lon="10.7849474"><ele>20.0</ele><time>2026-04-26T05:57:37.422Z</time></trkpt><trkpt lat="45.1721438" lon="10.7849354"><ele>20.0</ele><time>2026-04-26T05:57:39.421Z</time></trkpt><trkpt lat="45.1722145" lon="10.7849237"><ele>20.0</ele><time>2026-04-26T05:57:41.42Z</time></trkpt><trkpt lat="45.1722885" lon="10.7849082"><ele>20.0</ele><time>2026-04-26T05:57:43.42Z</time></trkpt><trkpt lat="45.1723636" lon="10.7848989"><ele>20.0</ele><time>2026-04-26T05:57:45.42Z</time></trkpt><trkpt lat="45.1724434" lon="10.784893"><ele>20.0</ele><time>2026-04-26T05:57:47.421Z</time></trkpt><trkpt lat="45.1725268" lon="10.7848923"><ele>20.166666666666668</ele><time>2026-04-26T05:57:49.421Z</time></trkpt><trkpt lat="45.1726124" lon="10.7848875"><ele>20.333333333333336</ele><time>2026-04-26T05:57:51.421Z</time></trkpt><trkpt lat="45.1726952" lon="10.7848746"><ele>20.5</ele><time>2026-04-26T05:57:53.42Z</time></trkpt><trkpt lat="45.1727766" lon="10.7848671"><ele>20.666666666666668</ele><time>2026-04-26T05:57:55.42Z</time></trkpt><trkpt lat="45.1728538" lon="10.7848601"><ele>20.833333333333332</ele><time>2026-04-26T05:57:57.421Z</time></trkpt><trkpt lat="45.1729333" lon="10.7848595"><ele>21.0</ele><time>2026-04-26T05:57:59.42Z</time></trkpt><trkpt lat="45.1730156" lon="10.7848547"><ele>21.0</ele><time>2026-04-26T05:58:01.42Z</time></trkpt><trkpt lat="45.1731007" lon="10.7848496"><ele>21.0</ele><time>2026-04-26T05:58:03.421Z</time></trkpt><trkpt lat="45.1731744" lon="10.7848081"><ele>21.0</ele><time>2026-04-26T05:58:05.421Z</time></trkpt><trkpt lat="45.1732169" lon="10.7847296"><ele>21.0</ele><time>2026-04-26T05:58:07.42Z</time></trkpt><trkpt lat="45.1732077" lon="10.7846342"><ele>21.0</ele><time>2026-04-26T05:58:09.421Z</time></trkpt><trkpt lat="45.1731893" lon="10.7845365"><ele>21.0</ele><time>2026-04-26T05:58:11.421Z</time></trkpt><trkpt lat="45.1731589" lon="10.7844469"><ele>21.0</ele><time>2026-04-26T05:58:13.42Z</time></trkpt><trkpt lat="45.1731174" lon="10.7843598"><ele>20.833333333333332</ele><time>2026-04-26T05:58:15.422Z</time></trkpt><trkpt lat="45.1730807" lon="10.7842673"><ele>20.666666666666668</ele><time>2026-04-26T05:58:17.421Z</time></trkpt><trkpt lat="45.1730505" lon="10.7841762"><ele>20.5</ele><time>2026-04-26T05:58:19.421Z</time></trkpt><trkpt lat="45.1730244" lon="10.7840745"><ele>20.333333333333336</ele><time>2026-04-26T05:58:21.42Z</time></trkpt><trkpt lat="45.1729923" lon="10.7839733"><ele>20.166666666666668</ele><time>2026-04-26T05:58:23.42Z</time></trkpt><trkpt lat="45.1729565" lon="10.7838734"><ele>20.0</ele><time>2026-04-26T05:58:25.42Z</time></trkpt><trkpt lat="45.1729212" lon="10.7837748"><ele>20.0</ele><time>2026-04-26T05:58:27.421Z</time></trkpt><trkpt lat="45.172887" lon="10.7836705"><ele>20.0</ele><time>2026-04-26T05:58:29.421Z</time></trkpt><trkpt lat="45.1728504" lon="10.7835588"><ele>20.0</ele><time>2026-04-26T05:58:31.42Z</time></trkpt><trkpt lat="45.1728108" lon="10.7834511"><ele>20.0</ele><time>2026-04-26T05:58:33.42Z</time></trkpt><trkpt lat="45.1727633" lon="10.7833521"><ele>20.0</ele><time>2026-04-26T05:58:35.421Z</time></trkpt><trkpt lat="45.1727307" lon="10.7832438"><ele>20.0</ele><time>2026-04-26T05:58:37.42Z</time></trkpt><trkpt lat="45.1727176" lon="10.7831336"><ele>19.833333333333336</ele><time>2026-04-26T05:58:39.42Z</time></trkpt><trkpt lat="45.1726872" lon="10.7830398"><ele>19.666666666666668</ele><time>2026-04-26T05:58:41.42Z</time></trkpt><trkpt lat="45.1726598" lon="10.7829557"><ele>19.5</ele><time>2026-04-26T05:58:43.421Z</time></trkpt><trkpt lat="45.1726997" lon="10.7828823"><ele>19.333333333333332</ele><time>2026-04-26T05:58:45.42Z</time></trkpt><trkpt lat="45.1728046" lon="10.7828423"><ele>19.166666666666664</ele><time>2026-04-26T05:58:47.42Z</time></trkpt><trkpt lat="45.1729006" lon="10.7828122"><ele>19.0</ele><time>2026-04-26T05:58:49.421Z</time></trkpt><trkpt lat="45.1729807" lon="10.7827746"><ele>19.0</ele><time>2026-04-26T05:58:51.421Z</time></trkpt><trkpt lat="45.1730743" lon="10.7827422"><ele>19.0</ele><time>2026-04-26T05:58:54.421Z</time></trkpt><trkpt lat="45.1731444" lon="10.7827087"><ele>19.0</ele><time>2026-04-26T05:58:56.421Z</time></trkpt><trkpt lat="45.1732162" lon="10.7826795"><ele>19.0</ele><time>2026-04-26T05:58:58.421Z</time></trkpt><trkpt lat="45.1732873" lon="10.782646"><ele>19.0</ele><time>2026-04-26T05:59:00.421Z</time></trkpt><trkpt lat="45.1733595" lon="10.7826149"><ele>19.0</ele><time>2026-04-26T05:59:02.421Z</time></trkpt><trkpt lat="45.1734309" lon="10.7825841"><ele>18.857142857142858</ele><time>2026-04-26T05:59:04.42Z</time></trkpt><trkpt lat="45.1735029" lon="10.7825712"><ele>18.714285714285715</ele><time>2026-04-26T05:59:06.421Z</time></trkpt><trkpt lat="45.1735776" lon="10.7825823"><ele>18.571428571428573</ele><time>2026-04-26T05:59:08.42Z</time></trkpt><trkpt lat="45.173646" lon="10.782621"><ele>18.42857142857143</ele><time>2026-04-26T05:59:10.421Z</time></trkpt><trkpt lat="45.1736961" lon="10.7826948"><ele>18.285714285714285</ele><time>2026-04-26T05:59:12.421Z</time></trkpt><trkpt lat="45.1737262" lon="10.782782"><ele>18.142857142857146</ele><time>2026-04-26T05:59:14.42Z</time></trkpt><trkpt lat="45.1737391" lon="10.78287"><ele>18.0</ele><time>2026-04-26T05:59:16.42Z</time></trkpt><trkpt lat="45.173754" lon="10.782973"><ele>18.333333333333332</ele><time>2026-04-26T05:59:18.42Z</time></trkpt><trkpt lat="45.1737723" lon="10.7830833"><ele>18.666666666666668</ele><time>2026-04-26T05:59:20.421Z</time></trkpt><trkpt lat="45.1737911" lon="10.7831997"><ele>19.0</ele><time>2026-04-26T05:59:22.421Z</time></trkpt><trkpt lat="45.1738142" lon="10.7833164"><ele>19.333333333333336</ele><time>2026-04-26T05:59:24.421Z</time></trkpt><trkpt lat="45.173845" lon="10.7834234"><ele>19.666666666666668</ele><time>2026-04-26T05:59:26.42Z</time></trkpt><trkpt lat="45.173877" lon="10.7835183"><ele>20.0</ele><time>2026-04-26T05:59:28.42Z</time></trkpt><trkpt lat="45.1739192" lon="10.7836114"><ele>20.0</ele><time>2026-04-26T05:59:30.42Z</time></trkpt><trkpt lat="45.1739758" lon="10.783678"><ele>20.0</ele><time>2026-04-26T05:59:32.421Z</time></trkpt><trkpt lat="45.1740335" lon="10.7837299"><ele>20.0</ele><time>2026-04-26T05:59:34.421Z</time></trkpt><trkpt lat="45.1740607" lon="10.7838134"><ele>20.0</ele><time>2026-04-26T05:59:36.421Z</time></trkpt><trkpt lat="45.1740868" lon="10.783913"><ele>20.0</ele><time>2026-04-26T05:59:38.42Z</time></trkpt><trkpt lat="45.1741085" lon="10.7840191"><ele>20.0</ele><time>2026-04-26T05:59:40.421Z</time></trkpt><trkpt lat="45.1741303" lon="10.7841281"><ele>20.0</ele><time>2026-04-26T05:59:42.421Z</time></trkpt><trkpt lat="45.1741516" lon="10.7842412"><ele>19.833333333333336</ele><time>2026-04-26T05:59:44.419Z</time></trkpt><trkpt lat="45.1741811" lon="10.7843539"><ele>19.666666666666668</ele><time>2026-04-26T05:59:46.42Z</time></trkpt><trkpt lat="45.1742124" lon="10.7844685"><ele>19.5</ele><time>2026-04-26T05:59:48.419Z</time></trkpt><trkpt lat="45.1742451" lon="10.7845787"><ele>19.333333333333332</ele><time>2026-04-26T05:59:50.421Z</time></trkpt><trkpt lat="45.174291" lon="10.7846808"><ele>19.166666666666664</ele><time>2026-04-26T05:59:52.42Z</time></trkpt><trkpt lat="45.1743396" lon="10.7847738"><ele>19.0</ele><time>2026-04-26T05:59:54.418Z</time></trkpt><trkpt lat="45.1743888" lon="10.784863"><ele>19.0</ele><time>2026-04-26T05:59:56.421Z</time></trkpt><trkpt lat="45.1744424" lon="10.7849505"><ele>19.0</ele><time>2026-04-26T05:59:58.42Z</time></trkpt><trkpt lat="45.1745008" lon="10.7850292"><ele>19.0</ele><time>2026-04-26T06:00:00.42Z</time></trkpt><trkpt lat="45.1745557" lon="10.7851032"><ele>19.0</ele><time>2026-04-26T06:00:02.42Z</time></trkpt><trkpt lat="45.1746117" lon="10.7851754"><ele>19.0</ele><time>2026-04-26T06:00:04.421Z</time></trkpt><trkpt lat="45.1746775" lon="10.7852372"><ele>19.0</ele><time>2026-04-26T06:00:06.421Z</time></trkpt><trkpt lat="45.1747503" lon="10.7852828"><ele>19.0</ele><time>2026-04-26T06:00:08.42Z</time></trkpt><trkpt lat="45.1748253" lon="10.7853074"><ele>19.0</ele><time>2026-04-26T06:00:10.421Z</time></trkpt><trkpt lat="45.1748941" lon="10.7853194"><ele>19.0</ele><time>2026-04-26T06:00:12.42Z</time></trkpt><trkpt lat="45.1749585" lon="10.7853058"><ele>19.0</ele><time>2026-04-26T06:00:14.421Z</time></trkpt><trkpt lat="45.1750252" lon="10.7852798"><ele>19.0</ele><time>2026-04-26T06:00:16.42Z</time></trkpt><trkpt lat="45.1750954" lon="10.7852407"><ele>19.0</ele><time>2026-04-26T06:00:18.42Z</time></trkpt><trkpt lat="45.1751659" lon="10.7852018"><ele>19.0</ele><time>2026-04-26T06:00:20.42Z</time></trkpt><trkpt lat="45.1752434" lon="10.7851753"><ele>18.833333333333332</ele><time>2026-04-26T06:00:22.421Z</time></trkpt><trkpt lat="45.1753237" lon="10.7851538"><ele>18.666666666666664</ele><time>2026-04-26T06:00:24.419Z</time></trkpt><trkpt lat="45.1754007" lon="10.7851374"><ele>18.5</ele><time>2026-04-26T06:00:26.419Z</time></trkpt><trkpt lat="45.1754759" lon="10.7851254"><ele>18.333333333333332</ele><time>2026-04-26T06:00:28.419Z</time></trkpt><trkpt lat="45.1755521" lon="10.7851091"><ele>18.166666666666668</ele><time>2026-04-26T06:00:30.42Z</time></trkpt><trkpt lat="45.1756199" lon="10.7850841"><ele>18.0</ele><time>2026-04-26T06:00:32.42Z</time></trkpt><trkpt lat="45.1757125" lon="10.7850586"><ele>18.0</ele><time>2026-04-26T06:00:35.42Z</time></trkpt><trkpt lat="45.1757908" lon="10.7850356"><ele>18.0</ele><time>2026-04-26T06:00:37.421Z</time></trkpt><trkpt lat="45.1758676" lon="10.7850076"><ele>18.0</ele><time>2026-04-26T06:00:39.421Z</time></trkpt><trkpt lat="45.1759379" lon="10.7849766"><ele>18.0</ele><time>2026-04-26T06:00:41.421Z</time></trkpt><trkpt lat="45.1760113" lon="10.7849483"><ele>18.0</ele><time>2026-04-26T06:00:43.421Z</time></trkpt><trkpt lat="45.1760898" lon="10.7849072"><ele>18.0</ele><time>2026-04-26T06:00:45.421Z</time></trkpt><trkpt lat="45.1761687" lon="10.7848703"><ele>18.000000000000004</ele><time>2026-04-26T06:00:47.421Z</time></trkpt><trkpt lat="45.1762336" lon="10.7848451"><ele>18.0</ele><time>2026-04-26T06:00:49.42Z</time></trkpt><trkpt lat="45.1762956" lon="10.7848224"><ele>18.0</ele><time>2026-04-26T06:00:52.421Z</time></trkpt><trkpt lat="45.1763668" lon="10.7847844"><ele>18.0</ele><time>2026-04-26T06:00:55.421Z</time></trkpt><trkpt lat="45.1764303" lon="10.7847465"><ele>18.0</ele><time>2026-04-26T06:00:58.419Z</time></trkpt><trkpt lat="45.1765093" lon="10.7846711"><ele>18.000000000000004</ele><time>2026-04-26T06:01:01.42Z</time></trkpt><trkpt lat="45.1765635" lon="10.7846031"><ele>18.0</ele><time>2026-04-26T06:01:03.419Z</time></trkpt><trkpt lat="45.1766145" lon="10.7845364"><ele>18.166666666666668</ele><time>2026-04-26T06:01:05.419Z</time></trkpt><trkpt lat="45.1766777" lon="10.7844592"><ele>18.333333333333332</ele><time>2026-04-26T06:01:07.421Z</time></trkpt><trkpt lat="45.1767481" lon="10.7844094"><ele>18.5</ele><time>2026-04-26T06:01:09.42Z</time></trkpt><trkpt lat="45.176807" lon="10.7843701"><ele>18.666666666666664</ele><time>2026-04-26T06:01:11.419Z</time></trkpt><trkpt lat="45.1769016" lon="10.7843389"><ele>18.833333333333332</ele><time>2026-04-26T06:01:14.42Z</time></trkpt><trkpt lat="45.1769707" lon="10.7842939"><ele>19.0</ele><time>2026-04-26T06:01:16.419Z</time></trkpt><trkpt lat="45.1770424" lon="10.7842444"><ele>19.0</ele><time>2026-04-26T06:01:18.419Z</time></trkpt><trkpt lat="45.1771077" lon="10.7841987"><ele>19.0</ele><time>2026-04-26T06:01:20.42Z</time></trkpt><trkpt lat="45.1771783" lon="10.7841589"><ele>19.0</ele><time>2026-04-26T06:01:22.421Z</time></trkpt><trkpt lat="45.1772463" lon="10.7841196"><ele>19.0</ele><time>2026-04-26T06:01:24.421Z</time></trkpt><trkpt lat="45.1772873" lon="10.7840388"><ele>19.0</ele><time>2026-04-26T06:01:26.42Z</time></trkpt><trkpt lat="45.1773361" lon="10.7839518"><ele>19.0</ele><time>2026-04-26T06:01:28.42Z</time></trkpt><trkpt lat="45.1774098" lon="10.7838419"><ele>19.0</ele><time>2026-04-26T06:01:30.421Z</time></trkpt><trkpt lat="45.1774958" lon="10.7837563"><ele>19.0</ele><time>2026-04-26T06:01:32.421Z</time></trkpt><trkpt lat="45.1775719" lon="10.7836664"><ele>19.0</ele><time>2026-04-26T06:01:34.42Z</time></trkpt><trkpt lat="45.1776431" lon="10.7835791"><ele>19.0</ele><time>2026-04-26T06:01:36.42Z</time></trkpt><trkpt lat="45.1777019" lon="10.7834953"><ele>19.0</ele><time>2026-04-26T06:01:38.42Z</time></trkpt><trkpt lat="45.1777668" lon="10.7833971"><ele>19.0</ele><time>2026-04-26T06:01:40.42Z</time></trkpt><trkpt lat="45.1778178" lon="10.783294"><ele>19.0</ele><time>2026-04-26T06:01:42.42Z</time></trkpt><trkpt lat="45.1778458" lon="10.7831841"><ele>19.0</ele><time>2026-04-26T06:01:44.419Z</time></trkpt><trkpt lat="45.1778783" lon="10.7830857"><ele>19.0</ele><time>2026-04-26T06:01:47.421Z</time></trkpt><trkpt lat="45.1779281" lon="10.7829992"><ele>19.0</ele><time>2026-04-26T06:01:50.42Z</time></trkpt><trkpt lat="45.1778668" lon="10.7828935"><ele>19.0</ele><time>2026-04-26T06:01:53.421Z</time></trkpt><trkpt lat="45.1778211" lon="10.7828206"><ele>19.0</ele><time>2026-04-26T06:01:55.42Z</time></trkpt><trkpt lat="45.1777747" lon="10.7827565"><ele>19.0</ele><time>2026-04-26T06:01:57.421Z</time></trkpt><trkpt lat="45.1777035" lon="10.7826654"><ele>19.0</ele><time>2026-04-26T06:02:00.42Z</time></trkpt><trkpt lat="45.177659" lon="10.7825997"><ele>19.0</ele><time>2026-04-26T06:02:02.42Z</time></trkpt><trkpt lat="45.1776069" lon="10.7825293"><ele>19.0</ele><time>2026-04-26T06:02:04.419Z</time></trkpt><trkpt lat="45.1775549" lon="10.7824462"><ele>19.0</ele><time>2026-04-26T06:02:06.418Z</time></trkpt><trkpt lat="45.1775091" lon="10.7823579"><ele>18.833333333333332</ele><time>2026-04-26T06:02:08.42Z</time></trkpt><trkpt lat="45.1774603" lon="10.7822577"><ele>18.666666666666664</ele><time>2026-04-26T06:02:10.42Z</time></trkpt><trkpt lat="45.1774207" lon="10.7821573"><ele>18.5</ele><time>2026-04-26T06:02:12.42Z</time></trkpt><trkpt lat="45.177384" lon="10.782064"><ele>18.333333333333332</ele><time>2026-04-26T06:02:14.42Z</time></trkpt><trkpt lat="45.1773525" lon="10.7819666"><ele>18.166666666666668</ele><time>2026-04-26T06:02:16.419Z</time></trkpt><trkpt lat="45.1773235" lon="10.7818684"><ele>18.0</ele><time>2026-04-26T06:02:18.419Z</time></trkpt><trkpt lat="45.1772984" lon="10.7817637"><ele>18.0</ele><time>2026-04-26T06:02:20.42Z</time></trkpt><trkpt lat="45.1772761" lon="10.7816586"><ele>18.0</ele><time>2026-04-26T06:02:22.42Z</time></trkpt><trkpt lat="45.1772578" lon="10.7815475"><ele>18.0</ele><time>2026-04-26T06:02:24.42Z</time></trkpt><trkpt lat="45.177241" lon="10.7814386"><ele>18.0</ele><time>2026-04-26T06:02:26.42Z</time></trkpt><trkpt lat="45.1772218" lon="10.781332"><ele>18.0</ele><time>2026-04-26T06:02:28.42Z</time></trkpt><trkpt lat="45.1772083" lon="10.7812209"><ele>18.0</ele><time>2026-04-26T06:02:30.421Z</time></trkpt><trkpt lat="45.1771899" lon="10.7811104"><ele>18.5</ele><time>2026-04-26T06:02:32.42Z</time></trkpt><trkpt lat="45.1771667" lon="10.781002"><ele>19.0</ele><time>2026-04-26T06:02:34.42Z</time></trkpt><trkpt lat="45.1771464" lon="10.780891"><ele>19.5</ele><time>2026-04-26T06:02:36.42Z</time></trkpt><trkpt lat="45.1771244" lon="10.7807806"><ele>20.0</ele><time>2026-04-26T06:02:38.42Z</time></trkpt><trkpt lat="45.1770967" lon="10.780677"><ele>20.5</ele><time>2026-04-26T06:02:40.42Z</time></trkpt><trkpt lat="45.1770712" lon="10.7805692"><ele>21.0</ele><time>2026-04-26T06:02:42.419Z</time></trkpt><trkpt lat="45.1770508" lon="10.780457"><ele>21.0</ele><time>2026-04-26T06:02:44.42Z</time></trkpt><trkpt lat="45.1770267" lon="10.7803509"><ele>21.0</ele><time>2026-04-26T06:02:46.42Z</time></trkpt><trkpt lat="45.1769971" lon="10.7802541"><ele>21.0</ele><time>2026-04-26T06:02:48.419Z</time></trkpt><trkpt lat="45.1769688" lon="10.7801371"><ele>21.0</ele><time>2026-04-26T06:02:51.419Z</time></trkpt><trkpt lat="45.1769296" lon="10.780024"><ele>21.0</ele><time>2026-04-26T06:02:54.419Z</time></trkpt><trkpt lat="45.1768945" lon="10.7799488"><ele>21.0</ele><time>2026-04-26T06:02:56.42Z</time></trkpt><trkpt lat="45.1768417" lon="10.7798711"><ele>20.833333333333332</ele><time>2026-04-26T06:02:59.42Z</time></trkpt><trkpt lat="45.176817" lon="10.7797623"><ele>20.666666666666668</ele><time>2026-04-26T06:03:02.42Z</time></trkpt><trkpt lat="45.1768562" lon="10.7796739"><ele>20.5</ele><time>2026-04-26T06:03:04.42Z</time></trkpt><trkpt lat="45.1769014" lon="10.7795911"><ele>20.333333333333336</ele><time>2026-04-26T06:03:06.42Z</time></trkpt><trkpt lat="45.1769468" lon="10.7795015"><ele>20.166666666666668</ele><time>2026-04-26T06:03:08.42Z</time></trkpt><trkpt lat="45.1769926" lon="10.7794092"><ele>20.0</ele><time>2026-04-26T06:03:10.42Z</time></trkpt><trkpt lat="45.1770326" lon="10.7793249"><ele>19.857142857142858</ele><time>2026-04-26T06:03:12.419Z</time></trkpt><trkpt lat="45.1770729" lon="10.779241"><ele>19.714285714285715</ele><time>2026-04-26T06:03:14.42Z</time></trkpt><trkpt lat="45.1771151" lon="10.7791547"><ele>19.57142857142857</ele><time>2026-04-26T06:03:16.419Z</time></trkpt><trkpt lat="45.1771598" lon="10.7790798"><ele>19.42857142857143</ele><time>2026-04-26T06:03:18.42Z</time></trkpt><trkpt lat="45.1772016" lon="10.7790002"><ele>19.28571428571429</ele><time>2026-04-26T06:03:20.42Z</time></trkpt><trkpt lat="45.1772404" lon="10.7789111"><ele>19.142857142857142</ele><time>2026-04-26T06:03:22.419Z</time></trkpt><trkpt lat="45.1772804" lon="10.7788187"><ele>19.0</ele><time>2026-04-26T06:03:24.419Z</time></trkpt><trkpt lat="45.1773195" lon="10.7787216"><ele>19.0</ele><time>2026-04-26T06:03:26.419Z</time></trkpt><trkpt lat="45.1773483" lon="10.7786187"><ele>19.0</ele><time>2026-04-26T06:03:28.42Z</time></trkpt><trkpt lat="45.1773725" lon="10.7785205"><ele>19.0</ele><time>2026-04-26T06:03:30.419Z</time></trkpt><trkpt lat="45.1774006" lon="10.7784222"><ele>19.0</ele><time>2026-04-26T06:03:32.418Z</time></trkpt><trkpt lat="45.1774313" lon="10.778322"><ele>19.0</ele><time>2026-04-26T06:03:34.42Z</time></trkpt><trkpt lat="45.1774623" lon="10.7782227"><ele>19.0</ele><time>2026-04-26T06:03:36.42Z</time></trkpt><trkpt lat="45.1774927" lon="10.7781237"><ele>18.833333333333332</ele><time>2026-04-26T06:03:38.419Z</time></trkpt><trkpt lat="45.1775234" lon="10.7780269"><ele>18.666666666666664</ele><time>2026-04-26T06:03:40.419Z</time></trkpt><trkpt lat="45.1775516" lon="10.7779287"><ele>18.5</ele><time>2026-04-26T06:03:42.419Z</time></trkpt><trkpt lat="45.1775795" lon="10.7778284"><ele>18.333333333333332</ele><time>2026-04-26T06:03:44.419Z</time></trkpt><trkpt lat="45.1776064" lon="10.7777271"><ele>18.166666666666668</ele><time>2026-04-26T06:03:46.419Z</time></trkpt><trkpt lat="45.1776328" lon="10.7776246"><ele>18.0</ele><time>2026-04-26T06:03:48.42Z</time></trkpt><trkpt lat="45.1776593" lon="10.7775269"><ele>17.833333333333332</ele><time>2026-04-26T06:03:50.42Z</time></trkpt><trkpt lat="45.1776872" lon="10.7774229"><ele>17.666666666666668</ele><time>2026-04-26T06:03:52.42Z</time></trkpt><trkpt lat="45.1777205" lon="10.7773172"><ele>17.5</ele><time>2026-04-26T06:03:54.419Z</time></trkpt><trkpt lat="45.1777522" lon="10.7772133"><ele>17.333333333333336</ele><time>2026-04-26T06:03:56.419Z</time></trkpt><trkpt lat="45.177787" lon="10.7771136"><ele>17.166666666666668</ele><time>2026-04-26T06:03:58.42Z</time></trkpt><trkpt lat="45.1778237" lon="10.77701"><ele>17.0</ele><time>2026-04-26T06:04:00.42Z</time></trkpt><trkpt lat="45.1778625" lon="10.7769083"><ele>17.0</ele><time>2026-04-26T06:04:02.419Z</time></trkpt><trkpt lat="45.1779067" lon="10.7768069"><ele>17.0</ele><time>2026-04-26T06:04:04.419Z</time></trkpt><trkpt lat="45.1779541" lon="10.7767055"><ele>17.0</ele><time>2026-04-26T06:04:06.42Z</time></trkpt><trkpt lat="45.1779971" lon="10.7766096"><ele>17.0</ele><time>2026-04-26T06:04:08.419Z</time></trkpt><trkpt lat="45.1780416" lon="10.7765124"><ele>17.0</ele><time>2026-04-26T06:04:10.419Z</time></trkpt><trkpt lat="45.1780855" lon="10.7764145"><ele>17.0</ele><time>2026-04-26T06:04:12.419Z</time></trkpt><trkpt lat="45.1781259" lon="10.7763169"><ele>17.0</ele><time>2026-04-26T06:04:14.42Z</time></trkpt><trkpt lat="45.1781661" lon="10.7762222"><ele>17.0</ele><time>2026-04-26T06:04:16.419Z</time></trkpt><trkpt lat="45.1782017" lon="10.7761242"><ele>17.0</ele><time>2026-04-26T06:04:18.419Z</time></trkpt><trkpt lat="45.1782266" lon="10.7760242"><ele>17.0</ele><time>2026-04-26T06:04:20.42Z</time></trkpt><trkpt lat="45.1782546" lon="10.7759213"><ele>17.0</ele><time>2026-04-26T06:04:22.42Z</time></trkpt><trkpt lat="45.1782868" lon="10.7758169"><ele>17.0</ele><time>2026-04-26T06:04:24.42Z</time></trkpt><trkpt lat="45.1783222" lon="10.775705"><ele>17.0</ele><time>2026-04-26T06:04:26.418Z</time></trkpt><trkpt lat="45.1783586" lon="10.7755975"><ele>17.0</ele><time>2026-04-26T06:04:28.419Z</time></trkpt><trkpt lat="45.1783869" lon="10.775494"><ele>17.0</ele><time>2026-04-26T06:04:30.42Z</time></trkpt><trkpt lat="45.1784106" lon="10.7753959"><ele>17.0</ele><time>2026-04-26T06:04:32.418Z</time></trkpt><trkpt lat="45.1784304" lon="10.7753026"><ele>17.0</ele><time>2026-04-26T06:04:34.418Z</time></trkpt><trkpt lat="45.1784516" lon="10.7752088"><ele>17.0</ele><time>2026-04-26T06:04:36.418Z</time></trkpt><trkpt lat="45.178486" lon="10.7750972"><ele>16.999999999999996</ele><time>2026-04-26T06:04:39.419Z</time></trkpt><trkpt lat="45.1785188" lon="10.7750136"><ele>17.0</ele><time>2026-04-26T06:04:46.418Z</time></trkpt><trkpt lat="45.1785448" lon="10.7749211"><ele>17.0</ele><time>2026-04-26T06:06:33.419Z</time></trkpt><trkpt lat="45.1785633" lon="10.7748114"><ele>17.0</ele><time>2026-04-26T06:06:37.418Z</time></trkpt><trkpt lat="45.1785766" lon="10.7747055"><ele>17.0</ele><time>2026-04-26T06:06:40.419Z</time></trkpt><trkpt lat="45.1785853" lon="10.7746168"><ele>16.999999999999996</ele><time>2026-04-26T06:06:42.419Z</time></trkpt><trkpt lat="45.1785835" lon="10.7745246"><ele>17.0</ele><time>2026-04-26T06:06:44.419Z</time></trkpt><trkpt lat="45.178579" lon="10.7744246"><ele>17.166666666666668</ele><time>2026-04-26T06:06:46.418Z</time></trkpt><trkpt lat="45.1785668" lon="10.7743274"><ele>17.333333333333336</ele><time>2026-04-26T06:06:48.418Z</time></trkpt><trkpt lat="45.178551" lon="10.7742293"><ele>17.5</ele><time>2026-04-26T06:06:50.418Z</time></trkpt><trkpt lat="45.1785349" lon="10.774123"><ele>17.666666666666668</ele><time>2026-04-26T06:06:52.418Z</time></trkpt><trkpt lat="45.1785211" lon="10.7740126"><ele>17.833333333333332</ele><time>2026-04-26T06:06:54.419Z</time></trkpt><trkpt lat="45.1785106" lon="10.7738966"><ele>18.0</ele><time>2026-04-26T06:06:56.419Z</time></trkpt><trkpt lat="45.1785068" lon="10.7737853"><ele>18.0</ele><time>2026-04-26T06:06:58.419Z</time></trkpt><trkpt lat="45.1785172" lon="10.7736764"><ele>18.0</ele><time>2026-04-26T06:07:00.419Z</time></trkpt><trkpt lat="45.1785286" lon="10.7735646"><ele>18.0</ele><time>2026-04-26T06:07:02.418Z</time></trkpt><trkpt lat="45.1785447" lon="10.773451"><ele>18.0</ele><time>2026-04-26T06:07:04.419Z</time></trkpt><trkpt lat="45.178564" lon="10.7733591"><ele>18.0</ele><time>2026-04-26T06:07:06.419Z</time></trkpt><trkpt lat="45.1785889" lon="10.7732635"><ele>18.0</ele><time>2026-04-26T06:07:08.419Z</time></trkpt><trkpt lat="45.1786124" lon="10.7731546"><ele>18.0</ele><time>2026-04-26T06:07:10.418Z</time></trkpt><trkpt lat="45.1786424" lon="10.7730457"><ele>18.0</ele><time>2026-04-26T06:07:12.418Z</time></trkpt><trkpt lat="45.1786782" lon="10.7729436"><ele>18.0</ele><time>2026-04-26T06:07:14.419Z</time></trkpt><trkpt lat="45.1787197" lon="10.7728381"><ele>18.0</ele><time>2026-04-26T06:07:16.419Z</time></trkpt><trkpt lat="45.1787661" lon="10.772743"><ele>18.0</ele><time>2026-04-26T06:07:18.418Z</time></trkpt><trkpt lat="45.1788102" lon="10.7726499"><ele>18.0</ele><time>2026-04-26T06:07:20.417Z</time></trkpt><trkpt lat="45.1788568" lon="10.7725595"><ele>18.0</ele><time>2026-04-26T06:07:22.419Z</time></trkpt><trkpt lat="45.1789007" lon="10.7724647"><ele>18.0</ele><time>2026-04-26T06:07:24.418Z</time></trkpt><trkpt lat="45.1789481" lon="10.7723613"><ele>18.0</ele><time>2026-04-26T06:07:26.419Z</time></trkpt><trkpt lat="45.1790041" lon="10.7722692"><ele>18.0</ele><time>2026-04-26T06:07:28.419Z</time></trkpt><trkpt lat="45.1790678" lon="10.7722"><ele>18.0</ele><time>2026-04-26T06:07:30.418Z</time></trkpt><trkpt lat="45.1791305" lon="10.772146"><ele>18.0</ele><time>2026-04-26T06:07:32.418Z</time></trkpt><trkpt lat="45.1791933" lon="10.7721012"><ele>18.5</ele><time>2026-04-26T06:07:34.418Z</time></trkpt><trkpt lat="45.1792543" lon="10.7720534"><ele>19.0</ele><time>2026-04-26T06:07:36.419Z</time></trkpt><trkpt lat="45.1793157" lon="10.7720129"><ele>19.5</ele><time>2026-04-26T06:07:38.419Z</time></trkpt><trkpt lat="45.1794018" lon="10.7719691"><ele>20.0</ele><time>2026-04-26T06:07:41.418Z</time></trkpt><trkpt lat="45.1794849" lon="10.7719306"><ele>20.5</ele><time>2026-04-26T06:07:44.419Z</time></trkpt><trkpt lat="45.1795656" lon="10.7718964"><ele>21.0</ele><time>2026-04-26T06:07:47.418Z</time></trkpt><trkpt lat="45.179651" lon="10.7718534"><ele>21.0</ele><time>2026-04-26T06:07:50.419Z</time></trkpt><trkpt lat="45.1797116" lon="10.7718255"><ele>21.0</ele><time>2026-04-26T06:07:52.418Z</time></trkpt><trkpt lat="45.1797744" lon="10.7717983"><ele>21.0</ele><time>2026-04-26T06:07:54.418Z</time></trkpt><trkpt lat="45.1798393" lon="10.7717768"><ele>21.0</ele><time>2026-04-26T06:07:56.418Z</time></trkpt><trkpt lat="45.1799061" lon="10.7717544"><ele>21.0</ele><time>2026-04-26T06:07:58.419Z</time></trkpt><trkpt lat="45.1799706" lon="10.7717317"><ele>21.0</ele><time>2026-04-26T06:08:00.418Z</time></trkpt><trkpt lat="45.1800605" lon="10.7716866"><ele>21.0</ele><time>2026-04-26T06:08:03.419Z</time></trkpt><trkpt lat="45.1801233" lon="10.7716637"><ele>21.0</ele><time>2026-04-26T06:08:05.417Z</time></trkpt><trkpt lat="45.1802169" lon="10.7716594"><ele>21.0</ele><time>2026-04-26T06:08:08.418Z</time></trkpt><trkpt lat="45.1802829" lon="10.7716766"><ele>21.0</ele><time>2026-04-26T06:08:10.418Z</time></trkpt><trkpt lat="45.1803457" lon="10.7717062"><ele>21.0</ele><time>2026-04-26T06:08:12.419Z</time></trkpt><trkpt lat="45.1804131" lon="10.7717345"><ele>21.0</ele><time>2026-04-26T06:08:14.417Z</time></trkpt><trkpt lat="45.1804808" lon="10.7717658"><ele>21.0</ele><time>2026-04-26T06:08:16.418Z</time></trkpt><trkpt lat="45.1805488" lon="10.7717814"><ele>21.0</ele><time>2026-04-26T06:08:18.419Z</time></trkpt><trkpt lat="45.1806174" lon="10.771773"><ele>20.571428571428573</ele><time>2026-04-26T06:08:20.419Z</time></trkpt><trkpt lat="45.180689" lon="10.7717609"><ele>20.142857142857142</ele><time>2026-04-26T06:08:22.417Z</time></trkpt><trkpt lat="45.180757" lon="10.7717471"><ele>19.714285714285715</ele><time>2026-04-26T06:08:24.419Z</time></trkpt><trkpt lat="45.1808248" lon="10.7717311"><ele>19.285714285714285</ele><time>2026-04-26T06:08:26.418Z</time></trkpt><trkpt lat="45.1808938" lon="10.7717136"><ele>18.857142857142858</ele><time>2026-04-26T06:08:28.419Z</time></trkpt><trkpt lat="45.1809701" lon="10.7716867"><ele>18.42857142857143</ele><time>2026-04-26T06:08:30.418Z</time></trkpt><trkpt lat="45.1810446" lon="10.7716616"><ele>18.0</ele><time>2026-04-26T06:08:32.418Z</time></trkpt><trkpt lat="45.1811214" lon="10.7716412"><ele>18.000000000000004</ele><time>2026-04-26T06:08:34.418Z</time></trkpt><trkpt lat="45.1811934" lon="10.7716235"><ele>18.0</ele><time>2026-04-26T06:08:36.419Z</time></trkpt><trkpt lat="45.1812669" lon="10.7716023"><ele>18.0</ele><time>2026-04-26T06:08:38.419Z</time></trkpt><trkpt lat="45.181338" lon="10.7715802"><ele>18.0</ele><time>2026-04-26T06:08:40.418Z</time></trkpt><trkpt lat="45.1814073" lon="10.7715557"><ele>18.0</ele><time>2026-04-26T06:08:42.418Z</time></trkpt><trkpt lat="45.1814783" lon="10.7715336"><ele>18.000000000000004</ele><time>2026-04-26T06:08:44.418Z</time></trkpt><trkpt lat="45.1815483" lon="10.7715129"><ele>18.0</ele><time>2026-04-26T06:08:46.418Z</time></trkpt><trkpt lat="45.1816195" lon="10.7714902"><ele>17.833333333333332</ele><time>2026-04-26T06:08:48.417Z</time></trkpt><trkpt lat="45.1816932" lon="10.7714647"><ele>17.666666666666668</ele><time>2026-04-26T06:08:50.418Z</time></trkpt><trkpt lat="45.1817634" lon="10.7714434"><ele>17.5</ele><time>2026-04-26T06:08:52.418Z</time></trkpt><trkpt lat="45.181812" lon="10.7715131"><ele>17.333333333333336</ele><time>2026-04-26T06:08:55.418Z</time></trkpt><trkpt lat="45.1818434" lon="10.7716143"><ele>17.166666666666668</ele><time>2026-04-26T06:08:58.418Z</time></trkpt><trkpt lat="45.1819187" lon="10.7716459"><ele>17.0</ele><time>2026-04-26T06:09:01.418Z</time></trkpt><trkpt lat="45.1819935" lon="10.7715693"><ele>16.999999999999996</ele><time>2026-04-26T06:09:04.418Z</time></trkpt><trkpt lat="45.1820499" lon="10.7715178"><ele>17.0</ele><time>2026-04-26T06:09:06.418Z</time></trkpt><trkpt lat="45.1821063" lon="10.7714599"><ele>17.0</ele><time>2026-04-26T06:09:08.417Z</time></trkpt><trkpt lat="45.1821666" lon="10.7713901"><ele>17.0</ele><time>2026-04-26T06:09:10.418Z</time></trkpt><trkpt lat="45.1822215" lon="10.7713277"><ele>17.0</ele><time>2026-04-26T06:09:12.419Z</time></trkpt><trkpt lat="45.1822721" lon="10.7712671"><ele>16.999999999999996</ele><time>2026-04-26T06:09:14.419Z</time></trkpt><trkpt lat="45.1823253" lon="10.7712008"><ele>17.0</ele><time>2026-04-26T06:09:16.419Z</time></trkpt><trkpt lat="45.1823767" lon="10.7711321"><ele>16.999999999999996</ele><time>2026-04-26T06:09:18.419Z</time></trkpt><trkpt lat="45.1824297" lon="10.7710575"><ele>17.0</ele><time>2026-04-26T06:09:20.419Z</time></trkpt><trkpt lat="45.1824839" lon="10.7709847"><ele>17.0</ele><time>2026-04-26T06:09:22.419Z</time></trkpt><trkpt lat="45.1825392" lon="10.7709188"><ele>17.0</ele><time>2026-04-26T06:09:24.417Z</time></trkpt><trkpt lat="45.1825917" lon="10.77085"><ele>17.0</ele><time>2026-04-26T06:09:26.419Z</time></trkpt><trkpt lat="45.1826438" lon="10.7707771"><ele>16.999999999999996</ele><time>2026-04-26T06:09:28.418Z</time></trkpt><trkpt lat="45.182696" lon="10.7707031"><ele>17.0</ele><time>2026-04-26T06:09:30.418Z</time></trkpt><trkpt lat="45.1827503" lon="10.7706296"><ele>17.5</ele><time>2026-04-26T06:09:32.418Z</time></trkpt><trkpt lat="45.1828077" lon="10.7705592"><ele>18.0</ele><time>2026-04-26T06:09:34.418Z</time></trkpt><trkpt lat="45.1828661" lon="10.7704951"><ele>18.5</ele><time>2026-04-26T06:09:36.418Z</time></trkpt><trkpt lat="45.1829297" lon="10.7704294"><ele>19.0</ele><time>2026-04-26T06:09:38.417Z</time></trkpt><trkpt lat="45.1829899" lon="10.7703624"><ele>19.5</ele><time>2026-04-26T06:09:40.419Z</time></trkpt><trkpt lat="45.1830495" lon="10.7702915"><ele>20.0</ele><time>2026-04-26T06:09:42.417Z</time></trkpt><trkpt lat="45.1831062" lon="10.7702204"><ele>20.0</ele><time>2026-04-26T06:09:44.418Z</time></trkpt><trkpt lat="45.1831609" lon="10.7701523"><ele>20.0</ele><time>2026-04-26T06:09:46.418Z</time></trkpt><trkpt lat="45.1832177" lon="10.7700852"><ele>20.0</ele><time>2026-04-26T06:09:48.417Z</time></trkpt><trkpt lat="45.1832712" lon="10.7700186"><ele>20.0</ele><time>2026-04-26T06:09:50.418Z</time></trkpt><trkpt lat="45.1833088" lon="10.7699428"><ele>20.0</ele><time>2026-04-26T06:09:52.418Z</time></trkpt><trkpt lat="45.1832713" lon="10.7698641"><ele>20.0</ele><time>2026-04-26T06:09:54.418Z</time></trkpt><trkpt lat="45.1832407" lon="10.7697524"><ele>20.0</ele><time>2026-04-26T06:09:57.418Z</time></trkpt><trkpt lat="45.1832945" lon="10.7696458"><ele>20.0</ele><time>2026-04-26T06:10:00.418Z</time></trkpt><trkpt lat="45.1833492" lon="10.7695439"><ele>20.0</ele><time>2026-04-26T06:10:03.417Z</time></trkpt><trkpt lat="45.1833888" lon="10.7694722"><ele>20.0</ele><time>2026-04-26T06:10:05.417Z</time></trkpt><trkpt lat="45.1834308" lon="10.769401"><ele>20.0</ele><time>2026-04-26T06:10:07.418Z</time></trkpt><trkpt lat="45.1834711" lon="10.7693211"><ele>20.0</ele><time>2026-04-26T06:10:09.416Z</time></trkpt><trkpt lat="45.1835078" lon="10.7692379"><ele>20.0</ele><time>2026-04-26T06:10:11.418Z</time></trkpt><trkpt lat="45.1835503" lon="10.7691529"><ele>20.0</ele><time>2026-04-26T06:10:13.417Z</time></trkpt><trkpt lat="45.1835882" lon="10.7690612"><ele>20.0</ele><time>2026-04-26T06:10:15.418Z</time></trkpt><trkpt lat="45.1836224" lon="10.7689661"><ele>20.0</ele><time>2026-04-26T06:10:17.417Z</time></trkpt><trkpt lat="45.1836563" lon="10.7688634"><ele>20.0</ele><time>2026-04-26T06:10:19.418Z</time></trkpt><trkpt lat="45.1836892" lon="10.7687639"><ele>20.0</ele><time>2026-04-26T06:10:21.417Z</time></trkpt><trkpt lat="45.1837099" lon="10.7686582"><ele>20.0</ele><time>2026-04-26T06:10:23.419Z</time></trkpt><trkpt lat="45.1837296" lon="10.7685556"><ele>20.0</ele><time>2026-04-26T06:10:25.418Z</time></trkpt><trkpt lat="45.1837391" lon="10.7684573"><ele>20.0</ele><time>2026-04-26T06:10:27.418Z</time></trkpt><trkpt lat="45.1837485" lon="10.7683484"><ele>20.0</ele><time>2026-04-26T06:10:29.418Z</time></trkpt><trkpt lat="45.1837535" lon="10.7682317"><ele>20.0</ele><time>2026-04-26T06:10:31.419Z</time></trkpt><trkpt lat="45.1837563" lon="10.7681094"><ele>20.0</ele><time>2026-04-26T06:10:33.417Z</time></trkpt><trkpt lat="45.1837591" lon="10.7679906"><ele>20.0</ele><time>2026-04-26T06:10:35.417Z</time></trkpt><trkpt lat="45.1837743" lon="10.7678765"><ele>20.0</ele><time>2026-04-26T06:10:37.419Z</time></trkpt><trkpt lat="45.1837938" lon="10.7677676"><ele>19.833333333333336</ele><time>2026-04-26T06:10:39.418Z</time></trkpt><trkpt lat="45.1838146" lon="10.7676578"><ele>19.666666666666668</ele><time>2026-04-26T06:10:41.418Z</time></trkpt><trkpt lat="45.1838412" lon="10.7675531"><ele>19.5</ele><time>2026-04-26T06:10:43.414Z</time></trkpt><trkpt lat="45.1838668" lon="10.767447"><ele>19.333333333333332</ele><time>2026-04-26T06:10:45.418Z</time></trkpt><trkpt lat="45.1838841" lon="10.7673478"><ele>19.166666666666664</ele><time>2026-04-26T06:10:47.417Z</time></trkpt><trkpt lat="45.1838963" lon="10.7672462"><ele>19.0</ele><time>2026-04-26T06:10:49.418Z</time></trkpt><trkpt lat="45.1839114" lon="10.7671438"><ele>19.0</ele><time>2026-04-26T06:10:51.418Z</time></trkpt><trkpt lat="45.1839287" lon="10.7670416"><ele>19.0</ele><time>2026-04-26T06:10:53.418Z</time></trkpt><trkpt lat="45.1839336" lon="10.7669388"><ele>19.0</ele><time>2026-04-26T06:10:55.417Z</time></trkpt><trkpt lat="45.1839429" lon="10.7668406"><ele>19.0</ele><time>2026-04-26T06:10:57.417Z</time></trkpt><trkpt lat="45.1839579" lon="10.7667502"><ele>19.0</ele><time>2026-04-26T06:10:59.417Z</time></trkpt><trkpt lat="45.1840226" lon="10.7666818"><ele>19.0</ele><time>2026-04-26T06:11:02.418Z</time></trkpt><trkpt lat="45.1841005" lon="10.7667083"><ele>19.0</ele><time>2026-04-26T06:11:05.417Z</time></trkpt><trkpt lat="45.1841727" lon="10.7667462"><ele>19.0</ele><time>2026-04-26T06:11:08.418Z</time></trkpt><trkpt lat="45.1842416" lon="10.7667909"><ele>19.0</ele><time>2026-04-26T06:11:11.417Z</time></trkpt><trkpt lat="45.1843231" lon="10.7668487"><ele>19.0</ele><time>2026-04-26T06:11:14.417Z</time></trkpt><trkpt lat="45.1843822" lon="10.7668935"><ele>19.0</ele><time>2026-04-26T06:11:16.417Z</time></trkpt><trkpt lat="45.184451" lon="10.76694"><ele>19.0</ele><time>2026-04-26T06:11:18.418Z</time></trkpt><trkpt lat="45.184518" lon="10.7669858"><ele>19.0</ele><time>2026-04-26T06:11:20.418Z</time></trkpt><trkpt lat="45.1845864" lon="10.7670301"><ele>19.0</ele><time>2026-04-26T06:11:22.417Z</time></trkpt><trkpt lat="45.1846519" lon="10.7670752"><ele>19.0</ele><time>2026-04-26T06:11:24.418Z</time></trkpt><trkpt lat="45.1847173" lon="10.7671252"><ele>19.0</ele><time>2026-04-26T06:11:26.417Z</time></trkpt><trkpt lat="45.1847814" lon="10.7671769"><ele>19.0</ele><time>2026-04-26T06:11:28.417Z</time></trkpt><trkpt lat="45.1848469" lon="10.7672247"><ele>19.0</ele><time>2026-04-26T06:11:30.418Z</time></trkpt><trkpt lat="45.184914" lon="10.7672709"><ele>19.0</ele><time>2026-04-26T06:11:32.416Z</time></trkpt><trkpt lat="45.1849828" lon="10.7673205"><ele>19.0</ele><time>2026-04-26T06:11:34.417Z</time></trkpt><trkpt lat="45.1850479" lon="10.7673702"><ele>19.0</ele><time>2026-04-26T06:11:36.418Z</time></trkpt><trkpt lat="45.1851194" lon="10.7674162"><ele>19.0</ele><time>2026-04-26T06:11:38.416Z</time></trkpt><trkpt lat="45.1851859" lon="10.7674621"><ele>19.0</ele><time>2026-04-26T06:11:40.418Z</time></trkpt><trkpt lat="45.1852498" lon="10.7675089"><ele>19.0</ele><time>2026-04-26T06:11:42.417Z</time></trkpt><trkpt lat="45.1853136" lon="10.7675537"><ele>19.0</ele><time>2026-04-26T06:11:44.417Z</time></trkpt><trkpt lat="45.1853758" lon="10.7675937"><ele>19.0</ele><time>2026-04-26T06:11:46.417Z</time></trkpt><trkpt lat="45.1854382" lon="10.7676356"><ele>19.0</ele><time>2026-04-26T06:11:48.417Z</time></trkpt><trkpt lat="45.1854997" lon="10.7676804"><ele>19.0</ele><time>2026-04-26T06:11:50.417Z</time></trkpt><trkpt lat="45.1855571" lon="10.7677281"><ele>19.0</ele><time>2026-04-26T06:11:52.417Z</time></trkpt><trkpt lat="45.1856348" lon="10.7677906"><ele>19.0</ele><time>2026-04-26T06:11:55.416Z</time></trkpt><trkpt lat="45.185705" lon="10.767714"><ele>19.0</ele><time>2026-04-26T06:11:58.418Z</time></trkpt><trkpt lat="45.1857473" lon="10.7676476"><ele>19.0</ele><time>2026-04-26T06:12:00.417Z</time></trkpt><trkpt lat="45.1858116" lon="10.7675594"><ele>19.0</ele><time>2026-04-26T06:12:03.417Z</time></trkpt><trkpt lat="45.1858796" lon="10.7674748"><ele>19.0</ele><time>2026-04-26T06:12:06.417Z</time></trkpt><trkpt lat="45.1859542" lon="10.7673943"><ele>19.0</ele><time>2026-04-26T06:12:09.416Z</time></trkpt><trkpt lat="45.186007" lon="10.7673418"><ele>19.0</ele><time>2026-04-26T06:12:11.417Z</time></trkpt><trkpt lat="45.1860573" lon="10.7672815"><ele>19.0</ele><time>2026-04-26T06:12:13.418Z</time></trkpt><trkpt lat="45.1861007" lon="10.7672159"><ele>19.0</ele><time>2026-04-26T06:12:15.417Z</time></trkpt><trkpt lat="45.1861618" lon="10.7671162"><ele>19.0</ele><time>2026-04-26T06:12:18.417Z</time></trkpt><trkpt lat="45.1862158" lon="10.7670125"><ele>19.0</ele><time>2026-04-26T06:12:21.416Z</time></trkpt><trkpt lat="45.1862618" lon="10.7669021"><ele>19.0</ele><time>2026-04-26T06:12:24.417Z</time></trkpt><trkpt lat="45.1863058" lon="10.7667879"><ele>19.0</ele><time>2026-04-26T06:12:27.417Z</time></trkpt><trkpt lat="45.1863439" lon="10.7666674"><ele>19.0</ele><time>2026-04-26T06:12:30.417Z</time></trkpt><trkpt lat="45.1863716" lon="10.7665837"><ele>19.0</ele><time>2026-04-26T06:12:32.417Z</time></trkpt><trkpt lat="45.1863998" lon="10.7665007"><ele>19.0</ele><time>2026-04-26T06:12:34.418Z</time></trkpt><trkpt lat="45.1864262" lon="10.7664148"><ele>19.142857142857142</ele><time>2026-04-26T06:12:36.415Z</time></trkpt><trkpt lat="45.1864541" lon="10.7663331"><ele>19.28571428571429</ele><time>2026-04-26T06:12:38.416Z</time></trkpt><trkpt lat="45.1864843" lon="10.7662517"><ele>19.42857142857143</ele><time>2026-04-26T06:12:40.417Z</time></trkpt><trkpt lat="45.186516" lon="10.7661738"><ele>19.57142857142857</ele><time>2026-04-26T06:12:42.417Z</time></trkpt><trkpt lat="45.18655" lon="10.7660954"><ele>19.714285714285715</ele><time>2026-04-26T06:12:44.416Z</time></trkpt><trkpt lat="45.1865982" lon="10.7660102"><ele>19.857142857142858</ele><time>2026-04-26T06:12:47.417Z</time></trkpt><trkpt lat="45.1866692" lon="10.7660572"><ele>20.0</ele><time>2026-04-26T06:12:50.417Z</time></trkpt><trkpt lat="45.1867385" lon="10.7661256"><ele>20.333333333333336</ele><time>2026-04-26T06:12:53.417Z</time></trkpt><trkpt lat="45.18681" lon="10.7661802"><ele>20.666666666666668</ele><time>2026-04-26T06:12:56.418Z</time></trkpt><trkpt lat="45.1868851" lon="10.7661716"><ele>21.0</ele><time>2026-04-26T06:13:01.418Z</time></trkpt><trkpt lat="45.1869129" lon="10.7660716"><ele>21.333333333333332</ele><time>2026-04-26T06:13:04.417Z</time></trkpt><trkpt lat="45.1869247" lon="10.7659484"><ele>21.666666666666664</ele><time>2026-04-26T06:13:07.417Z</time></trkpt><trkpt lat="45.1869405" lon="10.765829"><ele>22.0</ele><time>2026-04-26T06:13:10.418Z</time></trkpt><trkpt lat="45.1869448" lon="10.7657103"><ele>22.0</ele><time>2026-04-26T06:13:13.417Z</time></trkpt><trkpt lat="45.1869695" lon="10.7655842"><ele>22.0</ele><time>2026-04-26T06:13:16.417Z</time></trkpt><trkpt lat="45.1869919" lon="10.7654958"><ele>22.0</ele><time>2026-04-26T06:13:18.417Z</time></trkpt><trkpt lat="45.1870129" lon="10.7653966"><ele>22.0</ele><time>2026-04-26T06:13:20.416Z</time></trkpt><trkpt lat="45.1870325" lon="10.7652908"><ele>22.0</ele><time>2026-04-26T06:13:22.417Z</time></trkpt><trkpt lat="45.187051" lon="10.7651795"><ele>22.0</ele><time>2026-04-26T06:13:24.418Z</time></trkpt><trkpt lat="45.1870561" lon="10.7650762"><ele>21.666666666666664</ele><time>2026-04-26T06:13:26.417Z</time></trkpt><trkpt lat="45.1870586" lon="10.7649747"><ele>21.333333333333332</ele><time>2026-04-26T06:13:28.417Z</time></trkpt><trkpt lat="45.1870679" lon="10.7648683"><ele>21.0</ele><time>2026-04-26T06:13:30.416Z</time></trkpt><trkpt lat="45.1870781" lon="10.7647758"><ele>20.666666666666668</ele><time>2026-04-26T06:13:32.417Z</time></trkpt><trkpt lat="45.1870967" lon="10.7646384"><ele>20.333333333333336</ele><time>2026-04-26T06:13:35.418Z</time></trkpt><trkpt lat="45.1871088" lon="10.7645076"><ele>20.0</ele><time>2026-04-26T06:13:37.417Z</time></trkpt><trkpt lat="45.1871242" lon="10.7643821"><ele>20.166666666666668</ele><time>2026-04-26T06:13:39.417Z</time></trkpt><trkpt lat="45.1871345" lon="10.7642629"><ele>20.333333333333336</ele><time>2026-04-26T06:13:41.417Z</time></trkpt><trkpt lat="45.1871472" lon="10.7641475"><ele>20.5</ele><time>2026-04-26T06:13:43.416Z</time></trkpt><trkpt lat="45.187156" lon="10.7640383"><ele>20.666666666666668</ele><time>2026-04-26T06:13:45.418Z</time></trkpt><trkpt lat="45.1871669" lon="10.7639162"><ele>20.833333333333332</ele><time>2026-04-26T06:13:47.417Z</time></trkpt><trkpt lat="45.1871716" lon="10.7638115"><ele>21.0</ele><time>2026-04-26T06:13:49.417Z</time></trkpt><trkpt lat="45.1871836" lon="10.7637139"><ele>21.0</ele><time>2026-04-26T06:13:51.417Z</time></trkpt><trkpt lat="45.187196" lon="10.763607"><ele>21.0</ele><time>2026-04-26T06:13:53.416Z</time></trkpt><trkpt lat="45.1872109" lon="10.7635012"><ele>21.0</ele><time>2026-04-26T06:13:55.417Z</time></trkpt><trkpt lat="45.1872293" lon="10.7633973"><ele>21.0</ele><time>2026-04-26T06:13:57.417Z</time></trkpt><trkpt lat="45.1872413" lon="10.7632915"><ele>21.0</ele><time>2026-04-26T06:13:59.417Z</time></trkpt><trkpt lat="45.1872494" lon="10.7631919"><ele>21.0</ele><time>2026-04-26T06:14:01.416Z</time></trkpt><trkpt lat="45.1872632" lon="10.7630825"><ele>21.0</ele><time>2026-04-26T06:14:03.416Z</time></trkpt><trkpt lat="45.1872726" lon="10.7629661"><ele>21.0</ele><time>2026-04-26T06:14:05.417Z</time></trkpt><trkpt lat="45.1872824" lon="10.7628514"><ele>21.0</ele><time>2026-04-26T06:14:07.416Z</time></trkpt><trkpt lat="45.1872934" lon="10.7627374"><ele>21.0</ele><time>2026-04-26T06:14:09.416Z</time></trkpt><trkpt lat="45.1872999" lon="10.762626"><ele>21.0</ele><time>2026-04-26T06:14:11.417Z</time></trkpt><trkpt lat="45.187321" lon="10.7625144"><ele>21.0</ele><time>2026-04-26T06:14:13.416Z</time></trkpt><trkpt lat="45.1873424" lon="10.7623952"><ele>21.333333333333332</ele><time>2026-04-26T06:14:15.416Z</time></trkpt><trkpt lat="45.1873574" lon="10.762285"><ele>21.666666666666668</ele><time>2026-04-26T06:14:17.416Z</time></trkpt><trkpt lat="45.1873691" lon="10.7621757"><ele>22.0</ele><time>2026-04-26T06:14:19.416Z</time></trkpt><trkpt lat="45.1873858" lon="10.7620671"><ele>22.333333333333336</ele><time>2026-04-26T06:14:21.416Z</time></trkpt><trkpt lat="45.1873996" lon="10.761958"><ele>22.666666666666668</ele><time>2026-04-26T06:14:23.416Z</time></trkpt><trkpt lat="45.187417" lon="10.7618435"><ele>23.0</ele><time>2026-04-26T06:14:25.415Z</time></trkpt><trkpt lat="45.1874332" lon="10.7617231"><ele>23.166666666666668</ele><time>2026-04-26T06:14:27.416Z</time></trkpt><trkpt lat="45.1874462" lon="10.7616062"><ele>23.333333333333336</ele><time>2026-04-26T06:14:29.417Z</time></trkpt><trkpt lat="45.1874612" lon="10.7614842"><ele>23.5</ele><time>2026-04-26T06:14:31.415Z</time></trkpt><trkpt lat="45.1874778" lon="10.7613664"><ele>23.666666666666668</ele><time>2026-04-26T06:14:33.417Z</time></trkpt><trkpt lat="45.1874926" lon="10.7612506"><ele>23.833333333333332</ele><time>2026-04-26T06:14:35.417Z</time></trkpt><trkpt lat="45.187524" lon="10.7611135"><ele>24.0</ele><time>2026-04-26T06:14:37.417Z</time></trkpt><trkpt lat="45.187519" lon="10.7610014"><ele>23.5</ele><time>2026-04-26T06:14:39.416Z</time></trkpt><trkpt lat="45.187523" lon="10.7608916"><ele>23.0</ele><time>2026-04-26T06:14:41.415Z</time></trkpt><trkpt lat="45.1875264" lon="10.7607603"><ele>22.5</ele><time>2026-04-26T06:14:44.417Z</time></trkpt><trkpt lat="45.1875391" lon="10.7606668"><ele>22.0</ele><time>2026-04-26T06:14:46.417Z</time></trkpt><trkpt lat="45.1875413" lon="10.76057"><ele>21.5</ele><time>2026-04-26T06:14:48.416Z</time></trkpt><trkpt lat="45.1875566" lon="10.7604683"><ele>21.0</ele><time>2026-04-26T06:14:50.417Z</time></trkpt><trkpt lat="45.1875752" lon="10.7603476"><ele>21.0</ele><time>2026-04-26T06:14:52.417Z</time></trkpt><trkpt lat="45.1875963" lon="10.7602202"><ele>21.0</ele><time>2026-04-26T06:14:54.416Z</time></trkpt><trkpt lat="45.1876093" lon="10.7601023"><ele>21.0</ele><time>2026-04-26T06:14:56.416Z</time></trkpt><trkpt lat="45.1876219" lon="10.7599588"><ele>21.0</ele><time>2026-04-26T06:14:58.417Z</time></trkpt><trkpt lat="45.187646" lon="10.7598347"><ele>21.0</ele><time>2026-04-26T06:15:00.416Z</time></trkpt><trkpt lat="45.1876665" lon="10.7596902"><ele>20.666666666666668</ele><time>2026-04-26T06:15:02.416Z</time></trkpt><trkpt lat="45.1876753" lon="10.7595786"><ele>20.333333333333332</ele><time>2026-04-26T06:15:04.417Z</time></trkpt><trkpt lat="45.1877066" lon="10.7594684"><ele>20.0</ele><time>2026-04-26T06:15:06.417Z</time></trkpt><trkpt lat="45.1877183" lon="10.7593518"><ele>19.666666666666664</ele><time>2026-04-26T06:15:08.416Z</time></trkpt><trkpt lat="45.1877202" lon="10.7592275"><ele>19.333333333333332</ele><time>2026-04-26T06:15:10.417Z</time></trkpt><trkpt lat="45.1877338" lon="10.7591036"><ele>19.0</ele><time>2026-04-26T06:15:12.416Z</time></trkpt><trkpt lat="45.1877488" lon="10.7589809"><ele>19.0</ele><time>2026-04-26T06:15:14.417Z</time></trkpt><trkpt lat="45.1877651" lon="10.7588622"><ele>19.0</ele><time>2026-04-26T06:15:16.415Z</time></trkpt><trkpt lat="45.1877751" lon="10.7587399"><ele>19.0</ele><time>2026-04-26T06:15:18.416Z</time></trkpt><trkpt lat="45.1877961" lon="10.7586262"><ele>19.0</ele><time>2026-04-26T06:15:20.416Z</time></trkpt><trkpt lat="45.1878172" lon="10.7585077"><ele>19.0</ele><time>2026-04-26T06:15:22.416Z</time></trkpt><trkpt lat="45.1878429" lon="10.7584001"><ele>19.0</ele><time>2026-04-26T06:15:24.416Z</time></trkpt><trkpt lat="45.1878563" lon="10.7582811"><ele>19.0</ele><time>2026-04-26T06:15:26.416Z</time></trkpt><trkpt lat="45.1878667" lon="10.7581649"><ele>19.0</ele><time>2026-04-26T06:15:28.416Z</time></trkpt><trkpt lat="45.1878735" lon="10.7580506"><ele>19.0</ele><time>2026-04-26T06:15:30.416Z</time></trkpt><trkpt lat="45.1878833" lon="10.7579347"><ele>19.0</ele><time>2026-04-26T06:15:32.416Z</time></trkpt><trkpt lat="45.1878949" lon="10.7578192"><ele>19.0</ele><time>2026-04-26T06:15:34.417Z</time></trkpt><trkpt lat="45.1879073" lon="10.7577005"><ele>19.0</ele><time>2026-04-26T06:15:36.417Z</time></trkpt><trkpt lat="45.1879209" lon="10.7575792"><ele>19.0</ele><time>2026-04-26T06:15:38.415Z</time></trkpt><trkpt lat="45.1879297" lon="10.7574593"><ele>19.0</ele><time>2026-04-26T06:15:40.417Z</time></trkpt><trkpt lat="45.1879392" lon="10.7573402"><ele>19.0</ele><time>2026-04-26T06:15:42.415Z</time></trkpt><trkpt lat="45.1879442" lon="10.7572204"><ele>19.0</ele><time>2026-04-26T06:15:44.417Z</time></trkpt><trkpt lat="45.1879483" lon="10.7571004"><ele>19.0</ele><time>2026-04-26T06:15:46.416Z</time></trkpt><trkpt lat="45.1879508" lon="10.7569829"><ele>19.0</ele><time>2026-04-26T06:15:48.417Z</time></trkpt><trkpt lat="45.1879548" lon="10.7568685"><ele>19.166666666666664</ele><time>2026-04-26T06:15:50.417Z</time></trkpt><trkpt lat="45.1879623" lon="10.756756"><ele>19.333333333333332</ele><time>2026-04-26T06:15:52.416Z</time></trkpt><trkpt lat="45.1879683" lon="10.7566481"><ele>19.5</ele><time>2026-04-26T06:15:54.417Z</time></trkpt><trkpt lat="45.1879709" lon="10.7565349"><ele>19.666666666666668</ele><time>2026-04-26T06:15:56.415Z</time></trkpt><trkpt lat="45.1879757" lon="10.7564172"><ele>19.833333333333336</ele><time>2026-04-26T06:15:58.415Z</time></trkpt><trkpt lat="45.1879806" lon="10.7563011"><ele>20.0</ele><time>2026-04-26T06:16:00.417Z</time></trkpt><trkpt lat="45.1879882" lon="10.7561833"><ele>20.0</ele><time>2026-04-26T06:16:02.417Z</time></trkpt><trkpt lat="45.1879958" lon="10.7560714"><ele>20.0</ele><time>2026-04-26T06:16:04.415Z</time></trkpt><trkpt lat="45.188001" lon="10.755963"><ele>20.0</ele><time>2026-04-26T06:16:06.415Z</time></trkpt><trkpt lat="45.1880089" lon="10.7558499"><ele>20.0</ele><time>2026-04-26T06:16:08.417Z</time></trkpt><trkpt lat="45.188014" lon="10.7557357"><ele>20.0</ele><time>2026-04-26T06:16:10.417Z</time></trkpt><trkpt lat="45.1880193" lon="10.7556241"><ele>20.0</ele><time>2026-04-26T06:16:12.416Z</time></trkpt><trkpt lat="45.1880232" lon="10.7555116"><ele>19.666666666666668</ele><time>2026-04-26T06:16:14.417Z</time></trkpt><trkpt lat="45.1880236" lon="10.7553978"><ele>19.333333333333336</ele><time>2026-04-26T06:16:16.416Z</time></trkpt><trkpt lat="45.1880303" lon="10.755292"><ele>19.0</ele><time>2026-04-26T06:16:18.415Z</time></trkpt><trkpt lat="45.1880342" lon="10.7551788"><ele>18.666666666666668</ele><time>2026-04-26T06:16:20.416Z</time></trkpt><trkpt lat="45.1880401" lon="10.7550605"><ele>18.333333333333332</ele><time>2026-04-26T06:16:22.415Z</time></trkpt><trkpt lat="45.1880494" lon="10.7549491"><ele>18.0</ele><time>2026-04-26T06:16:24.416Z</time></trkpt><trkpt lat="45.1880545" lon="10.7548309"><ele>18.0</ele><time>2026-04-26T06:16:26.415Z</time></trkpt><trkpt lat="45.1880602" lon="10.7547106"><ele>18.0</ele><time>2026-04-26T06:16:28.417Z</time></trkpt><trkpt lat="45.1880658" lon="10.7546004"><ele>18.0</ele><time>2026-04-26T06:16:30.416Z</time></trkpt><trkpt lat="45.1880722" lon="10.7544891"><ele>18.0</ele><time>2026-04-26T06:16:32.416Z</time></trkpt><trkpt lat="45.1880798" lon="10.7543705"><ele>18.0</ele><time>2026-04-26T06:16:34.416Z</time></trkpt><trkpt lat="45.1880926" lon="10.7542499"><ele>18.0</ele><time>2026-04-26T06:16:36.416Z</time></trkpt><trkpt lat="45.1881021" lon="10.7541272"><ele>18.166666666666668</ele><time>2026-04-26T06:16:38.417Z</time></trkpt><trkpt lat="45.1881116" lon="10.7540078"><ele>18.333333333333332</ele><time>2026-04-26T06:16:40.415Z</time></trkpt><trkpt lat="45.1881169" lon="10.7538906"><ele>18.5</ele><time>2026-04-26T06:16:42.414Z</time></trkpt><trkpt lat="45.188129" lon="10.7537731"><ele>18.666666666666664</ele><time>2026-04-26T06:16:44.415Z</time></trkpt><trkpt lat="45.1881321" lon="10.7536598"><ele>18.833333333333332</ele><time>2026-04-26T06:16:46.415Z</time></trkpt><trkpt lat="45.188136" lon="10.7535474"><ele>19.0</ele><time>2026-04-26T06:16:48.415Z</time></trkpt><trkpt lat="45.1881429" lon="10.7534278"><ele>19.166666666666664</ele><time>2026-04-26T06:16:50.416Z</time></trkpt><trkpt lat="45.188152" lon="10.7532971"><ele>19.333333333333332</ele><time>2026-04-26T06:16:52.416Z</time></trkpt><trkpt lat="45.1881618" lon="10.7531707"><ele>19.5</ele><time>2026-04-26T06:16:54.416Z</time></trkpt><trkpt lat="45.1881663" lon="10.753056"><ele>19.666666666666668</ele><time>2026-04-26T06:16:56.415Z</time></trkpt><trkpt lat="45.1881759" lon="10.7529551"><ele>19.833333333333336</ele><time>2026-04-26T06:16:58.415Z</time></trkpt><trkpt lat="45.1881883" lon="10.7528401"><ele>20.0</ele><time>2026-04-26T06:17:00.417Z</time></trkpt><trkpt lat="45.1881971" lon="10.7527202"><ele>20.166666666666668</ele><time>2026-04-26T06:17:02.415Z</time></trkpt><trkpt lat="45.188199" lon="10.7526109"><ele>20.333333333333336</ele><time>2026-04-26T06:17:04.415Z</time></trkpt><trkpt lat="45.1881974" lon="10.7525062"><ele>20.5</ele><time>2026-04-26T06:17:06.416Z</time></trkpt><trkpt lat="45.1882016" lon="10.7523805"><ele>20.666666666666668</ele><time>2026-04-26T06:17:08.416Z</time></trkpt><trkpt lat="45.1882036" lon="10.7522673"><ele>20.833333333333332</ele><time>2026-04-26T06:17:10.416Z</time></trkpt><trkpt lat="45.1882082" lon="10.7521624"><ele>21.0</ele><time>2026-04-26T06:17:12.416Z</time></trkpt><trkpt lat="45.1882104" lon="10.7520581"><ele>21.0</ele><time>2026-04-26T06:17:14.416Z</time></trkpt><trkpt lat="45.1882189" lon="10.7519353"><ele>21.0</ele><time>2026-04-26T06:17:16.415Z</time></trkpt><trkpt lat="45.1882215" lon="10.7518265"><ele>21.0</ele><time>2026-04-26T06:17:18.416Z</time></trkpt><trkpt lat="45.1882211" lon="10.7517097"><ele>21.0</ele><time>2026-04-26T06:17:20.416Z</time></trkpt><trkpt lat="45.1882209" lon="10.7515872"><ele>21.0</ele><time>2026-04-26T06:17:22.416Z</time></trkpt><trkpt lat="45.1882293" lon="10.7514808"><ele>21.0</ele><time>2026-04-26T06:17:24.417Z</time></trkpt><trkpt lat="45.1882354" lon="10.7513693"><ele>20.833333333333332</ele><time>2026-04-26T06:17:26.416Z</time></trkpt><trkpt lat="45.1882489" lon="10.7512562"><ele>20.666666666666668</ele><time>2026-04-26T06:17:28.415Z</time></trkpt><trkpt lat="45.1882581" lon="10.7511382"><ele>20.5</ele><time>2026-04-26T06:17:30.416Z</time></trkpt><trkpt lat="45.1882594" lon="10.7510254"><ele>20.333333333333336</ele><time>2026-04-26T06:17:32.415Z</time></trkpt><trkpt lat="45.1882669" lon="10.7509163"><ele>20.166666666666668</ele><time>2026-04-26T06:17:34.416Z</time></trkpt><trkpt lat="45.1882672" lon="10.7508044"><ele>20.0</ele><time>2026-04-26T06:17:36.416Z</time></trkpt><trkpt lat="45.1882709" lon="10.7506967"><ele>20.333333333333336</ele><time>2026-04-26T06:17:38.416Z</time></trkpt><trkpt lat="45.1882753" lon="10.7505951"><ele>20.666666666666668</ele><time>2026-04-26T06:17:40.415Z</time></trkpt><trkpt lat="45.1882828" lon="10.7504925"><ele>21.0</ele><time>2026-04-26T06:17:42.416Z</time></trkpt><trkpt lat="45.1882895" lon="10.7503833"><ele>21.333333333333332</ele><time>2026-04-26T06:17:44.415Z</time></trkpt><trkpt lat="45.1882907" lon="10.7502721"><ele>21.666666666666664</ele><time>2026-04-26T06:17:46.416Z</time></trkpt><trkpt lat="45.1882945" lon="10.7501573"><ele>22.0</ele><time>2026-04-26T06:17:48.416Z</time></trkpt><trkpt lat="45.1883137" lon="10.75003"><ele>22.0</ele><time>2026-04-26T06:17:50.416Z</time></trkpt><trkpt lat="45.1883208" lon="10.7498963"><ele>22.0</ele><time>2026-04-26T06:17:52.415Z</time></trkpt><trkpt lat="45.1883217" lon="10.7497711"><ele>22.0</ele><time>2026-04-26T06:17:54.416Z</time></trkpt><trkpt lat="45.1883207" lon="10.7496449"><ele>22.0</ele><time>2026-04-26T06:17:56.416Z</time></trkpt><trkpt lat="45.1883265" lon="10.7495191"><ele>22.0</ele><time>2026-04-26T06:17:58.415Z</time></trkpt><trkpt lat="45.1883338" lon="10.7493951"><ele>22.0</ele><time>2026-04-26T06:18:00.416Z</time></trkpt><trkpt lat="45.188335" lon="10.7492793"><ele>22.0</ele><time>2026-04-26T06:18:02.415Z</time></trkpt><trkpt lat="45.1883419" lon="10.7491613"><ele>22.0</ele><time>2026-04-26T06:18:04.416Z</time></trkpt><trkpt lat="45.1883523" lon="10.7490447"><ele>22.0</ele><time>2026-04-26T06:18:06.416Z</time></trkpt><trkpt lat="45.1883664" lon="10.7489255"><ele>22.0</ele><time>2026-04-26T06:18:08.416Z</time></trkpt><trkpt lat="45.1883773" lon="10.7488032"><ele>22.0</ele><time>2026-04-26T06:18:10.416Z</time></trkpt><trkpt lat="45.1883837" lon="10.7486889"><ele>22.0</ele><time>2026-04-26T06:18:12.416Z</time></trkpt><trkpt lat="45.1883879" lon="10.7485757"><ele>21.833333333333332</ele><time>2026-04-26T06:18:14.417Z</time></trkpt><trkpt lat="45.1883886" lon="10.7484685"><ele>21.666666666666664</ele><time>2026-04-26T06:18:16.415Z</time></trkpt><trkpt lat="45.1883933" lon="10.7483595"><ele>21.5</ele><time>2026-04-26T06:18:18.416Z</time></trkpt><trkpt lat="45.1883998" lon="10.7482451"><ele>21.333333333333332</ele><time>2026-04-26T06:18:20.415Z</time></trkpt><trkpt lat="45.1883998" lon="10.7481284"><ele>21.166666666666668</ele><time>2026-04-26T06:18:22.414Z</time></trkpt><trkpt lat="45.1884023" lon="10.7480203"><ele>21.0</ele><time>2026-04-26T06:18:24.415Z</time></trkpt><trkpt lat="45.1884127" lon="10.7479061"><ele>21.0</ele><time>2026-04-26T06:18:26.415Z</time></trkpt><trkpt lat="45.1884149" lon="10.7477882"><ele>21.0</ele><time>2026-04-26T06:18:28.414Z</time></trkpt><trkpt lat="45.1884204" lon="10.747675"><ele>21.0</ele><time>2026-04-26T06:18:30.416Z</time></trkpt><trkpt lat="45.1884225" lon="10.7475627"><ele>21.0</ele><time>2026-04-26T06:18:32.415Z</time></trkpt><trkpt lat="45.1884183" lon="10.7474526"><ele>21.0</ele><time>2026-04-26T06:18:34.416Z</time></trkpt><trkpt lat="45.1884175" lon="10.7473333"><ele>21.0</ele><time>2026-04-26T06:18:36.415Z</time></trkpt><trkpt lat="45.1884236" lon="10.7472113"><ele>21.0</ele><time>2026-04-26T06:18:38.415Z</time></trkpt><trkpt lat="45.1884303" lon="10.7470961"><ele>21.0</ele><time>2026-04-26T06:18:40.415Z</time></trkpt><trkpt lat="45.1884486" lon="10.7469837"><ele>21.0</ele><time>2026-04-26T06:18:42.414Z</time></trkpt><trkpt lat="45.1884556" lon="10.7468689"><ele>21.0</ele><time>2026-04-26T06:18:44.416Z</time></trkpt><trkpt lat="45.1884675" lon="10.746753"><ele>21.0</ele><time>2026-04-26T06:18:46.415Z</time></trkpt><trkpt lat="45.1884815" lon="10.7466345"><ele>21.0</ele><time>2026-04-26T06:18:48.416Z</time></trkpt><trkpt lat="45.1884922" lon="10.7465211"><ele>21.0</ele><time>2026-04-26T06:18:50.416Z</time></trkpt><trkpt lat="45.188507" lon="10.7464084"><ele>21.0</ele><time>2026-04-26T06:18:52.415Z</time></trkpt><trkpt lat="45.1885128" lon="10.7462974"><ele>21.0</ele><time>2026-04-26T06:18:54.414Z</time></trkpt><trkpt lat="45.1885119" lon="10.7461889"><ele>21.0</ele><time>2026-04-26T06:18:56.415Z</time></trkpt><trkpt lat="45.1885108" lon="10.7460708"><ele>21.0</ele><time>2026-04-26T06:18:58.416Z</time></trkpt><trkpt lat="45.188516" lon="10.7459518"><ele>21.0</ele><time>2026-04-26T06:19:00.416Z</time></trkpt><trkpt lat="45.1885192" lon="10.7458219"><ele>21.0</ele><time>2026-04-26T06:19:02.414Z</time></trkpt><trkpt lat="45.1885258" lon="10.7456997"><ele>21.0</ele><time>2026-04-26T06:19:04.416Z</time></trkpt><trkpt lat="45.1885312" lon="10.7455797"><ele>21.0</ele><time>2026-04-26T06:19:06.414Z</time></trkpt><trkpt lat="45.1885334" lon="10.7454646"><ele>21.0</ele><time>2026-04-26T06:19:08.416Z</time></trkpt><trkpt lat="45.1885422" lon="10.745366"><ele>21.0</ele><time>2026-04-26T06:19:10.415Z</time></trkpt><trkpt lat="45.1885505" lon="10.7452692"><ele>21.0</ele><time>2026-04-26T06:19:12.415Z</time></trkpt><trkpt lat="45.1885541" lon="10.7451734"><ele>21.0</ele><time>2026-04-26T06:19:14.415Z</time></trkpt><trkpt lat="45.1885611" lon="10.745078"><ele>21.0</ele><time>2026-04-26T06:19:16.416Z</time></trkpt><trkpt lat="45.1885652" lon="10.7449755"><ele>21.0</ele><time>2026-04-26T06:19:18.415Z</time></trkpt><trkpt lat="45.1885655" lon="10.7448693"><ele>21.0</ele><time>2026-04-26T06:19:20.416Z</time></trkpt><trkpt lat="45.1885676" lon="10.7447602"><ele>21.0</ele><time>2026-04-26T06:19:22.414Z</time></trkpt><trkpt lat="45.188576" lon="10.74465"><ele>21.0</ele><time>2026-04-26T06:19:24.415Z</time></trkpt><trkpt lat="45.1885726" lon="10.7445319"><ele>21.0</ele><time>2026-04-26T06:19:26.416Z</time></trkpt><trkpt lat="45.1885773" lon="10.7444137"><ele>21.0</ele><time>2026-04-26T06:19:28.416Z</time></trkpt><trkpt lat="45.1885847" lon="10.7442974"><ele>21.0</ele><time>2026-04-26T06:19:30.415Z</time></trkpt><trkpt lat="45.1885956" lon="10.7441873"><ele>21.0</ele><time>2026-04-26T06:19:32.414Z</time></trkpt><trkpt lat="45.1886003" lon="10.7440961"><ele>21.0</ele><time>2026-04-26T06:19:34.415Z</time></trkpt><trkpt lat="45.1885999" lon="10.743976"><ele>21.0</ele><time>2026-04-26T06:19:37.414Z</time></trkpt><trkpt lat="45.1886041" lon="10.7438518"><ele>21.0</ele><time>2026-04-26T06:19:40.414Z</time></trkpt><trkpt lat="45.1886069" lon="10.7437544"><ele>21.0</ele><time>2026-04-26T06:19:42.415Z</time></trkpt><trkpt lat="45.1886126" lon="10.7436507"><ele>21.0</ele><time>2026-04-26T06:19:44.415Z</time></trkpt><trkpt lat="45.1886224" lon="10.7435331"><ele>21.0</ele><time>2026-04-26T06:19:46.416Z</time></trkpt><trkpt lat="45.1887008" lon="10.7421799"><ele>20.833333333333332</ele><time>2026-04-26T06:20:40.415Z</time></trkpt><trkpt lat="45.1886975" lon="10.7420783"><ele>20.666666666666668</ele><time>2026-04-26T06:22:27.415Z</time></trkpt><trkpt lat="45.1887029" lon="10.7419691"><ele>20.5</ele><time>2026-04-26T06:22:30.415Z</time></trkpt><trkpt lat="45.1887052" lon="10.7418404"><ele>20.333333333333336</ele><time>2026-04-26T06:22:33.413Z</time></trkpt><trkpt lat="45.1887173" lon="10.7417083"><ele>20.166666666666668</ele><time>2026-04-26T06:22:36.415Z</time></trkpt><trkpt lat="45.1887208" lon="10.7416109"><ele>20.0</ele><time>2026-04-26T06:22:38.415Z</time></trkpt><trkpt lat="45.1887273" lon="10.7415128"><ele>20.0</ele><time>2026-04-26T06:22:40.414Z</time></trkpt><trkpt lat="45.1887443" lon="10.7413353"><ele>20.0</ele><time>2026-04-26T06:22:42.414Z</time></trkpt><trkpt lat="45.1887767" lon="10.7411886"><ele>20.0</ele><time>2026-04-26T06:22:44.414Z</time></trkpt><trkpt lat="45.18878" lon="10.7410675"><ele>20.0</ele><time>2026-04-26T06:22:46.391Z</time></trkpt><trkpt lat="45.1887191" lon="10.740969"><ele>20.0</ele><time>2026-04-26T06:22:48.415Z</time></trkpt><trkpt lat="45.1887029" lon="10.7408811"><ele>20.0</ele><time>2026-04-26T06:22:50.415Z</time></trkpt><trkpt lat="45.1887777" lon="10.7408149"><ele>20.0</ele><time>2026-04-26T06:22:52.414Z</time></trkpt><trkpt lat="45.1888281" lon="10.7407364"><ele>20.0</ele><time>2026-04-26T06:22:54.415Z</time></trkpt><trkpt lat="45.1888453" lon="10.7406324"><ele>20.0</ele><time>2026-04-26T06:22:56.414Z</time></trkpt><trkpt lat="45.1888455" lon="10.7405279"><ele>20.0</ele><time>2026-04-26T06:22:58.415Z</time></trkpt><trkpt lat="45.1888561" lon="10.7404225"><ele>20.0</ele><time>2026-04-26T06:23:00.415Z</time></trkpt><trkpt lat="45.1888344" lon="10.7402939"><ele>20.0</ele><time>2026-04-26T06:23:02.415Z</time></trkpt><trkpt lat="45.1888044" lon="10.7401788"><ele>20.0</ele><time>2026-04-26T06:23:04.414Z</time></trkpt><trkpt lat="45.1887839" lon="10.7400743"><ele>20.0</ele><time>2026-04-26T06:23:06.414Z</time></trkpt><trkpt lat="45.1887831" lon="10.7399674"><ele>20.0</ele><time>2026-04-26T06:23:08.415Z</time></trkpt><trkpt lat="45.1887926" lon="10.7398517"><ele>20.0</ele><time>2026-04-26T06:23:10.415Z</time></trkpt><trkpt lat="45.1888099" lon="10.7397418"><ele>20.0</ele><time>2026-04-26T06:23:12.414Z</time></trkpt><trkpt lat="45.1888224" lon="10.739621"><ele>20.0</ele><time>2026-04-26T06:23:14.413Z</time></trkpt><trkpt lat="45.1888281" lon="10.7395"><ele>20.0</ele><time>2026-04-26T06:23:16.414Z</time></trkpt><trkpt lat="45.1888305" lon="10.7393775"><ele>20.0</ele><time>2026-04-26T06:23:18.415Z</time></trkpt><trkpt lat="45.1888386" lon="10.7392582"><ele>20.0</ele><time>2026-04-26T06:23:20.415Z</time></trkpt><trkpt lat="45.188842" lon="10.7391452"><ele>20.0</ele><time>2026-04-26T06:23:22.414Z</time></trkpt><trkpt lat="45.1888441" lon="10.7390356"><ele>20.0</ele><time>2026-04-26T06:23:24.414Z</time></trkpt><trkpt lat="45.1888545" lon="10.7389191"><ele>20.166666666666668</ele><time>2026-04-26T06:23:26.414Z</time></trkpt><trkpt lat="45.1888634" lon="10.7387993"><ele>20.333333333333336</ele><time>2026-04-26T06:23:28.415Z</time></trkpt><trkpt lat="45.1888679" lon="10.7386834"><ele>20.5</ele><time>2026-04-26T06:23:30.415Z</time></trkpt><trkpt lat="45.188875" lon="10.7385644"><ele>20.666666666666668</ele><time>2026-04-26T06:23:32.415Z</time></trkpt><trkpt lat="45.1888809" lon="10.7384406"><ele>20.833333333333332</ele><time>2026-04-26T06:23:34.414Z</time></trkpt><trkpt lat="45.1888912" lon="10.7383107"><ele>21.0</ele><time>2026-04-26T06:23:36.415Z</time></trkpt><trkpt lat="45.1889016" lon="10.7381932"><ele>21.0</ele><time>2026-04-26T06:23:38.378Z</time></trkpt><trkpt lat="45.1889069" lon="10.7380656"><ele>21.0</ele><time>2026-04-26T06:23:40.414Z</time></trkpt><trkpt lat="45.1889148" lon="10.7379376"><ele>21.0</ele><time>2026-04-26T06:23:42.414Z</time></trkpt><trkpt lat="45.1889198" lon="10.7378096"><ele>21.0</ele><time>2026-04-26T06:23:44.414Z</time></trkpt><trkpt lat="45.1889246" lon="10.737686"><ele>21.0</ele><time>2026-04-26T06:23:46.413Z</time></trkpt><trkpt lat="45.1889297" lon="10.7375628"><ele>21.0</ele><time>2026-04-26T06:23:48.414Z</time></trkpt><trkpt lat="45.1889328" lon="10.7374432"><ele>21.0</ele><time>2026-04-26T06:23:50.415Z</time></trkpt><trkpt lat="45.1889344" lon="10.7373264"><ele>21.0</ele><time>2026-04-26T06:23:52.413Z</time></trkpt><trkpt lat="45.1889389" lon="10.7372085"><ele>21.0</ele><time>2026-04-26T06:23:54.415Z</time></trkpt><trkpt lat="45.1889426" lon="10.7370935"><ele>21.0</ele><time>2026-04-26T06:23:56.415Z</time></trkpt><trkpt lat="45.1889451" lon="10.7369787"><ele>21.0</ele><time>2026-04-26T06:23:58.414Z</time></trkpt><trkpt lat="45.1889483" lon="10.7368628"><ele>21.0</ele><time>2026-04-26T06:24:00.414Z</time></trkpt><trkpt lat="45.1889592" lon="10.7367491"><ele>20.833333333333332</ele><time>2026-04-26T06:24:02.415Z</time></trkpt><trkpt lat="45.1889682" lon="10.7366347"><ele>20.666666666666668</ele><time>2026-04-26T06:24:04.414Z</time></trkpt><trkpt lat="45.18897" lon="10.736524"><ele>20.5</ele><time>2026-04-26T06:24:06.413Z</time></trkpt><trkpt lat="45.1889763" lon="10.7364154"><ele>20.333333333333336</ele><time>2026-04-26T06:24:08.413Z</time></trkpt><trkpt lat="45.1889864" lon="10.7363094"><ele>20.166666666666668</ele><time>2026-04-26T06:24:10.413Z</time></trkpt><trkpt lat="45.1889922" lon="10.7362037"><ele>20.0</ele><time>2026-04-26T06:24:12.414Z</time></trkpt><trkpt lat="45.189001" lon="10.7360991"><ele>20.0</ele><time>2026-04-26T06:24:14.414Z</time></trkpt><trkpt lat="45.1890088" lon="10.7359914"><ele>20.0</ele><time>2026-04-26T06:24:16.414Z</time></trkpt><trkpt lat="45.1890144" lon="10.7358844"><ele>20.0</ele><time>2026-04-26T06:24:18.415Z</time></trkpt><trkpt lat="45.1890249" lon="10.7357772"><ele>20.0</ele><time>2026-04-26T06:24:20.414Z</time></trkpt><trkpt lat="45.189027" lon="10.7356652"><ele>20.0</ele><time>2026-04-26T06:24:22.414Z</time></trkpt><trkpt lat="45.1890288" lon="10.7355521"><ele>20.0</ele><time>2026-04-26T06:24:24.415Z</time></trkpt><trkpt lat="45.1890293" lon="10.7354408"><ele>20.166666666666668</ele><time>2026-04-26T06:24:26.413Z</time></trkpt><trkpt lat="45.1890321" lon="10.7353286"><ele>20.333333333333336</ele><time>2026-04-26T06:24:28.415Z</time></trkpt><trkpt lat="45.1890341" lon="10.7352204"><ele>20.5</ele><time>2026-04-26T06:24:30.414Z</time></trkpt><trkpt lat="45.1890365" lon="10.7351076"><ele>20.666666666666668</ele><time>2026-04-26T06:24:32.415Z</time></trkpt><trkpt lat="45.1890426" lon="10.7349936"><ele>20.833333333333332</ele><time>2026-04-26T06:24:34.414Z</time></trkpt><trkpt lat="45.1890519" lon="10.7348796"><ele>21.0</ele><time>2026-04-26T06:24:36.413Z</time></trkpt><trkpt lat="45.1890581" lon="10.7347704"><ele>21.0</ele><time>2026-04-26T06:24:38.413Z</time></trkpt><trkpt lat="45.189065" lon="10.7346532"><ele>21.0</ele><time>2026-04-26T06:24:40.415Z</time></trkpt><trkpt lat="45.1890693" lon="10.7345295"><ele>21.0</ele><time>2026-04-26T06:24:42.414Z</time></trkpt><trkpt lat="45.1890755" lon="10.734408"><ele>21.0</ele><time>2026-04-26T06:24:44.414Z</time></trkpt><trkpt lat="45.1890829" lon="10.7342898"><ele>21.0</ele><time>2026-04-26T06:24:46.414Z</time></trkpt><trkpt lat="45.1890917" lon="10.7341762"><ele>21.0</ele><time>2026-04-26T06:24:48.414Z</time></trkpt><trkpt lat="45.1890979" lon="10.73406"><ele>21.166666666666668</ele><time>2026-04-26T06:24:50.414Z</time></trkpt><trkpt lat="45.1891023" lon="10.733945"><ele>21.333333333333332</ele><time>2026-04-26T06:24:52.423Z</time></trkpt><trkpt lat="45.1891112" lon="10.7338445"><ele>21.5</ele><time>2026-04-26T06:24:54.412Z</time></trkpt><trkpt lat="45.189106" lon="10.7337395"><ele>21.666666666666664</ele><time>2026-04-26T06:24:56.413Z</time></trkpt><trkpt lat="45.1891142" lon="10.7336359"><ele>21.833333333333332</ele><time>2026-04-26T06:24:58.414Z</time></trkpt><trkpt lat="45.1891261" lon="10.7335416"><ele>22.0</ele><time>2026-04-26T06:25:00.415Z</time></trkpt><trkpt lat="45.1891332" lon="10.7334152"><ele>22.142857142857142</ele><time>2026-04-26T06:25:03.413Z</time></trkpt><trkpt lat="45.1891545" lon="10.7333139"><ele>22.285714285714285</ele><time>2026-04-26T06:25:08.414Z</time></trkpt><trkpt lat="45.189143" lon="10.7332189"><ele>22.42857142857143</ele><time>2026-04-26T06:25:11.414Z</time></trkpt><trkpt lat="45.1891306" lon="10.7330999"><ele>22.57142857142857</ele><time>2026-04-26T06:25:14.415Z</time></trkpt><trkpt lat="45.1891407" lon="10.7330096"><ele>22.71428571428571</ele><time>2026-04-26T06:25:16.415Z</time></trkpt><trkpt lat="45.1891602" lon="10.7329088"><ele>22.857142857142858</ele><time>2026-04-26T06:25:18.414Z</time></trkpt><trkpt lat="45.189169" lon="10.7327978"><ele>23.0</ele><time>2026-04-26T06:25:20.414Z</time></trkpt><trkpt lat="45.1891828" lon="10.7326838"><ele>23.0</ele><time>2026-04-26T06:25:22.413Z</time></trkpt><trkpt lat="45.1891906" lon="10.732572"><ele>23.0</ele><time>2026-04-26T06:25:24.414Z</time></trkpt><trkpt lat="45.1891977" lon="10.7324671"><ele>23.0</ele><time>2026-04-26T06:25:26.413Z</time></trkpt><trkpt lat="45.189202" lon="10.7323629"><ele>23.0</ele><time>2026-04-26T06:25:28.414Z</time></trkpt><trkpt lat="45.1892057" lon="10.732256"><ele>23.0</ele><time>2026-04-26T06:25:30.414Z</time></trkpt><trkpt lat="45.1892199" lon="10.732155"><ele>23.0</ele><time>2026-04-26T06:25:32.414Z</time></trkpt><trkpt lat="45.1892296" lon="10.7320492"><ele>23.0</ele><time>2026-04-26T06:25:34.414Z</time></trkpt><trkpt lat="45.189239" lon="10.7319433"><ele>23.0</ele><time>2026-04-26T06:25:36.414Z</time></trkpt><trkpt lat="45.1892514" lon="10.7318402"><ele>23.0</ele><time>2026-04-26T06:25:38.414Z</time></trkpt><trkpt lat="45.1892666" lon="10.7317343"><ele>23.0</ele><time>2026-04-26T06:25:40.414Z</time></trkpt><trkpt lat="45.1892767" lon="10.7316227"><ele>23.0</ele><time>2026-04-26T06:25:42.413Z</time></trkpt><trkpt lat="45.1892971" lon="10.7315244"><ele>23.0</ele><time>2026-04-26T06:25:44.414Z</time></trkpt><trkpt lat="45.1893186" lon="10.7314272"><ele>23.0</ele><time>2026-04-26T06:25:46.414Z</time></trkpt><trkpt lat="45.1893413" lon="10.73132"><ele>23.0</ele><time>2026-04-26T06:25:48.431Z</time></trkpt><trkpt lat="45.1893604" lon="10.731226"><ele>23.0</ele><time>2026-04-26T06:25:50.412Z</time></trkpt><trkpt lat="45.1893856" lon="10.7311252"><ele>23.0</ele><time>2026-04-26T06:25:52.414Z</time></trkpt><trkpt lat="45.189409" lon="10.7310217"><ele>23.0</ele><time>2026-04-26T06:25:54.414Z</time></trkpt><trkpt lat="45.1894387" lon="10.7309218"><ele>23.0</ele><time>2026-04-26T06:25:56.412Z</time></trkpt><trkpt lat="45.1894676" lon="10.7308298"><ele>23.0</ele><time>2026-04-26T06:25:58.413Z</time></trkpt><trkpt lat="45.1894947" lon="10.7307433"><ele>23.0</ele><time>2026-04-26T06:26:00.414Z</time></trkpt><trkpt lat="45.1895219" lon="10.7306532"><ele>23.0</ele><time>2026-04-26T06:26:02.367Z</time></trkpt><trkpt lat="45.1895507" lon="10.730558"><ele>23.0</ele><time>2026-04-26T06:26:04.414Z</time></trkpt><trkpt lat="45.1895821" lon="10.7304649"><ele>23.0</ele><time>2026-04-26T06:26:06.414Z</time></trkpt><trkpt lat="45.1896141" lon="10.7303703"><ele>23.0</ele><time>2026-04-26T06:26:08.414Z</time></trkpt><trkpt lat="45.1896525" lon="10.7302768"><ele>23.0</ele><time>2026-04-26T06:26:10.414Z</time></trkpt><trkpt lat="45.1896883" lon="10.7301874"><ele>23.0</ele><time>2026-04-26T06:26:12.413Z</time></trkpt><trkpt lat="45.1897227" lon="10.7300921"><ele>23.0</ele><time>2026-04-26T06:26:14.414Z</time></trkpt><trkpt lat="45.1897562" lon="10.7299985"><ele>23.142857142857142</ele><time>2026-04-26T06:26:16.413Z</time></trkpt><trkpt lat="45.1897885" lon="10.7298991"><ele>23.285714285714285</ele><time>2026-04-26T06:26:18.413Z</time></trkpt><trkpt lat="45.1898258" lon="10.7298068"><ele>23.428571428571427</ele><time>2026-04-26T06:26:20.415Z</time></trkpt><trkpt lat="45.1898613" lon="10.7297196"><ele>23.57142857142857</ele><time>2026-04-26T06:26:22.413Z</time></trkpt><trkpt lat="45.1898963" lon="10.7296312"><ele>23.714285714285715</ele><time>2026-04-26T06:26:24.413Z</time></trkpt><trkpt lat="45.1899321" lon="10.7295346"><ele>23.857142857142854</ele><time>2026-04-26T06:26:26.414Z</time></trkpt><trkpt lat="45.189968" lon="10.7294444"><ele>24.0</ele><time>2026-04-26T06:26:28.414Z</time></trkpt><trkpt lat="45.19001" lon="10.7293522"><ele>23.71428571428571</ele><time>2026-04-26T06:26:30.414Z</time></trkpt><trkpt lat="45.1900442" lon="10.7292616"><ele>23.428571428571427</ele><time>2026-04-26T06:26:32.413Z</time></trkpt><trkpt lat="45.1900739" lon="10.729167"><ele>23.142857142857142</ele><time>2026-04-26T06:26:34.413Z</time></trkpt><trkpt lat="45.1901105" lon="10.7290762"><ele>22.857142857142854</ele><time>2026-04-26T06:26:36.413Z</time></trkpt><trkpt lat="45.1901444" lon="10.7289877"><ele>22.57142857142857</ele><time>2026-04-26T06:26:38.414Z</time></trkpt><trkpt lat="45.1901758" lon="10.728898"><ele>22.285714285714285</ele><time>2026-04-26T06:26:40.414Z</time></trkpt><trkpt lat="45.1902113" lon="10.7288059"><ele>22.0</ele><time>2026-04-26T06:26:42.413Z</time></trkpt><trkpt lat="45.1902529" lon="10.7287043"><ele>22.0</ele><time>2026-04-26T06:26:44.412Z</time></trkpt><trkpt lat="45.1902972" lon="10.7285948"><ele>22.0</ele><time>2026-04-26T06:26:46.413Z</time></trkpt><trkpt lat="45.190335" lon="10.7284991"><ele>22.0</ele><time>2026-04-26T06:26:48.414Z</time></trkpt><trkpt lat="45.1903769" lon="10.7283995"><ele>22.0</ele><time>2026-04-26T06:26:50.414Z</time></trkpt><trkpt lat="45.1904101" lon="10.7283053"><ele>22.0</ele><time>2026-04-26T06:26:52.414Z</time></trkpt><trkpt lat="45.1904403" lon="10.7282063"><ele>22.0</ele><time>2026-04-26T06:26:54.414Z</time></trkpt><trkpt lat="45.1904754" lon="10.7281088"><ele>21.857142857142858</ele><time>2026-04-26T06:26:56.414Z</time></trkpt><trkpt lat="45.1905088" lon="10.7280148"><ele>21.714285714285715</ele><time>2026-04-26T06:26:58.413Z</time></trkpt><trkpt lat="45.1905479" lon="10.7279279"><ele>21.57142857142857</ele><time>2026-04-26T06:27:00.413Z</time></trkpt><trkpt lat="45.1905868" lon="10.7278357"><ele>21.42857142857143</ele><time>2026-04-26T06:27:02.416Z</time></trkpt><trkpt lat="45.1906121" lon="10.7277428"><ele>21.285714285714285</ele><time>2026-04-26T06:27:04.414Z</time></trkpt><trkpt lat="45.1906296" lon="10.7276445"><ele>21.142857142857142</ele><time>2026-04-26T06:27:06.413Z</time></trkpt><trkpt lat="45.1906514" lon="10.7275481"><ele>21.0</ele><time>2026-04-26T06:27:08.413Z</time></trkpt><trkpt lat="45.1906767" lon="10.7274477"><ele>21.0</ele><time>2026-04-26T06:27:10.414Z</time></trkpt><trkpt lat="45.1907107" lon="10.7273634"><ele>21.0</ele><time>2026-04-26T06:27:12.413Z</time></trkpt><trkpt lat="45.1907597" lon="10.7272957"><ele>21.0</ele><time>2026-04-26T06:27:14.414Z</time></trkpt><trkpt lat="45.1908006" lon="10.7272175"><ele>21.0</ele><time>2026-04-26T06:27:16.413Z</time></trkpt><trkpt lat="45.19085" lon="10.7271557"><ele>21.0</ele><time>2026-04-26T06:27:18.414Z</time></trkpt><trkpt lat="45.1909058" lon="10.7270769"><ele>21.0</ele><time>2026-04-26T06:27:21.414Z</time></trkpt><trkpt lat="45.1909383" lon="10.7269814"><ele>21.0</ele><time>2026-04-26T06:27:24.413Z</time></trkpt><trkpt lat="45.1909743" lon="10.7268832"><ele>21.166666666666668</ele><time>2026-04-26T06:27:27.414Z</time></trkpt><trkpt lat="45.1910193" lon="10.7267844"><ele>21.333333333333332</ele><time>2026-04-26T06:27:30.413Z</time></trkpt><trkpt lat="45.1910569" lon="10.7266834"><ele>21.5</ele><time>2026-04-26T06:27:33.414Z</time></trkpt><trkpt lat="45.1911005" lon="10.7265862"><ele>21.666666666666664</ele><time>2026-04-26T06:27:36.413Z</time></trkpt><trkpt lat="45.1911384" lon="10.7264805"><ele>21.833333333333332</ele><time>2026-04-26T06:27:39.414Z</time></trkpt><trkpt lat="45.1911693" lon="10.7263829"><ele>22.0</ele><time>2026-04-26T06:27:42.413Z</time></trkpt><trkpt lat="45.1912" lon="10.7262872"><ele>22.0</ele><time>2026-04-26T06:27:45.413Z</time></trkpt><trkpt lat="45.1912386" lon="10.7262141"><ele>22.0</ele><time>2026-04-26T06:27:49.35Z</time></trkpt><trkpt lat="45.1912875" lon="10.7261151"><ele>22.0</ele><time>2026-04-26T06:27:52.413Z</time></trkpt><trkpt lat="45.1913152" lon="10.7260337"><ele>22.0</ele><time>2026-04-26T06:27:54.413Z</time></trkpt><trkpt lat="45.1913524" lon="10.7259388"><ele>22.0</ele><time>2026-04-26T06:27:56.414Z</time></trkpt><trkpt lat="45.1913922" lon="10.7258293"><ele>22.0</ele><time>2026-04-26T06:27:58.412Z</time></trkpt><trkpt lat="45.1914371" lon="10.7257162"><ele>22.0</ele><time>2026-04-26T06:28:00.414Z</time></trkpt><trkpt lat="45.1914822" lon="10.7256053"><ele>22.0</ele><time>2026-04-26T06:28:02.413Z</time></trkpt><trkpt lat="45.1915271" lon="10.7254967"><ele>22.0</ele><time>2026-04-26T06:28:04.413Z</time></trkpt><trkpt lat="45.1915775" lon="10.7253847"><ele>22.0</ele><time>2026-04-26T06:28:06.412Z</time></trkpt><trkpt lat="45.191615" lon="10.7252845"><ele>22.0</ele><time>2026-04-26T06:28:08.414Z</time></trkpt><trkpt lat="45.191651" lon="10.7251851"><ele>22.0</ele><time>2026-04-26T06:28:10.414Z</time></trkpt><trkpt lat="45.1916868" lon="10.7251083"><ele>21.833333333333332</ele><time>2026-04-26T06:28:12.413Z</time></trkpt><trkpt lat="45.1917151" lon="10.7250208"><ele>21.666666666666664</ele><time>2026-04-26T06:28:14.412Z</time></trkpt><trkpt lat="45.1917544" lon="10.7249189"><ele>21.5</ele><time>2026-04-26T06:28:16.414Z</time></trkpt><trkpt lat="45.1917967" lon="10.7248188"><ele>21.333333333333332</ele><time>2026-04-26T06:28:18.412Z</time></trkpt><trkpt lat="45.1918356" lon="10.7247108"><ele>21.166666666666668</ele><time>2026-04-26T06:28:20.413Z</time></trkpt><trkpt lat="45.191873" lon="10.7246046"><ele>21.0</ele><time>2026-04-26T06:28:22.413Z</time></trkpt><trkpt lat="45.1919092" lon="10.7245009"><ele>21.0</ele><time>2026-04-26T06:28:24.413Z</time></trkpt><trkpt lat="45.1919419" lon="10.7244036"><ele>21.0</ele><time>2026-04-26T06:28:26.413Z</time></trkpt><trkpt lat="45.1919794" lon="10.7243177"><ele>21.0</ele><time>2026-04-26T06:28:28.413Z</time></trkpt><trkpt lat="45.1920108" lon="10.724236"><ele>21.0</ele><time>2026-04-26T06:28:30.413Z</time></trkpt><trkpt lat="45.1920423" lon="10.7241562"><ele>21.0</ele><time>2026-04-26T06:28:32.413Z</time></trkpt><trkpt lat="45.1920777" lon="10.7240813"><ele>21.0</ele><time>2026-04-26T06:28:34.413Z</time></trkpt><trkpt lat="45.1921084" lon="10.7239957"><ele>21.0</ele><time>2026-04-26T06:28:36.413Z</time></trkpt><trkpt lat="45.1921403" lon="10.7239077"><ele>21.0</ele><time>2026-04-26T06:28:38.413Z</time></trkpt><trkpt lat="45.1921734" lon="10.7238205"><ele>21.0</ele><time>2026-04-26T06:28:40.414Z</time></trkpt><trkpt lat="45.1922077" lon="10.7237287"><ele>21.0</ele><time>2026-04-26T06:28:42.412Z</time></trkpt><trkpt lat="45.1922439" lon="10.7236373"><ele>21.0</ele><time>2026-04-26T06:28:44.412Z</time></trkpt><trkpt lat="45.1922834" lon="10.7235406"><ele>21.0</ele><time>2026-04-26T06:28:46.413Z</time></trkpt><trkpt lat="45.1923205" lon="10.7234497"><ele>21.0</ele><time>2026-04-26T06:28:48.412Z</time></trkpt><trkpt lat="45.1923534" lon="10.7233649"><ele>21.0</ele><time>2026-04-26T06:28:50.412Z</time></trkpt><trkpt lat="45.1923885" lon="10.7232851"><ele>21.0</ele><time>2026-04-26T06:28:52.412Z</time></trkpt><trkpt lat="45.1924289" lon="10.7232109"><ele>21.0</ele><time>2026-04-26T06:28:54.414Z</time></trkpt><trkpt lat="45.1924687" lon="10.7231294"><ele>21.0</ele><time>2026-04-26T06:28:56.413Z</time></trkpt><trkpt lat="45.1925001" lon="10.7230435"><ele>21.0</ele><time>2026-04-26T06:28:58.412Z</time></trkpt><trkpt lat="45.1925346" lon="10.7229494"><ele>21.0</ele><time>2026-04-26T06:29:00.414Z</time></trkpt><trkpt lat="45.1925675" lon="10.7228626"><ele>21.0</ele><time>2026-04-26T06:29:02.414Z</time></trkpt><trkpt lat="45.1925944" lon="10.7227801"><ele>21.0</ele><time>2026-04-26T06:29:04.413Z</time></trkpt><trkpt lat="45.1926246" lon="10.722688"><ele>21.0</ele><time>2026-04-26T06:29:06.413Z</time></trkpt><trkpt lat="45.1926582" lon="10.7225914"><ele>21.0</ele><time>2026-04-26T06:29:08.413Z</time></trkpt><trkpt lat="45.1926937" lon="10.7225005"><ele>21.0</ele><time>2026-04-26T06:29:10.412Z</time></trkpt><trkpt lat="45.1927348" lon="10.7224046"><ele>21.0</ele><time>2026-04-26T06:29:12.412Z</time></trkpt><trkpt lat="45.1927732" lon="10.7223108"><ele>21.0</ele><time>2026-04-26T06:29:14.413Z</time></trkpt><trkpt lat="45.1928095" lon="10.7222146"><ele>21.0</ele><time>2026-04-26T06:29:16.412Z</time></trkpt><trkpt lat="45.1928467" lon="10.7221159"><ele>21.0</ele><time>2026-04-26T06:29:18.413Z</time></trkpt><trkpt lat="45.1928847" lon="10.7220194"><ele>21.0</ele><time>2026-04-26T06:29:20.413Z</time></trkpt><trkpt lat="45.1929224" lon="10.7219261"><ele>21.0</ele><time>2026-04-26T06:29:22.413Z</time></trkpt><trkpt lat="45.1929576" lon="10.7218399"><ele>21.0</ele><time>2026-04-26T06:29:24.412Z</time></trkpt><trkpt lat="45.1929946" lon="10.7217567"><ele>21.0</ele><time>2026-04-26T06:29:26.413Z</time></trkpt><trkpt lat="45.1930382" lon="10.7216675"><ele>21.0</ele><time>2026-04-26T06:29:28.412Z</time></trkpt><trkpt lat="45.1930787" lon="10.7215674"><ele>20.833333333333332</ele><time>2026-04-26T06:29:30.412Z</time></trkpt><trkpt lat="45.1931189" lon="10.7214679"><ele>20.666666666666668</ele><time>2026-04-26T06:29:32.413Z</time></trkpt><trkpt lat="45.1931572" lon="10.7213714"><ele>20.5</ele><time>2026-04-26T06:29:34.413Z</time></trkpt><trkpt lat="45.1931927" lon="10.7212797"><ele>20.333333333333336</ele><time>2026-04-26T06:29:36.413Z</time></trkpt><trkpt lat="45.1932297" lon="10.7211902"><ele>20.166666666666668</ele><time>2026-04-26T06:29:38.412Z</time></trkpt><trkpt lat="45.1932636" lon="10.7210958"><ele>20.0</ele><time>2026-04-26T06:29:40.413Z</time></trkpt><trkpt lat="45.1932961" lon="10.7210029"><ele>20.0</ele><time>2026-04-26T06:29:42.413Z</time></trkpt><trkpt lat="45.1933289" lon="10.7209087"><ele>20.0</ele><time>2026-04-26T06:29:44.412Z</time></trkpt><trkpt lat="45.1933684" lon="10.7208128"><ele>20.0</ele><time>2026-04-26T06:29:46.413Z</time></trkpt><trkpt lat="45.1934057" lon="10.7207158"><ele>20.0</ele><time>2026-04-26T06:29:48.412Z</time></trkpt><trkpt lat="45.1934424" lon="10.720619"><ele>20.0</ele><time>2026-04-26T06:29:50.412Z</time></trkpt><trkpt lat="45.1934837" lon="10.720526"><ele>20.0</ele><time>2026-04-26T06:29:52.413Z</time></trkpt><trkpt lat="45.1935204" lon="10.7204323"><ele>20.0</ele><time>2026-04-26T06:29:54.412Z</time></trkpt><trkpt lat="45.1935542" lon="10.7203445"><ele>20.0</ele><time>2026-04-26T06:29:56.412Z</time></trkpt><trkpt lat="45.1935958" lon="10.7202462"><ele>20.0</ele><time>2026-04-26T06:29:58.412Z</time></trkpt><trkpt lat="45.193631" lon="10.7201612"><ele>20.0</ele><time>2026-04-26T06:30:00.413Z</time></trkpt><trkpt lat="45.1936718" lon="10.720069"><ele>20.0</ele><time>2026-04-26T06:30:02.413Z</time></trkpt><trkpt lat="45.1937099" lon="10.7199683"><ele>20.0</ele><time>2026-04-26T06:30:04.412Z</time></trkpt><trkpt lat="45.1937459" lon="10.7198663"><ele>20.0</ele><time>2026-04-26T06:30:06.413Z</time></trkpt><trkpt lat="45.1937821" lon="10.7197615"><ele>20.0</ele><time>2026-04-26T06:30:08.412Z</time></trkpt><trkpt lat="45.1938249" lon="10.7196661"><ele>20.0</ele><time>2026-04-26T06:30:10.413Z</time></trkpt><trkpt lat="45.193865" lon="10.7195748"><ele>20.0</ele><time>2026-04-26T06:30:12.413Z</time></trkpt><trkpt lat="45.1938923" lon="10.7194849"><ele>20.0</ele><time>2026-04-26T06:30:14.412Z</time></trkpt><trkpt lat="45.1939249" lon="10.7193946"><ele>20.0</ele><time>2026-04-26T06:30:16.413Z</time></trkpt><trkpt lat="45.1939626" lon="10.7192976"><ele>20.333333333333336</ele><time>2026-04-26T06:30:18.412Z</time></trkpt><trkpt lat="45.1940052" lon="10.7192037"><ele>20.666666666666668</ele><time>2026-04-26T06:30:20.413Z</time></trkpt><trkpt lat="45.1940389" lon="10.7191078"><ele>21.0</ele><time>2026-04-26T06:30:22.412Z</time></trkpt><trkpt lat="45.1940675" lon="10.7190021"><ele>21.333333333333332</ele><time>2026-04-26T06:30:24.413Z</time></trkpt><trkpt lat="45.1941034" lon="10.7189032"><ele>21.666666666666664</ele><time>2026-04-26T06:30:26.413Z</time></trkpt><trkpt lat="45.1941434" lon="10.7188085"><ele>22.0</ele><time>2026-04-26T06:30:28.424Z</time></trkpt><trkpt lat="45.194185" lon="10.7187236"><ele>22.0</ele><time>2026-04-26T06:30:30.412Z</time></trkpt><trkpt lat="45.1942304" lon="10.7186398"><ele>22.0</ele><time>2026-04-26T06:30:32.412Z</time></trkpt><trkpt lat="45.1942699" lon="10.7185511"><ele>22.0</ele><time>2026-04-26T06:30:34.412Z</time></trkpt><trkpt lat="45.1943081" lon="10.7184625"><ele>22.0</ele><time>2026-04-26T06:30:36.361Z</time></trkpt><trkpt lat="45.1943424" lon="10.7183652"><ele>22.0</ele><time>2026-04-26T06:30:38.413Z</time></trkpt><trkpt lat="45.1943794" lon="10.7182702"><ele>22.0</ele><time>2026-04-26T06:30:40.403Z</time></trkpt><trkpt lat="45.1944182" lon="10.7181826"><ele>22.0</ele><time>2026-04-26T06:30:42.412Z</time></trkpt><trkpt lat="45.1944531" lon="10.7180971"><ele>22.0</ele><time>2026-04-26T06:30:44.429Z</time></trkpt><trkpt lat="45.1944775" lon="10.7180117"><ele>22.0</ele><time>2026-04-26T06:30:47.412Z</time></trkpt><trkpt lat="45.1945213" lon="10.7179256"><ele>22.0</ele><time>2026-04-26T06:30:57.413Z</time></trkpt><trkpt lat="45.1945701" lon="10.7178411"><ele>22.0</ele><time>2026-04-26T06:31:00.412Z</time></trkpt><trkpt lat="45.1946235" lon="10.7177284"><ele>22.0</ele><time>2026-04-26T06:31:03.413Z</time></trkpt><trkpt lat="45.1946627" lon="10.7176406"><ele>22.0</ele><time>2026-04-26T06:31:05.422Z</time></trkpt><trkpt lat="45.1947051" lon="10.7175398"><ele>21.857142857142858</ele><time>2026-04-26T06:31:07.411Z</time></trkpt><trkpt lat="45.1947478" lon="10.7174423"><ele>21.714285714285715</ele><time>2026-04-26T06:31:09.412Z</time></trkpt><trkpt lat="45.1947805" lon="10.7173501"><ele>21.57142857142857</ele><time>2026-04-26T06:31:11.413Z</time></trkpt><trkpt lat="45.1948159" lon="10.7172717"><ele>21.42857142857143</ele><time>2026-04-26T06:31:13.413Z</time></trkpt><trkpt lat="45.1948464" lon="10.7171932"><ele>21.285714285714285</ele><time>2026-04-26T06:31:15.412Z</time></trkpt><trkpt lat="45.1948777" lon="10.7171043"><ele>21.142857142857142</ele><time>2026-04-26T06:31:17.411Z</time></trkpt><trkpt lat="45.194907" lon="10.7170143"><ele>21.0</ele><time>2026-04-26T06:31:19.413Z</time></trkpt><trkpt lat="45.1949393" lon="10.7169285"><ele>20.428571428571427</ele><time>2026-04-26T06:31:21.412Z</time></trkpt><trkpt lat="45.1949713" lon="10.7168515"><ele>19.857142857142858</ele><time>2026-04-26T06:31:23.412Z</time></trkpt><trkpt lat="45.1950019" lon="10.7167665"><ele>19.285714285714285</ele><time>2026-04-26T06:31:25.411Z</time></trkpt><trkpt lat="45.1950405" lon="10.7166804"><ele>18.714285714285715</ele><time>2026-04-26T06:31:27.412Z</time></trkpt><trkpt lat="45.1950758" lon="10.716589"><ele>18.142857142857142</ele><time>2026-04-26T06:31:29.411Z</time></trkpt><trkpt lat="45.1951105" lon="10.7165015"><ele>17.57142857142857</ele><time>2026-04-26T06:31:31.411Z</time></trkpt><trkpt lat="45.1951492" lon="10.7164232"><ele>17.0</ele><time>2026-04-26T06:31:33.411Z</time></trkpt><trkpt lat="45.1951888" lon="10.716343"><ele>16.999999999999996</ele><time>2026-04-26T06:31:35.411Z</time></trkpt><trkpt lat="45.19522" lon="10.7162546"><ele>17.0</ele><time>2026-04-26T06:31:37.411Z</time></trkpt><trkpt lat="45.1952505" lon="10.7161667"><ele>17.0</ele><time>2026-04-26T06:31:39.413Z</time></trkpt><trkpt lat="45.1952824" lon="10.7160829"><ele>17.0</ele><time>2026-04-26T06:31:41.412Z</time></trkpt><trkpt lat="45.1953156" lon="10.7159974"><ele>17.0</ele><time>2026-04-26T06:31:43.412Z</time></trkpt><trkpt lat="45.1953513" lon="10.7159166"><ele>16.999999999999996</ele><time>2026-04-26T06:31:45.412Z</time></trkpt><trkpt lat="45.1953847" lon="10.7158363"><ele>17.0</ele><time>2026-04-26T06:31:47.411Z</time></trkpt><trkpt lat="45.1954113" lon="10.7157498"><ele>17.142857142857142</ele><time>2026-04-26T06:31:49.412Z</time></trkpt><trkpt lat="45.1954454" lon="10.7156678"><ele>17.285714285714285</ele><time>2026-04-26T06:31:51.412Z</time></trkpt><trkpt lat="45.1954771" lon="10.7155798"><ele>17.42857142857143</ele><time>2026-04-26T06:31:53.411Z</time></trkpt><trkpt lat="45.1955093" lon="10.7154937"><ele>17.57142857142857</ele><time>2026-04-26T06:31:55.412Z</time></trkpt><trkpt lat="45.1955441" lon="10.7154091"><ele>17.714285714285715</ele><time>2026-04-26T06:31:57.413Z</time></trkpt><trkpt lat="45.1955757" lon="10.7153209"><ele>17.857142857142858</ele><time>2026-04-26T06:31:59.411Z</time></trkpt><trkpt lat="45.1956105" lon="10.7152346"><ele>18.0</ele><time>2026-04-26T06:32:01.413Z</time></trkpt><trkpt lat="45.1956474" lon="10.7151477"><ele>18.142857142857146</ele><time>2026-04-26T06:32:03.413Z</time></trkpt><trkpt lat="45.1956859" lon="10.7150598"><ele>18.285714285714285</ele><time>2026-04-26T06:32:05.412Z</time></trkpt><trkpt lat="45.1957247" lon="10.7149761"><ele>18.42857142857143</ele><time>2026-04-26T06:32:07.412Z</time></trkpt><trkpt lat="45.1957675" lon="10.7149018"><ele>18.571428571428573</ele><time>2026-04-26T06:32:09.412Z</time></trkpt><trkpt lat="45.1958069" lon="10.7148271"><ele>18.714285714285715</ele><time>2026-04-26T06:32:11.412Z</time></trkpt><trkpt lat="45.1958484" lon="10.7147504"><ele>18.857142857142858</ele><time>2026-04-26T06:32:13.411Z</time></trkpt><trkpt lat="45.1958875" lon="10.7146695"><ele>19.0</ele><time>2026-04-26T06:32:15.411Z</time></trkpt><trkpt lat="45.1959312" lon="10.7145913"><ele>19.0</ele><time>2026-04-26T06:32:17.412Z</time></trkpt><trkpt lat="45.1959709" lon="10.7145114"><ele>19.0</ele><time>2026-04-26T06:32:19.412Z</time></trkpt><trkpt lat="45.1960164" lon="10.7144354"><ele>19.0</ele><time>2026-04-26T06:32:21.412Z</time></trkpt><trkpt lat="45.1960675" lon="10.7143658"><ele>19.0</ele><time>2026-04-26T06:32:23.412Z</time></trkpt><trkpt lat="45.1961174" lon="10.7142934"><ele>19.0</ele><time>2026-04-26T06:32:25.413Z</time></trkpt><trkpt lat="45.1961703" lon="10.7142193"><ele>19.0</ele><time>2026-04-26T06:32:27.412Z</time></trkpt><trkpt lat="45.1962293" lon="10.714149"><ele>19.0</ele><time>2026-04-26T06:32:29.412Z</time></trkpt><trkpt lat="45.1962891" lon="10.7140746"><ele>19.166666666666664</ele><time>2026-04-26T06:32:31.412Z</time></trkpt><trkpt lat="45.1963477" lon="10.7140017"><ele>19.333333333333332</ele><time>2026-04-26T06:32:33.411Z</time></trkpt><trkpt lat="45.1964114" lon="10.7139387"><ele>19.5</ele><time>2026-04-26T06:32:35.412Z</time></trkpt><trkpt lat="45.1964713" lon="10.7138757"><ele>19.666666666666668</ele><time>2026-04-26T06:32:37.412Z</time></trkpt><trkpt lat="45.1965332" lon="10.7138115"><ele>19.833333333333336</ele><time>2026-04-26T06:32:39.411Z</time></trkpt><trkpt lat="45.1965985" lon="10.713749"><ele>20.0</ele><time>2026-04-26T06:32:41.411Z</time></trkpt><trkpt lat="45.1966628" lon="10.7136853"><ele>20.0</ele><time>2026-04-26T06:32:43.411Z</time></trkpt><trkpt lat="45.1967276" lon="10.7136212"><ele>20.0</ele><time>2026-04-26T06:32:45.411Z</time></trkpt><trkpt lat="45.1967919" lon="10.7135607"><ele>20.0</ele><time>2026-04-26T06:32:47.412Z</time></trkpt><trkpt lat="45.1968542" lon="10.7134962"><ele>20.0</ele><time>2026-04-26T06:32:49.411Z</time></trkpt><trkpt lat="45.19692" lon="10.7134319"><ele>20.0</ele><time>2026-04-26T06:32:51.411Z</time></trkpt><trkpt lat="45.1969885" lon="10.7133667"><ele>20.0</ele><time>2026-04-26T06:32:53.412Z</time></trkpt><trkpt lat="45.1970509" lon="10.7133023"><ele>20.0</ele><time>2026-04-26T06:32:55.41Z</time></trkpt><trkpt lat="45.1971093" lon="10.71324"><ele>20.0</ele><time>2026-04-26T06:32:57.413Z</time></trkpt><trkpt lat="45.1971719" lon="10.7131776"><ele>20.0</ele><time>2026-04-26T06:32:59.412Z</time></trkpt><trkpt lat="45.1972355" lon="10.7131201"><ele>20.0</ele><time>2026-04-26T06:33:01.411Z</time></trkpt><trkpt lat="45.197301" lon="10.7130604"><ele>20.0</ele><time>2026-04-26T06:33:03.412Z</time></trkpt><trkpt lat="45.1973656" lon="10.7129988"><ele>20.0</ele><time>2026-04-26T06:33:05.412Z</time></trkpt><trkpt lat="45.1974354" lon="10.7129442"><ele>20.166666666666668</ele><time>2026-04-26T06:33:07.41Z</time></trkpt><trkpt lat="45.1975019" lon="10.7128815"><ele>20.333333333333336</ele><time>2026-04-26T06:33:09.412Z</time></trkpt><trkpt lat="45.1975685" lon="10.7128206"><ele>20.5</ele><time>2026-04-26T06:33:11.411Z</time></trkpt><trkpt lat="45.1976311" lon="10.7127614"><ele>20.666666666666668</ele><time>2026-04-26T06:33:13.412Z</time></trkpt><trkpt lat="45.1976915" lon="10.7127027"><ele>20.833333333333332</ele><time>2026-04-26T06:33:15.412Z</time></trkpt><trkpt lat="45.1977523" lon="10.7126518"><ele>21.0</ele><time>2026-04-26T06:33:17.411Z</time></trkpt><trkpt lat="45.1978151" lon="10.7125994"><ele>21.142857142857142</ele><time>2026-04-26T06:33:19.412Z</time></trkpt><trkpt lat="45.197869" lon="10.7125473"><ele>21.285714285714285</ele><time>2026-04-26T06:33:21.412Z</time></trkpt><trkpt lat="45.1979227" lon="10.7124966"><ele>21.42857142857143</ele><time>2026-04-26T06:33:23.412Z</time></trkpt><trkpt lat="45.1979811" lon="10.712439"><ele>21.57142857142857</ele><time>2026-04-26T06:33:25.412Z</time></trkpt><trkpt lat="45.1980444" lon="10.7123798"><ele>21.714285714285715</ele><time>2026-04-26T06:33:27.411Z</time></trkpt><trkpt lat="45.1981052" lon="10.7123198"><ele>21.857142857142858</ele><time>2026-04-26T06:33:29.41Z</time></trkpt><trkpt lat="45.1981669" lon="10.7122624"><ele>22.0</ele><time>2026-04-26T06:33:31.412Z</time></trkpt><trkpt lat="45.1982312" lon="10.7122017"><ele>22.0</ele><time>2026-04-26T06:33:33.412Z</time></trkpt><trkpt lat="45.1982971" lon="10.712141"><ele>22.0</ele><time>2026-04-26T06:33:35.412Z</time></trkpt><trkpt lat="45.1983629" lon="10.712083"><ele>22.0</ele><time>2026-04-26T06:33:37.411Z</time></trkpt><trkpt lat="45.1984258" lon="10.7120214"><ele>22.0</ele><time>2026-04-26T06:33:39.412Z</time></trkpt><trkpt lat="45.1984899" lon="10.7119655"><ele>22.0</ele><time>2026-04-26T06:33:41.412Z</time></trkpt><trkpt lat="45.198556" lon="10.7119078"><ele>22.0</ele><time>2026-04-26T06:33:43.412Z</time></trkpt><trkpt lat="45.1986182" lon="10.7118476"><ele>21.857142857142858</ele><time>2026-04-26T06:33:45.41Z</time></trkpt><trkpt lat="45.198676" lon="10.7117905"><ele>21.714285714285715</ele><time>2026-04-26T06:33:47.41Z</time></trkpt><trkpt lat="45.1987351" lon="10.711738"><ele>21.57142857142857</ele><time>2026-04-26T06:33:49.41Z</time></trkpt><trkpt lat="45.1987939" lon="10.7116836"><ele>21.42857142857143</ele><time>2026-04-26T06:33:51.41Z</time></trkpt><trkpt lat="45.1988551" lon="10.7116306"><ele>21.285714285714285</ele><time>2026-04-26T06:33:53.41Z</time></trkpt><trkpt lat="45.1989161" lon="10.7115764"><ele>21.142857142857142</ele><time>2026-04-26T06:33:55.41Z</time></trkpt><trkpt lat="45.1989778" lon="10.7115135"><ele>21.0</ele><time>2026-04-26T06:33:57.411Z</time></trkpt><trkpt lat="45.1990396" lon="10.7114538"><ele>21.0</ele><time>2026-04-26T06:33:59.412Z</time></trkpt><trkpt lat="45.1990994" lon="10.7113958"><ele>21.0</ele><time>2026-04-26T06:34:01.412Z</time></trkpt><trkpt lat="45.1991626" lon="10.7113396"><ele>21.0</ele><time>2026-04-26T06:34:03.411Z</time></trkpt><trkpt lat="45.1992266" lon="10.7112846"><ele>21.0</ele><time>2026-04-26T06:34:05.411Z</time></trkpt><trkpt lat="45.1992909" lon="10.7112312"><ele>21.0</ele><time>2026-04-26T06:34:07.41Z</time></trkpt><trkpt lat="45.1993521" lon="10.7111772"><ele>21.0</ele><time>2026-04-26T06:34:09.411Z</time></trkpt><trkpt lat="45.1994136" lon="10.7111218"><ele>21.0</ele><time>2026-04-26T06:34:11.41Z</time></trkpt><trkpt lat="45.199477" lon="10.7110669"><ele>21.0</ele><time>2026-04-26T06:34:13.411Z</time></trkpt><trkpt lat="45.1995386" lon="10.7110103"><ele>21.0</ele><time>2026-04-26T06:34:15.412Z</time></trkpt><trkpt lat="45.1995984" lon="10.7109487"><ele>21.0</ele><time>2026-04-26T06:34:17.411Z</time></trkpt><trkpt lat="45.1996587" lon="10.7108885"><ele>21.0</ele><time>2026-04-26T06:34:19.412Z</time></trkpt><trkpt lat="45.1997185" lon="10.7108325"><ele>21.0</ele><time>2026-04-26T06:34:21.411Z</time></trkpt><trkpt lat="45.1997825" lon="10.7107781"><ele>21.0</ele><time>2026-04-26T06:34:23.411Z</time></trkpt><trkpt lat="45.199847" lon="10.7107201"><ele>21.0</ele><time>2026-04-26T06:34:25.41Z</time></trkpt><trkpt lat="45.1999109" lon="10.7106615"><ele>21.333333333333332</ele><time>2026-04-26T06:34:27.411Z</time></trkpt><trkpt lat="45.1999769" lon="10.7106043"><ele>21.666666666666668</ele><time>2026-04-26T06:34:29.411Z</time></trkpt><trkpt lat="45.200042" lon="10.7105423"><ele>22.0</ele><time>2026-04-26T06:34:31.411Z</time></trkpt><trkpt lat="45.2001069" lon="10.7104767"><ele>22.333333333333336</ele><time>2026-04-26T06:34:33.411Z</time></trkpt><trkpt lat="45.2001727" lon="10.7104194"><ele>22.666666666666668</ele><time>2026-04-26T06:34:35.41Z</time></trkpt><trkpt lat="45.2002352" lon="10.7103566"><ele>23.0</ele><time>2026-04-26T06:34:37.41Z</time></trkpt><trkpt lat="45.2002998" lon="10.7102999"><ele>23.0</ele><time>2026-04-26T06:34:39.41Z</time></trkpt><trkpt lat="45.2003624" lon="10.7102422"><ele>23.0</ele><time>2026-04-26T06:34:41.411Z</time></trkpt><trkpt lat="45.2004215" lon="10.7101849"><ele>23.0</ele><time>2026-04-26T06:34:43.411Z</time></trkpt><trkpt lat="45.2004837" lon="10.7101296"><ele>23.0</ele><time>2026-04-26T06:34:45.411Z</time></trkpt><trkpt lat="45.2005485" lon="10.7100599"><ele>23.0</ele><time>2026-04-26T06:34:47.41Z</time></trkpt><trkpt lat="45.2006178" lon="10.7099938"><ele>23.0</ele><time>2026-04-26T06:34:49.411Z</time></trkpt><trkpt lat="45.2006849" lon="10.7099326"><ele>22.571428571428573</ele><time>2026-04-26T06:34:51.412Z</time></trkpt><trkpt lat="45.2007518" lon="10.7098722"><ele>22.142857142857142</ele><time>2026-04-26T06:34:53.411Z</time></trkpt><trkpt lat="45.2008168" lon="10.7098165"><ele>21.714285714285715</ele><time>2026-04-26T06:34:55.411Z</time></trkpt><trkpt lat="45.2008776" lon="10.7097556"><ele>21.285714285714285</ele><time>2026-04-26T06:34:57.41Z</time></trkpt><trkpt lat="45.2009383" lon="10.709695"><ele>20.857142857142858</ele><time>2026-04-26T06:34:59.411Z</time></trkpt><trkpt lat="45.2009993" lon="10.7096392"><ele>20.428571428571427</ele><time>2026-04-26T06:35:01.411Z</time></trkpt><trkpt lat="45.2010586" lon="10.7095875"><ele>20.0</ele><time>2026-04-26T06:35:03.411Z</time></trkpt><trkpt lat="45.2011172" lon="10.7095293"><ele>20.0</ele><time>2026-04-26T06:35:05.41Z</time></trkpt><trkpt lat="45.2011789" lon="10.7094765"><ele>20.0</ele><time>2026-04-26T06:35:07.41Z</time></trkpt><trkpt lat="45.2012399" lon="10.7094195"><ele>20.0</ele><time>2026-04-26T06:35:09.41Z</time></trkpt><trkpt lat="45.2012989" lon="10.7093646"><ele>20.0</ele><time>2026-04-26T06:35:11.41Z</time></trkpt><trkpt lat="45.2013584" lon="10.7093055"><ele>20.0</ele><time>2026-04-26T06:35:13.411Z</time></trkpt><trkpt lat="45.2014199" lon="10.7092466"><ele>20.0</ele><time>2026-04-26T06:35:15.41Z</time></trkpt><trkpt lat="45.2014805" lon="10.70919"><ele>20.0</ele><time>2026-04-26T06:35:17.412Z</time></trkpt><trkpt lat="45.2015414" lon="10.7091352"><ele>20.333333333333336</ele><time>2026-04-26T06:35:19.412Z</time></trkpt><trkpt lat="45.2016021" lon="10.7090758"><ele>20.666666666666668</ele><time>2026-04-26T06:35:21.411Z</time></trkpt><trkpt lat="45.2016646" lon="10.7090193"><ele>21.0</ele><time>2026-04-26T06:35:23.411Z</time></trkpt><trkpt lat="45.2017291" lon="10.7089622"><ele>21.333333333333332</ele><time>2026-04-26T06:35:25.411Z</time></trkpt><trkpt lat="45.2017934" lon="10.7089015"><ele>21.666666666666664</ele><time>2026-04-26T06:35:27.412Z</time></trkpt><trkpt lat="45.201856" lon="10.7088395"><ele>22.0</ele><time>2026-04-26T06:35:29.41Z</time></trkpt><trkpt lat="45.2019214" lon="10.7087821"><ele>22.0</ele><time>2026-04-26T06:35:31.411Z</time></trkpt><trkpt lat="45.2019832" lon="10.7087196"><ele>22.0</ele><time>2026-04-26T06:35:33.411Z</time></trkpt><trkpt lat="45.2020487" lon="10.7086601"><ele>22.0</ele><time>2026-04-26T06:35:35.411Z</time></trkpt><trkpt lat="45.202111" lon="10.7086028"><ele>22.0</ele><time>2026-04-26T06:35:37.411Z</time></trkpt><trkpt lat="45.2021737" lon="10.7085473"><ele>22.0</ele><time>2026-04-26T06:35:39.41Z</time></trkpt><trkpt lat="45.2022363" lon="10.7084927"><ele>22.0</ele><time>2026-04-26T06:35:41.411Z</time></trkpt><trkpt lat="45.2022979" lon="10.7084335"><ele>22.0</ele><time>2026-04-26T06:35:43.411Z</time></trkpt><trkpt lat="45.2023606" lon="10.7083751"><ele>22.0</ele><time>2026-04-26T06:35:45.411Z</time></trkpt><trkpt lat="45.2024256" lon="10.7083178"><ele>22.0</ele><time>2026-04-26T06:35:47.41Z</time></trkpt><trkpt lat="45.2024871" lon="10.7082576"><ele>22.0</ele><time>2026-04-26T06:35:49.411Z</time></trkpt><trkpt lat="45.2025481" lon="10.7082025"><ele>22.0</ele><time>2026-04-26T06:35:51.411Z</time></trkpt><trkpt lat="45.2026088" lon="10.7081459"><ele>22.0</ele><time>2026-04-26T06:35:53.41Z</time></trkpt><trkpt lat="45.2026689" lon="10.7080883"><ele>22.0</ele><time>2026-04-26T06:35:55.411Z</time></trkpt><trkpt lat="45.2027271" lon="10.7080277"><ele>22.0</ele><time>2026-04-26T06:35:57.411Z</time></trkpt><trkpt lat="45.2027871" lon="10.7079721"><ele>22.0</ele><time>2026-04-26T06:35:59.411Z</time></trkpt><trkpt lat="45.2028485" lon="10.7079166"><ele>22.0</ele><time>2026-04-26T06:36:01.411Z</time></trkpt><trkpt lat="45.2029092" lon="10.7078601"><ele>22.0</ele><time>2026-04-26T06:36:03.411Z</time></trkpt><trkpt lat="45.2029699" lon="10.7078028"><ele>22.0</ele><time>2026-04-26T06:36:05.41Z</time></trkpt><trkpt lat="45.2030321" lon="10.7077459"><ele>22.0</ele><time>2026-04-26T06:36:07.411Z</time></trkpt><trkpt lat="45.2030962" lon="10.7076899"><ele>22.0</ele><time>2026-04-26T06:36:09.411Z</time></trkpt><trkpt lat="45.2031605" lon="10.7076316"><ele>22.0</ele><time>2026-04-26T06:36:11.411Z</time></trkpt><trkpt lat="45.2032248" lon="10.7075712"><ele>22.0</ele><time>2026-04-26T06:36:13.411Z</time></trkpt><trkpt lat="45.2032867" lon="10.7075115"><ele>22.0</ele><time>2026-04-26T06:36:15.411Z</time></trkpt><trkpt lat="45.2033523" lon="10.7074493"><ele>22.0</ele><time>2026-04-26T06:36:17.409Z</time></trkpt><trkpt lat="45.2034199" lon="10.7073893"><ele>22.0</ele><time>2026-04-26T06:36:19.41Z</time></trkpt><trkpt lat="45.2034848" lon="10.70733"><ele>22.0</ele><time>2026-04-26T06:36:21.41Z</time></trkpt><trkpt lat="45.2035498" lon="10.7072692"><ele>22.0</ele><time>2026-04-26T06:36:23.411Z</time></trkpt><trkpt lat="45.2036147" lon="10.7072104"><ele>22.0</ele><time>2026-04-26T06:36:25.41Z</time></trkpt><trkpt lat="45.2036795" lon="10.7071448"><ele>22.0</ele><time>2026-04-26T06:36:27.41Z</time></trkpt><trkpt lat="45.2037445" lon="10.7070813"><ele>22.0</ele><time>2026-04-26T06:36:29.411Z</time></trkpt><trkpt lat="45.2038101" lon="10.7070211"><ele>22.0</ele><time>2026-04-26T06:36:31.411Z</time></trkpt><trkpt lat="45.2038734" lon="10.7069598"><ele>22.0</ele><time>2026-04-26T06:36:33.411Z</time></trkpt><trkpt lat="45.2039401" lon="10.7068995"><ele>21.833333333333332</ele><time>2026-04-26T06:36:35.411Z</time></trkpt><trkpt lat="45.2040049" lon="10.706839"><ele>21.666666666666664</ele><time>2026-04-26T06:36:37.409Z</time></trkpt><trkpt lat="45.2040704" lon="10.7067765"><ele>21.5</ele><time>2026-04-26T06:36:39.411Z</time></trkpt><trkpt lat="45.2041369" lon="10.7067158"><ele>21.333333333333332</ele><time>2026-04-26T06:36:41.411Z</time></trkpt><trkpt lat="45.204203" lon="10.7066597"><ele>21.166666666666668</ele><time>2026-04-26T06:36:43.41Z</time></trkpt><trkpt lat="45.2042677" lon="10.7066013"><ele>21.0</ele><time>2026-04-26T06:36:45.411Z</time></trkpt><trkpt lat="45.2043312" lon="10.7065409"><ele>21.0</ele><time>2026-04-26T06:36:47.411Z</time></trkpt><trkpt lat="45.2043985" lon="10.7064846"><ele>21.0</ele><time>2026-04-26T06:36:49.41Z</time></trkpt><trkpt lat="45.2044647" lon="10.706422"><ele>21.0</ele><time>2026-04-26T06:36:51.41Z</time></trkpt><trkpt lat="45.2045299" lon="10.7063544"><ele>21.0</ele><time>2026-04-26T06:36:53.411Z</time></trkpt><trkpt lat="45.2045945" lon="10.7062902"><ele>21.0</ele><time>2026-04-26T06:36:55.411Z</time></trkpt><trkpt lat="45.2046616" lon="10.7062341"><ele>21.0</ele><time>2026-04-26T06:36:57.409Z</time></trkpt><trkpt lat="45.2047258" lon="10.706171"><ele>21.0</ele><time>2026-04-26T06:36:59.41Z</time></trkpt><trkpt lat="45.2047878" lon="10.7061051"><ele>21.0</ele><time>2026-04-26T06:37:01.41Z</time></trkpt><trkpt lat="45.2048515" lon="10.7060396"><ele>21.0</ele><time>2026-04-26T06:37:03.411Z</time></trkpt><trkpt lat="45.204917" lon="10.705981"><ele>21.0</ele><time>2026-04-26T06:37:05.409Z</time></trkpt><trkpt lat="45.2049847" lon="10.7059252"><ele>21.0</ele><time>2026-04-26T06:37:07.41Z</time></trkpt><trkpt lat="45.205052" lon="10.7058709"><ele>21.0</ele><time>2026-04-26T06:37:09.409Z</time></trkpt><trkpt lat="45.2051192" lon="10.7058081"><ele>20.833333333333332</ele><time>2026-04-26T06:37:11.41Z</time></trkpt><trkpt lat="45.2051862" lon="10.7057477"><ele>20.666666666666668</ele><time>2026-04-26T06:37:13.409Z</time></trkpt><trkpt lat="45.2052515" lon="10.7056871"><ele>20.5</ele><time>2026-04-26T06:37:15.411Z</time></trkpt><trkpt lat="45.2053172" lon="10.7056285"><ele>20.333333333333336</ele><time>2026-04-26T06:37:17.411Z</time></trkpt><trkpt lat="45.2053778" lon="10.7055684"><ele>20.166666666666668</ele><time>2026-04-26T06:37:19.41Z</time></trkpt><trkpt lat="45.2054381" lon="10.7055069"><ele>20.0</ele><time>2026-04-26T06:37:21.411Z</time></trkpt><trkpt lat="45.2055021" lon="10.7054468"><ele>20.0</ele><time>2026-04-26T06:37:23.411Z</time></trkpt><trkpt lat="45.2055661" lon="10.7053852"><ele>20.0</ele><time>2026-04-26T06:37:25.409Z</time></trkpt><trkpt lat="45.2056288" lon="10.7053216"><ele>20.0</ele><time>2026-04-26T06:37:27.409Z</time></trkpt><trkpt lat="45.2056962" lon="10.7052696"><ele>20.0</ele><time>2026-04-26T06:37:29.409Z</time></trkpt><trkpt lat="45.2057649" lon="10.7052168"><ele>20.0</ele><time>2026-04-26T06:37:31.409Z</time></trkpt><trkpt lat="45.2058306" lon="10.705162"><ele>20.0</ele><time>2026-04-26T06:37:33.41Z</time></trkpt><trkpt lat="45.2058913" lon="10.7051019"><ele>20.285714285714285</ele><time>2026-04-26T06:37:35.411Z</time></trkpt><trkpt lat="45.2059488" lon="10.7050446"><ele>20.571428571428573</ele><time>2026-04-26T06:37:37.41Z</time></trkpt><trkpt lat="45.2060099" lon="10.7049971"><ele>20.857142857142858</ele><time>2026-04-26T06:37:39.41Z</time></trkpt><trkpt lat="45.2060748" lon="10.7049414"><ele>21.142857142857142</ele><time>2026-04-26T06:37:41.409Z</time></trkpt><trkpt lat="45.2061392" lon="10.7048778"><ele>21.428571428571427</ele><time>2026-04-26T06:37:43.409Z</time></trkpt><trkpt lat="45.2061967" lon="10.7048122"><ele>21.714285714285715</ele><time>2026-04-26T06:37:45.41Z</time></trkpt><trkpt lat="45.2062581" lon="10.7047508"><ele>22.0</ele><time>2026-04-26T06:37:47.41Z</time></trkpt><trkpt lat="45.2063213" lon="10.7046915"><ele>22.0</ele><time>2026-04-26T06:37:49.409Z</time></trkpt><trkpt lat="45.20638" lon="10.7046326"><ele>22.0</ele><time>2026-04-26T06:37:51.409Z</time></trkpt><trkpt lat="45.2064371" lon="10.7045774"><ele>22.0</ele><time>2026-04-26T06:37:53.41Z</time></trkpt><trkpt lat="45.2064988" lon="10.7045216"><ele>22.0</ele><time>2026-04-26T06:37:55.41Z</time></trkpt><trkpt lat="45.2065591" lon="10.7044595"><ele>22.0</ele><time>2026-04-26T06:37:57.41Z</time></trkpt><trkpt lat="45.2066234" lon="10.704404"><ele>22.0</ele><time>2026-04-26T06:37:59.411Z</time></trkpt><trkpt lat="45.2066857" lon="10.7043432"><ele>22.0</ele><time>2026-04-26T06:38:01.409Z</time></trkpt><trkpt lat="45.2067478" lon="10.7042853"><ele>22.333333333333332</ele><time>2026-04-26T06:38:03.411Z</time></trkpt><trkpt lat="45.2068087" lon="10.7042277"><ele>22.666666666666664</ele><time>2026-04-26T06:38:05.409Z</time></trkpt><trkpt lat="45.2068701" lon="10.7041651"><ele>23.0</ele><time>2026-04-26T06:38:07.408Z</time></trkpt><trkpt lat="45.2069353" lon="10.7041033"><ele>23.333333333333332</ele><time>2026-04-26T06:38:09.409Z</time></trkpt><trkpt lat="45.2070009" lon="10.7040466"><ele>23.666666666666668</ele><time>2026-04-26T06:38:11.411Z</time></trkpt><trkpt lat="45.2070665" lon="10.703985"><ele>24.0</ele><time>2026-04-26T06:38:13.41Z</time></trkpt><trkpt lat="45.2071292" lon="10.7039236"><ele>23.999999999999996</ele><time>2026-04-26T06:38:15.409Z</time></trkpt><trkpt lat="45.2071878" lon="10.7038596"><ele>24.0</ele><time>2026-04-26T06:38:17.41Z</time></trkpt><trkpt lat="45.2072493" lon="10.703799"><ele>24.0</ele><time>2026-04-26T06:38:19.41Z</time></trkpt><trkpt lat="45.2073089" lon="10.7037389"><ele>24.0</ele><time>2026-04-26T06:38:21.41Z</time></trkpt><trkpt lat="45.207371" lon="10.7036807"><ele>24.0</ele><time>2026-04-26T06:38:23.41Z</time></trkpt><trkpt lat="45.2074299" lon="10.70362"><ele>23.999999999999996</ele><time>2026-04-26T06:38:25.41Z</time></trkpt><trkpt lat="45.207491" lon="10.7035572"><ele>24.0</ele><time>2026-04-26T06:38:27.41Z</time></trkpt><trkpt lat="45.2075516" lon="10.7034926"><ele>23.5</ele><time>2026-04-26T06:38:29.41Z</time></trkpt><trkpt lat="45.2076114" lon="10.7034323"><ele>23.0</ele><time>2026-04-26T06:38:31.41Z</time></trkpt><trkpt lat="45.2076753" lon="10.7033717"><ele>22.5</ele><time>2026-04-26T06:38:33.408Z</time></trkpt><trkpt lat="45.2077389" lon="10.7033098"><ele>22.0</ele><time>2026-04-26T06:38:35.411Z</time></trkpt><trkpt lat="45.2078" lon="10.7032465"><ele>21.5</ele><time>2026-04-26T06:38:37.41Z</time></trkpt><trkpt lat="45.2078639" lon="10.7031872"><ele>21.0</ele><time>2026-04-26T06:38:39.41Z</time></trkpt><trkpt lat="45.2079267" lon="10.7031261"><ele>21.0</ele><time>2026-04-26T06:38:41.409Z</time></trkpt><trkpt lat="45.2079844" lon="10.7030643"><ele>21.0</ele><time>2026-04-26T06:38:43.41Z</time></trkpt><trkpt lat="45.2080447" lon="10.7030063"><ele>21.0</ele><time>2026-04-26T06:38:45.41Z</time></trkpt><trkpt lat="45.2081019" lon="10.7029411"><ele>21.0</ele><time>2026-04-26T06:38:47.41Z</time></trkpt><trkpt lat="45.2081639" lon="10.7028808"><ele>21.0</ele><time>2026-04-26T06:38:49.409Z</time></trkpt><trkpt lat="45.2082212" lon="10.7028186"><ele>21.0</ele><time>2026-04-26T06:38:51.41Z</time></trkpt><trkpt lat="45.2082791" lon="10.7027571"><ele>21.0</ele><time>2026-04-26T06:38:53.41Z</time></trkpt><trkpt lat="45.2083388" lon="10.702695"><ele>21.142857142857142</ele><time>2026-04-26T06:38:55.41Z</time></trkpt><trkpt lat="45.2083929" lon="10.7026318"><ele>21.285714285714285</ele><time>2026-04-26T06:38:57.41Z</time></trkpt><trkpt lat="45.2084524" lon="10.702578"><ele>21.42857142857143</ele><time>2026-04-26T06:38:59.409Z</time></trkpt><trkpt lat="45.2085105" lon="10.7025282"><ele>21.57142857142857</ele><time>2026-04-26T06:39:01.41Z</time></trkpt><trkpt lat="45.2085644" lon="10.7024692"><ele>21.714285714285715</ele><time>2026-04-26T06:39:03.409Z</time></trkpt><trkpt lat="45.2086197" lon="10.702414"><ele>21.857142857142858</ele><time>2026-04-26T06:39:05.409Z</time></trkpt><trkpt lat="45.2086756" lon="10.7023616"><ele>22.0</ele><time>2026-04-26T06:39:07.41Z</time></trkpt><trkpt lat="45.2087352" lon="10.7023075"><ele>22.0</ele><time>2026-04-26T06:39:09.41Z</time></trkpt><trkpt lat="45.2087922" lon="10.7022528"><ele>22.0</ele><time>2026-04-26T06:39:11.409Z</time></trkpt><trkpt lat="45.2088501" lon="10.7021994"><ele>22.0</ele><time>2026-04-26T06:39:13.409Z</time></trkpt><trkpt lat="45.2089056" lon="10.7021433"><ele>22.0</ele><time>2026-04-26T06:39:15.408Z</time></trkpt><trkpt lat="45.2089632" lon="10.7020871"><ele>22.0</ele><time>2026-04-26T06:39:17.41Z</time></trkpt><trkpt lat="45.2090197" lon="10.7020283"><ele>22.0</ele><time>2026-04-26T06:39:19.41Z</time></trkpt><trkpt lat="45.2090787" lon="10.7019738"><ele>22.0</ele><time>2026-04-26T06:39:21.41Z</time></trkpt><trkpt lat="45.2091369" lon="10.7019137"><ele>22.0</ele><time>2026-04-26T06:39:23.41Z</time></trkpt><trkpt lat="45.2091876" lon="10.7018572"><ele>22.0</ele><time>2026-04-26T06:39:25.409Z</time></trkpt><trkpt lat="45.2092615" lon="10.7017818"><ele>22.0</ele><time>2026-04-26T06:39:28.408Z</time></trkpt><trkpt lat="45.2093238" lon="10.7017172"><ele>22.0</ele><time>2026-04-26T06:39:31.41Z</time></trkpt><trkpt lat="45.2093881" lon="10.701658"><ele>22.0</ele><time>2026-04-26T06:39:34.409Z</time></trkpt><trkpt lat="45.2094577" lon="10.7015994"><ele>22.0</ele><time>2026-04-26T06:39:37.41Z</time></trkpt><trkpt lat="45.2095383" lon="10.7015262"><ele>22.0</ele><time>2026-04-26T06:39:40.409Z</time></trkpt><trkpt lat="45.2096037" lon="10.7014689"><ele>22.0</ele><time>2026-04-26T06:39:42.408Z</time></trkpt><trkpt lat="45.2096758" lon="10.7014068"><ele>22.0</ele><time>2026-04-26T06:39:44.409Z</time></trkpt><trkpt lat="45.2097491" lon="10.7013428"><ele>22.0</ele><time>2026-04-26T06:39:46.409Z</time></trkpt><trkpt lat="45.2098215" lon="10.7012789"><ele>22.0</ele><time>2026-04-26T06:39:48.408Z</time></trkpt><trkpt lat="45.2098889" lon="10.7012103"><ele>22.0</ele><time>2026-04-26T06:39:50.409Z</time></trkpt><trkpt lat="45.2099561" lon="10.701151"><ele>21.833333333333332</ele><time>2026-04-26T06:39:52.41Z</time></trkpt><trkpt lat="45.2100201" lon="10.701087"><ele>21.666666666666664</ele><time>2026-04-26T06:39:54.408Z</time></trkpt><trkpt lat="45.2100812" lon="10.7010238"><ele>21.5</ele><time>2026-04-26T06:39:56.41Z</time></trkpt><trkpt lat="45.2101417" lon="10.7009579"><ele>21.333333333333332</ele><time>2026-04-26T06:39:58.409Z</time></trkpt><trkpt lat="45.2102037" lon="10.7008949"><ele>21.166666666666668</ele><time>2026-04-26T06:40:00.41Z</time></trkpt><trkpt lat="45.2102691" lon="10.7008304"><ele>21.0</ele><time>2026-04-26T06:40:02.41Z</time></trkpt><trkpt lat="45.2103352" lon="10.7007668"><ele>21.0</ele><time>2026-04-26T06:40:04.41Z</time></trkpt><trkpt lat="45.2103985" lon="10.7007009"><ele>21.0</ele><time>2026-04-26T06:40:06.408Z</time></trkpt><trkpt lat="45.2104622" lon="10.7006396"><ele>21.0</ele><time>2026-04-26T06:40:08.41Z</time></trkpt><trkpt lat="45.2105243" lon="10.7005765"><ele>21.0</ele><time>2026-04-26T06:40:10.409Z</time></trkpt><trkpt lat="45.2105888" lon="10.7005194"><ele>21.0</ele><time>2026-04-26T06:40:12.408Z</time></trkpt><trkpt lat="45.210646" lon="10.7004507"><ele>21.0</ele><time>2026-04-26T06:40:14.409Z</time></trkpt><trkpt lat="45.2107096" lon="10.700396"><ele>21.0</ele><time>2026-04-26T06:40:16.409Z</time></trkpt><trkpt lat="45.2107692" lon="10.7003372"><ele>21.0</ele><time>2026-04-26T06:40:18.41Z</time></trkpt><trkpt lat="45.2108245" lon="10.7002844"><ele>21.0</ele><time>2026-04-26T06:40:20.408Z</time></trkpt><trkpt lat="45.210882" lon="10.7002293"><ele>21.0</ele><time>2026-04-26T06:40:22.407Z</time></trkpt><trkpt lat="45.2109434" lon="10.7001709"><ele>21.0</ele><time>2026-04-26T06:40:24.41Z</time></trkpt><trkpt lat="45.2110072" lon="10.7001072"><ele>21.0</ele><time>2026-04-26T06:40:26.41Z</time></trkpt><trkpt lat="45.2110724" lon="10.7000406"><ele>21.0</ele><time>2026-04-26T06:40:28.41Z</time></trkpt><trkpt lat="45.2111357" lon="10.6999801"><ele>20.857142857142858</ele><time>2026-04-26T06:40:30.41Z</time></trkpt><trkpt lat="45.2111984" lon="10.6999241"><ele>20.714285714285715</ele><time>2026-04-26T06:40:32.41Z</time></trkpt><trkpt lat="45.2112533" lon="10.6998584"><ele>20.57142857142857</ele><time>2026-04-26T06:40:34.407Z</time></trkpt><trkpt lat="45.2113149" lon="10.6997975"><ele>20.42857142857143</ele><time>2026-04-26T06:40:36.409Z</time></trkpt><trkpt lat="45.2113737" lon="10.6997359"><ele>20.285714285714285</ele><time>2026-04-26T06:40:38.408Z</time></trkpt><trkpt lat="45.2114324" lon="10.6996764"><ele>20.142857142857142</ele><time>2026-04-26T06:40:40.409Z</time></trkpt><trkpt lat="45.2114927" lon="10.6996115"><ele>20.0</ele><time>2026-04-26T06:40:42.41Z</time></trkpt><trkpt lat="45.2115549" lon="10.6995602"><ele>20.285714285714285</ele><time>2026-04-26T06:40:44.409Z</time></trkpt><trkpt lat="45.2116091" lon="10.6995"><ele>20.571428571428573</ele><time>2026-04-26T06:40:46.408Z</time></trkpt><trkpt lat="45.2116692" lon="10.6994382"><ele>20.857142857142858</ele><time>2026-04-26T06:40:48.409Z</time></trkpt><trkpt lat="45.2117357" lon="10.699368"><ele>21.142857142857142</ele><time>2026-04-26T06:40:50.409Z</time></trkpt><trkpt lat="45.2117947" lon="10.6993213"><ele>21.428571428571427</ele><time>2026-04-26T06:40:52.41Z</time></trkpt><trkpt lat="45.2118463" lon="10.6992662"><ele>21.714285714285715</ele><time>2026-04-26T06:40:54.41Z</time></trkpt><trkpt lat="45.2118988" lon="10.699211"><ele>22.0</ele><time>2026-04-26T06:40:56.409Z</time></trkpt><trkpt lat="45.2119505" lon="10.6991515"><ele>22.142857142857142</ele><time>2026-04-26T06:40:58.409Z</time></trkpt><trkpt lat="45.2120269" lon="10.699095"><ele>22.285714285714285</ele><time>2026-04-26T06:41:01.409Z</time></trkpt><trkpt lat="45.212084" lon="10.6990322"><ele>22.42857142857143</ele><time>2026-04-26T06:41:03.409Z</time></trkpt><trkpt lat="45.2121377" lon="10.6989713"><ele>22.57142857142857</ele><time>2026-04-26T06:41:05.408Z</time></trkpt><trkpt lat="45.2121914" lon="10.6989155"><ele>22.71428571428571</ele><time>2026-04-26T06:41:07.409Z</time></trkpt><trkpt lat="45.2122475" lon="10.6988593"><ele>22.857142857142858</ele><time>2026-04-26T06:41:09.409Z</time></trkpt><trkpt lat="45.2122985" lon="10.6988063"><ele>23.0</ele><time>2026-04-26T06:41:11.409Z</time></trkpt><trkpt lat="45.2123536" lon="10.6987553"><ele>23.0</ele><time>2026-04-26T06:41:13.409Z</time></trkpt><trkpt lat="45.2124071" lon="10.698698"><ele>23.0</ele><time>2026-04-26T06:41:15.408Z</time></trkpt><trkpt lat="45.2124865" lon="10.6986248"><ele>23.0</ele><time>2026-04-26T06:41:18.409Z</time></trkpt><trkpt lat="45.2125423" lon="10.6985687"><ele>23.0</ele><time>2026-04-26T06:41:20.409Z</time></trkpt><trkpt lat="45.2125937" lon="10.698509"><ele>23.0</ele><time>2026-04-26T06:41:22.408Z</time></trkpt><trkpt lat="45.2126447" lon="10.6984552"><ele>23.0</ele><time>2026-04-26T06:41:24.409Z</time></trkpt><trkpt lat="45.2126977" lon="10.6984007"><ele>23.0</ele><time>2026-04-26T06:41:26.409Z</time></trkpt><trkpt lat="45.212751" lon="10.6983472"><ele>23.0</ele><time>2026-04-26T06:41:28.409Z</time></trkpt><trkpt lat="45.2128047" lon="10.6982928"><ele>23.0</ele><time>2026-04-26T06:41:30.408Z</time></trkpt><trkpt lat="45.2128577" lon="10.6982414"><ele>23.0</ele><time>2026-04-26T06:41:32.409Z</time></trkpt><trkpt lat="45.2129161" lon="10.6981921"><ele>23.0</ele><time>2026-04-26T06:41:34.409Z</time></trkpt><trkpt lat="45.2129708" lon="10.6981347"><ele>23.0</ele><time>2026-04-26T06:41:36.409Z</time></trkpt><trkpt lat="45.2130261" lon="10.6980809"><ele>23.0</ele><time>2026-04-26T06:41:38.409Z</time></trkpt><trkpt lat="45.2130803" lon="10.6980278"><ele>23.0</ele><time>2026-04-26T06:41:40.408Z</time></trkpt><trkpt lat="45.2131372" lon="10.6979743"><ele>23.0</ele><time>2026-04-26T06:41:42.409Z</time></trkpt><trkpt lat="45.2131936" lon="10.6979162"><ele>23.0</ele><time>2026-04-26T06:41:44.409Z</time></trkpt><trkpt lat="45.213253" lon="10.6978559"><ele>23.0</ele><time>2026-04-26T06:41:46.408Z</time></trkpt><trkpt lat="45.2133126" lon="10.6977951"><ele>23.0</ele><time>2026-04-26T06:41:48.408Z</time></trkpt><trkpt lat="45.2133699" lon="10.6977373"><ele>23.0</ele><time>2026-04-26T06:41:50.409Z</time></trkpt><trkpt lat="45.2134221" lon="10.6976786"><ele>23.0</ele><time>2026-04-26T06:41:52.408Z</time></trkpt><trkpt lat="45.2134803" lon="10.6976196"><ele>23.0</ele><time>2026-04-26T06:41:54.408Z</time></trkpt><trkpt lat="45.2135342" lon="10.6975616"><ele>23.0</ele><time>2026-04-26T06:41:56.409Z</time></trkpt><trkpt lat="45.2135842" lon="10.6975037"><ele>23.0</ele><time>2026-04-26T06:41:58.409Z</time></trkpt><trkpt lat="45.2136564" lon="10.6974271"><ele>23.0</ele><time>2026-04-26T06:42:01.409Z</time></trkpt><trkpt lat="45.2137187" lon="10.697356"><ele>23.0</ele><time>2026-04-26T06:42:04.409Z</time></trkpt><trkpt lat="45.2137855" lon="10.6972998"><ele>23.0</ele><time>2026-04-26T06:42:07.409Z</time></trkpt><trkpt lat="45.2138432" lon="10.6972564"><ele>23.0</ele><time>2026-04-26T06:42:10.409Z</time></trkpt><trkpt lat="45.2139059" lon="10.6972162"><ele>23.0</ele><time>2026-04-26T06:42:14.409Z</time></trkpt><trkpt lat="45.213969" lon="10.6971649"><ele>23.0</ele><time>2026-04-26T06:42:20.409Z</time></trkpt><trkpt lat="45.2140287" lon="10.6971211"><ele>23.0</ele><time>2026-04-26T06:42:23.408Z</time></trkpt><trkpt lat="45.2147509" lon="10.6963974"><ele>23.0</ele><time>2026-04-26T06:52:05.406Z</time></trkpt><trkpt lat="45.2148347" lon="10.6963159"><ele>23.0</ele><time>2026-04-26T06:52:08.406Z</time></trkpt><trkpt lat="45.2148932" lon="10.6962577"><ele>23.0</ele><time>2026-04-26T06:52:10.406Z</time></trkpt><trkpt lat="45.2149509" lon="10.6961989"><ele>23.0</ele><time>2026-04-26T06:52:12.406Z</time></trkpt><trkpt lat="45.2150084" lon="10.6961414"><ele>23.0</ele><time>2026-04-26T06:52:14.406Z</time></trkpt><trkpt lat="45.2150643" lon="10.6960847"><ele>23.0</ele><time>2026-04-26T06:52:16.406Z</time></trkpt><trkpt lat="45.2151195" lon="10.6960277"><ele>22.571428571428573</ele><time>2026-04-26T06:52:18.406Z</time></trkpt><trkpt lat="45.2151756" lon="10.6959735"><ele>22.142857142857142</ele><time>2026-04-26T06:52:20.404Z</time></trkpt><trkpt lat="45.2152311" lon="10.6959184"><ele>21.714285714285715</ele><time>2026-04-26T06:52:22.405Z</time></trkpt><trkpt lat="45.2152865" lon="10.6958573"><ele>21.285714285714285</ele><time>2026-04-26T06:52:24.405Z</time></trkpt><trkpt lat="45.2153414" lon="10.6958036"><ele>20.857142857142858</ele><time>2026-04-26T06:52:26.405Z</time></trkpt><trkpt lat="45.2153943" lon="10.6957444"><ele>20.428571428571427</ele><time>2026-04-26T06:52:28.405Z</time></trkpt><trkpt lat="45.215455" lon="10.6956887"><ele>20.0</ele><time>2026-04-26T06:52:30.404Z</time></trkpt><trkpt lat="45.215517" lon="10.6956308"><ele>20.0</ele><time>2026-04-26T06:52:32.404Z</time></trkpt><trkpt lat="45.2155746" lon="10.6955687"><ele>20.0</ele><time>2026-04-26T06:52:34.405Z</time></trkpt><trkpt lat="45.2156324" lon="10.6955135"><ele>20.0</ele><time>2026-04-26T06:52:36.405Z</time></trkpt><trkpt lat="45.2156876" lon="10.6954541"><ele>20.0</ele><time>2026-04-26T06:52:38.405Z</time></trkpt><trkpt lat="45.215745" lon="10.6953963"><ele>20.0</ele><time>2026-04-26T06:52:40.405Z</time></trkpt><trkpt lat="45.2158037" lon="10.6953384"><ele>20.0</ele><time>2026-04-26T06:52:42.404Z</time></trkpt><trkpt lat="45.2158609" lon="10.6952813"><ele>20.0</ele><time>2026-04-26T06:52:44.405Z</time></trkpt><trkpt lat="45.215918" lon="10.6952209"><ele>20.0</ele><time>2026-04-26T06:52:46.405Z</time></trkpt><trkpt lat="45.2159767" lon="10.6951609"><ele>20.0</ele><time>2026-04-26T06:52:48.405Z</time></trkpt><trkpt lat="45.216035" lon="10.695102"><ele>20.0</ele><time>2026-04-26T06:52:50.404Z</time></trkpt><trkpt lat="45.2160944" lon="10.6950426"><ele>20.0</ele><time>2026-04-26T06:52:52.405Z</time></trkpt><trkpt lat="45.2161533" lon="10.6949843"><ele>20.0</ele><time>2026-04-26T06:52:54.404Z</time></trkpt><trkpt lat="45.2162123" lon="10.694929"><ele>20.0</ele><time>2026-04-26T06:52:56.404Z</time></trkpt><trkpt lat="45.2162679" lon="10.6948724"><ele>20.0</ele><time>2026-04-26T06:52:58.405Z</time></trkpt><trkpt lat="45.2163253" lon="10.6948129"><ele>20.0</ele><time>2026-04-26T06:53:00.405Z</time></trkpt><trkpt lat="45.2163839" lon="10.6947554"><ele>20.0</ele><time>2026-04-26T06:53:02.405Z</time></trkpt><trkpt lat="45.2164412" lon="10.6946974"><ele>20.0</ele><time>2026-04-26T06:53:04.405Z</time></trkpt><trkpt lat="45.2165003" lon="10.694642"><ele>20.0</ele><time>2026-04-26T06:53:06.404Z</time></trkpt><trkpt lat="45.2165569" lon="10.6945803"><ele>20.0</ele><time>2026-04-26T06:53:08.404Z</time></trkpt><trkpt lat="45.2166159" lon="10.6945232"><ele>20.0</ele><time>2026-04-26T06:53:10.405Z</time></trkpt><trkpt lat="45.2166747" lon="10.6944677"><ele>20.0</ele><time>2026-04-26T06:53:12.405Z</time></trkpt><trkpt lat="45.2167333" lon="10.6944069"><ele>20.57142857142857</ele><time>2026-04-26T06:53:14.405Z</time></trkpt><trkpt lat="45.2167913" lon="10.6943513"><ele>21.142857142857142</ele><time>2026-04-26T06:53:16.405Z</time></trkpt><trkpt lat="45.2168441" lon="10.6942927"><ele>21.714285714285715</ele><time>2026-04-26T06:53:18.405Z</time></trkpt><trkpt lat="45.2168947" lon="10.6942386"><ele>22.285714285714285</ele><time>2026-04-26T06:53:20.405Z</time></trkpt><trkpt lat="45.2169623" lon="10.6941569"><ele>22.857142857142858</ele><time>2026-04-26T06:53:23.405Z</time></trkpt><trkpt lat="45.2170206" lon="10.6940821"><ele>23.428571428571427</ele><time>2026-04-26T06:53:26.404Z</time></trkpt><trkpt lat="45.2170817" lon="10.6940213"><ele>24.0</ele><time>2026-04-26T06:53:29.404Z</time></trkpt><trkpt lat="45.21715" lon="10.6939576"><ele>23.999999999999996</ele><time>2026-04-26T06:53:32.405Z</time></trkpt><trkpt lat="45.2172051" lon="10.6939114"><ele>24.0</ele><time>2026-04-26T06:53:34.405Z</time></trkpt><trkpt lat="45.2172679" lon="10.6938551"><ele>24.0</ele><time>2026-04-26T06:53:36.404Z</time></trkpt><trkpt lat="45.2173348" lon="10.6937935"><ele>24.0</ele><time>2026-04-26T06:53:38.405Z</time></trkpt><trkpt lat="45.2174021" lon="10.693737"><ele>24.0</ele><time>2026-04-26T06:53:40.405Z</time></trkpt><trkpt lat="45.217465" lon="10.6936822"><ele>23.999999999999996</ele><time>2026-04-26T06:53:42.404Z</time></trkpt><trkpt lat="45.2175219" lon="10.6936265"><ele>24.0</ele><time>2026-04-26T06:53:44.403Z</time></trkpt><trkpt lat="45.2175784" lon="10.6935735"><ele>23.57142857142857</ele><time>2026-04-26T06:53:46.404Z</time></trkpt><trkpt lat="45.2176346" lon="10.6935157"><ele>23.142857142857142</ele><time>2026-04-26T06:53:48.403Z</time></trkpt><trkpt lat="45.2176911" lon="10.693457"><ele>22.714285714285715</ele><time>2026-04-26T06:53:50.405Z</time></trkpt><trkpt lat="45.2177485" lon="10.6933998"><ele>22.285714285714285</ele><time>2026-04-26T06:53:52.404Z</time></trkpt><trkpt lat="45.217806" lon="10.6933406"><ele>21.857142857142858</ele><time>2026-04-26T06:53:54.404Z</time></trkpt><trkpt lat="45.2178653" lon="10.6932823"><ele>21.428571428571427</ele><time>2026-04-26T06:53:56.404Z</time></trkpt><trkpt lat="45.2179256" lon="10.693223"><ele>21.0</ele><time>2026-04-26T06:53:58.404Z</time></trkpt><trkpt lat="45.2179864" lon="10.6931635"><ele>21.0</ele><time>2026-04-26T06:54:00.404Z</time></trkpt><trkpt lat="45.2180463" lon="10.6931013"><ele>21.0</ele><time>2026-04-26T06:54:02.404Z</time></trkpt><trkpt lat="45.2181055" lon="10.693039"><ele>21.0</ele><time>2026-04-26T06:54:04.405Z</time></trkpt><trkpt lat="45.218165" lon="10.692981"><ele>21.0</ele><time>2026-04-26T06:54:06.404Z</time></trkpt><trkpt lat="45.218224" lon="10.6929243"><ele>21.0</ele><time>2026-04-26T06:54:08.405Z</time></trkpt><trkpt lat="45.2182806" lon="10.6928644"><ele>21.0</ele><time>2026-04-26T06:54:10.405Z</time></trkpt><trkpt lat="45.2183375" lon="10.6928106"><ele>21.0</ele><time>2026-04-26T06:54:12.405Z</time></trkpt><trkpt lat="45.2183935" lon="10.6927592"><ele>20.857142857142858</ele><time>2026-04-26T06:54:14.404Z</time></trkpt><trkpt lat="45.2184483" lon="10.6927098"><ele>20.714285714285715</ele><time>2026-04-26T06:54:16.405Z</time></trkpt><trkpt lat="45.2185237" lon="10.6926308"><ele>20.57142857142857</ele><time>2026-04-26T06:54:19.404Z</time></trkpt><trkpt lat="45.2186034" lon="10.6925607"><ele>20.42857142857143</ele><time>2026-04-26T06:54:22.405Z</time></trkpt><trkpt lat="45.2186567" lon="10.6925091"><ele>20.285714285714285</ele><time>2026-04-26T06:54:24.404Z</time></trkpt><trkpt lat="45.2187085" lon="10.6924555"><ele>20.142857142857142</ele><time>2026-04-26T06:54:26.403Z</time></trkpt><trkpt lat="45.2187626" lon="10.6924062"><ele>20.0</ele><time>2026-04-26T06:54:28.404Z</time></trkpt><trkpt lat="45.2188144" lon="10.6923547"><ele>20.0</ele><time>2026-04-26T06:54:30.405Z</time></trkpt><trkpt lat="45.2188649" lon="10.6922996"><ele>20.0</ele><time>2026-04-26T06:54:32.404Z</time></trkpt><trkpt lat="45.2189147" lon="10.6922422"><ele>20.0</ele><time>2026-04-26T06:54:34.405Z</time></trkpt><trkpt lat="45.2189646" lon="10.692177"><ele>20.0</ele><time>2026-04-26T06:54:36.405Z</time></trkpt><trkpt lat="45.2190143" lon="10.6921079"><ele>20.0</ele><time>2026-04-26T06:54:38.405Z</time></trkpt><trkpt lat="45.2190626" lon="10.6920415"><ele>20.0</ele><time>2026-04-26T06:54:40.404Z</time></trkpt><trkpt lat="45.2191089" lon="10.6919777"><ele>20.0</ele><time>2026-04-26T06:54:42.404Z</time></trkpt><trkpt lat="45.2191732" lon="10.6918862"><ele>20.166666666666668</ele><time>2026-04-26T06:54:45.404Z</time></trkpt><trkpt lat="45.2192324" lon="10.6917957"><ele>20.333333333333336</ele><time>2026-04-26T06:54:48.405Z</time></trkpt><trkpt lat="45.2192866" lon="10.6917093"><ele>20.5</ele><time>2026-04-26T06:54:51.405Z</time></trkpt><trkpt lat="45.2193406" lon="10.691616"><ele>20.666666666666668</ele><time>2026-04-26T06:54:54.404Z</time></trkpt><trkpt lat="45.2193948" lon="10.6915157"><ele>20.833333333333332</ele><time>2026-04-26T06:54:57.405Z</time></trkpt><trkpt lat="45.2194488" lon="10.6914092"><ele>21.0</ele><time>2026-04-26T06:55:00.405Z</time></trkpt><trkpt lat="45.2194829" lon="10.6913294"><ele>21.0</ele><time>2026-04-26T06:55:02.405Z</time></trkpt><trkpt lat="45.2195224" lon="10.6912531"><ele>21.0</ele><time>2026-04-26T06:55:04.405Z</time></trkpt><trkpt lat="45.2195608" lon="10.6911762"><ele>21.0</ele><time>2026-04-26T06:55:06.403Z</time></trkpt><trkpt lat="45.2195966" lon="10.6910962"><ele>21.0</ele><time>2026-04-26T06:55:08.404Z</time></trkpt><trkpt lat="45.2196303" lon="10.6910166"><ele>21.0</ele><time>2026-04-26T06:55:10.405Z</time></trkpt><trkpt lat="45.2196614" lon="10.6909349"><ele>21.0</ele><time>2026-04-26T06:55:12.405Z</time></trkpt><trkpt lat="45.2196949" lon="10.690854"><ele>21.0</ele><time>2026-04-26T06:55:14.404Z</time></trkpt><trkpt lat="45.2197288" lon="10.690774"><ele>21.0</ele><time>2026-04-26T06:55:16.405Z</time></trkpt><trkpt lat="45.2197563" lon="10.6906925"><ele>21.0</ele><time>2026-04-26T06:55:18.404Z</time></trkpt><trkpt lat="45.2197839" lon="10.6906092"><ele>21.0</ele><time>2026-04-26T06:55:20.404Z</time></trkpt><trkpt lat="45.2198085" lon="10.690525"><ele>21.0</ele><time>2026-04-26T06:55:22.403Z</time></trkpt><trkpt lat="45.2198495" lon="10.6904047"><ele>21.0</ele><time>2026-04-26T06:55:25.403Z</time></trkpt><trkpt lat="45.2198718" lon="10.6903154"><ele>21.0</ele><time>2026-04-26T06:55:27.404Z</time></trkpt><trkpt lat="45.2198939" lon="10.690224"><ele>21.0</ele><time>2026-04-26T06:55:29.403Z</time></trkpt><trkpt lat="45.2199179" lon="10.6901305"><ele>21.142857142857142</ele><time>2026-04-26T06:55:31.403Z</time></trkpt><trkpt lat="45.219942" lon="10.6900382"><ele>21.285714285714285</ele><time>2026-04-26T06:55:33.403Z</time></trkpt><trkpt lat="45.219966" lon="10.689948"><ele>21.42857142857143</ele><time>2026-04-26T06:55:35.404Z</time></trkpt><trkpt lat="45.219984" lon="10.6898566"><ele>21.57142857142857</ele><time>2026-04-26T06:55:37.403Z</time></trkpt><trkpt lat="45.2200022" lon="10.6897659"><ele>21.714285714285715</ele><time>2026-04-26T06:55:39.404Z</time></trkpt><trkpt lat="45.2200223" lon="10.6896725"><ele>21.857142857142858</ele><time>2026-04-26T06:55:41.404Z</time></trkpt><trkpt lat="45.2200457" lon="10.6895816"><ele>22.0</ele><time>2026-04-26T06:55:43.402Z</time></trkpt><trkpt lat="45.220068" lon="10.6894883"><ele>22.0</ele><time>2026-04-26T06:55:45.404Z</time></trkpt><trkpt lat="45.2200863" lon="10.6893996"><ele>22.0</ele><time>2026-04-26T06:55:47.403Z</time></trkpt><trkpt lat="45.2201078" lon="10.6893072"><ele>22.0</ele><time>2026-04-26T06:55:49.404Z</time></trkpt><trkpt lat="45.2201273" lon="10.6892157"><ele>22.0</ele><time>2026-04-26T06:55:51.404Z</time></trkpt><trkpt lat="45.2201532" lon="10.6891287"><ele>22.0</ele><time>2026-04-26T06:55:53.404Z</time></trkpt><trkpt lat="45.2201723" lon="10.6890395"><ele>22.0</ele><time>2026-04-26T06:55:55.404Z</time></trkpt><trkpt lat="45.2201949" lon="10.688953"><ele>22.0</ele><time>2026-04-26T06:55:57.404Z</time></trkpt><trkpt lat="45.2202147" lon="10.688865"><ele>22.0</ele><time>2026-04-26T06:55:59.403Z</time></trkpt><trkpt lat="45.2202362" lon="10.6887759"><ele>22.0</ele><time>2026-04-26T06:56:01.403Z</time></trkpt><trkpt lat="45.220257" lon="10.6886854"><ele>22.0</ele><time>2026-04-26T06:56:03.404Z</time></trkpt><trkpt lat="45.2202787" lon="10.6885948"><ele>22.0</ele><time>2026-04-26T06:56:05.404Z</time></trkpt><trkpt lat="45.2203009" lon="10.6885043"><ele>22.0</ele><time>2026-04-26T06:56:07.404Z</time></trkpt><trkpt lat="45.2203214" lon="10.6884122"><ele>22.0</ele><time>2026-04-26T06:56:09.403Z</time></trkpt><trkpt lat="45.2203382" lon="10.6883196"><ele>22.0</ele><time>2026-04-26T06:56:11.404Z</time></trkpt><trkpt lat="45.2203597" lon="10.6882283"><ele>21.857142857142858</ele><time>2026-04-26T06:56:13.404Z</time></trkpt><trkpt lat="45.2203831" lon="10.68814"><ele>21.714285714285715</ele><time>2026-04-26T06:56:15.404Z</time></trkpt><trkpt lat="45.2204032" lon="10.6880454"><ele>21.57142857142857</ele><time>2026-04-26T06:56:17.403Z</time></trkpt><trkpt lat="45.220422" lon="10.6879483"><ele>21.42857142857143</ele><time>2026-04-26T06:56:19.403Z</time></trkpt><trkpt lat="45.2204422" lon="10.6878545"><ele>21.285714285714285</ele><time>2026-04-26T06:56:21.404Z</time></trkpt><trkpt lat="45.2204637" lon="10.6877609"><ele>21.142857142857142</ele><time>2026-04-26T06:56:23.403Z</time></trkpt><trkpt lat="45.2204847" lon="10.6876685"><ele>21.0</ele><time>2026-04-26T06:56:25.403Z</time></trkpt><trkpt lat="45.2205034" lon="10.6875766"><ele>21.0</ele><time>2026-04-26T06:56:27.404Z</time></trkpt><trkpt lat="45.2205247" lon="10.6874872"><ele>21.0</ele><time>2026-04-26T06:56:29.404Z</time></trkpt><trkpt lat="45.2205466" lon="10.6874014"><ele>21.0</ele><time>2026-04-26T06:56:31.403Z</time></trkpt><trkpt lat="45.2205688" lon="10.6872716"><ele>21.0</ele><time>2026-04-26T06:56:34.404Z</time></trkpt><trkpt lat="45.2206015" lon="10.6871548"><ele>21.0</ele><time>2026-04-26T06:56:37.403Z</time></trkpt><trkpt lat="45.2206217" lon="10.6870291"><ele>21.0</ele><time>2026-04-26T06:56:40.402Z</time></trkpt><trkpt lat="45.22064" lon="10.6869047"><ele>21.166666666666668</ele><time>2026-04-26T06:56:43.404Z</time></trkpt><trkpt lat="45.2206606" lon="10.6867949"><ele>21.333333333333332</ele><time>2026-04-26T06:56:46.404Z</time></trkpt><trkpt lat="45.2206774" lon="10.6866889"><ele>21.5</ele><time>2026-04-26T06:56:49.403Z</time></trkpt><trkpt lat="45.2206995" lon="10.686595"><ele>21.666666666666664</ele><time>2026-04-26T06:56:52.403Z</time></trkpt><trkpt lat="45.2207254" lon="10.6864943"><ele>21.833333333333332</ele><time>2026-04-26T06:56:55.403Z</time></trkpt><trkpt lat="45.220762" lon="10.686378"><ele>22.0</ele><time>2026-04-26T06:56:58.404Z</time></trkpt><trkpt lat="45.2207912" lon="10.6862861"><ele>22.0</ele><time>2026-04-26T06:57:00.404Z</time></trkpt><trkpt lat="45.2208191" lon="10.6861862"><ele>22.0</ele><time>2026-04-26T06:57:02.403Z</time></trkpt><trkpt lat="45.2208458" lon="10.6860878"><ele>22.0</ele><time>2026-04-26T06:57:04.403Z</time></trkpt><trkpt lat="45.2208683" lon="10.6859918"><ele>22.0</ele><time>2026-04-26T06:57:06.403Z</time></trkpt><trkpt lat="45.2208874" lon="10.6858983"><ele>22.0</ele><time>2026-04-26T06:57:08.404Z</time></trkpt><trkpt lat="45.2209066" lon="10.6858048"><ele>22.0</ele><time>2026-04-26T06:57:10.403Z</time></trkpt><trkpt lat="45.2209302" lon="10.6857112"><ele>22.0</ele><time>2026-04-26T06:57:12.404Z</time></trkpt><trkpt lat="45.2209539" lon="10.6856141"><ele>21.571428571428573</ele><time>2026-04-26T06:57:14.404Z</time></trkpt><trkpt lat="45.220976" lon="10.6855181"><ele>21.142857142857142</ele><time>2026-04-26T06:57:16.404Z</time></trkpt><trkpt lat="45.2209967" lon="10.6854228"><ele>20.714285714285715</ele><time>2026-04-26T06:57:18.403Z</time></trkpt><trkpt lat="45.2210161" lon="10.6853308"><ele>20.285714285714285</ele><time>2026-04-26T06:57:20.404Z</time></trkpt><trkpt lat="45.2210367" lon="10.6852396"><ele>19.857142857142858</ele><time>2026-04-26T06:57:22.404Z</time></trkpt><trkpt lat="45.2210545" lon="10.6851455"><ele>19.428571428571427</ele><time>2026-04-26T06:57:24.403Z</time></trkpt><trkpt lat="45.2210778" lon="10.6850547"><ele>19.0</ele><time>2026-04-26T06:57:26.403Z</time></trkpt><trkpt lat="45.2210997" lon="10.684964"><ele>19.0</ele><time>2026-04-26T06:57:28.403Z</time></trkpt><trkpt lat="45.2211224" lon="10.6848725"><ele>19.0</ele><time>2026-04-26T06:57:30.404Z</time></trkpt><trkpt lat="45.2211434" lon="10.6847779"><ele>19.0</ele><time>2026-04-26T06:57:32.403Z</time></trkpt><trkpt lat="45.2211656" lon="10.6846812"><ele>19.0</ele><time>2026-04-26T06:57:34.404Z</time></trkpt><trkpt lat="45.2211896" lon="10.6845835"><ele>19.0</ele><time>2026-04-26T06:57:36.403Z</time></trkpt><trkpt lat="45.2212117" lon="10.6844856"><ele>19.0</ele><time>2026-04-26T06:57:38.404Z</time></trkpt><trkpt lat="45.2212332" lon="10.6843882"><ele>19.0</ele><time>2026-04-26T06:57:40.403Z</time></trkpt><trkpt lat="45.221256" lon="10.6842916"><ele>19.0</ele><time>2026-04-26T06:57:42.403Z</time></trkpt><trkpt lat="45.2212771" lon="10.6841956"><ele>19.0</ele><time>2026-04-26T06:57:44.404Z</time></trkpt><trkpt lat="45.2212999" lon="10.6841027"><ele>19.0</ele><time>2026-04-26T06:57:46.404Z</time></trkpt><trkpt lat="45.2213198" lon="10.6840097"><ele>19.0</ele><time>2026-04-26T06:57:48.403Z</time></trkpt><trkpt lat="45.2213393" lon="10.6839182"><ele>19.0</ele><time>2026-04-26T06:57:50.403Z</time></trkpt><trkpt lat="45.2213594" lon="10.6838275"><ele>19.0</ele><time>2026-04-26T06:57:52.403Z</time></trkpt><trkpt lat="45.2213778" lon="10.6837379"><ele>19.0</ele><time>2026-04-26T06:57:54.403Z</time></trkpt><trkpt lat="45.2214009" lon="10.6836501"><ele>19.0</ele><time>2026-04-26T06:57:56.404Z</time></trkpt><trkpt lat="45.2214246" lon="10.6835625"><ele>19.0</ele><time>2026-04-26T06:57:58.402Z</time></trkpt><trkpt lat="45.2214463" lon="10.6834726"><ele>19.0</ele><time>2026-04-26T06:58:00.403Z</time></trkpt><trkpt lat="45.2214661" lon="10.6833807"><ele>19.0</ele><time>2026-04-26T06:58:02.403Z</time></trkpt><trkpt lat="45.2214893" lon="10.6832913"><ele>19.0</ele><time>2026-04-26T06:58:04.403Z</time></trkpt><trkpt lat="45.2215188" lon="10.6831641"><ele>19.0</ele><time>2026-04-26T06:58:07.404Z</time></trkpt><trkpt lat="45.2215379" lon="10.6830773"><ele>19.0</ele><time>2026-04-26T06:58:09.404Z</time></trkpt><trkpt lat="45.2215573" lon="10.6829902"><ele>19.166666666666664</ele><time>2026-04-26T06:58:11.404Z</time></trkpt><trkpt lat="45.2215887" lon="10.6828658"><ele>19.333333333333332</ele><time>2026-04-26T06:58:14.404Z</time></trkpt><trkpt lat="45.2216093" lon="10.6827799"><ele>19.5</ele><time>2026-04-26T06:58:16.404Z</time></trkpt><trkpt lat="45.2216304" lon="10.682693"><ele>19.666666666666668</ele><time>2026-04-26T06:58:18.403Z</time></trkpt><trkpt lat="45.2216495" lon="10.6826062"><ele>19.833333333333336</ele><time>2026-04-26T06:58:20.403Z</time></trkpt><trkpt lat="45.2216795" lon="10.6824802"><ele>20.0</ele><time>2026-04-26T06:58:23.402Z</time></trkpt><trkpt lat="45.2217072" lon="10.6823555"><ele>20.0</ele><time>2026-04-26T06:58:26.403Z</time></trkpt><trkpt lat="45.2217377" lon="10.6822286"><ele>20.0</ele><time>2026-04-26T06:58:29.403Z</time></trkpt><trkpt lat="45.2217663" lon="10.6821035"><ele>20.0</ele><time>2026-04-26T06:58:32.401Z</time></trkpt><trkpt lat="45.2217929" lon="10.6819814"><ele>20.0</ele><time>2026-04-26T06:58:35.402Z</time></trkpt><trkpt lat="45.2218123" lon="10.681895"><ele>20.0</ele><time>2026-04-26T06:58:37.402Z</time></trkpt><trkpt lat="45.2218344" lon="10.6818078"><ele>20.0</ele><time>2026-04-26T06:58:39.402Z</time></trkpt><trkpt lat="45.2218556" lon="10.6817221"><ele>20.0</ele><time>2026-04-26T06:58:41.402Z</time></trkpt><trkpt lat="45.2218756" lon="10.6816356"><ele>20.0</ele><time>2026-04-26T06:58:43.402Z</time></trkpt><trkpt lat="45.2218969" lon="10.6815492"><ele>20.0</ele><time>2026-04-26T06:58:45.403Z</time></trkpt><trkpt lat="45.2219179" lon="10.6814622"><ele>20.0</ele><time>2026-04-26T06:58:47.402Z</time></trkpt><trkpt lat="45.2219432" lon="10.6813693"><ele>20.0</ele><time>2026-04-26T06:58:49.403Z</time></trkpt><trkpt lat="45.2219664" lon="10.6812766"><ele>20.0</ele><time>2026-04-26T06:58:51.403Z</time></trkpt><trkpt lat="45.2219896" lon="10.6811816"><ele>20.0</ele><time>2026-04-26T06:58:53.403Z</time></trkpt><trkpt lat="45.2220136" lon="10.6810842"><ele>20.142857142857142</ele><time>2026-04-26T06:58:55.403Z</time></trkpt><trkpt lat="45.2220381" lon="10.6809892"><ele>20.285714285714285</ele><time>2026-04-26T06:58:57.403Z</time></trkpt><trkpt lat="45.2220636" lon="10.6808956"><ele>20.42857142857143</ele><time>2026-04-26T06:58:59.402Z</time></trkpt><trkpt lat="45.2220905" lon="10.6808037"><ele>20.57142857142857</ele><time>2026-04-26T06:59:01.403Z</time></trkpt><trkpt lat="45.222116" lon="10.6807135"><ele>20.714285714285715</ele><time>2026-04-26T06:59:03.403Z</time></trkpt><trkpt lat="45.2221423" lon="10.6806242"><ele>20.857142857142858</ele><time>2026-04-26T06:59:05.403Z</time></trkpt><trkpt lat="45.2221676" lon="10.6805341"><ele>21.0</ele><time>2026-04-26T06:59:07.403Z</time></trkpt><trkpt lat="45.222198" lon="10.6804493"><ele>21.0</ele><time>2026-04-26T06:59:09.402Z</time></trkpt><trkpt lat="45.2222275" lon="10.6803644"><ele>21.0</ele><time>2026-04-26T06:59:11.403Z</time></trkpt><trkpt lat="45.2222567" lon="10.6802822"><ele>21.0</ele><time>2026-04-26T06:59:13.402Z</time></trkpt><trkpt lat="45.222284" lon="10.6802014"><ele>21.0</ele><time>2026-04-26T06:59:15.402Z</time></trkpt><trkpt lat="45.2223111" lon="10.6801202"><ele>21.0</ele><time>2026-04-26T06:59:17.402Z</time></trkpt><trkpt lat="45.2223569" lon="10.6800043"><ele>21.0</ele><time>2026-04-26T06:59:20.403Z</time></trkpt><trkpt lat="45.2223881" lon="10.6799265"><ele>21.0</ele><time>2026-04-26T06:59:22.402Z</time></trkpt><trkpt lat="45.2224352" lon="10.6798131"><ele>21.166666666666668</ele><time>2026-04-26T06:59:25.403Z</time></trkpt><trkpt lat="45.2224854" lon="10.6797046"><ele>21.333333333333332</ele><time>2026-04-26T06:59:28.403Z</time></trkpt><trkpt lat="45.2225373" lon="10.6795974"><ele>21.5</ele><time>2026-04-26T06:59:31.402Z</time></trkpt><trkpt lat="45.2225902" lon="10.6794964"><ele>21.666666666666664</ele><time>2026-04-26T06:59:34.403Z</time></trkpt><trkpt lat="45.2226412" lon="10.6793962"><ele>21.833333333333332</ele><time>2026-04-26T06:59:37.402Z</time></trkpt><trkpt lat="45.2226982" lon="10.6792968"><ele>22.0</ele><time>2026-04-26T06:59:40.402Z</time></trkpt><trkpt lat="45.2227564" lon="10.6791959"><ele>22.0</ele><time>2026-04-26T06:59:43.402Z</time></trkpt><trkpt lat="45.222815" lon="10.6790936"><ele>22.0</ele><time>2026-04-26T06:59:46.403Z</time></trkpt><trkpt lat="45.2228746" lon="10.6789922"><ele>22.0</ele><time>2026-04-26T06:59:49.403Z</time></trkpt><trkpt lat="45.2229348" lon="10.6788905"><ele>22.0</ele><time>2026-04-26T06:59:52.402Z</time></trkpt><trkpt lat="45.2229989" lon="10.6788033"><ele>22.0</ele><time>2026-04-26T06:59:55.403Z</time></trkpt><trkpt lat="45.2230645" lon="10.6787226"><ele>22.0</ele><time>2026-04-26T06:59:58.402Z</time></trkpt><trkpt lat="45.2231293" lon="10.678641"><ele>22.0</ele><time>2026-04-26T07:00:01.402Z</time></trkpt><trkpt lat="45.2231957" lon="10.6785539"><ele>22.0</ele><time>2026-04-26T07:00:04.402Z</time></trkpt><trkpt lat="45.2232658" lon="10.6784743"><ele>22.0</ele><time>2026-04-26T07:00:07.403Z</time></trkpt><trkpt lat="45.2233328" lon="10.6783856"><ele>22.0</ele><time>2026-04-26T07:00:10.403Z</time></trkpt><trkpt lat="45.2233959" lon="10.6783075"><ele>22.0</ele><time>2026-04-26T07:00:13.402Z</time></trkpt><trkpt lat="45.223453" lon="10.6782315"><ele>22.0</ele><time>2026-04-26T07:00:16.403Z</time></trkpt><trkpt lat="45.2235109" lon="10.6781564"><ele>22.0</ele><time>2026-04-26T07:00:19.402Z</time></trkpt><trkpt lat="45.2235633" lon="10.6780796"><ele>22.0</ele><time>2026-04-26T07:00:22.403Z</time></trkpt><trkpt lat="45.2236109" lon="10.6780088"><ele>22.0</ele><time>2026-04-26T07:00:25.403Z</time></trkpt><trkpt lat="45.2236701" lon="10.6779215"><ele>22.0</ele><time>2026-04-26T07:00:29.402Z</time></trkpt><trkpt lat="45.2237166" lon="10.677836"><ele>22.0</ele><time>2026-04-26T07:00:32.402Z</time></trkpt><trkpt lat="45.2237635" lon="10.677748"><ele>22.0</ele><time>2026-04-26T07:00:35.403Z</time></trkpt><trkpt lat="45.2238007" lon="10.6776559"><ele>22.0</ele><time>2026-04-26T07:00:38.402Z</time></trkpt><trkpt lat="45.2238333" lon="10.6775618"><ele>22.0</ele><time>2026-04-26T07:00:41.403Z</time></trkpt><trkpt lat="45.2238704" lon="10.6774632"><ele>22.0</ele><time>2026-04-26T07:00:44.402Z</time></trkpt><trkpt lat="45.2239056" lon="10.6773466"><ele>22.0</ele><time>2026-04-26T07:00:47.402Z</time></trkpt><trkpt lat="45.22394" lon="10.677223"><ele>22.0</ele><time>2026-04-26T07:00:50.403Z</time></trkpt><trkpt lat="45.22397" lon="10.6771081"><ele>22.0</ele><time>2026-04-26T07:00:53.402Z</time></trkpt><trkpt lat="45.2240115" lon="10.6770077"><ele>22.0</ele><time>2026-04-26T07:00:56.402Z</time></trkpt><trkpt lat="45.2240662" lon="10.6769272"><ele>22.0</ele><time>2026-04-26T07:00:59.402Z</time></trkpt><trkpt lat="45.2241279" lon="10.6769468"><ele>22.0</ele><time>2026-04-26T07:01:02.402Z</time></trkpt><trkpt lat="45.2242104" lon="10.6769572"><ele>22.0</ele><time>2026-04-26T07:01:06.402Z</time></trkpt><trkpt lat="45.2242882" lon="10.6769355"><ele>22.0</ele><time>2026-04-26T07:01:09.402Z</time></trkpt><trkpt lat="45.2243761" lon="10.6768966"><ele>21.857142857142858</ele><time>2026-04-26T07:01:12.403Z</time></trkpt><trkpt lat="45.2244353" lon="10.6768516"><ele>21.714285714285715</ele><time>2026-04-26T07:01:14.403Z</time></trkpt><trkpt lat="45.2244987" lon="10.6767978"><ele>21.57142857142857</ele><time>2026-04-26T07:01:16.403Z</time></trkpt><trkpt lat="45.2245595" lon="10.6767407"><ele>21.42857142857143</ele><time>2026-04-26T07:01:18.402Z</time></trkpt><trkpt lat="45.2246176" lon="10.6766918"><ele>21.285714285714285</ele><time>2026-04-26T07:01:20.402Z</time></trkpt><trkpt lat="45.2246968" lon="10.6766337"><ele>21.142857142857142</ele><time>2026-04-26T07:01:23.401Z</time></trkpt><trkpt lat="45.2247682" lon="10.6765881"><ele>21.0</ele><time>2026-04-26T07:01:26.402Z</time></trkpt><trkpt lat="45.2248454" lon="10.676531"><ele>21.0</ele><time>2026-04-26T07:01:29.401Z</time></trkpt><trkpt lat="45.2249016" lon="10.676485"><ele>21.0</ele><time>2026-04-26T07:01:31.402Z</time></trkpt><trkpt lat="45.224955" lon="10.6764344"><ele>21.0</ele><time>2026-04-26T07:01:33.402Z</time></trkpt><trkpt lat="45.2250095" lon="10.6763789"><ele>21.0</ele><time>2026-04-26T07:01:35.402Z</time></trkpt><trkpt lat="45.2250598" lon="10.6763163"><ele>21.0</ele><time>2026-04-26T07:01:37.402Z</time></trkpt><trkpt lat="45.2251094" lon="10.6762508"><ele>21.0</ele><time>2026-04-26T07:01:39.402Z</time></trkpt><trkpt lat="45.2251548" lon="10.6761822"><ele>21.0</ele><time>2026-04-26T07:01:41.401Z</time></trkpt><trkpt lat="45.2251928" lon="10.6761102"><ele>21.0</ele><time>2026-04-26T07:01:43.402Z</time></trkpt><trkpt lat="45.2252601" lon="10.676014"><ele>21.0</ele><time>2026-04-26T07:01:46.402Z</time></trkpt><trkpt lat="45.2253116" lon="10.6759461"><ele>21.0</ele><time>2026-04-26T07:01:48.401Z</time></trkpt><trkpt lat="45.2253597" lon="10.6758868"><ele>21.0</ele><time>2026-04-26T07:01:50.402Z</time></trkpt><trkpt lat="45.2254358" lon="10.6758102"><ele>21.0</ele><time>2026-04-26T07:01:53.401Z</time></trkpt><trkpt lat="45.2255095" lon="10.675731"><ele>21.0</ele><time>2026-04-26T07:01:56.401Z</time></trkpt><trkpt lat="45.2255838" lon="10.6756585"><ele>21.0</ele><time>2026-04-26T07:01:59.402Z</time></trkpt><trkpt lat="45.2256489" lon="10.6755857"><ele>21.0</ele><time>2026-04-26T07:02:02.401Z</time></trkpt><trkpt lat="45.2257164" lon="10.6755136"><ele>21.0</ele><time>2026-04-26T07:02:05.402Z</time></trkpt><trkpt lat="45.2257862" lon="10.67544"><ele>21.0</ele><time>2026-04-26T07:02:08.401Z</time></trkpt><trkpt lat="45.2258533" lon="10.6753651"><ele>21.0</ele><time>2026-04-26T07:02:11.402Z</time></trkpt><trkpt lat="45.2259215" lon="10.6752888"><ele>21.0</ele><time>2026-04-26T07:02:14.402Z</time></trkpt><trkpt lat="45.2259891" lon="10.6752005"><ele>21.0</ele><time>2026-04-26T07:02:17.402Z</time></trkpt><trkpt lat="45.2260589" lon="10.675115"><ele>21.0</ele><time>2026-04-26T07:02:20.402Z</time></trkpt><trkpt lat="45.2261056" lon="10.6750523"><ele>21.0</ele><time>2026-04-26T07:02:22.402Z</time></trkpt><trkpt lat="45.22618" lon="10.6749708"><ele>21.0</ele><time>2026-04-26T07:02:25.401Z</time></trkpt><trkpt lat="45.2262321" lon="10.6749168"><ele>21.0</ele><time>2026-04-26T07:02:27.402Z</time></trkpt><trkpt lat="45.2263029" lon="10.6748402"><ele>21.0</ele><time>2026-04-26T07:02:30.402Z</time></trkpt><trkpt lat="45.2263698" lon="10.6747773"><ele>21.0</ele><time>2026-04-26T07:02:33.401Z</time></trkpt><trkpt lat="45.226443" lon="10.6747056"><ele>21.0</ele><time>2026-04-26T07:02:36.401Z</time></trkpt><trkpt lat="45.2265161" lon="10.6746417"><ele>21.0</ele><time>2026-04-26T07:02:39.401Z</time></trkpt><trkpt lat="45.226595" lon="10.6745735"><ele>21.0</ele><time>2026-04-26T07:02:42.402Z</time></trkpt><trkpt lat="45.2266757" lon="10.6745101"><ele>21.0</ele><time>2026-04-26T07:02:45.402Z</time></trkpt><trkpt lat="45.2267534" lon="10.6744539"><ele>21.0</ele><time>2026-04-26T07:02:48.402Z</time></trkpt><trkpt lat="45.2268168" lon="10.6743968"><ele>21.166666666666668</ele><time>2026-04-26T07:02:51.401Z</time></trkpt><trkpt lat="45.2268745" lon="10.674345"><ele>21.333333333333332</ele><time>2026-04-26T07:02:54.401Z</time></trkpt><trkpt lat="45.2269406" lon="10.6742987"><ele>21.5</ele><time>2026-04-26T07:02:57.401Z</time></trkpt><trkpt lat="45.2270142" lon="10.6742528"><ele>21.666666666666664</ele><time>2026-04-26T07:03:00.402Z</time></trkpt><trkpt lat="45.2270876" lon="10.6742049"><ele>21.833333333333332</ele><time>2026-04-26T07:03:03.402Z</time></trkpt><trkpt lat="45.2271584" lon="10.674152"><ele>22.0</ele><time>2026-04-26T07:03:06.402Z</time></trkpt><trkpt lat="45.2272312" lon="10.6741069"><ele>22.166666666666664</ele><time>2026-04-26T07:03:09.402Z</time></trkpt><trkpt lat="45.2273116" lon="10.6740616"><ele>22.333333333333332</ele><time>2026-04-26T07:03:12.402Z</time></trkpt><trkpt lat="45.2273886" lon="10.6740141"><ele>22.5</ele><time>2026-04-26T07:03:15.402Z</time></trkpt><trkpt lat="45.2274653" lon="10.673968"><ele>22.666666666666668</ele><time>2026-04-26T07:03:18.401Z</time></trkpt><trkpt lat="45.227537" lon="10.6739259"><ele>22.833333333333336</ele><time>2026-04-26T07:03:21.402Z</time></trkpt><trkpt lat="45.227611" lon="10.6738855"><ele>23.0</ele><time>2026-04-26T07:03:24.4Z</time></trkpt><trkpt lat="45.2276897" lon="10.6738437"><ele>23.0</ele><time>2026-04-26T07:03:27.401Z</time></trkpt><trkpt lat="45.2277713" lon="10.6738042"><ele>23.0</ele><time>2026-04-26T07:03:30.402Z</time></trkpt><trkpt lat="45.227853" lon="10.6737684"><ele>23.0</ele><time>2026-04-26T07:03:33.401Z</time></trkpt><trkpt lat="45.2279338" lon="10.67373"><ele>23.0</ele><time>2026-04-26T07:03:36.401Z</time></trkpt><trkpt lat="45.2280075" lon="10.6736941"><ele>23.0</ele><time>2026-04-26T07:03:39.402Z</time></trkpt><trkpt lat="45.228078" lon="10.673654"><ele>23.0</ele><time>2026-04-26T07:03:42.401Z</time></trkpt><trkpt lat="45.2281518" lon="10.6736233"><ele>22.833333333333336</ele><time>2026-04-26T07:03:45.402Z</time></trkpt><trkpt lat="45.2282312" lon="10.6735819"><ele>22.666666666666668</ele><time>2026-04-26T07:03:48.402Z</time></trkpt><trkpt lat="45.2283112" lon="10.6735426"><ele>22.5</ele><time>2026-04-26T07:03:51.402Z</time></trkpt><trkpt lat="45.2283932" lon="10.6735049"><ele>22.333333333333332</ele><time>2026-04-26T07:03:54.402Z</time></trkpt><trkpt lat="45.228473" lon="10.6734582"><ele>22.166666666666664</ele><time>2026-04-26T07:03:57.401Z</time></trkpt><trkpt lat="45.2285494" lon="10.6734068"><ele>22.0</ele><time>2026-04-26T07:04:00.401Z</time></trkpt><trkpt lat="45.2286288" lon="10.6733696"><ele>22.0</ele><time>2026-04-26T07:04:03.401Z</time></trkpt><trkpt lat="45.2287088" lon="10.6733325"><ele>22.0</ele><time>2026-04-26T07:04:06.401Z</time></trkpt><trkpt lat="45.2287881" lon="10.6732941"><ele>22.0</ele><time>2026-04-26T07:04:09.402Z</time></trkpt><trkpt lat="45.2288658" lon="10.6732478"><ele>22.0</ele><time>2026-04-26T07:04:12.402Z</time></trkpt><trkpt lat="45.2289359" lon="10.6731827"><ele>22.0</ele><time>2026-04-26T07:04:15.401Z</time></trkpt><trkpt lat="45.2289804" lon="10.6730669"><ele>22.0</ele><time>2026-04-26T07:04:18.402Z</time></trkpt><trkpt lat="45.228976" lon="10.6729777"><ele>22.0</ele><time>2026-04-26T07:04:20.403Z</time></trkpt><trkpt lat="45.2289404" lon="10.672866"><ele>22.0</ele><time>2026-04-26T07:04:23.401Z</time></trkpt><trkpt lat="45.2289073" lon="10.6727685"><ele>22.0</ele><time>2026-04-26T07:04:26.401Z</time></trkpt><trkpt lat="45.2288697" lon="10.6726686"><ele>22.0</ele><time>2026-04-26T07:04:29.401Z</time></trkpt><trkpt lat="45.228824" lon="10.6725648"><ele>22.0</ele><time>2026-04-26T07:04:32.4Z</time></trkpt><trkpt lat="45.2287821" lon="10.6724553"><ele>22.0</ele><time>2026-04-26T07:04:35.4Z</time></trkpt><trkpt lat="45.2287426" lon="10.6723499"><ele>22.0</ele><time>2026-04-26T07:04:38.401Z</time></trkpt><trkpt lat="45.2287032" lon="10.6722455"><ele>22.0</ele><time>2026-04-26T07:04:41.4Z</time></trkpt><trkpt lat="45.2286631" lon="10.6721409"><ele>22.0</ele><time>2026-04-26T07:04:44.401Z</time></trkpt><trkpt lat="45.2286228" lon="10.6720347"><ele>22.0</ele><time>2026-04-26T07:04:47.401Z</time></trkpt><trkpt lat="45.2285869" lon="10.6719278"><ele>22.0</ele><time>2026-04-26T07:04:50.401Z</time></trkpt><trkpt lat="45.2285453" lon="10.6718196"><ele>22.0</ele><time>2026-04-26T07:04:53.401Z</time></trkpt><trkpt lat="45.2285053" lon="10.6717085"><ele>22.166666666666664</ele><time>2026-04-26T07:04:56.4Z</time></trkpt><trkpt lat="45.2284626" lon="10.6715962"><ele>22.333333333333332</ele><time>2026-04-26T07:04:59.401Z</time></trkpt><trkpt lat="45.2284191" lon="10.6714862"><ele>22.5</ele><time>2026-04-26T07:05:02.401Z</time></trkpt><trkpt lat="45.2283801" lon="10.6713768"><ele>22.666666666666668</ele><time>2026-04-26T07:05:05.4Z</time></trkpt><trkpt lat="45.228338" lon="10.6712691"><ele>22.833333333333336</ele><time>2026-04-26T07:05:08.401Z</time></trkpt><trkpt lat="45.2282977" lon="10.6711599"><ele>23.0</ele><time>2026-04-26T07:05:11.4Z</time></trkpt><trkpt lat="45.2282618" lon="10.6710476"><ele>23.0</ele><time>2026-04-26T07:05:14.4Z</time></trkpt><trkpt lat="45.2282192" lon="10.6709342"><ele>23.0</ele><time>2026-04-26T07:05:17.401Z</time></trkpt><trkpt lat="45.2281759" lon="10.6708239"><ele>23.0</ele><time>2026-04-26T07:05:20.401Z</time></trkpt><trkpt lat="45.2281387" lon="10.67071"><ele>23.0</ele><time>2026-04-26T07:05:23.4Z</time></trkpt><trkpt lat="45.2280977" lon="10.6706"><ele>23.0</ele><time>2026-04-26T07:05:26.401Z</time></trkpt><trkpt lat="45.2280539" lon="10.670498"><ele>23.0</ele><time>2026-04-26T07:05:29.4Z</time></trkpt><trkpt lat="45.2279948" lon="10.6704017"><ele>22.857142857142858</ele><time>2026-04-26T07:05:32.401Z</time></trkpt><trkpt lat="45.2279416" lon="10.6703406"><ele>22.71428571428571</ele><time>2026-04-26T07:05:34.401Z</time></trkpt><trkpt lat="45.227879" lon="10.6702979"><ele>22.57142857142857</ele><time>2026-04-26T07:05:36.401Z</time></trkpt><trkpt lat="45.227815" lon="10.67027"><ele>22.42857142857143</ele><time>2026-04-26T07:05:38.401Z</time></trkpt><trkpt lat="45.2277525" lon="10.670244"><ele>22.285714285714285</ele><time>2026-04-26T07:05:40.4Z</time></trkpt><trkpt lat="45.227665" lon="10.6702128"><ele>22.142857142857142</ele><time>2026-04-26T07:05:43.401Z</time></trkpt><trkpt lat="45.2275848" lon="10.6701714"><ele>22.0</ele><time>2026-04-26T07:05:46.4Z</time></trkpt><trkpt lat="45.2275126" lon="10.6700957"><ele>22.333333333333332</ele><time>2026-04-26T07:05:49.401Z</time></trkpt><trkpt lat="45.2274724" lon="10.6699994"><ele>22.666666666666664</ele><time>2026-04-26T07:05:52.401Z</time></trkpt><trkpt lat="45.2274612" lon="10.6698926"><ele>23.0</ele><time>2026-04-26T07:05:55.399Z</time></trkpt><trkpt lat="45.227462" lon="10.6697774"><ele>23.333333333333332</ele><time>2026-04-26T07:05:58.401Z</time></trkpt><trkpt lat="45.2274761" lon="10.6696568"><ele>23.666666666666668</ele><time>2026-04-26T07:06:01.401Z</time></trkpt><trkpt lat="45.2274839" lon="10.6695256"><ele>24.0</ele><time>2026-04-26T07:06:04.4Z</time></trkpt><trkpt lat="45.2274874" lon="10.6693947"><ele>24.166666666666668</ele><time>2026-04-26T07:06:07.4Z</time></trkpt><trkpt lat="45.2274932" lon="10.6692718"><ele>24.333333333333336</ele><time>2026-04-26T07:06:10.4Z</time></trkpt><trkpt lat="45.227493" lon="10.6691405"><ele>24.5</ele><time>2026-04-26T07:06:13.401Z</time></trkpt><trkpt lat="45.227495" lon="10.6690481"><ele>24.666666666666668</ele><time>2026-04-26T07:06:15.401Z</time></trkpt><trkpt lat="45.2274934" lon="10.6689167"><ele>24.833333333333336</ele><time>2026-04-26T07:06:18.401Z</time></trkpt><trkpt lat="45.2275025" lon="10.6687841"><ele>25.0</ele><time>2026-04-26T07:06:21.401Z</time></trkpt><trkpt lat="45.2275042" lon="10.6686944"><ele>25.2</ele><time>2026-04-26T07:06:23.4Z</time></trkpt><trkpt lat="45.2275086" lon="10.6685629"><ele>25.4</ele><time>2026-04-26T07:06:26.4Z</time></trkpt><trkpt lat="45.2275205" lon="10.6684337"><ele>25.6</ele><time>2026-04-26T07:06:29.4Z</time></trkpt><trkpt lat="45.2275227" lon="10.6683011"><ele>25.8</ele><time>2026-04-26T07:06:32.4Z</time></trkpt><trkpt lat="45.2275251" lon="10.6681722"><ele>26.0</ele><time>2026-04-26T07:06:35.401Z</time></trkpt><trkpt lat="45.2275292" lon="10.6680548"><ele>26.0</ele><time>2026-04-26T07:06:38.4Z</time></trkpt><trkpt lat="45.2275377" lon="10.6679304"><ele>26.0</ele><time>2026-04-26T07:06:41.4Z</time></trkpt><trkpt lat="45.2275469" lon="10.6678002"><ele>26.0</ele><time>2026-04-26T07:06:44.401Z</time></trkpt><trkpt lat="45.2275689" lon="10.6676772"><ele>26.0</ele><time>2026-04-26T07:06:47.4Z</time></trkpt><trkpt lat="45.2275867" lon="10.6675529"><ele>26.0</ele><time>2026-04-26T07:06:50.4Z</time></trkpt><trkpt lat="45.2275492" lon="10.6674334"><ele>25.999999999999996</ele><time>2026-04-26T07:06:53.401Z</time></trkpt><trkpt lat="45.2274872" lon="10.66739"><ele>26.0</ele><time>2026-04-26T07:06:55.401Z</time></trkpt><trkpt lat="45.2273946" lon="10.6673951"><ele>26.0</ele><time>2026-04-26T07:06:58.4Z</time></trkpt><trkpt lat="45.2273069" lon="10.6674241"><ele>26.0</ele><time>2026-04-26T07:07:01.399Z</time></trkpt><trkpt lat="45.2272278" lon="10.6674601"><ele>25.999999999999996</ele><time>2026-04-26T07:07:04.4Z</time></trkpt><trkpt lat="45.2271575" lon="10.667493"><ele>26.0</ele><time>2026-04-26T07:07:07.4Z</time></trkpt><trkpt lat="45.227093" lon="10.6675387"><ele>25.999999999999996</ele><time>2026-04-26T07:07:10.4Z</time></trkpt><trkpt lat="45.2270236" lon="10.6675775"><ele>26.0</ele><time>2026-04-26T07:07:13.4Z</time></trkpt><trkpt lat="45.2269493" lon="10.667631"><ele>26.0</ele><time>2026-04-26T07:07:16.401Z</time></trkpt><trkpt lat="45.2268717" lon="10.6676795"><ele>26.0</ele><time>2026-04-26T07:07:19.4Z</time></trkpt><trkpt lat="45.2267992" lon="10.6677165"><ele>25.999999999999996</ele><time>2026-04-26T07:07:22.4Z</time></trkpt><trkpt lat="45.2267338" lon="10.6677485"><ele>26.0</ele><time>2026-04-26T07:07:25.4Z</time></trkpt><trkpt lat="45.2266667" lon="10.667755"><ele>25.857142857142858</ele><time>2026-04-26T07:07:57.4Z</time></trkpt><trkpt lat="45.2266078" lon="10.6677936"><ele>25.714285714285715</ele><time>2026-04-26T07:08:01.398Z</time></trkpt><trkpt lat="45.2265715" lon="10.6678849"><ele>25.571428571428573</ele><time>2026-04-26T07:08:04.4Z</time></trkpt><trkpt lat="45.226516" lon="10.6679577"><ele>25.42857142857143</ele><time>2026-04-26T07:08:07.4Z</time></trkpt><trkpt lat="45.2264551" lon="10.6680143"><ele>25.285714285714285</ele><time>2026-04-26T07:08:10.4Z</time></trkpt><trkpt lat="45.2263907" lon="10.6680712"><ele>25.142857142857146</ele><time>2026-04-26T07:08:13.4Z</time></trkpt><trkpt lat="45.2263272" lon="10.6681263"><ele>25.0</ele><time>2026-04-26T07:08:16.4Z</time></trkpt><trkpt lat="45.2262568" lon="10.6681805"><ele>25.28571428571429</ele><time>2026-04-26T07:08:19.399Z</time></trkpt><trkpt lat="45.2261965" lon="10.6682523"><ele>25.571428571428573</ele><time>2026-04-26T07:08:22.4Z</time></trkpt><trkpt lat="45.2261265" lon="10.6682856"><ele>25.857142857142858</ele><time>2026-04-26T07:08:25.4Z</time></trkpt><trkpt lat="45.2260667" lon="10.6683267"><ele>26.142857142857146</ele><time>2026-04-26T07:08:29.4Z</time></trkpt><trkpt lat="45.2261419" lon="10.6682887"><ele>26.428571428571427</ele><time>2026-04-26T07:08:34.4Z</time></trkpt><trkpt lat="45.2261974" lon="10.6682399"><ele>26.714285714285715</ele><time>2026-04-26T07:08:37.4Z</time></trkpt><trkpt lat="45.2262686" lon="10.6681892"><ele>27.0</ele><time>2026-04-26T07:08:41.399Z</time></trkpt><trkpt lat="45.2263375" lon="10.6681319"><ele>27.0</ele><time>2026-04-26T07:08:45.4Z</time></trkpt><trkpt lat="45.2264133" lon="10.6680722"><ele>27.0</ele><time>2026-04-26T07:08:49.4Z</time></trkpt><trkpt lat="45.2264737" lon="10.6680172"><ele>27.0</ele><time>2026-04-26T07:08:52.4Z</time></trkpt><trkpt lat="45.2265274" lon="10.6679649"><ele>27.0</ele><time>2026-04-26T07:08:55.4Z</time></trkpt><trkpt lat="45.2265761" lon="10.6679078"><ele>27.0</ele><time>2026-04-26T07:08:58.4Z</time></trkpt><trkpt lat="45.2266324" lon="10.6678445"><ele>27.0</ele><time>2026-04-26T07:09:03.4Z</time></trkpt><trkpt lat="45.2266432" lon="10.6677427"><ele>27.0</ele><time>2026-04-26T07:09:42.4Z</time></trkpt><trkpt lat="45.2266575" lon="10.6676316"><ele>26.833333333333332</ele><time>2026-04-26T07:09:46.4Z</time></trkpt><trkpt lat="45.2266668" lon="10.6675148"><ele>26.666666666666664</ele><time>2026-04-26T07:09:50.4Z</time></trkpt><trkpt lat="45.2266792" lon="10.667398"><ele>26.5</ele><time>2026-04-26T07:09:54.4Z</time></trkpt><trkpt lat="45.2266977" lon="10.6672852"><ele>26.333333333333332</ele><time>2026-04-26T07:09:58.4Z</time></trkpt><trkpt lat="45.2267094" lon="10.6671723"><ele>26.166666666666664</ele><time>2026-04-26T07:10:02.399Z</time></trkpt><trkpt lat="45.2267175" lon="10.6670576"><ele>26.0</ele><time>2026-04-26T07:10:06.399Z</time></trkpt><trkpt lat="45.2267304" lon="10.6669425"><ele>25.999999999999996</ele><time>2026-04-26T07:10:10.398Z</time></trkpt><trkpt lat="45.2267464" lon="10.6668297"><ele>26.0</ele><time>2026-04-26T07:10:14.399Z</time></trkpt><trkpt lat="45.2267569" lon="10.6667146"><ele>26.0</ele><time>2026-04-26T07:10:18.399Z</time></trkpt><trkpt lat="45.2267657" lon="10.6666201"><ele>26.0</ele><time>2026-04-26T07:10:21.399Z</time></trkpt><trkpt lat="45.226776" lon="10.6665203"><ele>25.999999999999996</ele><time>2026-04-26T07:10:24.398Z</time></trkpt><trkpt lat="45.2267895" lon="10.6664145"><ele>26.0</ele><time>2026-04-26T07:10:27.398Z</time></trkpt><trkpt lat="45.2267967" lon="10.6663106"><ele>25.999999999999996</ele><time>2026-04-26T07:10:30.399Z</time></trkpt><trkpt lat="45.2268114" lon="10.6662053"><ele>26.0</ele><time>2026-04-26T07:10:33.399Z</time></trkpt><trkpt lat="45.2268219" lon="10.6661005"><ele>26.0</ele><time>2026-04-26T07:10:36.399Z</time></trkpt><trkpt lat="45.2268288" lon="10.6659876"><ele>26.0</ele><time>2026-04-26T07:10:39.398Z</time></trkpt><trkpt lat="45.2268376" lon="10.6658708"><ele>25.999999999999996</ele><time>2026-04-26T07:10:42.398Z</time></trkpt><trkpt lat="45.2268583" lon="10.6657501"><ele>26.0</ele><time>2026-04-26T07:10:45.399Z</time></trkpt><trkpt lat="45.2268788" lon="10.6656305"><ele>25.833333333333332</ele><time>2026-04-26T07:10:48.398Z</time></trkpt><trkpt lat="45.2268864" lon="10.6655146"><ele>25.666666666666664</ele><time>2026-04-26T07:10:51.399Z</time></trkpt><trkpt lat="45.2269003" lon="10.6654052"><ele>25.5</ele><time>2026-04-26T07:10:54.399Z</time></trkpt><trkpt lat="45.2269127" lon="10.6653001"><ele>25.333333333333336</ele><time>2026-04-26T07:10:57.398Z</time></trkpt><trkpt lat="45.2269253" lon="10.6651937"><ele>25.166666666666668</ele><time>2026-04-26T07:11:00.398Z</time></trkpt><trkpt lat="45.2269265" lon="10.6650855"><ele>25.0</ele><time>2026-04-26T07:11:03.399Z</time></trkpt><trkpt lat="45.2269335" lon="10.6649843"><ele>25.571428571428573</ele><time>2026-04-26T07:11:06.399Z</time></trkpt><trkpt lat="45.226943" lon="10.6648858"><ele>26.142857142857146</ele><time>2026-04-26T07:11:09.398Z</time></trkpt><trkpt lat="45.2269506" lon="10.6647956"><ele>26.714285714285715</ele><time>2026-04-26T07:11:12.399Z</time></trkpt><trkpt lat="45.2269629" lon="10.6647006"><ele>27.28571428571429</ele><time>2026-04-26T07:11:15.398Z</time></trkpt><trkpt lat="45.2269753" lon="10.664605"><ele>27.857142857142858</ele><time>2026-04-26T07:11:18.399Z</time></trkpt><trkpt lat="45.2269927" lon="10.6644914"><ele>28.428571428571434</ele><time>2026-04-26T07:11:22.399Z</time></trkpt><trkpt lat="45.227012" lon="10.6643757"><ele>29.000000000000004</ele><time>2026-04-26T07:11:26.398Z</time></trkpt><trkpt lat="45.227034" lon="10.6642819"><ele>29.571428571428577</ele><time>2026-04-26T07:11:29.399Z</time></trkpt><trkpt lat="45.2270501" lon="10.664188"><ele>30.142857142857146</ele><time>2026-04-26T07:11:32.398Z</time></trkpt><trkpt lat="45.2270679" lon="10.6640911"><ele>30.714285714285715</ele><time>2026-04-26T07:11:35.398Z</time></trkpt><trkpt lat="45.2270868" lon="10.6640005"><ele>31.28571428571429</ele><time>2026-04-26T07:11:38.399Z</time></trkpt><trkpt lat="45.2270967" lon="10.6639035"><ele>31.85714285714286</ele><time>2026-04-26T07:11:41.398Z</time></trkpt><trkpt lat="45.2271035" lon="10.6638131"><ele>32.42857142857143</ele><time>2026-04-26T07:11:44.399Z</time></trkpt><trkpt lat="45.227113" lon="10.6637105"><ele>33.0</ele><time>2026-04-26T07:11:48.399Z</time></trkpt><trkpt lat="45.2271085" lon="10.6636207"><ele>33.0</ele><time>2026-04-26T07:11:52.399Z</time></trkpt><trkpt lat="45.2270598" lon="10.6635586"><ele>33.0</ele><time>2026-04-26T07:11:55.399Z</time></trkpt><trkpt lat="45.2269819" lon="10.6635347"><ele>33.0</ele><time>2026-04-26T07:11:58.398Z</time></trkpt><trkpt lat="45.2269057" lon="10.6635288"><ele>33.0</ele><time>2026-04-26T07:12:01.399Z</time></trkpt><trkpt lat="45.2268289" lon="10.6635172"><ele>33.0</ele><time>2026-04-26T07:12:04.419Z</time></trkpt><trkpt lat="45.2267506" lon="10.6635065"><ele>33.0</ele><time>2026-04-26T07:12:07.428Z</time></trkpt><trkpt lat="45.2266649" lon="10.6634746"><ele>33.0</ele><time>2026-04-26T07:12:10.334Z</time></trkpt><trkpt lat="45.2265754" lon="10.6634473"><ele>33.0</ele><time>2026-04-26T07:12:13.399Z</time></trkpt><trkpt lat="45.2264852" lon="10.6634225"><ele>33.0</ele><time>2026-04-26T07:12:16.356Z</time></trkpt><trkpt lat="45.2264041" lon="10.6634134"><ele>33.0</ele><time>2026-04-26T07:12:19.399Z</time></trkpt><trkpt lat="45.2263305" lon="10.6633897"><ele>33.0</ele><time>2026-04-26T07:12:22.398Z</time></trkpt><trkpt lat="45.2262491" lon="10.6633753"><ele>33.0</ele><time>2026-04-26T07:12:25.399Z</time></trkpt><trkpt lat="45.2261646" lon="10.6633571"><ele>33.166666666666664</ele><time>2026-04-26T07:12:28.399Z</time></trkpt><trkpt lat="45.226093" lon="10.6633326"><ele>33.333333333333336</ele><time>2026-04-26T07:12:31.398Z</time></trkpt><trkpt lat="45.226004" lon="10.6633091"><ele>33.5</ele><time>2026-04-26T07:12:34.354Z</time></trkpt><trkpt lat="45.2259405" lon="10.6633002"><ele>33.66666666666667</ele><time>2026-04-26T07:12:36.399Z</time></trkpt><trkpt lat="45.2258563" lon="10.6632755"><ele>33.833333333333336</ele><time>2026-04-26T07:12:39.398Z</time></trkpt><trkpt lat="45.2257638" lon="10.6632537"><ele>34.0</ele><time>2026-04-26T07:12:42.399Z</time></trkpt><trkpt lat="45.2256752" lon="10.6632305"><ele>33.833333333333336</ele><time>2026-04-26T07:12:45.398Z</time></trkpt><trkpt lat="45.2255897" lon="10.6632149"><ele>33.66666666666667</ele><time>2026-04-26T07:12:48.399Z</time></trkpt><trkpt lat="45.2255048" lon="10.6631848"><ele>33.5</ele><time>2026-04-26T07:12:51.399Z</time></trkpt><trkpt lat="45.2254127" lon="10.6631579"><ele>33.333333333333336</ele><time>2026-04-26T07:12:54.399Z</time></trkpt><trkpt lat="45.2253502" lon="10.6631422"><ele>33.166666666666664</ele><time>2026-04-26T07:12:56.399Z</time></trkpt><trkpt lat="45.2252903" lon="10.6631136"><ele>33.0</ele><time>2026-04-26T07:12:58.398Z</time></trkpt><trkpt lat="45.2252286" lon="10.6630825"><ele>33.0</ele><time>2026-04-26T07:13:00.398Z</time></trkpt><trkpt lat="45.2251666" lon="10.6630471"><ele>33.0</ele><time>2026-04-26T07:13:02.397Z</time></trkpt><trkpt lat="45.2251033" lon="10.6630214"><ele>33.0</ele><time>2026-04-26T07:13:04.398Z</time></trkpt><trkpt lat="45.2250429" lon="10.6629859"><ele>33.0</ele><time>2026-04-26T07:13:06.397Z</time></trkpt><trkpt lat="45.2249886" lon="10.6629403"><ele>33.0</ele><time>2026-04-26T07:13:08.397Z</time></trkpt><trkpt lat="45.2249041" lon="10.6628919"><ele>33.0</ele><time>2026-04-26T07:13:11.397Z</time></trkpt><trkpt lat="45.2248458" lon="10.6628557"><ele>33.0</ele><time>2026-04-26T07:13:13.398Z</time></trkpt><trkpt lat="45.224787" lon="10.6628194"><ele>32.857142857142854</ele><time>2026-04-26T07:13:15.398Z</time></trkpt><trkpt lat="45.2247038" lon="10.6627692"><ele>32.714285714285715</ele><time>2026-04-26T07:13:18.398Z</time></trkpt><trkpt lat="45.2246438" lon="10.6627383"><ele>32.57142857142857</ele><time>2026-04-26T07:13:20.398Z</time></trkpt><trkpt lat="45.2245819" lon="10.6627047"><ele>32.42857142857143</ele><time>2026-04-26T07:13:22.397Z</time></trkpt><trkpt lat="45.2245172" lon="10.6626712"><ele>32.285714285714285</ele><time>2026-04-26T07:13:24.397Z</time></trkpt><trkpt lat="45.2244502" lon="10.6626425"><ele>32.14285714285714</ele><time>2026-04-26T07:13:26.398Z</time></trkpt><trkpt lat="45.2243849" lon="10.662617"><ele>32.0</ele><time>2026-04-26T07:13:28.397Z</time></trkpt><trkpt lat="45.2243201" lon="10.6625991"><ele>32.0</ele><time>2026-04-26T07:13:30.398Z</time></trkpt><trkpt lat="45.2242536" lon="10.66259"><ele>31.999999999999996</ele><time>2026-04-26T07:13:32.398Z</time></trkpt><trkpt lat="45.2241829" lon="10.6625876"><ele>32.0</ele><time>2026-04-26T07:13:34.398Z</time></trkpt><trkpt lat="45.2241104" lon="10.6625915"><ele>32.0</ele><time>2026-04-26T07:13:36.398Z</time></trkpt><trkpt lat="45.224039" lon="10.6625991"><ele>31.999999999999996</ele><time>2026-04-26T07:13:38.398Z</time></trkpt><trkpt lat="45.2239671" lon="10.6626076"><ele>32.0</ele><time>2026-04-26T07:13:40.397Z</time></trkpt><trkpt lat="45.2238953" lon="10.6626234"><ele>32.0</ele><time>2026-04-26T07:13:42.397Z</time></trkpt><trkpt lat="45.223827" lon="10.6626409"><ele>32.0</ele><time>2026-04-26T07:13:44.397Z</time></trkpt><trkpt lat="45.2237566" lon="10.6626514"><ele>31.999999999999996</ele><time>2026-04-26T07:13:46.398Z</time></trkpt><trkpt lat="45.2236905" lon="10.6626697"><ele>32.0</ele><time>2026-04-26T07:13:48.398Z</time></trkpt><trkpt lat="45.2236254" lon="10.66269"><ele>32.0</ele><time>2026-04-26T07:13:50.397Z</time></trkpt><trkpt lat="45.2235581" lon="10.6627057"><ele>31.999999999999996</ele><time>2026-04-26T07:13:52.398Z</time></trkpt><trkpt lat="45.2234901" lon="10.662717"><ele>32.0</ele><time>2026-04-26T07:13:54.398Z</time></trkpt><trkpt lat="45.2234217" lon="10.6627336"><ele>32.0</ele><time>2026-04-26T07:13:56.397Z</time></trkpt><trkpt lat="45.2233516" lon="10.6627549"><ele>32.0</ele><time>2026-04-26T07:13:58.398Z</time></trkpt><trkpt lat="45.2232814" lon="10.662771"><ele>31.999999999999996</ele><time>2026-04-26T07:14:00.398Z</time></trkpt><trkpt lat="45.2232108" lon="10.6627896"><ele>32.0</ele><time>2026-04-26T07:14:02.397Z</time></trkpt><trkpt lat="45.2231403" lon="10.6628033"><ele>32.0</ele><time>2026-04-26T07:14:04.396Z</time></trkpt><trkpt lat="45.2230698" lon="10.6628202"><ele>31.999999999999996</ele><time>2026-04-26T07:14:06.398Z</time></trkpt><trkpt lat="45.223001" lon="10.6628377"><ele>32.0</ele><time>2026-04-26T07:14:08.398Z</time></trkpt><trkpt lat="45.2229331" lon="10.6628569"><ele>32.0</ele><time>2026-04-26T07:14:10.398Z</time></trkpt><trkpt lat="45.2228647" lon="10.6628704"><ele>31.285714285714285</ele><time>2026-04-26T07:14:12.397Z</time></trkpt><trkpt lat="45.2227952" lon="10.662884"><ele>30.57142857142857</ele><time>2026-04-26T07:14:14.398Z</time></trkpt><trkpt lat="45.2227257" lon="10.6628997"><ele>29.857142857142854</ele><time>2026-04-26T07:14:16.398Z</time></trkpt><trkpt lat="45.2226542" lon="10.662913"><ele>29.142857142857142</ele><time>2026-04-26T07:14:18.398Z</time></trkpt><trkpt lat="45.2225842" lon="10.6629299"><ele>28.428571428571427</ele><time>2026-04-26T07:14:20.398Z</time></trkpt><trkpt lat="45.2225179" lon="10.6629511"><ele>27.714285714285715</ele><time>2026-04-26T07:14:22.397Z</time></trkpt><trkpt lat="45.2224516" lon="10.6629753"><ele>27.0</ele><time>2026-04-26T07:14:24.396Z</time></trkpt><trkpt lat="45.2223843" lon="10.6629937"><ele>27.0</ele><time>2026-04-26T07:14:26.397Z</time></trkpt><trkpt lat="45.2223207" lon="10.6630249"><ele>27.0</ele><time>2026-04-26T07:14:28.398Z</time></trkpt><trkpt lat="45.222266" lon="10.6630803"><ele>27.0</ele><time>2026-04-26T07:14:30.398Z</time></trkpt><trkpt lat="45.2222106" lon="10.6631376"><ele>27.0</ele><time>2026-04-26T07:14:32.398Z</time></trkpt><trkpt lat="45.2221566" lon="10.6632035"><ele>27.0</ele><time>2026-04-26T07:14:34.397Z</time></trkpt><trkpt lat="45.2221008" lon="10.6632717"><ele>27.0</ele><time>2026-04-26T07:14:36.397Z</time></trkpt><trkpt lat="45.2220425" lon="10.663334"><ele>27.0</ele><time>2026-04-26T07:14:38.398Z</time></trkpt><trkpt lat="45.2219852" lon="10.6633951"><ele>27.142857142857142</ele><time>2026-04-26T07:14:40.398Z</time></trkpt><trkpt lat="45.2219276" lon="10.6634562"><ele>27.285714285714285</ele><time>2026-04-26T07:14:42.398Z</time></trkpt><trkpt lat="45.2218691" lon="10.6635174"><ele>27.42857142857143</ele><time>2026-04-26T07:14:44.398Z</time></trkpt><trkpt lat="45.2218098" lon="10.6635798"><ele>27.57142857142857</ele><time>2026-04-26T07:14:46.398Z</time></trkpt><trkpt lat="45.2217492" lon="10.6636423"><ele>27.714285714285715</ele><time>2026-04-26T07:14:48.398Z</time></trkpt><trkpt lat="45.2216898" lon="10.6637057"><ele>27.857142857142858</ele><time>2026-04-26T07:14:50.398Z</time></trkpt><trkpt lat="45.2216347" lon="10.6637744"><ele>28.0</ele><time>2026-04-26T07:14:52.398Z</time></trkpt><trkpt lat="45.221573" lon="10.6638365"><ele>27.666666666666668</ele><time>2026-04-26T07:14:54.398Z</time></trkpt><trkpt lat="45.2215075" lon="10.6639015"><ele>27.333333333333336</ele><time>2026-04-26T07:14:56.398Z</time></trkpt><trkpt lat="45.2214469" lon="10.6639755"><ele>27.0</ele><time>2026-04-26T07:14:58.397Z</time></trkpt><trkpt lat="45.2213907" lon="10.6640508"><ele>26.666666666666664</ele><time>2026-04-26T07:15:00.397Z</time></trkpt><trkpt lat="45.2213349" lon="10.6641248"><ele>26.333333333333332</ele><time>2026-04-26T07:15:02.398Z</time></trkpt><trkpt lat="45.2212832" lon="10.6642052"><ele>26.0</ele><time>2026-04-26T07:15:04.398Z</time></trkpt><trkpt lat="45.2212362" lon="10.6642896"><ele>25.999999999999996</ele><time>2026-04-26T07:15:06.397Z</time></trkpt><trkpt lat="45.2211873" lon="10.6643726"><ele>26.0</ele><time>2026-04-26T07:15:08.398Z</time></trkpt><trkpt lat="45.2211405" lon="10.6644557"><ele>26.0</ele><time>2026-04-26T07:15:10.398Z</time></trkpt><trkpt lat="45.2210953" lon="10.6645368"><ele>26.0</ele><time>2026-04-26T07:15:12.398Z</time></trkpt><trkpt lat="45.2210482" lon="10.664618"><ele>25.999999999999996</ele><time>2026-04-26T07:15:14.398Z</time></trkpt><trkpt lat="45.2209995" lon="10.6647"><ele>26.0</ele><time>2026-04-26T07:15:16.397Z</time></trkpt><trkpt lat="45.2209536" lon="10.6647865"><ele>26.166666666666664</ele><time>2026-04-26T07:15:18.398Z</time></trkpt><trkpt lat="45.2209067" lon="10.6648751"><ele>26.333333333333332</ele><time>2026-04-26T07:15:20.398Z</time></trkpt><trkpt lat="45.2208645" lon="10.6649649"><ele>26.5</ele><time>2026-04-26T07:15:22.397Z</time></trkpt><trkpt lat="45.2208224" lon="10.6650563"><ele>26.666666666666664</ele><time>2026-04-26T07:15:24.397Z</time></trkpt><trkpt lat="45.2207796" lon="10.6651489"><ele>26.833333333333332</ele><time>2026-04-26T07:15:26.398Z</time></trkpt><trkpt lat="45.220744" lon="10.665245"><ele>27.0</ele><time>2026-04-26T07:15:28.398Z</time></trkpt><trkpt lat="45.2207114" lon="10.665339"><ele>27.0</ele><time>2026-04-26T07:15:30.397Z</time></trkpt><trkpt lat="45.2206793" lon="10.6654345"><ele>27.0</ele><time>2026-04-26T07:15:32.398Z</time></trkpt><trkpt lat="45.2206416" lon="10.6655274"><ele>27.0</ele><time>2026-04-26T07:15:34.397Z</time></trkpt><trkpt lat="45.2206056" lon="10.6656225"><ele>27.0</ele><time>2026-04-26T07:15:36.398Z</time></trkpt><trkpt lat="45.2205712" lon="10.6657204"><ele>27.0</ele><time>2026-04-26T07:15:38.397Z</time></trkpt><trkpt lat="45.2205369" lon="10.6658219"><ele>27.0</ele><time>2026-04-26T07:15:40.397Z</time></trkpt><trkpt lat="45.2205041" lon="10.6659247"><ele>27.0</ele><time>2026-04-26T07:15:42.398Z</time></trkpt><trkpt lat="45.2204705" lon="10.6660266"><ele>27.0</ele><time>2026-04-26T07:15:44.398Z</time></trkpt><trkpt lat="45.2204389" lon="10.6661301"><ele>27.0</ele><time>2026-04-26T07:15:46.398Z</time></trkpt><trkpt lat="45.2204072" lon="10.666235"><ele>27.0</ele><time>2026-04-26T07:15:48.397Z</time></trkpt><trkpt lat="45.2203777" lon="10.6663394"><ele>27.0</ele><time>2026-04-26T07:15:50.398Z</time></trkpt><trkpt lat="45.2203454" lon="10.6664427"><ele>27.0</ele><time>2026-04-26T07:15:52.397Z</time></trkpt><trkpt lat="45.220319" lon="10.666548"><ele>27.0</ele><time>2026-04-26T07:15:54.396Z</time></trkpt><trkpt lat="45.2202877" lon="10.6666465"><ele>27.0</ele><time>2026-04-26T07:15:56.397Z</time></trkpt><trkpt lat="45.2202608" lon="10.6667432"><ele>27.0</ele><time>2026-04-26T07:15:58.396Z</time></trkpt><trkpt lat="45.2202344" lon="10.6668395"><ele>27.0</ele><time>2026-04-26T07:16:00.397Z</time></trkpt><trkpt lat="45.2202085" lon="10.6669346"><ele>27.0</ele><time>2026-04-26T07:16:02.397Z</time></trkpt><trkpt lat="45.2201803" lon="10.6670373"><ele>27.0</ele><time>2026-04-26T07:16:04.397Z</time></trkpt><trkpt lat="45.2201492" lon="10.6671449"><ele>27.166666666666668</ele><time>2026-04-26T07:16:06.397Z</time></trkpt><trkpt lat="45.2201163" lon="10.6672526"><ele>27.333333333333336</ele><time>2026-04-26T07:16:08.397Z</time></trkpt><trkpt lat="45.2200837" lon="10.6673592"><ele>27.5</ele><time>2026-04-26T07:16:10.397Z</time></trkpt><trkpt lat="45.2200507" lon="10.6674653"><ele>27.666666666666668</ele><time>2026-04-26T07:16:12.397Z</time></trkpt><trkpt lat="45.220018" lon="10.6675702"><ele>27.833333333333336</ele><time>2026-04-26T07:16:14.396Z</time></trkpt><trkpt lat="45.219985" lon="10.6676741"><ele>28.0</ele><time>2026-04-26T07:16:16.396Z</time></trkpt><trkpt lat="45.2199525" lon="10.6677743"><ele>27.833333333333336</ele><time>2026-04-26T07:16:18.396Z</time></trkpt><trkpt lat="45.2199233" lon="10.667879"><ele>27.666666666666668</ele><time>2026-04-26T07:16:20.396Z</time></trkpt><trkpt lat="45.2198907" lon="10.6679856"><ele>27.5</ele><time>2026-04-26T07:16:22.397Z</time></trkpt><trkpt lat="45.2198574" lon="10.668096"><ele>27.333333333333336</ele><time>2026-04-26T07:16:24.396Z</time></trkpt><trkpt lat="45.2198224" lon="10.6682055"><ele>27.166666666666668</ele><time>2026-04-26T07:16:26.396Z</time></trkpt><trkpt lat="45.2197905" lon="10.6683159"><ele>27.0</ele><time>2026-04-26T07:16:28.397Z</time></trkpt><trkpt lat="45.2197616" lon="10.6684277"><ele>27.0</ele><time>2026-04-26T07:16:30.397Z</time></trkpt><trkpt lat="45.2197385" lon="10.6685423"><ele>27.0</ele><time>2026-04-26T07:16:32.397Z</time></trkpt><trkpt lat="45.2197145" lon="10.6686565"><ele>27.0</ele><time>2026-04-26T07:16:34.397Z</time></trkpt><trkpt lat="45.2196903" lon="10.6687682"><ele>27.0</ele><time>2026-04-26T07:16:36.396Z</time></trkpt><trkpt lat="45.2196692" lon="10.6688808"><ele>27.0</ele><time>2026-04-26T07:16:38.397Z</time></trkpt><trkpt lat="45.2196464" lon="10.668994"><ele>27.0</ele><time>2026-04-26T07:16:40.397Z</time></trkpt><trkpt lat="45.2196205" lon="10.6691097"><ele>27.0</ele><time>2026-04-26T07:16:42.397Z</time></trkpt><trkpt lat="45.2195873" lon="10.6692205"><ele>27.0</ele><time>2026-04-26T07:16:44.396Z</time></trkpt><trkpt lat="45.2195472" lon="10.6693253"><ele>27.0</ele><time>2026-04-26T07:16:46.396Z</time></trkpt><trkpt lat="45.2195107" lon="10.6694312"><ele>27.0</ele><time>2026-04-26T07:16:48.397Z</time></trkpt><trkpt lat="45.2194727" lon="10.669535"><ele>27.0</ele><time>2026-04-26T07:16:50.396Z</time></trkpt><trkpt lat="45.219435" lon="10.6696339"><ele>27.0</ele><time>2026-04-26T07:16:52.397Z</time></trkpt><trkpt lat="45.219396" lon="10.6697307"><ele>27.0</ele><time>2026-04-26T07:16:54.397Z</time></trkpt><trkpt lat="45.2193547" lon="10.6698249"><ele>27.0</ele><time>2026-04-26T07:16:56.397Z</time></trkpt><trkpt lat="45.2193134" lon="10.6699212"><ele>27.0</ele><time>2026-04-26T07:16:58.397Z</time></trkpt><trkpt lat="45.2192736" lon="10.6700218"><ele>27.0</ele><time>2026-04-26T07:17:00.397Z</time></trkpt><trkpt lat="45.2192313" lon="10.6701207"><ele>27.0</ele><time>2026-04-26T07:17:02.397Z</time></trkpt><trkpt lat="45.2191902" lon="10.6702231"><ele>27.0</ele><time>2026-04-26T07:17:04.396Z</time></trkpt><trkpt lat="45.2191451" lon="10.670323"><ele>27.0</ele><time>2026-04-26T07:17:06.397Z</time></trkpt><trkpt lat="45.2191059" lon="10.6704295"><ele>27.0</ele><time>2026-04-26T07:17:08.397Z</time></trkpt><trkpt lat="45.2190671" lon="10.6705383"><ele>27.0</ele><time>2026-04-26T07:17:10.396Z</time></trkpt><trkpt lat="45.2190264" lon="10.67065"><ele>27.0</ele><time>2026-04-26T07:17:12.396Z</time></trkpt><trkpt lat="45.2189902" lon="10.6707704"><ele>27.0</ele><time>2026-04-26T07:17:14.397Z</time></trkpt><trkpt lat="45.2189579" lon="10.6708912"><ele>27.0</ele><time>2026-04-26T07:17:16.395Z</time></trkpt><trkpt lat="45.2189252" lon="10.6710158"><ele>26.6</ele><time>2026-04-26T07:17:18.397Z</time></trkpt><trkpt lat="45.2188932" lon="10.671144"><ele>26.200000000000003</ele><time>2026-04-26T07:17:20.397Z</time></trkpt><trkpt lat="45.218862" lon="10.6712751"><ele>25.8</ele><time>2026-04-26T07:17:22.397Z</time></trkpt><trkpt lat="45.2188249" lon="10.6714088"><ele>25.4</ele><time>2026-04-26T07:17:24.396Z</time></trkpt><trkpt lat="45.2187872" lon="10.6715432"><ele>25.0</ele><time>2026-04-26T07:17:26.397Z</time></trkpt><trkpt lat="45.2187584" lon="10.6716826"><ele>25.0</ele><time>2026-04-26T07:17:28.397Z</time></trkpt><trkpt lat="45.2187238" lon="10.6718382"><ele>25.0</ele><time>2026-04-26T07:17:30.396Z</time></trkpt><trkpt lat="45.2186727" lon="10.6719921"><ele>25.0</ele><time>2026-04-26T07:17:32.396Z</time></trkpt><trkpt lat="45.2186168" lon="10.672148"><ele>25.0</ele><time>2026-04-26T07:17:34.397Z</time></trkpt><trkpt lat="45.2185504" lon="10.6722866"><ele>24.8</ele><time>2026-04-26T07:17:36.397Z</time></trkpt><trkpt lat="45.2184769" lon="10.6724184"><ele>24.6</ele><time>2026-04-26T07:17:38.397Z</time></trkpt><trkpt lat="45.2183973" lon="10.6725286"><ele>24.4</ele><time>2026-04-26T07:17:40.396Z</time></trkpt><trkpt lat="45.2183257" lon="10.6726349"><ele>24.2</ele><time>2026-04-26T07:17:42.397Z</time></trkpt><trkpt lat="45.2182588" lon="10.672736"><ele>24.0</ele><time>2026-04-26T07:17:44.397Z</time></trkpt><trkpt lat="45.2181997" lon="10.6728472"><ele>24.0</ele><time>2026-04-26T07:17:46.397Z</time></trkpt><trkpt lat="45.2181538" lon="10.6729631"><ele>24.0</ele><time>2026-04-26T07:17:48.397Z</time></trkpt><trkpt lat="45.2181079" lon="10.6730904"><ele>24.0</ele><time>2026-04-26T07:17:50.397Z</time></trkpt><trkpt lat="45.2180723" lon="10.6732213"><ele>24.0</ele><time>2026-04-26T07:17:52.397Z</time></trkpt><trkpt lat="45.2180367" lon="10.6733564"><ele>24.0</ele><time>2026-04-26T07:17:54.397Z</time></trkpt><trkpt lat="45.2180054" lon="10.673494"><ele>24.4</ele><time>2026-04-26T07:17:56.397Z</time></trkpt><trkpt lat="45.2179777" lon="10.6736349"><ele>24.799999999999997</ele><time>2026-04-26T07:17:58.396Z</time></trkpt><trkpt lat="45.2179522" lon="10.6737731"><ele>25.200000000000003</ele><time>2026-04-26T07:18:00.397Z</time></trkpt><trkpt lat="45.2179343" lon="10.673908"><ele>25.6</ele><time>2026-04-26T07:18:02.396Z</time></trkpt><trkpt lat="45.2179248" lon="10.674038"><ele>26.0</ele><time>2026-04-26T07:18:04.397Z</time></trkpt><trkpt lat="45.2179327" lon="10.6741672"><ele>26.0</ele><time>2026-04-26T07:18:06.396Z</time></trkpt><trkpt lat="45.2179563" lon="10.6742975"><ele>26.0</ele><time>2026-04-26T07:18:08.396Z</time></trkpt><trkpt lat="45.2179822" lon="10.6744226"><ele>26.0</ele><time>2026-04-26T07:18:10.396Z</time></trkpt><trkpt lat="45.218018" lon="10.6745412"><ele>26.0</ele><time>2026-04-26T07:18:12.397Z</time></trkpt><trkpt lat="45.2180604" lon="10.6746574"><ele>26.0</ele><time>2026-04-26T07:18:14.396Z</time></trkpt><trkpt lat="45.2181029" lon="10.6747697"><ele>26.4</ele><time>2026-04-26T07:18:16.397Z</time></trkpt><trkpt lat="45.2181437" lon="10.6748851"><ele>26.8</ele><time>2026-04-26T07:18:18.397Z</time></trkpt><trkpt lat="45.2181801" lon="10.6750063"><ele>27.199999999999996</ele><time>2026-04-26T07:18:20.395Z</time></trkpt><trkpt lat="45.2182185" lon="10.6751271"><ele>27.599999999999998</ele><time>2026-04-26T07:18:22.397Z</time></trkpt><trkpt lat="45.2182413" lon="10.6752575"><ele>28.0</ele><time>2026-04-26T07:18:24.396Z</time></trkpt><trkpt lat="45.2182574" lon="10.6753918"><ele>26.799999999999997</ele><time>2026-04-26T07:18:26.397Z</time></trkpt><trkpt lat="45.2182635" lon="10.6755231"><ele>25.599999999999998</ele><time>2026-04-26T07:18:28.397Z</time></trkpt><trkpt lat="45.2182617" lon="10.6756571"><ele>24.4</ele><time>2026-04-26T07:18:30.396Z</time></trkpt><trkpt lat="45.2182613" lon="10.6757976"><ele>23.200000000000003</ele><time>2026-04-26T07:18:32.397Z</time></trkpt><trkpt lat="45.2182639" lon="10.675939"><ele>22.0</ele><time>2026-04-26T07:18:34.397Z</time></trkpt><trkpt lat="45.2182631" lon="10.676081"><ele>21.6</ele><time>2026-04-26T07:18:36.397Z</time></trkpt><trkpt lat="45.2182597" lon="10.6762145"><ele>21.200000000000003</ele><time>2026-04-26T07:18:38.397Z</time></trkpt><trkpt lat="45.2182544" lon="10.6763443"><ele>20.8</ele><time>2026-04-26T07:18:40.396Z</time></trkpt><trkpt lat="45.2182475" lon="10.676479"><ele>20.4</ele><time>2026-04-26T07:18:42.396Z</time></trkpt><trkpt lat="45.2182417" lon="10.6766178"><ele>20.0</ele><time>2026-04-26T07:18:44.396Z</time></trkpt><trkpt lat="45.2182332" lon="10.6767545"><ele>20.0</ele><time>2026-04-26T07:18:46.397Z</time></trkpt><trkpt lat="45.2182188" lon="10.6768855"><ele>20.0</ele><time>2026-04-26T07:18:48.396Z</time></trkpt><trkpt lat="45.2182017" lon="10.6770235"><ele>20.0</ele><time>2026-04-26T07:18:50.395Z</time></trkpt><trkpt lat="45.218187" lon="10.6771569"><ele>20.0</ele><time>2026-04-26T07:18:52.396Z</time></trkpt><trkpt lat="45.2181593" lon="10.6772885"><ele>20.0</ele><time>2026-04-26T07:18:54.396Z</time></trkpt><trkpt lat="45.2181313" lon="10.6774149"><ele>20.2</ele><time>2026-04-26T07:18:56.396Z</time></trkpt><trkpt lat="45.2180999" lon="10.6775396"><ele>20.4</ele><time>2026-04-26T07:18:58.395Z</time></trkpt><trkpt lat="45.218064" lon="10.6776632"><ele>20.6</ele><time>2026-04-26T07:19:00.396Z</time></trkpt><trkpt lat="45.2180298" lon="10.6777901"><ele>20.8</ele><time>2026-04-26T07:19:02.396Z</time></trkpt><trkpt lat="45.2179925" lon="10.6779128"><ele>21.0</ele><time>2026-04-26T07:19:04.395Z</time></trkpt><trkpt lat="45.2179506" lon="10.6780355"><ele>21.0</ele><time>2026-04-26T07:19:06.396Z</time></trkpt><trkpt lat="45.2179107" lon="10.6781503"><ele>21.0</ele><time>2026-04-26T07:19:08.395Z</time></trkpt><trkpt lat="45.2178642" lon="10.6782654"><ele>21.0</ele><time>2026-04-26T07:19:10.395Z</time></trkpt><trkpt lat="45.2178202" lon="10.6783805"><ele>21.0</ele><time>2026-04-26T07:19:12.396Z</time></trkpt><trkpt lat="45.2177793" lon="10.6784996"><ele>21.0</ele><time>2026-04-26T07:19:14.395Z</time></trkpt><trkpt lat="45.2177337" lon="10.6786195"><ele>21.0</ele><time>2026-04-26T07:19:16.396Z</time></trkpt><trkpt lat="45.2176903" lon="10.678734"><ele>21.0</ele><time>2026-04-26T07:19:18.396Z</time></trkpt><trkpt lat="45.2176474" lon="10.6788508"><ele>21.0</ele><time>2026-04-26T07:19:20.395Z</time></trkpt><trkpt lat="45.2176096" lon="10.6789623"><ele>21.0</ele><time>2026-04-26T07:19:22.396Z</time></trkpt><trkpt lat="45.2175702" lon="10.6790767"><ele>21.0</ele><time>2026-04-26T07:19:24.395Z</time></trkpt><trkpt lat="45.2175322" lon="10.6791945"><ele>21.0</ele><time>2026-04-26T07:19:26.396Z</time></trkpt><trkpt lat="45.2174928" lon="10.679307"><ele>21.0</ele><time>2026-04-26T07:19:28.395Z</time></trkpt><trkpt lat="45.2174529" lon="10.6794247"><ele>21.0</ele><time>2026-04-26T07:19:30.396Z</time></trkpt><trkpt lat="45.2174129" lon="10.6795412"><ele>21.0</ele><time>2026-04-26T07:19:32.395Z</time></trkpt><trkpt lat="45.2173768" lon="10.6796532"><ele>21.0</ele><time>2026-04-26T07:19:34.396Z</time></trkpt><trkpt lat="45.2173368" lon="10.6797629"><ele>21.0</ele><time>2026-04-26T07:19:36.394Z</time></trkpt><trkpt lat="45.217301" lon="10.6798712"><ele>20.833333333333332</ele><time>2026-04-26T07:19:38.396Z</time></trkpt><trkpt lat="45.2172645" lon="10.6799852"><ele>20.666666666666668</ele><time>2026-04-26T07:19:40.395Z</time></trkpt><trkpt lat="45.2172242" lon="10.6800968"><ele>20.5</ele><time>2026-04-26T07:19:42.396Z</time></trkpt><trkpt lat="45.2171827" lon="10.6802036"><ele>20.333333333333336</ele><time>2026-04-26T07:19:44.396Z</time></trkpt><trkpt lat="45.2171384" lon="10.6803075"><ele>20.166666666666668</ele><time>2026-04-26T07:19:46.396Z</time></trkpt><trkpt lat="45.2170872" lon="10.6804076"><ele>20.0</ele><time>2026-04-26T07:19:48.395Z</time></trkpt><trkpt lat="45.2170309" lon="10.6805013"><ele>20.333333333333336</ele><time>2026-04-26T07:19:50.396Z</time></trkpt><trkpt lat="45.2169682" lon="10.6805836"><ele>20.666666666666668</ele><time>2026-04-26T07:19:52.396Z</time></trkpt><trkpt lat="45.2168984" lon="10.6806535"><ele>21.0</ele><time>2026-04-26T07:19:54.396Z</time></trkpt><trkpt lat="45.2168238" lon="10.6807177"><ele>21.333333333333332</ele><time>2026-04-26T07:19:56.395Z</time></trkpt><trkpt lat="45.2167479" lon="10.6807735"><ele>21.666666666666664</ele><time>2026-04-26T07:19:58.396Z</time></trkpt><trkpt lat="45.2166722" lon="10.6808225"><ele>22.0</ele><time>2026-04-26T07:20:00.396Z</time></trkpt><trkpt lat="45.2165979" lon="10.680869"><ele>22.0</ele><time>2026-04-26T07:20:02.396Z</time></trkpt><trkpt lat="45.2165219" lon="10.6809181"><ele>22.0</ele><time>2026-04-26T07:20:04.395Z</time></trkpt><trkpt lat="45.2164482" lon="10.6809654"><ele>22.0</ele><time>2026-04-26T07:20:06.396Z</time></trkpt><trkpt lat="45.2163772" lon="10.6810095"><ele>22.0</ele><time>2026-04-26T07:20:08.396Z</time></trkpt><trkpt lat="45.2163076" lon="10.6810537"><ele>22.0</ele><time>2026-04-26T07:20:10.395Z</time></trkpt><trkpt lat="45.2162384" lon="10.6810957"><ele>22.0</ele><time>2026-04-26T07:20:12.395Z</time></trkpt><trkpt lat="45.2161699" lon="10.6811347"><ele>22.5</ele><time>2026-04-26T07:20:14.396Z</time></trkpt><trkpt lat="45.2161019" lon="10.6811808"><ele>23.0</ele><time>2026-04-26T07:20:16.396Z</time></trkpt><trkpt lat="45.2160333" lon="10.6812255"><ele>23.5</ele><time>2026-04-26T07:20:18.396Z</time></trkpt><trkpt lat="45.2159611" lon="10.6812666"><ele>24.0</ele><time>2026-04-26T07:20:20.396Z</time></trkpt><trkpt lat="45.2158889" lon="10.6813117"><ele>24.500000000000004</ele><time>2026-04-26T07:20:22.396Z</time></trkpt><trkpt lat="45.2158157" lon="10.6813611"><ele>25.0</ele><time>2026-04-26T07:20:24.396Z</time></trkpt><trkpt lat="45.2157387" lon="10.681406"><ele>25.000000000000004</ele><time>2026-04-26T07:20:26.396Z</time></trkpt><trkpt lat="45.2156605" lon="10.681453"><ele>25.0</ele><time>2026-04-26T07:20:28.396Z</time></trkpt><trkpt lat="45.2155792" lon="10.6815004"><ele>25.0</ele><time>2026-04-26T07:20:30.396Z</time></trkpt><trkpt lat="45.2154959" lon="10.6815498"><ele>25.0</ele><time>2026-04-26T07:20:32.395Z</time></trkpt><trkpt lat="45.2154131" lon="10.6815973"><ele>25.000000000000004</ele><time>2026-04-26T07:20:34.396Z</time></trkpt><trkpt lat="45.2153322" lon="10.681645"><ele>25.0</ele><time>2026-04-26T07:20:36.395Z</time></trkpt><trkpt lat="45.2152508" lon="10.6816912"><ele>24.500000000000004</ele><time>2026-04-26T07:20:38.395Z</time></trkpt><trkpt lat="45.2151699" lon="10.6817393"><ele>24.0</ele><time>2026-04-26T07:20:40.395Z</time></trkpt><trkpt lat="45.2150902" lon="10.6817888"><ele>23.5</ele><time>2026-04-26T07:20:42.396Z</time></trkpt><trkpt lat="45.2150093" lon="10.6818352"><ele>23.0</ele><time>2026-04-26T07:20:44.396Z</time></trkpt><trkpt lat="45.2149295" lon="10.6818771"><ele>22.5</ele><time>2026-04-26T07:20:46.396Z</time></trkpt><trkpt lat="45.2148546" lon="10.6819228"><ele>22.0</ele><time>2026-04-26T07:20:48.396Z</time></trkpt><trkpt lat="45.2147817" lon="10.6819672"><ele>21.666666666666664</ele><time>2026-04-26T07:20:50.395Z</time></trkpt><trkpt lat="45.2147087" lon="10.6820042"><ele>21.333333333333332</ele><time>2026-04-26T07:20:52.395Z</time></trkpt><trkpt lat="45.2146347" lon="10.6820471"><ele>21.0</ele><time>2026-04-26T07:20:54.395Z</time></trkpt><trkpt lat="45.2145577" lon="10.6820864"><ele>20.666666666666668</ele><time>2026-04-26T07:20:56.395Z</time></trkpt><trkpt lat="45.2144804" lon="10.6821313"><ele>20.333333333333336</ele><time>2026-04-26T07:20:58.395Z</time></trkpt><trkpt lat="45.2143984" lon="10.6821723"><ele>20.0</ele><time>2026-04-26T07:21:00.396Z</time></trkpt><trkpt lat="45.2143177" lon="10.682222"><ele>20.0</ele><time>2026-04-26T07:21:02.394Z</time></trkpt><trkpt lat="45.2142366" lon="10.6822698"><ele>20.0</ele><time>2026-04-26T07:21:04.396Z</time></trkpt><trkpt lat="45.2141572" lon="10.6823144"><ele>20.0</ele><time>2026-04-26T07:21:06.396Z</time></trkpt><trkpt lat="45.2140391" lon="10.6823695"><ele>20.0</ele><time>2026-04-26T07:21:09.395Z</time></trkpt><trkpt lat="45.2139618" lon="10.6824116"><ele>20.0</ele><time>2026-04-26T07:21:11.395Z</time></trkpt><trkpt lat="45.2138859" lon="10.6824591"><ele>20.0</ele><time>2026-04-26T07:21:13.396Z</time></trkpt><trkpt lat="45.2138146" lon="10.6825144"><ele>20.0</ele><time>2026-04-26T07:21:15.396Z</time></trkpt><trkpt lat="45.2137794" lon="10.6826086"><ele>20.0</ele><time>2026-04-26T07:21:17.395Z</time></trkpt><trkpt lat="45.2137792" lon="10.6827281"><ele>20.0</ele><time>2026-04-26T07:21:19.395Z</time></trkpt><trkpt lat="45.2138073" lon="10.6828424"><ele>20.0</ele><time>2026-04-26T07:21:21.395Z</time></trkpt><trkpt lat="45.2138438" lon="10.6829524"><ele>20.0</ele><time>2026-04-26T07:21:23.396Z</time></trkpt><trkpt lat="45.213877" lon="10.6830624"><ele>20.333333333333336</ele><time>2026-04-26T07:21:25.395Z</time></trkpt><trkpt lat="45.2139144" lon="10.6831685"><ele>20.666666666666668</ele><time>2026-04-26T07:21:27.396Z</time></trkpt><trkpt lat="45.2139523" lon="10.6832783"><ele>21.0</ele><time>2026-04-26T07:21:29.396Z</time></trkpt><trkpt lat="45.2139877" lon="10.6833896"><ele>21.333333333333332</ele><time>2026-04-26T07:21:31.396Z</time></trkpt><trkpt lat="45.214023" lon="10.683503"><ele>21.666666666666664</ele><time>2026-04-26T07:21:33.396Z</time></trkpt><trkpt lat="45.2140615" lon="10.68361"><ele>22.0</ele><time>2026-04-26T07:21:35.396Z</time></trkpt><trkpt lat="45.2140868" lon="10.6837092"><ele>22.0</ele><time>2026-04-26T07:21:37.396Z</time></trkpt><trkpt lat="45.2141033" lon="10.6837956"><ele>22.0</ele><time>2026-04-26T07:21:39.395Z</time></trkpt><trkpt lat="45.2140646" lon="10.6838748"><ele>22.0</ele><time>2026-04-26T07:21:41.395Z</time></trkpt><trkpt lat="45.2139914" lon="10.6839199"><ele>22.0</ele><time>2026-04-26T07:21:43.396Z</time></trkpt><trkpt lat="45.2139151" lon="10.6839664"><ele>22.0</ele><time>2026-04-26T07:21:45.396Z</time></trkpt><trkpt lat="45.2138405" lon="10.684013"><ele>22.0</ele><time>2026-04-26T07:21:47.396Z</time></trkpt><trkpt lat="45.2137667" lon="10.6840541"><ele>22.166666666666664</ele><time>2026-04-26T07:21:49.396Z</time></trkpt><trkpt lat="45.2136917" lon="10.6841023"><ele>22.333333333333332</ele><time>2026-04-26T07:21:51.396Z</time></trkpt><trkpt lat="45.2136165" lon="10.6841556"><ele>22.5</ele><time>2026-04-26T07:21:53.395Z</time></trkpt><trkpt lat="45.213539" lon="10.6841986"><ele>22.666666666666668</ele><time>2026-04-26T07:21:55.395Z</time></trkpt><trkpt lat="45.2134664" lon="10.6842603"><ele>22.833333333333336</ele><time>2026-04-26T07:21:57.395Z</time></trkpt><trkpt lat="45.2133951" lon="10.6843147"><ele>23.0</ele><time>2026-04-26T07:21:59.395Z</time></trkpt><trkpt lat="45.2133275" lon="10.6843684"><ele>23.0</ele><time>2026-04-26T07:22:01.394Z</time></trkpt><trkpt lat="45.2132592" lon="10.6844196"><ele>23.0</ele><time>2026-04-26T07:22:03.395Z</time></trkpt><trkpt lat="45.2131926" lon="10.6844754"><ele>23.0</ele><time>2026-04-26T07:22:05.394Z</time></trkpt><trkpt lat="45.2131239" lon="10.6845288"><ele>23.0</ele><time>2026-04-26T07:22:07.395Z</time></trkpt><trkpt lat="45.2130571" lon="10.6845852"><ele>23.0</ele><time>2026-04-26T07:22:09.395Z</time></trkpt><trkpt lat="45.2129879" lon="10.6846367"><ele>23.0</ele><time>2026-04-26T07:22:11.395Z</time></trkpt><trkpt lat="45.2129194" lon="10.6846938"><ele>23.166666666666668</ele><time>2026-04-26T07:22:13.395Z</time></trkpt><trkpt lat="45.2128523" lon="10.6847435"><ele>23.333333333333336</ele><time>2026-04-26T07:22:15.395Z</time></trkpt><trkpt lat="45.2127837" lon="10.6847953"><ele>23.5</ele><time>2026-04-26T07:22:17.394Z</time></trkpt><trkpt lat="45.212717" lon="10.6848448"><ele>23.666666666666668</ele><time>2026-04-26T07:22:19.395Z</time></trkpt><trkpt lat="45.2126534" lon="10.6849007"><ele>23.833333333333332</ele><time>2026-04-26T07:22:21.394Z</time></trkpt><trkpt lat="45.212582" lon="10.6849648"><ele>24.0</ele><time>2026-04-26T07:22:23.395Z</time></trkpt><trkpt lat="45.2125028" lon="10.6850291"><ele>24.0</ele><time>2026-04-26T07:22:25.394Z</time></trkpt><trkpt lat="45.2124215" lon="10.6850967"><ele>24.0</ele><time>2026-04-26T07:22:27.394Z</time></trkpt><trkpt lat="45.2123393" lon="10.6851653"><ele>24.0</ele><time>2026-04-26T07:22:29.395Z</time></trkpt><trkpt lat="45.212256" lon="10.6852398"><ele>24.0</ele><time>2026-04-26T07:22:31.394Z</time></trkpt><trkpt lat="45.2121801" lon="10.6853107"><ele>24.0</ele><time>2026-04-26T07:22:33.395Z</time></trkpt><trkpt lat="45.2121011" lon="10.6853833"><ele>23.4</ele><time>2026-04-26T07:22:35.395Z</time></trkpt><trkpt lat="45.2120246" lon="10.6854615"><ele>22.799999999999997</ele><time>2026-04-26T07:22:37.394Z</time></trkpt><trkpt lat="45.2119487" lon="10.6855335"><ele>22.200000000000003</ele><time>2026-04-26T07:22:39.395Z</time></trkpt><trkpt lat="45.211869" lon="10.6855989"><ele>21.6</ele><time>2026-04-26T07:22:41.395Z</time></trkpt><trkpt lat="45.2117915" lon="10.6856791"><ele>21.0</ele><time>2026-04-26T07:22:43.394Z</time></trkpt><trkpt lat="45.2117149" lon="10.6857563"><ele>21.0</ele><time>2026-04-26T07:22:45.393Z</time></trkpt><trkpt lat="45.2116342" lon="10.6858294"><ele>21.0</ele><time>2026-04-26T07:22:47.394Z</time></trkpt><trkpt lat="45.2115504" lon="10.6858869"><ele>21.0</ele><time>2026-04-26T07:22:49.394Z</time></trkpt><trkpt lat="45.211464" lon="10.6859265"><ele>21.0</ele><time>2026-04-26T07:22:51.395Z</time></trkpt><trkpt lat="45.211381" lon="10.6859418"><ele>21.0</ele><time>2026-04-26T07:22:53.394Z</time></trkpt><trkpt lat="45.2112953" lon="10.6859373"><ele>21.0</ele><time>2026-04-26T07:22:55.395Z</time></trkpt><trkpt lat="45.2112064" lon="10.6859264"><ele>21.0</ele><time>2026-04-26T07:22:57.395Z</time></trkpt><trkpt lat="45.2111211" lon="10.6859048"><ele>21.0</ele><time>2026-04-26T07:22:59.394Z</time></trkpt><trkpt lat="45.2110443" lon="10.6858709"><ele>21.0</ele><time>2026-04-26T07:23:01.394Z</time></trkpt><trkpt lat="45.2109593" lon="10.6858438"><ele>21.0</ele><time>2026-04-26T07:23:03.395Z</time></trkpt><trkpt lat="45.2108796" lon="10.6858107"><ele>21.0</ele><time>2026-04-26T07:23:05.395Z</time></trkpt><trkpt lat="45.2107959" lon="10.6857863"><ele>21.0</ele><time>2026-04-26T07:23:07.395Z</time></trkpt><trkpt lat="45.2107128" lon="10.6857664"><ele>20.666666666666668</ele><time>2026-04-26T07:23:09.394Z</time></trkpt><trkpt lat="45.2106277" lon="10.6857472"><ele>20.333333333333332</ele><time>2026-04-26T07:23:11.319Z</time></trkpt><trkpt lat="45.2105444" lon="10.6857352"><ele>20.0</ele><time>2026-04-26T07:23:13.395Z</time></trkpt><trkpt lat="45.2104628" lon="10.6857244"><ele>19.666666666666664</ele><time>2026-04-26T07:23:15.381Z</time></trkpt><trkpt lat="45.2103858" lon="10.6857054"><ele>19.333333333333332</ele><time>2026-04-26T07:23:17.395Z</time></trkpt><trkpt lat="45.2103099" lon="10.6856796"><ele>19.0</ele><time>2026-04-26T07:23:19.394Z</time></trkpt><trkpt lat="45.2102333" lon="10.6856566"><ele>19.0</ele><time>2026-04-26T07:23:21.395Z</time></trkpt><trkpt lat="45.2101691" lon="10.6856345"><ele>19.0</ele><time>2026-04-26T07:23:23.063Z</time></trkpt><trkpt lat="45.2100767" lon="10.6855905"><ele>19.0</ele><time>2026-04-26T07:23:25.395Z</time></trkpt><trkpt lat="45.210009" lon="10.6855369"><ele>19.0</ele><time>2026-04-26T07:23:27.394Z</time></trkpt><trkpt lat="45.209937" lon="10.6854829"><ele>19.0</ele><time>2026-04-26T07:23:29.395Z</time></trkpt><trkpt lat="45.2098667" lon="10.685428"><ele>19.0</ele><time>2026-04-26T07:23:31.394Z</time></trkpt><trkpt lat="45.2097974" lon="10.685375"><ele>19.142857142857142</ele><time>2026-04-26T07:23:33.395Z</time></trkpt><trkpt lat="45.209729" lon="10.6853197"><ele>19.28571428571429</ele><time>2026-04-26T07:23:35.394Z</time></trkpt><trkpt lat="45.2096608" lon="10.685272"><ele>19.42857142857143</ele><time>2026-04-26T07:23:37.394Z</time></trkpt><trkpt lat="45.2095991" lon="10.6852271"><ele>19.57142857142857</ele><time>2026-04-26T07:23:39.395Z</time></trkpt><trkpt lat="45.2095397" lon="10.6851774"><ele>19.714285714285715</ele><time>2026-04-26T07:23:41.395Z</time></trkpt><trkpt lat="45.2094804" lon="10.6851173"><ele>19.857142857142858</ele><time>2026-04-26T07:23:43.395Z</time></trkpt><trkpt lat="45.2094171" lon="10.6850618"><ele>20.0</ele><time>2026-04-26T07:23:45.395Z</time></trkpt><trkpt lat="45.2093525" lon="10.6850108"><ele>20.0</ele><time>2026-04-26T07:23:47.394Z</time></trkpt><trkpt lat="45.2092913" lon="10.6849591"><ele>20.0</ele><time>2026-04-26T07:23:49.394Z</time></trkpt><trkpt lat="45.2092312" lon="10.6849044"><ele>20.0</ele><time>2026-04-26T07:23:51.394Z</time></trkpt><trkpt lat="45.2091702" lon="10.6848536"><ele>20.0</ele><time>2026-04-26T07:23:53.395Z</time></trkpt><trkpt lat="45.2091106" lon="10.6847988"><ele>20.0</ele><time>2026-04-26T07:23:55.395Z</time></trkpt><trkpt lat="45.2090504" lon="10.6847473"><ele>20.0</ele><time>2026-04-26T07:23:57.395Z</time></trkpt><trkpt lat="45.2089908" lon="10.6846969"><ele>20.0</ele><time>2026-04-26T07:23:59.395Z</time></trkpt><trkpt lat="45.2089313" lon="10.6846475"><ele>19.857142857142858</ele><time>2026-04-26T07:24:01.395Z</time></trkpt><trkpt lat="45.2088694" lon="10.6846048"><ele>19.714285714285715</ele><time>2026-04-26T07:24:03.395Z</time></trkpt><trkpt lat="45.2088096" lon="10.684547"><ele>19.57142857142857</ele><time>2026-04-26T07:24:05.394Z</time></trkpt><trkpt lat="45.2087465" lon="10.6844956"><ele>19.42857142857143</ele><time>2026-04-26T07:24:07.395Z</time></trkpt><trkpt lat="45.2086837" lon="10.6844407"><ele>19.28571428571429</ele><time>2026-04-26T07:24:09.394Z</time></trkpt><trkpt lat="45.2086182" lon="10.6843933"><ele>19.142857142857142</ele><time>2026-04-26T07:24:11.394Z</time></trkpt><trkpt lat="45.2085542" lon="10.6843367"><ele>19.0</ele><time>2026-04-26T07:24:13.395Z</time></trkpt><trkpt lat="45.2084886" lon="10.6842781"><ele>19.0</ele><time>2026-04-26T07:24:15.395Z</time></trkpt><trkpt lat="45.2084203" lon="10.6842293"><ele>19.0</ele><time>2026-04-26T07:24:17.395Z</time></trkpt><trkpt lat="45.2083525" lon="10.6841782"><ele>19.0</ele><time>2026-04-26T07:24:19.393Z</time></trkpt><trkpt lat="45.2082845" lon="10.6841197"><ele>19.0</ele><time>2026-04-26T07:24:21.394Z</time></trkpt><trkpt lat="45.2082141" lon="10.684059"><ele>19.0</ele><time>2026-04-26T07:24:23.395Z</time></trkpt><trkpt lat="45.2081427" lon="10.6839951"><ele>19.0</ele><time>2026-04-26T07:24:25.395Z</time></trkpt><trkpt lat="45.2080688" lon="10.6839357"><ele>19.0</ele><time>2026-04-26T07:24:27.395Z</time></trkpt><trkpt lat="45.2079983" lon="10.6838709"><ele>19.0</ele><time>2026-04-26T07:24:29.395Z</time></trkpt><trkpt lat="45.2079292" lon="10.6838095"><ele>19.0</ele><time>2026-04-26T07:24:31.394Z</time></trkpt><trkpt lat="45.2078588" lon="10.6837511"><ele>19.0</ele><time>2026-04-26T07:24:33.394Z</time></trkpt><trkpt lat="45.2077896" lon="10.6836906"><ele>19.0</ele><time>2026-04-26T07:24:35.394Z</time></trkpt><trkpt lat="45.2077186" lon="10.6836293"><ele>19.0</ele><time>2026-04-26T07:24:37.395Z</time></trkpt><trkpt lat="45.2076405" lon="10.6835666"><ele>19.166666666666664</ele><time>2026-04-26T07:24:39.394Z</time></trkpt><trkpt lat="45.2075694" lon="10.6835131"><ele>19.333333333333332</ele><time>2026-04-26T07:24:41.395Z</time></trkpt><trkpt lat="45.2074945" lon="10.68347"><ele>19.5</ele><time>2026-04-26T07:24:43.394Z</time></trkpt><trkpt lat="45.2074223" lon="10.683423"><ele>19.666666666666668</ele><time>2026-04-26T07:24:45.395Z</time></trkpt><trkpt lat="45.2073513" lon="10.6833682"><ele>19.833333333333336</ele><time>2026-04-26T07:24:47.394Z</time></trkpt><trkpt lat="45.207281" lon="10.683319"><ele>20.0</ele><time>2026-04-26T07:24:49.395Z</time></trkpt><trkpt lat="45.207213" lon="10.6832843"><ele>20.0</ele><time>2026-04-26T07:24:51.395Z</time></trkpt><trkpt lat="45.2071353" lon="10.683242"><ele>20.0</ele><time>2026-04-26T07:24:53.395Z</time></trkpt><trkpt lat="45.2070562" lon="10.6831997"><ele>20.0</ele><time>2026-04-26T07:24:55.395Z</time></trkpt><trkpt lat="45.2069746" lon="10.6831583"><ele>20.0</ele><time>2026-04-26T07:24:57.395Z</time></trkpt><trkpt lat="45.2068942" lon="10.6831185"><ele>20.0</ele><time>2026-04-26T07:24:59.394Z</time></trkpt><trkpt lat="45.206813" lon="10.6830823"><ele>20.0</ele><time>2026-04-26T07:25:01.393Z</time></trkpt><trkpt lat="45.2067323" lon="10.6830413"><ele>20.0</ele><time>2026-04-26T07:25:03.393Z</time></trkpt><trkpt lat="45.2066514" lon="10.6830017"><ele>20.0</ele><time>2026-04-26T07:25:05.394Z</time></trkpt><trkpt lat="45.2065699" lon="10.6829641"><ele>20.0</ele><time>2026-04-26T07:25:07.394Z</time></trkpt><trkpt lat="45.2064905" lon="10.6829306"><ele>20.0</ele><time>2026-04-26T07:25:09.393Z</time></trkpt><trkpt lat="45.2064136" lon="10.6829007"><ele>20.0</ele><time>2026-04-26T07:25:11.393Z</time></trkpt><trkpt lat="45.2063471" lon="10.6828703"><ele>20.0</ele><time>2026-04-26T07:25:13.393Z</time></trkpt><trkpt lat="45.2062836" lon="10.6828386"><ele>20.166666666666668</ele><time>2026-04-26T07:25:15.394Z</time></trkpt><trkpt lat="45.2062092" lon="10.6828117"><ele>20.333333333333336</ele><time>2026-04-26T07:25:17.393Z</time></trkpt><trkpt lat="45.2061401" lon="10.6827726"><ele>20.5</ele><time>2026-04-26T07:25:19.394Z</time></trkpt><trkpt lat="45.2060738" lon="10.6827419"><ele>20.666666666666668</ele><time>2026-04-26T07:25:21.394Z</time></trkpt><trkpt lat="45.2060145" lon="10.6827091"><ele>20.833333333333332</ele><time>2026-04-26T07:25:23.393Z</time></trkpt><trkpt lat="45.2059102" lon="10.6827004"><ele>21.0</ele><time>2026-04-26T07:30:31.393Z</time></trkpt><trkpt lat="45.2058396" lon="10.6826685"><ele>21.0</ele><time>2026-04-26T07:30:34.393Z</time></trkpt><trkpt lat="45.2057489" lon="10.6826333"><ele>21.0</ele><time>2026-04-26T07:30:37.393Z</time></trkpt><trkpt lat="45.2056584" lon="10.6825929"><ele>21.0</ele><time>2026-04-26T07:30:40.393Z</time></trkpt><trkpt lat="45.2055878" lon="10.6825591"><ele>21.0</ele><time>2026-04-26T07:30:42.393Z</time></trkpt><trkpt lat="45.2055146" lon="10.6825166"><ele>21.0</ele><time>2026-04-26T07:30:44.393Z</time></trkpt><trkpt lat="45.2054386" lon="10.6824741"><ele>21.0</ele><time>2026-04-26T07:30:46.392Z</time></trkpt><trkpt lat="45.2053626" lon="10.6824244"><ele>20.833333333333332</ele><time>2026-04-26T07:30:48.393Z</time></trkpt><trkpt lat="45.2052886" lon="10.6823679"><ele>20.666666666666668</ele><time>2026-04-26T07:30:50.393Z</time></trkpt><trkpt lat="45.2052117" lon="10.682316"><ele>20.5</ele><time>2026-04-26T07:30:52.393Z</time></trkpt><trkpt lat="45.2051402" lon="10.6822649"><ele>20.333333333333336</ele><time>2026-04-26T07:30:54.393Z</time></trkpt><trkpt lat="45.2050688" lon="10.6822193"><ele>20.166666666666668</ele><time>2026-04-26T07:30:56.393Z</time></trkpt><trkpt lat="45.2049994" lon="10.6821719"><ele>20.0</ele><time>2026-04-26T07:30:58.393Z</time></trkpt><trkpt lat="45.2049277" lon="10.68213"><ele>20.0</ele><time>2026-04-26T07:31:00.392Z</time></trkpt><trkpt lat="45.2048599" lon="10.6820854"><ele>20.0</ele><time>2026-04-26T07:31:02.393Z</time></trkpt><trkpt lat="45.2047928" lon="10.6820352"><ele>20.0</ele><time>2026-04-26T07:31:04.392Z</time></trkpt><trkpt lat="45.2047244" lon="10.681993"><ele>20.0</ele><time>2026-04-26T07:31:06.393Z</time></trkpt><trkpt lat="45.2046595" lon="10.681953"><ele>20.0</ele><time>2026-04-26T07:31:08.392Z</time></trkpt><trkpt lat="45.2045954" lon="10.681917"><ele>20.0</ele><time>2026-04-26T07:31:10.393Z</time></trkpt><trkpt lat="45.2045308" lon="10.6818808"><ele>20.0</ele><time>2026-04-26T07:31:12.393Z</time></trkpt><trkpt lat="45.2044688" lon="10.6818471"><ele>20.0</ele><time>2026-04-26T07:31:14.392Z</time></trkpt><trkpt lat="45.2044063" lon="10.6818153"><ele>20.0</ele><time>2026-04-26T07:31:16.392Z</time></trkpt><trkpt lat="45.204341" lon="10.6817797"><ele>20.0</ele><time>2026-04-26T07:31:18.393Z</time></trkpt><trkpt lat="45.204266" lon="10.6817418"><ele>20.0</ele><time>2026-04-26T07:31:20.392Z</time></trkpt><trkpt lat="45.2041733" lon="10.6817071"><ele>20.0</ele><time>2026-04-26T07:31:23.392Z</time></trkpt><trkpt lat="45.2040796" lon="10.6816683"><ele>20.0</ele><time>2026-04-26T07:31:26.393Z</time></trkpt><trkpt lat="45.2039917" lon="10.681628"><ele>20.0</ele><time>2026-04-26T07:31:28.393Z</time></trkpt><trkpt lat="45.2039083" lon="10.6815904"><ele>20.0</ele><time>2026-04-26T07:31:30.393Z</time></trkpt><trkpt lat="45.2038257" lon="10.6815541"><ele>20.0</ele><time>2026-04-26T07:31:32.393Z</time></trkpt><trkpt lat="45.2037431" lon="10.6815212"><ele>20.0</ele><time>2026-04-26T07:31:34.393Z</time></trkpt><trkpt lat="45.2036659" lon="10.6814874"><ele>20.0</ele><time>2026-04-26T07:31:36.392Z</time></trkpt><trkpt lat="45.2035843" lon="10.68146"><ele>20.0</ele><time>2026-04-26T07:31:38.391Z</time></trkpt><trkpt lat="45.2035041" lon="10.6814397"><ele>20.0</ele><time>2026-04-26T07:31:40.393Z</time></trkpt><trkpt lat="45.2034202" lon="10.6814113"><ele>20.0</ele><time>2026-04-26T07:31:42.393Z</time></trkpt><trkpt lat="45.203337" lon="10.6813826"><ele>20.0</ele><time>2026-04-26T07:31:44.392Z</time></trkpt><trkpt lat="45.2032572" lon="10.6813526"><ele>20.0</ele><time>2026-04-26T07:31:46.393Z</time></trkpt><trkpt lat="45.2031808" lon="10.681323"><ele>20.0</ele><time>2026-04-26T07:31:48.392Z</time></trkpt><trkpt lat="45.2031104" lon="10.6812909"><ele>20.0</ele><time>2026-04-26T07:31:50.393Z</time></trkpt><trkpt lat="45.2030403" lon="10.6812624"><ele>20.0</ele><time>2026-04-26T07:31:52.393Z</time></trkpt><trkpt lat="45.202966" lon="10.6812307"><ele>20.0</ele><time>2026-04-26T07:31:54.392Z</time></trkpt><trkpt lat="45.202893" lon="10.6812005"><ele>20.0</ele><time>2026-04-26T07:31:56.393Z</time></trkpt><trkpt lat="45.2028111" lon="10.68118"><ele>20.0</ele><time>2026-04-26T07:31:58.392Z</time></trkpt><trkpt lat="45.2027278" lon="10.6811535"><ele>20.0</ele><time>2026-04-26T07:32:00.393Z</time></trkpt><trkpt lat="45.2026482" lon="10.6811213"><ele>20.0</ele><time>2026-04-26T07:32:02.393Z</time></trkpt><trkpt lat="45.2025649" lon="10.6810929"><ele>20.166666666666668</ele><time>2026-04-26T07:32:04.393Z</time></trkpt><trkpt lat="45.2024873" lon="10.6810668"><ele>20.333333333333336</ele><time>2026-04-26T07:32:06.392Z</time></trkpt><trkpt lat="45.2024069" lon="10.6810385"><ele>20.5</ele><time>2026-04-26T07:32:08.393Z</time></trkpt><trkpt lat="45.2023265" lon="10.6810127"><ele>20.666666666666668</ele><time>2026-04-26T07:32:10.393Z</time></trkpt><trkpt lat="45.2022503" lon="10.6809822"><ele>20.833333333333332</ele><time>2026-04-26T07:32:12.393Z</time></trkpt><trkpt lat="45.2021716" lon="10.6809471"><ele>21.0</ele><time>2026-04-26T07:32:14.393Z</time></trkpt><trkpt lat="45.2020898" lon="10.6809205"><ele>21.333333333333332</ele><time>2026-04-26T07:32:16.393Z</time></trkpt><trkpt lat="45.2020099" lon="10.680894"><ele>21.666666666666668</ele><time>2026-04-26T07:32:18.392Z</time></trkpt><trkpt lat="45.2019336" lon="10.6808578"><ele>22.0</ele><time>2026-04-26T07:32:20.392Z</time></trkpt><trkpt lat="45.2018595" lon="10.6808207"><ele>22.333333333333336</ele><time>2026-04-26T07:32:22.393Z</time></trkpt><trkpt lat="45.2017824" lon="10.6807823"><ele>22.666666666666668</ele><time>2026-04-26T07:32:24.392Z</time></trkpt><trkpt lat="45.2017055" lon="10.6807493"><ele>23.0</ele><time>2026-04-26T07:32:26.393Z</time></trkpt><trkpt lat="45.2016272" lon="10.6807215"><ele>23.0</ele><time>2026-04-26T07:32:28.392Z</time></trkpt><trkpt lat="45.201549" lon="10.6806931"><ele>23.0</ele><time>2026-04-26T07:32:30.393Z</time></trkpt><trkpt lat="45.2014706" lon="10.6806611"><ele>23.0</ele><time>2026-04-26T07:32:32.393Z</time></trkpt><trkpt lat="45.2013911" lon="10.6806291"><ele>23.0</ele><time>2026-04-26T07:32:34.392Z</time></trkpt><trkpt lat="45.2013118" lon="10.6806039"><ele>23.0</ele><time>2026-04-26T07:32:36.391Z</time></trkpt><trkpt lat="45.2012314" lon="10.6805772"><ele>23.0</ele><time>2026-04-26T07:32:38.392Z</time></trkpt><trkpt lat="45.2011524" lon="10.6805503"><ele>22.833333333333336</ele><time>2026-04-26T07:32:40.392Z</time></trkpt><trkpt lat="45.2010735" lon="10.6805241"><ele>22.666666666666668</ele><time>2026-04-26T07:32:42.392Z</time></trkpt><trkpt lat="45.2009929" lon="10.680493"><ele>22.5</ele><time>2026-04-26T07:32:44.392Z</time></trkpt><trkpt lat="45.2009137" lon="10.680462"><ele>22.333333333333332</ele><time>2026-04-26T07:32:46.392Z</time></trkpt><trkpt lat="45.2008367" lon="10.6804287"><ele>22.166666666666664</ele><time>2026-04-26T07:32:48.391Z</time></trkpt><trkpt lat="45.2007625" lon="10.6803884"><ele>22.0</ele><time>2026-04-26T07:32:50.392Z</time></trkpt><trkpt lat="45.200689" lon="10.6803444"><ele>22.0</ele><time>2026-04-26T07:32:52.392Z</time></trkpt><trkpt lat="45.200619" lon="10.6802932"><ele>22.0</ele><time>2026-04-26T07:32:54.392Z</time></trkpt><trkpt lat="45.2005478" lon="10.6802304"><ele>22.0</ele><time>2026-04-26T07:32:56.392Z</time></trkpt><trkpt lat="45.200475" lon="10.6801645"><ele>22.0</ele><time>2026-04-26T07:32:58.391Z</time></trkpt><trkpt lat="45.200406" lon="10.6800941"><ele>22.0</ele><time>2026-04-26T07:33:00.391Z</time></trkpt><trkpt lat="45.2003388" lon="10.680024"><ele>22.0</ele><time>2026-04-26T07:33:02.392Z</time></trkpt><trkpt lat="45.2002722" lon="10.6799578"><ele>22.0</ele><time>2026-04-26T07:33:04.391Z</time></trkpt><trkpt lat="45.2002079" lon="10.6798918"><ele>22.0</ele><time>2026-04-26T07:33:06.392Z</time></trkpt><trkpt lat="45.2001432" lon="10.6798278"><ele>22.0</ele><time>2026-04-26T07:33:08.392Z</time></trkpt><trkpt lat="45.2000786" lon="10.679766"><ele>22.0</ele><time>2026-04-26T07:33:10.392Z</time></trkpt><trkpt lat="45.2000144" lon="10.6797059"><ele>22.0</ele><time>2026-04-26T07:33:12.392Z</time></trkpt><trkpt lat="45.1999518" lon="10.6796409"><ele>22.0</ele><time>2026-04-26T07:33:14.392Z</time></trkpt><trkpt lat="45.1998906" lon="10.6795775"><ele>21.571428571428573</ele><time>2026-04-26T07:33:16.392Z</time></trkpt><trkpt lat="45.1998288" lon="10.6795199"><ele>21.142857142857142</ele><time>2026-04-26T07:33:18.392Z</time></trkpt><trkpt lat="45.1997699" lon="10.6794634"><ele>20.714285714285715</ele><time>2026-04-26T07:33:20.392Z</time></trkpt><trkpt lat="45.1997119" lon="10.6794024"><ele>20.285714285714285</ele><time>2026-04-26T07:33:22.391Z</time></trkpt><trkpt lat="45.199651" lon="10.6793399"><ele>19.857142857142858</ele><time>2026-04-26T07:33:24.392Z</time></trkpt><trkpt lat="45.1995917" lon="10.6792812"><ele>19.428571428571427</ele><time>2026-04-26T07:33:26.392Z</time></trkpt><trkpt lat="45.1995323" lon="10.6792291"><ele>19.0</ele><time>2026-04-26T07:33:28.392Z</time></trkpt><trkpt lat="45.1994721" lon="10.6791774"><ele>19.0</ele><time>2026-04-26T07:33:30.391Z</time></trkpt><trkpt lat="45.1994098" lon="10.6791268"><ele>19.0</ele><time>2026-04-26T07:33:32.391Z</time></trkpt><trkpt lat="45.1993492" lon="10.6790822"><ele>19.0</ele><time>2026-04-26T07:33:34.392Z</time></trkpt><trkpt lat="45.1992859" lon="10.679041"><ele>19.0</ele><time>2026-04-26T07:33:36.392Z</time></trkpt><trkpt lat="45.1992164" lon="10.6790107"><ele>19.0</ele><time>2026-04-26T07:33:38.392Z</time></trkpt><trkpt lat="45.1991487" lon="10.6789763"><ele>19.0</ele><time>2026-04-26T07:33:40.39Z</time></trkpt><trkpt lat="45.199079" lon="10.678942"><ele>19.0</ele><time>2026-04-26T07:33:42.392Z</time></trkpt><trkpt lat="45.199007" lon="10.6789099"><ele>19.0</ele><time>2026-04-26T07:33:44.391Z</time></trkpt><trkpt lat="45.1989367" lon="10.6788815"><ele>19.0</ele><time>2026-04-26T07:33:46.391Z</time></trkpt><trkpt lat="45.1988668" lon="10.6788591"><ele>19.0</ele><time>2026-04-26T07:33:48.391Z</time></trkpt><trkpt lat="45.1987966" lon="10.6788419"><ele>19.0</ele><time>2026-04-26T07:33:50.391Z</time></trkpt><trkpt lat="45.1987277" lon="10.6788318"><ele>19.0</ele><time>2026-04-26T07:33:52.391Z</time></trkpt><trkpt lat="45.198659" lon="10.6788242"><ele>19.0</ele><time>2026-04-26T07:33:54.392Z</time></trkpt><trkpt lat="45.1985892" lon="10.6788165"><ele>19.0</ele><time>2026-04-26T07:33:56.391Z</time></trkpt><trkpt lat="45.1985188" lon="10.6788127"><ele>19.0</ele><time>2026-04-26T07:33:58.391Z</time></trkpt><trkpt lat="45.1984478" lon="10.6788135"><ele>19.0</ele><time>2026-04-26T07:34:00.392Z</time></trkpt><trkpt lat="45.1983794" lon="10.6788246"><ele>19.0</ele><time>2026-04-26T07:34:02.392Z</time></trkpt><trkpt lat="45.1983052" lon="10.6788394"><ele>19.0</ele><time>2026-04-26T07:34:04.391Z</time></trkpt><trkpt lat="45.1982256" lon="10.6788621"><ele>19.0</ele><time>2026-04-26T07:34:06.392Z</time></trkpt><trkpt lat="45.1981489" lon="10.6788928"><ele>19.0</ele><time>2026-04-26T07:34:08.392Z</time></trkpt><trkpt lat="45.1980736" lon="10.6789281"><ele>19.0</ele><time>2026-04-26T07:34:10.391Z</time></trkpt><trkpt lat="45.1980002" lon="10.6789679"><ele>19.0</ele><time>2026-04-26T07:34:12.391Z</time></trkpt><trkpt lat="45.1979305" lon="10.6790166"><ele>19.0</ele><time>2026-04-26T07:34:14.391Z</time></trkpt><trkpt lat="45.1978637" lon="10.6790665"><ele>19.0</ele><time>2026-04-26T07:34:16.392Z</time></trkpt><trkpt lat="45.197791" lon="10.6791156"><ele>19.0</ele><time>2026-04-26T07:34:18.391Z</time></trkpt><trkpt lat="45.1977135" lon="10.6791675"><ele>19.0</ele><time>2026-04-26T07:34:20.391Z</time></trkpt><trkpt lat="45.1976422" lon="10.6792201"><ele>19.0</ele><time>2026-04-26T07:34:22.392Z</time></trkpt><trkpt lat="45.1975771" lon="10.6792681"><ele>19.0</ele><time>2026-04-26T07:34:24.391Z</time></trkpt><trkpt lat="45.197515" lon="10.6793084"><ele>19.0</ele><time>2026-04-26T07:34:26.392Z</time></trkpt><trkpt lat="45.1974509" lon="10.6793431"><ele>19.0</ele><time>2026-04-26T07:34:28.392Z</time></trkpt><trkpt lat="45.1973843" lon="10.6793705"><ele>19.0</ele><time>2026-04-26T07:34:30.392Z</time></trkpt><trkpt lat="45.1973195" lon="10.6793952"><ele>19.0</ele><time>2026-04-26T07:34:32.392Z</time></trkpt><trkpt lat="45.1972562" lon="10.6794193"><ele>19.0</ele><time>2026-04-26T07:34:34.392Z</time></trkpt><trkpt lat="45.1971931" lon="10.6794405"><ele>19.285714285714285</ele><time>2026-04-26T07:34:36.392Z</time></trkpt><trkpt lat="45.1971294" lon="10.6794596"><ele>19.571428571428573</ele><time>2026-04-26T07:34:38.392Z</time></trkpt><trkpt lat="45.1970652" lon="10.6794775"><ele>19.857142857142858</ele><time>2026-04-26T07:34:40.392Z</time></trkpt><trkpt lat="45.1969964" lon="10.6794886"><ele>20.142857142857142</ele><time>2026-04-26T07:34:42.391Z</time></trkpt><trkpt lat="45.1969277" lon="10.6794929"><ele>20.42857142857143</ele><time>2026-04-26T07:34:44.392Z</time></trkpt><trkpt lat="45.1968592" lon="10.6794938"><ele>20.714285714285715</ele><time>2026-04-26T07:34:46.392Z</time></trkpt><trkpt lat="45.1967931" lon="10.6794915"><ele>21.0</ele><time>2026-04-26T07:34:48.392Z</time></trkpt><trkpt lat="45.1967246" lon="10.6794887"><ele>21.0</ele><time>2026-04-26T07:34:50.392Z</time></trkpt><trkpt lat="45.1966521" lon="10.6794839"><ele>21.0</ele><time>2026-04-26T07:34:52.392Z</time></trkpt><trkpt lat="45.1965782" lon="10.6794818"><ele>21.0</ele><time>2026-04-26T07:34:54.391Z</time></trkpt><trkpt lat="45.196506" lon="10.6794807"><ele>21.0</ele><time>2026-04-26T07:34:56.392Z</time></trkpt><trkpt lat="45.1964327" lon="10.6794821"><ele>21.0</ele><time>2026-04-26T07:34:58.391Z</time></trkpt><trkpt lat="45.1963588" lon="10.6794827"><ele>21.0</ele><time>2026-04-26T07:35:00.391Z</time></trkpt><trkpt lat="45.1962841" lon="10.6794792"><ele>21.0</ele><time>2026-04-26T07:35:02.391Z</time></trkpt><trkpt lat="45.1962098" lon="10.6794788"><ele>20.857142857142858</ele><time>2026-04-26T07:35:04.391Z</time></trkpt><trkpt lat="45.1961364" lon="10.6794826"><ele>20.714285714285715</ele><time>2026-04-26T07:35:06.391Z</time></trkpt><trkpt lat="45.1960624" lon="10.6794847"><ele>20.57142857142857</ele><time>2026-04-26T07:35:08.392Z</time></trkpt><trkpt lat="45.1959887" lon="10.679481"><ele>20.42857142857143</ele><time>2026-04-26T07:35:10.392Z</time></trkpt><trkpt lat="45.1959156" lon="10.6794789"><ele>20.285714285714285</ele><time>2026-04-26T07:35:12.392Z</time></trkpt><trkpt lat="45.1958417" lon="10.6794794"><ele>20.142857142857142</ele><time>2026-04-26T07:35:14.392Z</time></trkpt><trkpt lat="45.1957644" lon="10.6794831"><ele>20.0</ele><time>2026-04-26T07:35:16.392Z</time></trkpt><trkpt lat="45.1956848" lon="10.6794868"><ele>20.333333333333336</ele><time>2026-04-26T07:35:18.391Z</time></trkpt><trkpt lat="45.1956057" lon="10.6794894"><ele>20.666666666666668</ele><time>2026-04-26T07:35:20.391Z</time></trkpt><trkpt lat="45.1955265" lon="10.6794928"><ele>21.0</ele><time>2026-04-26T07:35:22.392Z</time></trkpt><trkpt lat="45.1954466" lon="10.6794958"><ele>21.333333333333332</ele><time>2026-04-26T07:35:24.392Z</time></trkpt><trkpt lat="45.1953693" lon="10.6795009"><ele>21.666666666666664</ele><time>2026-04-26T07:35:26.391Z</time></trkpt><trkpt lat="45.1952944" lon="10.6795074"><ele>22.0</ele><time>2026-04-26T07:35:28.391Z</time></trkpt><trkpt lat="45.1952214" lon="10.6795133"><ele>22.0</ele><time>2026-04-26T07:35:30.392Z</time></trkpt><trkpt lat="45.1951469" lon="10.6795215"><ele>22.0</ele><time>2026-04-26T07:35:32.392Z</time></trkpt><trkpt lat="45.1950668" lon="10.6795298"><ele>22.0</ele><time>2026-04-26T07:35:34.392Z</time></trkpt><trkpt lat="45.1949842" lon="10.679533"><ele>22.0</ele><time>2026-04-26T07:35:36.391Z</time></trkpt><trkpt lat="45.1949047" lon="10.6795397"><ele>22.0</ele><time>2026-04-26T07:35:38.392Z</time></trkpt><trkpt lat="45.1948276" lon="10.6795493"><ele>22.0</ele><time>2026-04-26T07:35:40.391Z</time></trkpt><trkpt lat="45.1947494" lon="10.6795541"><ele>21.333333333333332</ele><time>2026-04-26T07:35:42.392Z</time></trkpt><trkpt lat="45.1946705" lon="10.6795638"><ele>20.666666666666664</ele><time>2026-04-26T07:35:44.391Z</time></trkpt><trkpt lat="45.1945915" lon="10.6795757"><ele>20.0</ele><time>2026-04-26T07:35:46.39Z</time></trkpt><trkpt lat="45.1945124" lon="10.6795867"><ele>19.333333333333332</ele><time>2026-04-26T07:35:48.391Z</time></trkpt><trkpt lat="45.1944293" lon="10.6795974"><ele>18.666666666666668</ele><time>2026-04-26T07:35:50.391Z</time></trkpt><trkpt lat="45.1943428" lon="10.6796056"><ele>18.0</ele><time>2026-04-26T07:35:52.391Z</time></trkpt><trkpt lat="45.1942561" lon="10.6796214"><ele>18.0</ele><time>2026-04-26T07:35:54.39Z</time></trkpt><trkpt lat="45.1941691" lon="10.6796376"><ele>18.0</ele><time>2026-04-26T07:35:56.391Z</time></trkpt><trkpt lat="45.1940838" lon="10.6796535"><ele>18.0</ele><time>2026-04-26T07:35:58.39Z</time></trkpt><trkpt lat="45.1940022" lon="10.6796702"><ele>18.0</ele><time>2026-04-26T07:36:00.391Z</time></trkpt><trkpt lat="45.1939251" lon="10.6796846"><ele>18.0</ele><time>2026-04-26T07:36:02.39Z</time></trkpt><trkpt lat="45.1938484" lon="10.6796979"><ele>18.0</ele><time>2026-04-26T07:36:04.391Z</time></trkpt><trkpt lat="45.1937734" lon="10.6797126"><ele>18.166666666666668</ele><time>2026-04-26T07:36:06.39Z</time></trkpt><trkpt lat="45.1936961" lon="10.6797266"><ele>18.333333333333332</ele><time>2026-04-26T07:36:09.391Z</time></trkpt><trkpt lat="45.1936252" lon="10.679751"><ele>18.5</ele><time>2026-04-26T07:36:42.39Z</time></trkpt><trkpt lat="45.1935403" lon="10.6797636"><ele>18.666666666666664</ele><time>2026-04-26T07:36:46.391Z</time></trkpt><trkpt lat="45.1934589" lon="10.6797769"><ele>18.833333333333332</ele><time>2026-04-26T07:36:49.391Z</time></trkpt><trkpt lat="45.1933665" lon="10.6797955"><ele>19.0</ele><time>2026-04-26T07:36:52.391Z</time></trkpt><trkpt lat="45.1933006" lon="10.6798079"><ele>19.0</ele><time>2026-04-26T07:36:54.39Z</time></trkpt><trkpt lat="45.1932324" lon="10.6798202"><ele>19.0</ele><time>2026-04-26T07:36:56.391Z</time></trkpt><trkpt lat="45.1931618" lon="10.6798323"><ele>19.0</ele><time>2026-04-26T07:36:58.391Z</time></trkpt><trkpt lat="45.1930889" lon="10.6798443"><ele>19.0</ele><time>2026-04-26T07:37:00.39Z</time></trkpt><trkpt lat="45.1930146" lon="10.6798578"><ele>19.0</ele><time>2026-04-26T07:37:02.391Z</time></trkpt><trkpt lat="45.192941" lon="10.6798669"><ele>19.0</ele><time>2026-04-26T07:37:04.391Z</time></trkpt><trkpt lat="45.1928701" lon="10.6798708"><ele>19.0</ele><time>2026-04-26T07:37:06.391Z</time></trkpt><trkpt lat="45.1927978" lon="10.6798742"><ele>19.0</ele><time>2026-04-26T07:37:08.391Z</time></trkpt><trkpt lat="45.1927256" lon="10.6798781"><ele>19.0</ele><time>2026-04-26T07:37:10.391Z</time></trkpt><trkpt lat="45.1926532" lon="10.6798799"><ele>19.0</ele><time>2026-04-26T07:37:12.391Z</time></trkpt><trkpt lat="45.1925806" lon="10.6798785"><ele>19.0</ele><time>2026-04-26T07:37:14.391Z</time></trkpt><trkpt lat="45.1925078" lon="10.6798797"><ele>19.0</ele><time>2026-04-26T07:37:16.39Z</time></trkpt><trkpt lat="45.1924342" lon="10.6798815"><ele>19.0</ele><time>2026-04-26T07:37:18.391Z</time></trkpt><trkpt lat="45.1923604" lon="10.6798795"><ele>19.0</ele><time>2026-04-26T07:37:20.391Z</time></trkpt><trkpt lat="45.1922834" lon="10.6798777"><ele>19.166666666666664</ele><time>2026-04-26T07:37:22.391Z</time></trkpt><trkpt lat="45.1922073" lon="10.6798776"><ele>19.333333333333332</ele><time>2026-04-26T07:37:24.39Z</time></trkpt><trkpt lat="45.1921319" lon="10.6798762"><ele>19.5</ele><time>2026-04-26T07:37:26.391Z</time></trkpt><trkpt lat="45.1920581" lon="10.679875"><ele>19.666666666666668</ele><time>2026-04-26T07:37:28.39Z</time></trkpt><trkpt lat="45.1919836" lon="10.6798733"><ele>19.833333333333336</ele><time>2026-04-26T07:37:30.391Z</time></trkpt><trkpt lat="45.1919069" lon="10.6798718"><ele>20.0</ele><time>2026-04-26T07:37:32.39Z</time></trkpt><trkpt lat="45.1918292" lon="10.6798662"><ele>20.0</ele><time>2026-04-26T07:37:34.39Z</time></trkpt><trkpt lat="45.1917518" lon="10.6798561"><ele>20.0</ele><time>2026-04-26T07:37:36.391Z</time></trkpt><trkpt lat="45.191673" lon="10.6798379"><ele>20.0</ele><time>2026-04-26T07:37:38.391Z</time></trkpt><trkpt lat="45.1915962" lon="10.6798078"><ele>20.0</ele><time>2026-04-26T07:37:40.39Z</time></trkpt><trkpt lat="45.1915208" lon="10.6797704"><ele>20.0</ele><time>2026-04-26T07:37:42.39Z</time></trkpt><trkpt lat="45.1914472" lon="10.6797256"><ele>20.0</ele><time>2026-04-26T07:37:44.39Z</time></trkpt><trkpt lat="45.1913821" lon="10.6796701"><ele>20.0</ele><time>2026-04-26T07:37:46.391Z</time></trkpt><trkpt lat="45.1913219" lon="10.6796054"><ele>20.0</ele><time>2026-04-26T07:37:48.391Z</time></trkpt><trkpt lat="45.1912645" lon="10.6795364"><ele>20.0</ele><time>2026-04-26T07:37:50.39Z</time></trkpt><trkpt lat="45.1912123" lon="10.6794634"><ele>20.0</ele><time>2026-04-26T07:37:52.39Z</time></trkpt><trkpt lat="45.1911623" lon="10.679388"><ele>20.0</ele><time>2026-04-26T07:37:54.391Z</time></trkpt><trkpt lat="45.1911115" lon="10.6793146"><ele>20.0</ele><time>2026-04-26T07:37:56.391Z</time></trkpt><trkpt lat="45.1910653" lon="10.6792374"><ele>20.0</ele><time>2026-04-26T07:37:58.39Z</time></trkpt><trkpt lat="45.1910184" lon="10.6791604"><ele>20.0</ele><time>2026-04-26T07:38:00.391Z</time></trkpt><trkpt lat="45.1909758" lon="10.679085"><ele>20.0</ele><time>2026-04-26T07:38:02.391Z</time></trkpt><trkpt lat="45.1909343" lon="10.6790134"><ele>20.0</ele><time>2026-04-26T07:38:04.391Z</time></trkpt><trkpt lat="45.1908917" lon="10.6789408"><ele>20.0</ele><time>2026-04-26T07:38:06.391Z</time></trkpt><trkpt lat="45.190852" lon="10.6788641"><ele>20.0</ele><time>2026-04-26T07:38:08.391Z</time></trkpt><trkpt lat="45.1908098" lon="10.6787864"><ele>20.0</ele><time>2026-04-26T07:38:10.39Z</time></trkpt><trkpt lat="45.1907648" lon="10.6787102"><ele>20.0</ele><time>2026-04-26T07:38:12.391Z</time></trkpt><trkpt lat="45.1907216" lon="10.6786317"><ele>20.0</ele><time>2026-04-26T07:38:14.391Z</time></trkpt><trkpt lat="45.1906798" lon="10.6785499"><ele>20.0</ele><time>2026-04-26T07:38:16.39Z</time></trkpt><trkpt lat="45.190639" lon="10.6784691"><ele>20.0</ele><time>2026-04-26T07:38:18.391Z</time></trkpt><trkpt lat="45.1905957" lon="10.6783937"><ele>20.0</ele><time>2026-04-26T07:38:20.391Z</time></trkpt><trkpt lat="45.1905565" lon="10.6783147"><ele>20.0</ele><time>2026-04-26T07:38:22.39Z</time></trkpt><trkpt lat="45.1905242" lon="10.678232"><ele>20.0</ele><time>2026-04-26T07:38:24.391Z</time></trkpt><trkpt lat="45.1904908" lon="10.6781495"><ele>20.0</ele><time>2026-04-26T07:38:26.391Z</time></trkpt><trkpt lat="45.1904593" lon="10.6780627"><ele>20.166666666666668</ele><time>2026-04-26T07:38:28.391Z</time></trkpt><trkpt lat="45.1904298" lon="10.6779797"><ele>20.333333333333336</ele><time>2026-04-26T07:38:30.39Z</time></trkpt><trkpt lat="45.1903936" lon="10.6778577"><ele>20.5</ele><time>2026-04-26T07:38:33.391Z</time></trkpt><trkpt lat="45.1903473" lon="10.6777439"><ele>20.666666666666668</ele><time>2026-04-26T07:38:36.391Z</time></trkpt><trkpt lat="45.1903026" lon="10.6776267"><ele>20.833333333333332</ele><time>2026-04-26T07:38:39.39Z</time></trkpt><trkpt lat="45.1902785" lon="10.6775418"><ele>21.0</ele><time>2026-04-26T07:38:41.391Z</time></trkpt><trkpt lat="45.1902472" lon="10.6774616"><ele>21.0</ele><time>2026-04-26T07:38:43.391Z</time></trkpt><trkpt lat="45.19021" lon="10.6773822"><ele>21.0</ele><time>2026-04-26T07:38:45.391Z</time></trkpt><trkpt lat="45.1901749" lon="10.6772977"><ele>21.0</ele><time>2026-04-26T07:38:47.391Z</time></trkpt><trkpt lat="45.1901389" lon="10.6772107"><ele>21.0</ele><time>2026-04-26T07:38:49.391Z</time></trkpt><trkpt lat="45.1900988" lon="10.6771273"><ele>21.0</ele><time>2026-04-26T07:38:51.39Z</time></trkpt><trkpt lat="45.1900547" lon="10.6770455"><ele>21.0</ele><time>2026-04-26T07:38:53.39Z</time></trkpt><trkpt lat="45.1900116" lon="10.6769638"><ele>21.0</ele><time>2026-04-26T07:38:55.389Z</time></trkpt><trkpt lat="45.1899715" lon="10.6768838"><ele>21.0</ele><time>2026-04-26T07:38:57.39Z</time></trkpt><trkpt lat="45.1899309" lon="10.6768085"><ele>21.0</ele><time>2026-04-26T07:38:59.39Z</time></trkpt><trkpt lat="45.1898838" lon="10.6767365"><ele>21.0</ele><time>2026-04-26T07:39:01.39Z</time></trkpt><trkpt lat="45.1898334" lon="10.6766688"><ele>21.0</ele><time>2026-04-26T07:39:03.39Z</time></trkpt><trkpt lat="45.1897823" lon="10.6766034"><ele>21.0</ele><time>2026-04-26T07:39:05.389Z</time></trkpt><trkpt lat="45.189729" lon="10.6765402"><ele>21.0</ele><time>2026-04-26T07:39:07.39Z</time></trkpt><trkpt lat="45.189673" lon="10.6764842"><ele>21.0</ele><time>2026-04-26T07:39:09.389Z</time></trkpt><trkpt lat="45.1896149" lon="10.67643"><ele>21.0</ele><time>2026-04-26T07:39:11.389Z</time></trkpt><trkpt lat="45.1895532" lon="10.6763789"><ele>21.0</ele><time>2026-04-26T07:39:13.39Z</time></trkpt><trkpt lat="45.1894886" lon="10.6763342"><ele>21.0</ele><time>2026-04-26T07:39:15.389Z</time></trkpt><trkpt lat="45.1894228" lon="10.6762936"><ele>21.0</ele><time>2026-04-26T07:39:17.39Z</time></trkpt><trkpt lat="45.1893592" lon="10.6762533"><ele>21.0</ele><time>2026-04-26T07:39:19.389Z</time></trkpt><trkpt lat="45.1892949" lon="10.6762151"><ele>21.0</ele><time>2026-04-26T07:39:21.39Z</time></trkpt><trkpt lat="45.1892304" lon="10.676172"><ele>21.0</ele><time>2026-04-26T07:39:23.39Z</time></trkpt><trkpt lat="45.1891681" lon="10.676132"><ele>21.714285714285715</ele><time>2026-04-26T07:39:25.389Z</time></trkpt><trkpt lat="45.1891035" lon="10.6760939"><ele>22.42857142857143</ele><time>2026-04-26T07:39:27.39Z</time></trkpt><trkpt lat="45.1890425" lon="10.6760491"><ele>23.142857142857142</ele><time>2026-04-26T07:39:29.389Z</time></trkpt><trkpt lat="45.1889826" lon="10.6760115"><ele>23.857142857142858</ele><time>2026-04-26T07:39:31.389Z</time></trkpt><trkpt lat="45.1889205" lon="10.6759714"><ele>24.571428571428573</ele><time>2026-04-26T07:39:33.39Z</time></trkpt><trkpt lat="45.1888642" lon="10.6759297"><ele>25.285714285714285</ele><time>2026-04-26T07:39:35.389Z</time></trkpt><trkpt lat="45.1887829" lon="10.675874"><ele>26.0</ele><time>2026-04-26T07:39:38.39Z</time></trkpt><trkpt lat="45.1886953" lon="10.6758172"><ele>26.0</ele><time>2026-04-26T07:39:41.389Z</time></trkpt><trkpt lat="45.1886317" lon="10.6757797"><ele>26.0</ele><time>2026-04-26T07:39:43.388Z</time></trkpt><trkpt lat="45.188568" lon="10.6757397"><ele>26.0</ele><time>2026-04-26T07:39:45.39Z</time></trkpt><trkpt lat="45.1885035" lon="10.675705"><ele>26.0</ele><time>2026-04-26T07:39:47.389Z</time></trkpt><trkpt lat="45.1884401" lon="10.6756642"><ele>26.0</ele><time>2026-04-26T07:39:49.389Z</time></trkpt><trkpt lat="45.1883762" lon="10.6756208"><ele>26.0</ele><time>2026-04-26T07:39:51.389Z</time></trkpt><trkpt lat="45.1883121" lon="10.6755818"><ele>26.0</ele><time>2026-04-26T07:39:53.39Z</time></trkpt><trkpt lat="45.188249" lon="10.6755409"><ele>26.0</ele><time>2026-04-26T07:39:55.389Z</time></trkpt><trkpt lat="45.1881856" lon="10.6755028"><ele>26.0</ele><time>2026-04-26T07:39:57.389Z</time></trkpt><trkpt lat="45.1881185" lon="10.6754617"><ele>26.0</ele><time>2026-04-26T07:39:59.389Z</time></trkpt><trkpt lat="45.1880496" lon="10.6754193"><ele>26.0</ele><time>2026-04-26T07:40:01.389Z</time></trkpt><trkpt lat="45.1879852" lon="10.6753738"><ele>26.0</ele><time>2026-04-26T07:40:03.39Z</time></trkpt><trkpt lat="45.187945" lon="10.6752893"><ele>26.0</ele><time>2026-04-26T07:40:06.39Z</time></trkpt><trkpt lat="45.1879229" lon="10.6751985"><ele>26.0</ele><time>2026-04-26T07:40:19.39Z</time></trkpt><trkpt lat="45.18785" lon="10.6751963"><ele>25.999999999999996</ele><time>2026-04-26T07:40:22.39Z</time></trkpt><trkpt lat="45.1877694" lon="10.6751997"><ele>26.0</ele><time>2026-04-26T07:40:25.389Z</time></trkpt><trkpt lat="45.1876911" lon="10.6752143"><ele>26.0</ele><time>2026-04-26T07:40:28.39Z</time></trkpt><trkpt lat="45.1876011" lon="10.6752321"><ele>26.0</ele><time>2026-04-26T07:40:31.389Z</time></trkpt><trkpt lat="45.1875359" lon="10.675246"><ele>25.999999999999996</ele><time>2026-04-26T07:40:33.39Z</time></trkpt><trkpt lat="45.1874659" lon="10.6752621"><ele>26.0</ele><time>2026-04-26T07:40:35.39Z</time></trkpt><trkpt lat="45.1873924" lon="10.6752818"><ele>25.999999999999996</ele><time>2026-04-26T07:40:37.389Z</time></trkpt><trkpt lat="45.187318" lon="10.6753075"><ele>26.0</ele><time>2026-04-26T07:40:39.39Z</time></trkpt><trkpt lat="45.1872408" lon="10.6753369"><ele>26.0</ele><time>2026-04-26T07:40:41.39Z</time></trkpt><trkpt lat="45.1871602" lon="10.6753706"><ele>26.0</ele><time>2026-04-26T07:40:43.39Z</time></trkpt><trkpt lat="45.1870788" lon="10.6754075"><ele>25.999999999999996</ele><time>2026-04-26T07:40:45.39Z</time></trkpt><trkpt lat="45.1869968" lon="10.675448"><ele>26.0</ele><time>2026-04-26T07:40:47.39Z</time></trkpt><trkpt lat="45.1869153" lon="10.6754915"><ele>25.999999999999996</ele><time>2026-04-26T07:40:49.39Z</time></trkpt><trkpt lat="45.1868342" lon="10.675538"><ele>26.0</ele><time>2026-04-26T07:40:51.389Z</time></trkpt><trkpt lat="45.1867567" lon="10.6755839"><ele>26.0</ele><time>2026-04-26T07:40:53.39Z</time></trkpt><trkpt lat="45.1866809" lon="10.6756301"><ele>26.0</ele><time>2026-04-26T07:40:55.39Z</time></trkpt><trkpt lat="45.1866035" lon="10.6756741"><ele>25.999999999999996</ele><time>2026-04-26T07:40:57.389Z</time></trkpt><trkpt lat="45.1865248" lon="10.6757218"><ele>26.0</ele><time>2026-04-26T07:40:59.389Z</time></trkpt><trkpt lat="45.186446" lon="10.6757744"><ele>26.333333333333332</ele><time>2026-04-26T07:41:01.39Z</time></trkpt><trkpt lat="45.1863666" lon="10.6758281"><ele>26.666666666666664</ele><time>2026-04-26T07:41:03.389Z</time></trkpt><trkpt lat="45.1862873" lon="10.6758822"><ele>27.0</ele><time>2026-04-26T07:41:05.39Z</time></trkpt><trkpt lat="45.1862083" lon="10.6759368"><ele>27.333333333333336</ele><time>2026-04-26T07:41:07.39Z</time></trkpt><trkpt lat="45.186127" lon="10.6759849"><ele>27.666666666666668</ele><time>2026-04-26T07:41:09.389Z</time></trkpt><trkpt lat="45.1860393" lon="10.6760202"><ele>28.0</ele><time>2026-04-26T07:41:11.389Z</time></trkpt><trkpt lat="45.1859486" lon="10.6760494"><ele>28.0</ele><time>2026-04-26T07:41:13.39Z</time></trkpt><trkpt lat="45.1858548" lon="10.6760691"><ele>27.999999999999996</ele><time>2026-04-26T07:41:15.39Z</time></trkpt><trkpt lat="45.1857598" lon="10.6760743"><ele>27.999999999999996</ele><time>2026-04-26T07:41:17.389Z</time></trkpt><trkpt lat="45.1856641" lon="10.6760782"><ele>28.0</ele><time>2026-04-26T07:41:19.39Z</time></trkpt><trkpt lat="45.1855704" lon="10.6760677"><ele>28.0</ele><time>2026-04-26T07:41:21.39Z</time></trkpt><trkpt lat="45.1854808" lon="10.6760646"><ele>27.857142857142858</ele><time>2026-04-26T07:41:23.39Z</time></trkpt><trkpt lat="45.1853964" lon="10.6760391"><ele>27.714285714285715</ele><time>2026-04-26T07:41:25.388Z</time></trkpt><trkpt lat="45.1853195" lon="10.6760056"><ele>27.57142857142857</ele><time>2026-04-26T07:41:27.389Z</time></trkpt><trkpt lat="45.1852465" lon="10.6759972"><ele>27.42857142857143</ele><time>2026-04-26T07:41:29.39Z</time></trkpt><trkpt lat="45.1851787" lon="10.6759892"><ele>27.285714285714285</ele><time>2026-04-26T07:41:31.389Z</time></trkpt><trkpt lat="45.1851139" lon="10.6759828"><ele>27.142857142857142</ele><time>2026-04-26T07:41:33.39Z</time></trkpt><trkpt lat="45.1850485" lon="10.6759969"><ele>27.0</ele><time>2026-04-26T07:41:35.39Z</time></trkpt><trkpt lat="45.1849739" lon="10.6760052"><ele>27.0</ele><time>2026-04-26T07:41:37.39Z</time></trkpt><trkpt lat="45.1848964" lon="10.6760099"><ele>27.0</ele><time>2026-04-26T07:41:39.389Z</time></trkpt><trkpt lat="45.184817" lon="10.6760213"><ele>27.0</ele><time>2026-04-26T07:41:41.389Z</time></trkpt><trkpt lat="45.1847359" lon="10.6760371"><ele>27.0</ele><time>2026-04-26T07:41:43.389Z</time></trkpt><trkpt lat="45.1846574" lon="10.6760538"><ele>27.0</ele><time>2026-04-26T07:41:45.39Z</time></trkpt><trkpt lat="45.1845761" lon="10.6760733"><ele>27.0</ele><time>2026-04-26T07:41:47.39Z</time></trkpt><trkpt lat="45.1844981" lon="10.6760942"><ele>26.666666666666668</ele><time>2026-04-26T07:41:49.389Z</time></trkpt><trkpt lat="45.1844197" lon="10.6761139"><ele>26.333333333333336</ele><time>2026-04-26T07:41:51.389Z</time></trkpt><trkpt lat="45.1843398" lon="10.676129"><ele>26.0</ele><time>2026-04-26T07:41:53.39Z</time></trkpt><trkpt lat="45.1842585" lon="10.6761481"><ele>25.666666666666668</ele><time>2026-04-26T07:41:55.389Z</time></trkpt><trkpt lat="45.1841755" lon="10.6761689"><ele>25.333333333333336</ele><time>2026-04-26T07:41:57.388Z</time></trkpt><trkpt lat="45.1840947" lon="10.6761933"><ele>25.0</ele><time>2026-04-26T07:41:59.389Z</time></trkpt><trkpt lat="45.1840162" lon="10.6762134"><ele>25.000000000000004</ele><time>2026-04-26T07:42:01.388Z</time></trkpt><trkpt lat="45.1839397" lon="10.676231"><ele>25.0</ele><time>2026-04-26T07:42:03.389Z</time></trkpt><trkpt lat="45.1838629" lon="10.6762446"><ele>25.0</ele><time>2026-04-26T07:42:05.388Z</time></trkpt><trkpt lat="45.1837861" lon="10.6762615"><ele>25.0</ele><time>2026-04-26T07:42:07.388Z</time></trkpt><trkpt lat="45.1837062" lon="10.6762777"><ele>25.000000000000004</ele><time>2026-04-26T07:42:09.389Z</time></trkpt><trkpt lat="45.1836249" lon="10.6762995"><ele>25.0</ele><time>2026-04-26T07:42:11.388Z</time></trkpt><trkpt lat="45.1835408" lon="10.6763174"><ele>25.000000000000004</ele><time>2026-04-26T07:42:13.388Z</time></trkpt><trkpt lat="45.1834588" lon="10.6763376"><ele>25.0</ele><time>2026-04-26T07:42:15.389Z</time></trkpt><trkpt lat="45.1833748" lon="10.6763569"><ele>25.0</ele><time>2026-04-26T07:42:17.389Z</time></trkpt><trkpt lat="45.1832905" lon="10.6763755"><ele>25.0</ele><time>2026-04-26T07:42:19.389Z</time></trkpt><trkpt lat="45.1832069" lon="10.6763997"><ele>25.000000000000004</ele><time>2026-04-26T07:42:21.389Z</time></trkpt><trkpt lat="45.1831244" lon="10.6764297"><ele>25.0</ele><time>2026-04-26T07:42:23.388Z</time></trkpt><trkpt lat="45.1830403" lon="10.6764631"><ele>25.000000000000004</ele><time>2026-04-26T07:42:25.389Z</time></trkpt><trkpt lat="45.1829557" lon="10.6764979"><ele>25.0</ele><time>2026-04-26T07:42:27.388Z</time></trkpt><trkpt lat="45.1828734" lon="10.6765365"><ele>25.0</ele><time>2026-04-26T07:42:29.389Z</time></trkpt><trkpt lat="45.1827937" lon="10.6765724"><ele>25.0</ele><time>2026-04-26T07:42:31.389Z</time></trkpt><trkpt lat="45.1827183" lon="10.6766037"><ele>25.000000000000004</ele><time>2026-04-26T07:42:33.389Z</time></trkpt><trkpt lat="45.1826419" lon="10.6766392"><ele>25.0</ele><time>2026-04-26T07:42:35.389Z</time></trkpt><trkpt lat="45.1825621" lon="10.6766663"><ele>25.000000000000004</ele><time>2026-04-26T07:42:37.389Z</time></trkpt><trkpt lat="45.1824828" lon="10.6766954"><ele>25.0</ele><time>2026-04-26T07:42:39.389Z</time></trkpt><trkpt lat="45.1824081" lon="10.6767197"><ele>25.0</ele><time>2026-04-26T07:42:41.388Z</time></trkpt><trkpt lat="45.1823351" lon="10.6767418"><ele>25.0</ele><time>2026-04-26T07:42:43.389Z</time></trkpt><trkpt lat="45.1822662" lon="10.6767652"><ele>25.0</ele><time>2026-04-26T07:42:45.388Z</time></trkpt><trkpt lat="45.1821988" lon="10.6767837"><ele>25.000000000000004</ele><time>2026-04-26T07:42:47.389Z</time></trkpt><trkpt lat="45.1821334" lon="10.6767928"><ele>25.0</ele><time>2026-04-26T07:42:49.389Z</time></trkpt><trkpt lat="45.1820665" lon="10.6767993"><ele>24.857142857142858</ele><time>2026-04-26T07:42:51.389Z</time></trkpt><trkpt lat="45.1819988" lon="10.6768177"><ele>24.714285714285715</ele><time>2026-04-26T07:42:53.387Z</time></trkpt><trkpt lat="45.1819305" lon="10.6768361"><ele>24.57142857142857</ele><time>2026-04-26T07:42:55.389Z</time></trkpt><trkpt lat="45.1818604" lon="10.6768397"><ele>24.42857142857143</ele><time>2026-04-26T07:42:57.389Z</time></trkpt><trkpt lat="45.1817927" lon="10.6768501"><ele>24.285714285714285</ele><time>2026-04-26T07:42:59.389Z</time></trkpt><trkpt lat="45.1817251" lon="10.6768598"><ele>24.142857142857142</ele><time>2026-04-26T07:43:01.389Z</time></trkpt><trkpt lat="45.1816591" lon="10.6768701"><ele>24.0</ele><time>2026-04-26T07:43:03.388Z</time></trkpt><trkpt lat="45.1815932" lon="10.6768821"><ele>24.0</ele><time>2026-04-26T07:43:05.389Z</time></trkpt><trkpt lat="45.1815211" lon="10.6768915"><ele>24.0</ele><time>2026-04-26T07:43:07.387Z</time></trkpt><trkpt lat="45.1814457" lon="10.6769051"><ele>24.0</ele><time>2026-04-26T07:43:09.389Z</time></trkpt><trkpt lat="45.1813693" lon="10.6769198"><ele>24.0</ele><time>2026-04-26T07:43:11.389Z</time></trkpt><trkpt lat="45.181294" lon="10.6769345"><ele>24.0</ele><time>2026-04-26T07:43:13.389Z</time></trkpt><trkpt lat="45.1812194" lon="10.676947"><ele>24.0</ele><time>2026-04-26T07:43:15.388Z</time></trkpt><trkpt lat="45.1811448" lon="10.6769576"><ele>24.142857142857142</ele><time>2026-04-26T07:43:17.389Z</time></trkpt><trkpt lat="45.1810717" lon="10.6769661"><ele>24.285714285714285</ele><time>2026-04-26T07:43:19.389Z</time></trkpt><trkpt lat="45.1809992" lon="10.6769755"><ele>24.42857142857143</ele><time>2026-04-26T07:43:21.388Z</time></trkpt><trkpt lat="45.1809284" lon="10.6769868"><ele>24.57142857142857</ele><time>2026-04-26T07:43:23.388Z</time></trkpt><trkpt lat="45.1808604" lon="10.6769983"><ele>24.714285714285715</ele><time>2026-04-26T07:43:25.389Z</time></trkpt><trkpt lat="45.1807911" lon="10.6770152"><ele>24.857142857142858</ele><time>2026-04-26T07:43:27.389Z</time></trkpt><trkpt lat="45.1807186" lon="10.677028"><ele>25.0</ele><time>2026-04-26T07:43:29.389Z</time></trkpt><trkpt lat="45.1806429" lon="10.6770378"><ele>25.28571428571429</ele><time>2026-04-26T07:43:31.389Z</time></trkpt><trkpt lat="45.1805684" lon="10.6770532"><ele>25.571428571428573</ele><time>2026-04-26T07:43:33.388Z</time></trkpt><trkpt lat="45.1804951" lon="10.6770662"><ele>25.857142857142858</ele><time>2026-04-26T07:43:35.389Z</time></trkpt><trkpt lat="45.1804212" lon="10.6770804"><ele>26.142857142857146</ele><time>2026-04-26T07:43:37.389Z</time></trkpt><trkpt lat="45.1803479" lon="10.6770912"><ele>26.428571428571427</ele><time>2026-04-26T07:43:39.388Z</time></trkpt><trkpt lat="45.1802762" lon="10.6771006"><ele>26.714285714285715</ele><time>2026-04-26T07:43:41.389Z</time></trkpt><trkpt lat="45.1802058" lon="10.6771152"><ele>27.0</ele><time>2026-04-26T07:43:43.389Z</time></trkpt><trkpt lat="45.1801376" lon="10.6771178"><ele>27.0</ele><time>2026-04-26T07:43:45.389Z</time></trkpt><trkpt lat="45.1800694" lon="10.6771115"><ele>27.0</ele><time>2026-04-26T07:43:47.388Z</time></trkpt><trkpt lat="45.1800009" lon="10.6771129"><ele>27.0</ele><time>2026-04-26T07:43:49.388Z</time></trkpt><trkpt lat="45.1799329" lon="10.677114"><ele>27.0</ele><time>2026-04-26T07:43:51.389Z</time></trkpt><trkpt lat="45.1798659" lon="10.677115"><ele>27.0</ele><time>2026-04-26T07:43:53.389Z</time></trkpt><trkpt lat="45.1797981" lon="10.6771161"><ele>27.0</ele><time>2026-04-26T07:43:55.389Z</time></trkpt><trkpt lat="45.1797303" lon="10.6771173"><ele>27.0</ele><time>2026-04-26T07:43:57.389Z</time></trkpt><trkpt lat="45.1796644" lon="10.6771182"><ele>27.0</ele><time>2026-04-26T07:43:59.389Z</time></trkpt><trkpt lat="45.1796" lon="10.6771092"><ele>27.0</ele><time>2026-04-26T07:44:01.388Z</time></trkpt><trkpt lat="45.179536" lon="10.6771031"><ele>27.0</ele><time>2026-04-26T07:44:03.389Z</time></trkpt><trkpt lat="45.1794687" lon="10.6771063"><ele>27.0</ele><time>2026-04-26T07:44:05.388Z</time></trkpt><trkpt lat="45.1793996" lon="10.6771149"><ele>27.0</ele><time>2026-04-26T07:44:07.388Z</time></trkpt><trkpt lat="45.1793281" lon="10.6771273"><ele>27.0</ele><time>2026-04-26T07:44:09.388Z</time></trkpt><trkpt lat="45.1792582" lon="10.6771393"><ele>27.0</ele><time>2026-04-26T07:44:11.389Z</time></trkpt><trkpt lat="45.1791891" lon="10.6771378"><ele>27.0</ele><time>2026-04-26T07:44:13.389Z</time></trkpt><trkpt lat="45.1791182" lon="10.6771268"><ele>27.0</ele><time>2026-04-26T07:44:15.387Z</time></trkpt><trkpt lat="45.179046" lon="10.6771206"><ele>27.0</ele><time>2026-04-26T07:44:17.389Z</time></trkpt><trkpt lat="45.1789735" lon="10.6771205"><ele>27.0</ele><time>2026-04-26T07:44:19.389Z</time></trkpt><trkpt lat="45.1788997" lon="10.6771164"><ele>27.0</ele><time>2026-04-26T07:44:21.388Z</time></trkpt><trkpt lat="45.1788245" lon="10.6771126"><ele>27.0</ele><time>2026-04-26T07:44:23.389Z</time></trkpt><trkpt lat="45.178749" lon="10.6771056"><ele>27.0</ele><time>2026-04-26T07:44:25.388Z</time></trkpt><trkpt lat="45.1786725" lon="10.6770981"><ele>27.0</ele><time>2026-04-26T07:44:27.389Z</time></trkpt><trkpt lat="45.1785959" lon="10.6770899"><ele>27.0</ele><time>2026-04-26T07:44:29.389Z</time></trkpt><trkpt lat="45.1785201" lon="10.6770817"><ele>27.0</ele><time>2026-04-26T07:44:31.389Z</time></trkpt><trkpt lat="45.1784439" lon="10.6770713"><ele>27.0</ele><time>2026-04-26T07:44:33.389Z</time></trkpt><trkpt lat="45.1783686" lon="10.6770501"><ele>27.0</ele><time>2026-04-26T07:44:35.387Z</time></trkpt><trkpt lat="45.1782947" lon="10.6770268"><ele>27.0</ele><time>2026-04-26T07:44:37.388Z</time></trkpt><trkpt lat="45.1782208" lon="10.6770066"><ele>27.142857142857142</ele><time>2026-04-26T07:44:39.389Z</time></trkpt><trkpt lat="45.1781467" lon="10.6769889"><ele>27.285714285714285</ele><time>2026-04-26T07:44:41.389Z</time></trkpt><trkpt lat="45.1780784" lon="10.6769694"><ele>27.42857142857143</ele><time>2026-04-26T07:44:43.388Z</time></trkpt><trkpt lat="45.1780136" lon="10.6769424"><ele>27.57142857142857</ele><time>2026-04-26T07:44:45.389Z</time></trkpt><trkpt lat="45.1779464" lon="10.6769167"><ele>27.714285714285715</ele><time>2026-04-26T07:44:47.389Z</time></trkpt><trkpt lat="45.1778753" lon="10.6768936"><ele>27.857142857142858</ele><time>2026-04-26T07:44:49.389Z</time></trkpt><trkpt lat="45.1778081" lon="10.6768692"><ele>28.0</ele><time>2026-04-26T07:44:51.388Z</time></trkpt><trkpt lat="45.1777394" lon="10.6768395"><ele>27.857142857142858</ele><time>2026-04-26T07:44:53.389Z</time></trkpt><trkpt lat="45.1776674" lon="10.676804"><ele>27.714285714285715</ele><time>2026-04-26T07:44:55.388Z</time></trkpt><trkpt lat="45.177593" lon="10.6767706"><ele>27.57142857142857</ele><time>2026-04-26T07:44:57.387Z</time></trkpt><trkpt lat="45.1775213" lon="10.6767453"><ele>27.42857142857143</ele><time>2026-04-26T07:44:59.387Z</time></trkpt><trkpt lat="45.177453" lon="10.6767154"><ele>27.285714285714285</ele><time>2026-04-26T07:45:01.388Z</time></trkpt><trkpt lat="45.1773831" lon="10.6766709"><ele>27.142857142857142</ele><time>2026-04-26T07:45:03.388Z</time></trkpt><trkpt lat="45.1773158" lon="10.6766316"><ele>27.0</ele><time>2026-04-26T07:45:05.388Z</time></trkpt><trkpt lat="45.1772448" lon="10.6765957"><ele>27.0</ele><time>2026-04-26T07:45:07.388Z</time></trkpt><trkpt lat="45.1771702" lon="10.6765586"><ele>27.0</ele><time>2026-04-26T07:45:09.388Z</time></trkpt><trkpt lat="45.1770956" lon="10.676523"><ele>27.0</ele><time>2026-04-26T07:45:11.387Z</time></trkpt><trkpt lat="45.1770211" lon="10.676489"><ele>27.0</ele><time>2026-04-26T07:45:13.387Z</time></trkpt><trkpt lat="45.1769462" lon="10.676456"><ele>27.0</ele><time>2026-04-26T07:45:15.388Z</time></trkpt><trkpt lat="45.1768725" lon="10.6764261"><ele>27.0</ele><time>2026-04-26T07:45:17.387Z</time></trkpt><trkpt lat="45.1767985" lon="10.6763939"><ele>27.0</ele><time>2026-04-26T07:45:19.388Z</time></trkpt><trkpt lat="45.1767235" lon="10.6763635"><ele>27.0</ele><time>2026-04-26T07:45:21.388Z</time></trkpt><trkpt lat="45.1766485" lon="10.6763367"><ele>27.0</ele><time>2026-04-26T07:45:23.387Z</time></trkpt><trkpt lat="45.1765726" lon="10.6763115"><ele>27.0</ele><time>2026-04-26T07:45:25.388Z</time></trkpt><trkpt lat="45.1764958" lon="10.6762855"><ele>27.0</ele><time>2026-04-26T07:45:27.388Z</time></trkpt><trkpt lat="45.1764182" lon="10.6762601"><ele>27.0</ele><time>2026-04-26T07:45:29.388Z</time></trkpt><trkpt lat="45.1763401" lon="10.676235"><ele>27.0</ele><time>2026-04-26T07:45:31.388Z</time></trkpt><trkpt lat="45.176261" lon="10.6762104"><ele>27.0</ele><time>2026-04-26T07:45:33.386Z</time></trkpt><trkpt lat="45.1761821" lon="10.6761857"><ele>27.0</ele><time>2026-04-26T07:45:35.387Z</time></trkpt><trkpt lat="45.1761038" lon="10.6761603"><ele>27.0</ele><time>2026-04-26T07:45:37.388Z</time></trkpt><trkpt lat="45.1760233" lon="10.6761329"><ele>27.0</ele><time>2026-04-26T07:45:39.387Z</time></trkpt><trkpt lat="45.1759413" lon="10.6761043"><ele>27.0</ele><time>2026-04-26T07:45:41.387Z</time></trkpt><trkpt lat="45.1758577" lon="10.6760772"><ele>27.0</ele><time>2026-04-26T07:45:43.388Z</time></trkpt><trkpt lat="45.1757746" lon="10.6760505"><ele>27.0</ele><time>2026-04-26T07:45:45.388Z</time></trkpt><trkpt lat="45.1756957" lon="10.6760235"><ele>27.0</ele><time>2026-04-26T07:45:47.388Z</time></trkpt><trkpt lat="45.1756155" lon="10.6759982"><ele>27.0</ele><time>2026-04-26T07:45:49.388Z</time></trkpt><trkpt lat="45.1755333" lon="10.6759727"><ele>27.0</ele><time>2026-04-26T07:45:51.387Z</time></trkpt><trkpt lat="45.1754491" lon="10.6759429"><ele>27.0</ele><time>2026-04-26T07:45:53.387Z</time></trkpt><trkpt lat="45.1753671" lon="10.6759173"><ele>26.833333333333332</ele><time>2026-04-26T07:45:55.387Z</time></trkpt><trkpt lat="45.1752882" lon="10.6758896"><ele>26.666666666666664</ele><time>2026-04-26T07:45:57.387Z</time></trkpt><trkpt lat="45.1752091" lon="10.6758586"><ele>26.5</ele><time>2026-04-26T07:45:59.388Z</time></trkpt><trkpt lat="45.1751296" lon="10.6758269"><ele>26.333333333333332</ele><time>2026-04-26T07:46:01.388Z</time></trkpt><trkpt lat="45.1750512" lon="10.675803"><ele>26.166666666666664</ele><time>2026-04-26T07:46:03.387Z</time></trkpt><trkpt lat="45.174972" lon="10.6757775"><ele>26.0</ele><time>2026-04-26T07:46:05.388Z</time></trkpt><trkpt lat="45.1748958" lon="10.6757501"><ele>25.833333333333332</ele><time>2026-04-26T07:46:07.387Z</time></trkpt><trkpt lat="45.1748231" lon="10.6757275"><ele>25.666666666666664</ele><time>2026-04-26T07:46:09.388Z</time></trkpt><trkpt lat="45.1747448" lon="10.6757028"><ele>25.5</ele><time>2026-04-26T07:46:11.387Z</time></trkpt><trkpt lat="45.1746643" lon="10.6756796"><ele>25.333333333333336</ele><time>2026-04-26T07:46:13.388Z</time></trkpt><trkpt lat="45.1745846" lon="10.6756598"><ele>25.166666666666668</ele><time>2026-04-26T07:46:15.388Z</time></trkpt><trkpt lat="45.1745056" lon="10.675645"><ele>25.0</ele><time>2026-04-26T07:46:17.388Z</time></trkpt><trkpt lat="45.1744265" lon="10.6756256"><ele>25.000000000000004</ele><time>2026-04-26T07:46:19.387Z</time></trkpt><trkpt lat="45.1743494" lon="10.6756132"><ele>25.0</ele><time>2026-04-26T07:46:21.388Z</time></trkpt><trkpt lat="45.1742712" lon="10.6756039"><ele>25.0</ele><time>2026-04-26T07:46:23.388Z</time></trkpt><trkpt lat="45.17419" lon="10.6755996"><ele>25.0</ele><time>2026-04-26T07:46:25.388Z</time></trkpt><trkpt lat="45.1741073" lon="10.6756021"><ele>25.000000000000004</ele><time>2026-04-26T07:46:27.388Z</time></trkpt><trkpt lat="45.1740268" lon="10.6756055"><ele>25.0</ele><time>2026-04-26T07:46:29.387Z</time></trkpt><trkpt lat="45.1739475" lon="10.6756131"><ele>25.000000000000004</ele><time>2026-04-26T07:46:31.388Z</time></trkpt><trkpt lat="45.1738677" lon="10.6756236"><ele>25.0</ele><time>2026-04-26T07:46:33.388Z</time></trkpt><trkpt lat="45.1737867" lon="10.6756322"><ele>25.0</ele><time>2026-04-26T07:46:35.388Z</time></trkpt><trkpt lat="45.1737038" lon="10.6756476"><ele>25.0</ele><time>2026-04-26T07:46:37.388Z</time></trkpt><trkpt lat="45.1736213" lon="10.6756608"><ele>25.000000000000004</ele><time>2026-04-26T07:46:39.388Z</time></trkpt><trkpt lat="45.17354" lon="10.6756773"><ele>25.0</ele><time>2026-04-26T07:46:41.388Z</time></trkpt><trkpt lat="45.1734599" lon="10.6756982"><ele>25.000000000000004</ele><time>2026-04-26T07:46:43.388Z</time></trkpt><trkpt lat="45.1733774" lon="10.6757164"><ele>25.0</ele><time>2026-04-26T07:46:45.387Z</time></trkpt><trkpt lat="45.1732955" lon="10.675735"><ele>25.0</ele><time>2026-04-26T07:46:47.388Z</time></trkpt><trkpt lat="45.1732151" lon="10.6757604"><ele>25.0</ele><time>2026-04-26T07:46:49.388Z</time></trkpt><trkpt lat="45.1731378" lon="10.6757876"><ele>25.000000000000004</ele><time>2026-04-26T07:46:51.387Z</time></trkpt><trkpt lat="45.1730613" lon="10.6758152"><ele>25.0</ele><time>2026-04-26T07:46:53.388Z</time></trkpt><trkpt lat="45.1729863" lon="10.6758437"><ele>24.666666666666668</ele><time>2026-04-26T07:46:55.387Z</time></trkpt><trkpt lat="45.1729127" lon="10.6758714"><ele>24.333333333333336</ele><time>2026-04-26T07:46:57.387Z</time></trkpt><trkpt lat="45.172841" lon="10.6758961"><ele>24.0</ele><time>2026-04-26T07:46:59.387Z</time></trkpt><trkpt lat="45.1727663" lon="10.6759189"><ele>23.666666666666668</ele><time>2026-04-26T07:47:01.387Z</time></trkpt><trkpt lat="45.1726889" lon="10.6759471"><ele>23.333333333333336</ele><time>2026-04-26T07:47:03.387Z</time></trkpt><trkpt lat="45.1726104" lon="10.6759761"><ele>23.0</ele><time>2026-04-26T07:47:05.389Z</time></trkpt><trkpt lat="45.1725311" lon="10.6760084"><ele>23.0</ele><time>2026-04-26T07:47:07.388Z</time></trkpt><trkpt lat="45.172453" lon="10.6760378"><ele>23.0</ele><time>2026-04-26T07:47:09.387Z</time></trkpt><trkpt lat="45.1723754" lon="10.6760677"><ele>23.0</ele><time>2026-04-26T07:47:11.387Z</time></trkpt><trkpt lat="45.1722989" lon="10.6760992"><ele>23.0</ele><time>2026-04-26T07:47:13.387Z</time></trkpt><trkpt lat="45.1722212" lon="10.6761275"><ele>23.0</ele><time>2026-04-26T07:47:15.387Z</time></trkpt><trkpt lat="45.172144" lon="10.6761567"><ele>23.0</ele><time>2026-04-26T07:47:17.386Z</time></trkpt><trkpt lat="45.1720667" lon="10.6761866"><ele>23.333333333333336</ele><time>2026-04-26T07:47:19.388Z</time></trkpt><trkpt lat="45.17199" lon="10.676215"><ele>23.666666666666668</ele><time>2026-04-26T07:47:21.388Z</time></trkpt><trkpt lat="45.171912" lon="10.6762406"><ele>24.0</ele><time>2026-04-26T07:47:23.387Z</time></trkpt><trkpt lat="45.1718356" lon="10.6762722"><ele>24.333333333333336</ele><time>2026-04-26T07:47:25.387Z</time></trkpt><trkpt lat="45.1717588" lon="10.6763003"><ele>24.666666666666668</ele><time>2026-04-26T07:47:27.388Z</time></trkpt><trkpt lat="45.1716791" lon="10.6763291"><ele>25.0</ele><time>2026-04-26T07:47:29.388Z</time></trkpt><trkpt lat="45.1715996" lon="10.6763567"><ele>24.666666666666668</ele><time>2026-04-26T07:47:31.388Z</time></trkpt><trkpt lat="45.1715212" lon="10.6763843"><ele>24.333333333333336</ele><time>2026-04-26T07:47:33.387Z</time></trkpt><trkpt lat="45.1714427" lon="10.6764079"><ele>24.0</ele><time>2026-04-26T07:47:35.387Z</time></trkpt><trkpt lat="45.1713643" lon="10.6764327"><ele>23.666666666666668</ele><time>2026-04-26T07:47:37.388Z</time></trkpt><trkpt lat="45.1712883" lon="10.6764614"><ele>23.333333333333336</ele><time>2026-04-26T07:47:39.388Z</time></trkpt><trkpt lat="45.1712102" lon="10.6764861"><ele>23.0</ele><time>2026-04-26T07:47:41.387Z</time></trkpt><trkpt lat="45.1711258" lon="10.6765136"><ele>23.0</ele><time>2026-04-26T07:47:43.388Z</time></trkpt><trkpt lat="45.1710397" lon="10.67654"><ele>23.0</ele><time>2026-04-26T07:47:45.387Z</time></trkpt><trkpt lat="45.1709519" lon="10.6765609"><ele>23.0</ele><time>2026-04-26T07:47:47.388Z</time></trkpt><trkpt lat="45.1708764" lon="10.6765808"><ele>23.0</ele><time>2026-04-26T07:47:49.388Z</time></trkpt><trkpt lat="45.1708085" lon="10.6765949"><ele>23.0</ele><time>2026-04-26T07:47:51.388Z</time></trkpt><trkpt lat="45.1707464" lon="10.6766125"><ele>23.0</ele><time>2026-04-26T07:47:53.386Z</time></trkpt><trkpt lat="45.1706693" lon="10.6766702"><ele>22.666666666666668</ele><time>2026-04-26T07:47:56.387Z</time></trkpt><trkpt lat="45.1706112" lon="10.6767705"><ele>22.333333333333336</ele><time>2026-04-26T07:47:59.386Z</time></trkpt><trkpt lat="45.17057" lon="10.6768431"><ele>22.0</ele><time>2026-04-26T07:48:02.386Z</time></trkpt><trkpt lat="45.1704997" lon="10.6768846"><ele>21.666666666666668</ele><time>2026-04-26T07:48:07.387Z</time></trkpt><trkpt lat="45.170406" lon="10.6768657"><ele>21.333333333333332</ele><time>2026-04-26T07:48:10.387Z</time></trkpt><trkpt lat="45.1703361" lon="10.6768548"><ele>21.0</ele><time>2026-04-26T07:48:12.387Z</time></trkpt><trkpt lat="45.1702682" lon="10.6768405"><ele>21.0</ele><time>2026-04-26T07:48:14.387Z</time></trkpt><trkpt lat="45.1701989" lon="10.6768288"><ele>21.0</ele><time>2026-04-26T07:48:16.387Z</time></trkpt><trkpt lat="45.1701324" lon="10.6768215"><ele>21.0</ele><time>2026-04-26T07:48:18.387Z</time></trkpt><trkpt lat="45.1700633" lon="10.6768209"><ele>21.0</ele><time>2026-04-26T07:48:20.387Z</time></trkpt><trkpt lat="45.1699996" lon="10.6768288"><ele>21.0</ele><time>2026-04-26T07:48:22.387Z</time></trkpt><trkpt lat="45.1699359" lon="10.6768421"><ele>21.0</ele><time>2026-04-26T07:48:24.387Z</time></trkpt><trkpt lat="45.1698717" lon="10.67686"><ele>21.0</ele><time>2026-04-26T07:48:26.387Z</time></trkpt><trkpt lat="45.1698047" lon="10.6768824"><ele>21.285714285714285</ele><time>2026-04-26T07:48:28.386Z</time></trkpt><trkpt lat="45.1697326" lon="10.6768995"><ele>21.57142857142857</ele><time>2026-04-26T07:48:30.387Z</time></trkpt><trkpt lat="45.1696589" lon="10.6769195"><ele>21.857142857142858</ele><time>2026-04-26T07:48:32.386Z</time></trkpt><trkpt lat="45.1695863" lon="10.6769444"><ele>22.142857142857142</ele><time>2026-04-26T07:48:34.387Z</time></trkpt><trkpt lat="45.1695134" lon="10.676973"><ele>22.428571428571427</ele><time>2026-04-26T07:48:36.386Z</time></trkpt><trkpt lat="45.1694412" lon="10.6770044"><ele>22.714285714285715</ele><time>2026-04-26T07:48:38.386Z</time></trkpt><trkpt lat="45.1693694" lon="10.6770346"><ele>23.0</ele><time>2026-04-26T07:48:40.386Z</time></trkpt><trkpt lat="45.1692973" lon="10.6770665"><ele>23.0</ele><time>2026-04-26T07:48:42.387Z</time></trkpt><trkpt lat="45.1692267" lon="10.6770975"><ele>23.0</ele><time>2026-04-26T07:48:44.387Z</time></trkpt><trkpt lat="45.1691628" lon="10.6771276"><ele>23.0</ele><time>2026-04-26T07:48:46.386Z</time></trkpt><trkpt lat="45.1690946" lon="10.6771631"><ele>23.0</ele><time>2026-04-26T07:48:48.386Z</time></trkpt><trkpt lat="45.169023" lon="10.6771938"><ele>23.0</ele><time>2026-04-26T07:48:50.387Z</time></trkpt><trkpt lat="45.1689521" lon="10.677223"><ele>23.0</ele><time>2026-04-26T07:48:52.387Z</time></trkpt><trkpt lat="45.1688791" lon="10.6772546"><ele>23.0</ele><time>2026-04-26T07:48:54.387Z</time></trkpt><trkpt lat="45.1688062" lon="10.6772871"><ele>23.166666666666668</ele><time>2026-04-26T07:48:56.386Z</time></trkpt><trkpt lat="45.1687325" lon="10.6773191"><ele>23.333333333333336</ele><time>2026-04-26T07:48:58.386Z</time></trkpt><trkpt lat="45.1686558" lon="10.677353"><ele>23.5</ele><time>2026-04-26T07:49:00.386Z</time></trkpt><trkpt lat="45.1685786" lon="10.677388"><ele>23.666666666666668</ele><time>2026-04-26T07:49:02.387Z</time></trkpt><trkpt lat="45.1685013" lon="10.6774232"><ele>23.833333333333332</ele><time>2026-04-26T07:49:04.387Z</time></trkpt><trkpt lat="45.1684254" lon="10.6774569"><ele>24.0</ele><time>2026-04-26T07:49:06.387Z</time></trkpt><trkpt lat="45.1683486" lon="10.677493"><ele>24.0</ele><time>2026-04-26T07:49:08.387Z</time></trkpt><trkpt lat="45.1682683" lon="10.6775349"><ele>24.0</ele><time>2026-04-26T07:49:10.387Z</time></trkpt><trkpt lat="45.1681866" lon="10.6775743"><ele>24.0</ele><time>2026-04-26T07:49:12.387Z</time></trkpt><trkpt lat="45.1681021" lon="10.6776027"><ele>24.0</ele><time>2026-04-26T07:49:14.386Z</time></trkpt><trkpt lat="45.1680186" lon="10.6776355"><ele>24.0</ele><time>2026-04-26T07:49:16.387Z</time></trkpt><trkpt lat="45.1679399" lon="10.6776713"><ele>24.0</ele><time>2026-04-26T07:49:18.387Z</time></trkpt><trkpt lat="45.1678625" lon="10.6777014"><ele>23.833333333333332</ele><time>2026-04-26T07:49:20.387Z</time></trkpt><trkpt lat="45.1677832" lon="10.6777231"><ele>23.666666666666668</ele><time>2026-04-26T07:49:22.386Z</time></trkpt><trkpt lat="45.1677016" lon="10.6777446"><ele>23.5</ele><time>2026-04-26T07:49:24.386Z</time></trkpt><trkpt lat="45.1676161" lon="10.6777631"><ele>23.333333333333336</ele><time>2026-04-26T07:49:26.387Z</time></trkpt><trkpt lat="45.1675292" lon="10.6777785"><ele>23.166666666666668</ele><time>2026-04-26T07:49:28.387Z</time></trkpt><trkpt lat="45.1674436" lon="10.6777948"><ele>23.0</ele><time>2026-04-26T07:49:30.387Z</time></trkpt><trkpt lat="45.1673578" lon="10.6778076"><ele>22.666666666666668</ele><time>2026-04-26T07:49:32.386Z</time></trkpt><trkpt lat="45.1672708" lon="10.6778163"><ele>22.333333333333336</ele><time>2026-04-26T07:49:34.387Z</time></trkpt><trkpt lat="45.1671847" lon="10.6778248"><ele>22.0</ele><time>2026-04-26T07:49:36.386Z</time></trkpt><trkpt lat="45.1671014" lon="10.6778309"><ele>21.666666666666668</ele><time>2026-04-26T07:49:38.387Z</time></trkpt><trkpt lat="45.1670215" lon="10.6778368"><ele>21.333333333333332</ele><time>2026-04-26T07:49:40.387Z</time></trkpt><trkpt lat="45.1669448" lon="10.6778424"><ele>21.0</ele><time>2026-04-26T07:49:42.387Z</time></trkpt><trkpt lat="45.1668669" lon="10.6778475"><ele>21.0</ele><time>2026-04-26T07:49:44.387Z</time></trkpt><trkpt lat="45.1667893" lon="10.677856"><ele>21.0</ele><time>2026-04-26T07:49:46.386Z</time></trkpt><trkpt lat="45.1667166" lon="10.6778597"><ele>21.0</ele><time>2026-04-26T07:49:48.386Z</time></trkpt><trkpt lat="45.1666467" lon="10.6778619"><ele>21.0</ele><time>2026-04-26T07:49:50.387Z</time></trkpt><trkpt lat="45.1665802" lon="10.6778674"><ele>21.0</ele><time>2026-04-26T07:49:52.387Z</time></trkpt><trkpt lat="45.166512" lon="10.6778717"><ele>21.0</ele><time>2026-04-26T07:49:54.387Z</time></trkpt><trkpt lat="45.1664411" lon="10.6778757"><ele>21.0</ele><time>2026-04-26T07:49:56.386Z</time></trkpt><trkpt lat="45.1663687" lon="10.6778829"><ele>21.285714285714285</ele><time>2026-04-26T07:49:58.387Z</time></trkpt><trkpt lat="45.1662951" lon="10.6778874"><ele>21.57142857142857</ele><time>2026-04-26T07:50:00.386Z</time></trkpt><trkpt lat="45.1662219" lon="10.6778957"><ele>21.857142857142858</ele><time>2026-04-26T07:50:02.386Z</time></trkpt><trkpt lat="45.1661504" lon="10.6779064"><ele>22.142857142857142</ele><time>2026-04-26T07:50:04.387Z</time></trkpt><trkpt lat="45.166079" lon="10.6779191"><ele>22.428571428571427</ele><time>2026-04-26T07:50:06.387Z</time></trkpt><trkpt lat="45.1660065" lon="10.6779348"><ele>22.714285714285715</ele><time>2026-04-26T07:50:08.386Z</time></trkpt><trkpt lat="45.1659351" lon="10.6779525"><ele>23.0</ele><time>2026-04-26T07:50:10.386Z</time></trkpt><trkpt lat="45.1658659" lon="10.6779741"><ele>23.0</ele><time>2026-04-26T07:50:12.387Z</time></trkpt><trkpt lat="45.1657969" lon="10.6779948"><ele>23.0</ele><time>2026-04-26T07:50:14.386Z</time></trkpt><trkpt lat="45.1657268" lon="10.678018"><ele>23.0</ele><time>2026-04-26T07:50:16.386Z</time></trkpt><trkpt lat="45.165656" lon="10.6780441"><ele>23.0</ele><time>2026-04-26T07:50:18.387Z</time></trkpt><trkpt lat="45.1655827" lon="10.6780731"><ele>23.0</ele><time>2026-04-26T07:50:20.386Z</time></trkpt><trkpt lat="45.1655071" lon="10.6781017"><ele>23.0</ele><time>2026-04-26T07:50:22.387Z</time></trkpt><trkpt lat="45.1654306" lon="10.6781341"><ele>22.833333333333336</ele><time>2026-04-26T07:50:24.387Z</time></trkpt><trkpt lat="45.1653534" lon="10.6781692"><ele>22.666666666666668</ele><time>2026-04-26T07:50:26.387Z</time></trkpt><trkpt lat="45.1652787" lon="10.6782072"><ele>22.5</ele><time>2026-04-26T07:50:28.387Z</time></trkpt><trkpt lat="45.1652066" lon="10.6782454"><ele>22.333333333333332</ele><time>2026-04-26T07:50:30.386Z</time></trkpt><trkpt lat="45.1651378" lon="10.678284"><ele>22.166666666666664</ele><time>2026-04-26T07:50:32.386Z</time></trkpt><trkpt lat="45.1650686" lon="10.6783289"><ele>22.0</ele><time>2026-04-26T07:50:34.387Z</time></trkpt><trkpt lat="45.1650027" lon="10.6783709"><ele>22.0</ele><time>2026-04-26T07:50:36.386Z</time></trkpt><trkpt lat="45.1649353" lon="10.678411"><ele>22.0</ele><time>2026-04-26T07:50:38.386Z</time></trkpt><trkpt lat="45.164867" lon="10.6784568"><ele>22.0</ele><time>2026-04-26T07:50:40.386Z</time></trkpt><trkpt lat="45.1648021" lon="10.6785035"><ele>22.0</ele><time>2026-04-26T07:50:42.386Z</time></trkpt><trkpt lat="45.1647407" lon="10.6785519"><ele>22.0</ele><time>2026-04-26T07:50:44.386Z</time></trkpt><trkpt lat="45.1646768" lon="10.6786073"><ele>22.0</ele><time>2026-04-26T07:50:46.387Z</time></trkpt><trkpt lat="45.164611" lon="10.6786639"><ele>22.0</ele><time>2026-04-26T07:50:48.387Z</time></trkpt><trkpt lat="45.1645462" lon="10.6787203"><ele>22.0</ele><time>2026-04-26T07:50:50.385Z</time></trkpt><trkpt lat="45.1644851" lon="10.6787762"><ele>22.0</ele><time>2026-04-26T07:50:52.385Z</time></trkpt><trkpt lat="45.164425" lon="10.6788319"><ele>22.0</ele><time>2026-04-26T07:50:54.386Z</time></trkpt><trkpt lat="45.1643624" lon="10.6788885"><ele>22.0</ele><time>2026-04-26T07:50:56.386Z</time></trkpt><trkpt lat="45.1643004" lon="10.6789447"><ele>22.0</ele><time>2026-04-26T07:50:58.385Z</time></trkpt><trkpt lat="45.1642348" lon="10.6790021"><ele>22.0</ele><time>2026-04-26T07:51:00.386Z</time></trkpt><trkpt lat="45.164169" lon="10.6790617"><ele>22.0</ele><time>2026-04-26T07:51:02.386Z</time></trkpt><trkpt lat="45.1641026" lon="10.6791226"><ele>22.0</ele><time>2026-04-26T07:51:04.385Z</time></trkpt><trkpt lat="45.1640363" lon="10.6791868"><ele>22.0</ele><time>2026-04-26T07:51:06.386Z</time></trkpt><trkpt lat="45.1639701" lon="10.6792435"><ele>22.0</ele><time>2026-04-26T07:51:08.385Z</time></trkpt><trkpt lat="45.1639073" lon="10.6792988"><ele>22.0</ele><time>2026-04-26T07:51:10.385Z</time></trkpt><trkpt lat="45.163847" lon="10.679352"><ele>22.0</ele><time>2026-04-26T07:51:12.386Z</time></trkpt><trkpt lat="45.1637888" lon="10.6794037"><ele>22.0</ele><time>2026-04-26T07:51:14.386Z</time></trkpt><trkpt lat="45.1637267" lon="10.6794607"><ele>22.0</ele><time>2026-04-26T07:51:16.384Z</time></trkpt><trkpt lat="45.1636636" lon="10.6795193"><ele>21.833333333333332</ele><time>2026-04-26T07:51:18.386Z</time></trkpt><trkpt lat="45.1636004" lon="10.6795791"><ele>21.666666666666664</ele><time>2026-04-26T07:51:20.386Z</time></trkpt><trkpt lat="45.1635368" lon="10.6796364"><ele>21.5</ele><time>2026-04-26T07:51:22.386Z</time></trkpt><trkpt lat="45.1634741" lon="10.6796941"><ele>21.333333333333332</ele><time>2026-04-26T07:51:24.385Z</time></trkpt><trkpt lat="45.1634117" lon="10.6797539"><ele>21.166666666666668</ele><time>2026-04-26T07:51:26.386Z</time></trkpt><trkpt lat="45.1633477" lon="10.6798141"><ele>21.0</ele><time>2026-04-26T07:51:28.385Z</time></trkpt><trkpt lat="45.1632831" lon="10.6798727"><ele>21.0</ele><time>2026-04-26T07:51:30.386Z</time></trkpt><trkpt lat="45.1632161" lon="10.6799323"><ele>21.0</ele><time>2026-04-26T07:51:32.386Z</time></trkpt><trkpt lat="45.1631506" lon="10.6799878"><ele>21.0</ele><time>2026-04-26T07:51:34.385Z</time></trkpt><trkpt lat="45.163085" lon="10.6800472"><ele>21.0</ele><time>2026-04-26T07:51:36.385Z</time></trkpt><trkpt lat="45.16302" lon="10.6801091"><ele>21.0</ele><time>2026-04-26T07:51:38.386Z</time></trkpt><trkpt lat="45.1629523" lon="10.6801721"><ele>21.0</ele><time>2026-04-26T07:51:40.386Z</time></trkpt><trkpt lat="45.1628856" lon="10.6802334"><ele>20.571428571428573</ele><time>2026-04-26T07:51:42.385Z</time></trkpt><trkpt lat="45.1628223" lon="10.6802903"><ele>20.142857142857142</ele><time>2026-04-26T07:51:44.386Z</time></trkpt><trkpt lat="45.162761" lon="10.6803498"><ele>19.714285714285715</ele><time>2026-04-26T07:51:46.385Z</time></trkpt><trkpt lat="45.1627029" lon="10.680409"><ele>19.285714285714285</ele><time>2026-04-26T07:51:48.385Z</time></trkpt><trkpt lat="45.1626499" lon="10.6804666"><ele>18.857142857142858</ele><time>2026-04-26T07:51:50.385Z</time></trkpt><trkpt lat="45.1625993" lon="10.6805222"><ele>18.42857142857143</ele><time>2026-04-26T07:51:52.385Z</time></trkpt><trkpt lat="45.1625483" lon="10.6805799"><ele>18.0</ele><time>2026-04-26T07:51:54.385Z</time></trkpt><trkpt lat="45.1624963" lon="10.6806462"><ele>18.000000000000004</ele><time>2026-04-26T07:51:56.385Z</time></trkpt><trkpt lat="45.1624451" lon="10.6807189"><ele>18.0</ele><time>2026-04-26T07:51:58.386Z</time></trkpt><trkpt lat="45.1623959" lon="10.6807962"><ele>18.0</ele><time>2026-04-26T07:52:00.385Z</time></trkpt><trkpt lat="45.1623494" lon="10.6808772"><ele>18.0</ele><time>2026-04-26T07:52:02.385Z</time></trkpt><trkpt lat="45.1623046" lon="10.6809598"><ele>18.0</ele><time>2026-04-26T07:52:04.385Z</time></trkpt><trkpt lat="45.1622614" lon="10.681043"><ele>18.000000000000004</ele><time>2026-04-26T07:52:06.386Z</time></trkpt><trkpt lat="45.1622166" lon="10.6811217"><ele>18.0</ele><time>2026-04-26T07:52:08.386Z</time></trkpt><trkpt lat="45.1621731" lon="10.681204"><ele>18.333333333333332</ele><time>2026-04-26T07:52:10.386Z</time></trkpt><trkpt lat="45.1621303" lon="10.6812899"><ele>18.666666666666668</ele><time>2026-04-26T07:52:12.386Z</time></trkpt><trkpt lat="45.162085" lon="10.6813749"><ele>19.0</ele><time>2026-04-26T07:52:14.386Z</time></trkpt><trkpt lat="45.1620334" lon="10.6814559"><ele>19.333333333333336</ele><time>2026-04-26T07:52:16.386Z</time></trkpt><trkpt lat="45.1619844" lon="10.6815375"><ele>19.666666666666668</ele><time>2026-04-26T07:52:18.385Z</time></trkpt><trkpt lat="45.1619341" lon="10.6816282"><ele>20.0</ele><time>2026-04-26T07:52:20.384Z</time></trkpt><trkpt lat="45.1618841" lon="10.6817008"><ele>20.0</ele><time>2026-04-26T07:52:22.386Z</time></trkpt><trkpt lat="45.1618343" lon="10.681775"><ele>20.0</ele><time>2026-04-26T07:52:24.386Z</time></trkpt><trkpt lat="45.1617811" lon="10.681847"><ele>20.0</ele><time>2026-04-26T07:52:26.386Z</time></trkpt><trkpt lat="45.1617305" lon="10.6819258"><ele>20.0</ele><time>2026-04-26T07:52:28.386Z</time></trkpt><trkpt lat="45.1616781" lon="10.6820035"><ele>20.0</ele><time>2026-04-26T07:52:30.385Z</time></trkpt><trkpt lat="45.1616261" lon="10.6820793"><ele>20.0</ele><time>2026-04-26T07:52:32.385Z</time></trkpt><trkpt lat="45.161571" lon="10.6821569"><ele>20.0</ele><time>2026-04-26T07:52:34.385Z</time></trkpt><trkpt lat="45.1615132" lon="10.6822372"><ele>20.166666666666668</ele><time>2026-04-26T07:52:36.385Z</time></trkpt><trkpt lat="45.1614563" lon="10.6823088"><ele>20.333333333333336</ele><time>2026-04-26T07:52:38.286Z</time></trkpt><trkpt lat="45.161393" lon="10.682385"><ele>20.5</ele><time>2026-04-26T07:52:40.386Z</time></trkpt><trkpt lat="45.1613376" lon="10.6824611"><ele>20.666666666666668</ele><time>2026-04-26T07:52:42.385Z</time></trkpt><trkpt lat="45.1612771" lon="10.6825303"><ele>20.833333333333332</ele><time>2026-04-26T07:52:44.385Z</time></trkpt><trkpt lat="45.1612149" lon="10.6825806"><ele>21.0</ele><time>2026-04-26T07:52:46.386Z</time></trkpt><trkpt lat="45.1611531" lon="10.6826421"><ele>21.0</ele><time>2026-04-26T07:52:48.385Z</time></trkpt><trkpt lat="45.1610943" lon="10.6827114"><ele>21.0</ele><time>2026-04-26T07:52:50.385Z</time></trkpt><trkpt lat="45.1610394" lon="10.6827849"><ele>21.0</ele><time>2026-04-26T07:52:52.385Z</time></trkpt><trkpt lat="45.1609894" lon="10.6828596"><ele>21.0</ele><time>2026-04-26T07:52:54.386Z</time></trkpt><trkpt lat="45.1609375" lon="10.6829306"><ele>21.0</ele><time>2026-04-26T07:52:56.386Z</time></trkpt><trkpt lat="45.1608873" lon="10.6830004"><ele>21.0</ele><time>2026-04-26T07:52:58.386Z</time></trkpt><trkpt lat="45.1608407" lon="10.6830707"><ele>21.0</ele><time>2026-04-26T07:53:00.385Z</time></trkpt><trkpt lat="45.1607977" lon="10.6831397"><ele>20.857142857142858</ele><time>2026-04-26T07:53:02.386Z</time></trkpt><trkpt lat="45.1607557" lon="10.6832096"><ele>20.714285714285715</ele><time>2026-04-26T07:53:04.386Z</time></trkpt><trkpt lat="45.1607102" lon="10.6832808"><ele>20.57142857142857</ele><time>2026-04-26T07:53:06.386Z</time></trkpt><trkpt lat="45.1606622" lon="10.683352"><ele>20.42857142857143</ele><time>2026-04-26T07:53:08.386Z</time></trkpt><trkpt lat="45.1606151" lon="10.6834237"><ele>20.285714285714285</ele><time>2026-04-26T07:53:10.386Z</time></trkpt><trkpt lat="45.1605707" lon="10.6834967"><ele>20.142857142857142</ele><time>2026-04-26T07:53:12.386Z</time></trkpt><trkpt lat="45.1605274" lon="10.6835701"><ele>20.0</ele><time>2026-04-26T07:53:14.385Z</time></trkpt><trkpt lat="45.1604823" lon="10.683642"><ele>20.285714285714285</ele><time>2026-04-26T07:53:16.385Z</time></trkpt><trkpt lat="45.1604373" lon="10.683709"><ele>20.571428571428573</ele><time>2026-04-26T07:53:18.386Z</time></trkpt><trkpt lat="45.1603938" lon="10.6837797"><ele>20.857142857142858</ele><time>2026-04-26T07:53:20.385Z</time></trkpt><trkpt lat="45.1603484" lon="10.683851"><ele>21.142857142857142</ele><time>2026-04-26T07:53:22.385Z</time></trkpt><trkpt lat="45.1603013" lon="10.6839215"><ele>21.428571428571427</ele><time>2026-04-26T07:53:24.385Z</time></trkpt><trkpt lat="45.1602538" lon="10.6839938"><ele>21.714285714285715</ele><time>2026-04-26T07:53:26.386Z</time></trkpt><trkpt lat="45.1602093" lon="10.6840683"><ele>22.0</ele><time>2026-04-26T07:53:28.385Z</time></trkpt><trkpt lat="45.1601625" lon="10.6841421"><ele>22.0</ele><time>2026-04-26T07:53:30.385Z</time></trkpt><trkpt lat="45.1601142" lon="10.6842169"><ele>22.0</ele><time>2026-04-26T07:53:32.386Z</time></trkpt><trkpt lat="45.160067" lon="10.6842917"><ele>22.0</ele><time>2026-04-26T07:53:34.386Z</time></trkpt><trkpt lat="45.160021" lon="10.6843626"><ele>22.0</ele><time>2026-04-26T07:53:36.385Z</time></trkpt><trkpt lat="45.1599733" lon="10.684435"><ele>22.0</ele><time>2026-04-26T07:53:38.385Z</time></trkpt><trkpt lat="45.159925" lon="10.6845107"><ele>22.0</ele><time>2026-04-26T07:53:40.386Z</time></trkpt><trkpt lat="45.1598768" lon="10.6845894"><ele>22.0</ele><time>2026-04-26T07:53:42.386Z</time></trkpt><trkpt lat="45.1598215" lon="10.6846805"><ele>22.0</ele><time>2026-04-26T07:53:44.386Z</time></trkpt><trkpt lat="45.1597751" lon="10.6847662"><ele>22.0</ele><time>2026-04-26T07:53:46.386Z</time></trkpt><trkpt lat="45.1597301" lon="10.6848551"><ele>22.0</ele><time>2026-04-26T07:53:48.386Z</time></trkpt><trkpt lat="45.1596864" lon="10.6849468"><ele>22.0</ele><time>2026-04-26T07:53:50.385Z</time></trkpt><trkpt lat="45.1596447" lon="10.6850362"><ele>22.0</ele><time>2026-04-26T07:53:52.385Z</time></trkpt><trkpt lat="45.1596089" lon="10.6851292"><ele>22.0</ele><time>2026-04-26T07:53:54.385Z</time></trkpt><trkpt lat="45.1595742" lon="10.6852184"><ele>22.0</ele><time>2026-04-26T07:53:56.385Z</time></trkpt><trkpt lat="45.1595407" lon="10.6853117"><ele>22.0</ele><time>2026-04-26T07:53:58.385Z</time></trkpt><trkpt lat="45.1595045" lon="10.6854136"><ele>22.0</ele><time>2026-04-26T07:54:00.384Z</time></trkpt><trkpt lat="45.1594715" lon="10.6855122"><ele>22.0</ele><time>2026-04-26T07:54:02.384Z</time></trkpt><trkpt lat="45.1594538" lon="10.6856077"><ele>22.0</ele><time>2026-04-26T07:54:04.385Z</time></trkpt><trkpt lat="45.159421" lon="10.6857376"><ele>22.0</ele><time>2026-04-26T07:54:07.385Z</time></trkpt><trkpt lat="45.1593949" lon="10.6858376"><ele>22.0</ele><time>2026-04-26T07:54:09.385Z</time></trkpt><trkpt lat="45.1593707" lon="10.6859369"><ele>22.0</ele><time>2026-04-26T07:54:11.385Z</time></trkpt><trkpt lat="45.1593529" lon="10.6860312"><ele>22.0</ele><time>2026-04-26T07:54:13.385Z</time></trkpt><trkpt lat="45.1593382" lon="10.6861209"><ele>22.0</ele><time>2026-04-26T07:54:15.385Z</time></trkpt><trkpt lat="45.159323" lon="10.6862127"><ele>22.0</ele><time>2026-04-26T07:54:17.384Z</time></trkpt><trkpt lat="45.1593085" lon="10.6863128"><ele>22.0</ele><time>2026-04-26T07:54:19.385Z</time></trkpt><trkpt lat="45.1592948" lon="10.686412"><ele>22.0</ele><time>2026-04-26T07:54:21.385Z</time></trkpt><trkpt lat="45.1592828" lon="10.6865103"><ele>21.857142857142858</ele><time>2026-04-26T07:54:23.384Z</time></trkpt><trkpt lat="45.1592721" lon="10.6866054"><ele>21.714285714285715</ele><time>2026-04-26T07:54:25.384Z</time></trkpt><trkpt lat="45.1592602" lon="10.6867"><ele>21.57142857142857</ele><time>2026-04-26T07:54:27.384Z</time></trkpt><trkpt lat="45.1592478" lon="10.6867899"><ele>21.42857142857143</ele><time>2026-04-26T07:54:29.384Z</time></trkpt><trkpt lat="45.1592351" lon="10.6868957"><ele>21.285714285714285</ele><time>2026-04-26T07:54:31.385Z</time></trkpt><trkpt lat="45.1592212" lon="10.6870052"><ele>21.142857142857142</ele><time>2026-04-26T07:54:33.384Z</time></trkpt><trkpt lat="45.1592093" lon="10.6871107"><ele>21.0</ele><time>2026-04-26T07:54:35.385Z</time></trkpt><trkpt lat="45.1591979" lon="10.6872052"><ele>21.285714285714285</ele><time>2026-04-26T07:54:37.385Z</time></trkpt><trkpt lat="45.1591861" lon="10.6872987"><ele>21.57142857142857</ele><time>2026-04-26T07:54:39.385Z</time></trkpt><trkpt lat="45.1591762" lon="10.6873901"><ele>21.857142857142858</ele><time>2026-04-26T07:54:41.384Z</time></trkpt><trkpt lat="45.1591633" lon="10.6874813"><ele>22.142857142857142</ele><time>2026-04-26T07:54:43.385Z</time></trkpt><trkpt lat="45.1591503" lon="10.687574"><ele>22.428571428571427</ele><time>2026-04-26T07:54:45.385Z</time></trkpt><trkpt lat="45.1591387" lon="10.6876673"><ele>22.714285714285715</ele><time>2026-04-26T07:54:47.384Z</time></trkpt><trkpt lat="45.1591237" lon="10.6877615"><ele>23.0</ele><time>2026-04-26T07:54:49.384Z</time></trkpt><trkpt lat="45.1591072" lon="10.6878545"><ele>23.0</ele><time>2026-04-26T07:54:51.385Z</time></trkpt><trkpt lat="45.1590895" lon="10.6879463"><ele>23.0</ele><time>2026-04-26T07:54:53.385Z</time></trkpt><trkpt lat="45.159068" lon="10.6880382"><ele>23.0</ele><time>2026-04-26T07:54:55.385Z</time></trkpt><trkpt lat="45.1590436" lon="10.6881339"><ele>23.0</ele><time>2026-04-26T07:54:57.385Z</time></trkpt><trkpt lat="45.1590194" lon="10.6882244"><ele>23.0</ele><time>2026-04-26T07:54:59.385Z</time></trkpt><trkpt lat="45.1589957" lon="10.6883115"><ele>23.0</ele><time>2026-04-26T07:55:01.385Z</time></trkpt><trkpt lat="45.1589687" lon="10.6884033"><ele>23.0</ele><time>2026-04-26T07:55:03.384Z</time></trkpt><trkpt lat="45.1589375" lon="10.688494"><ele>23.0</ele><time>2026-04-26T07:55:05.384Z</time></trkpt><trkpt lat="45.158906" lon="10.6885877"><ele>23.0</ele><time>2026-04-26T07:55:07.385Z</time></trkpt><trkpt lat="45.1588719" lon="10.6886838"><ele>23.0</ele><time>2026-04-26T07:55:09.384Z</time></trkpt><trkpt lat="45.1588367" lon="10.6887743"><ele>23.0</ele><time>2026-04-26T07:55:11.385Z</time></trkpt><trkpt lat="45.1587997" lon="10.6888636"><ele>23.0</ele><time>2026-04-26T07:55:13.385Z</time></trkpt><trkpt lat="45.1587612" lon="10.6889464"><ele>23.0</ele><time>2026-04-26T07:55:15.385Z</time></trkpt><trkpt lat="45.1587242" lon="10.6890272"><ele>23.0</ele><time>2026-04-26T07:55:17.384Z</time></trkpt><trkpt lat="45.1586871" lon="10.6891133"><ele>23.0</ele><time>2026-04-26T07:55:19.385Z</time></trkpt><trkpt lat="45.1586428" lon="10.6892013"><ele>23.0</ele><time>2026-04-26T07:55:21.385Z</time></trkpt><trkpt lat="45.158597" lon="10.6892859"><ele>23.0</ele><time>2026-04-26T07:55:23.385Z</time></trkpt><trkpt lat="45.1585511" lon="10.6893688"><ele>23.0</ele><time>2026-04-26T07:55:25.384Z</time></trkpt><trkpt lat="45.1585045" lon="10.6894491"><ele>23.0</ele><time>2026-04-26T07:55:27.383Z</time></trkpt><trkpt lat="45.1584606" lon="10.6895236"><ele>23.0</ele><time>2026-04-26T07:55:29.384Z</time></trkpt><trkpt lat="45.1584153" lon="10.6895986"><ele>23.0</ele><time>2026-04-26T07:55:31.384Z</time></trkpt><trkpt lat="45.1583643" lon="10.6896773"><ele>22.857142857142858</ele><time>2026-04-26T07:55:33.385Z</time></trkpt><trkpt lat="45.158314" lon="10.6897526"><ele>22.71428571428571</ele><time>2026-04-26T07:55:35.384Z</time></trkpt><trkpt lat="45.1582647" lon="10.6898271"><ele>22.57142857142857</ele><time>2026-04-26T07:55:37.384Z</time></trkpt><trkpt lat="45.1582146" lon="10.6898971"><ele>22.42857142857143</ele><time>2026-04-26T07:55:39.384Z</time></trkpt><trkpt lat="45.1581636" lon="10.6899637"><ele>22.285714285714285</ele><time>2026-04-26T07:55:41.384Z</time></trkpt><trkpt lat="45.1581122" lon="10.6900391"><ele>22.142857142857142</ele><time>2026-04-26T07:55:43.384Z</time></trkpt><trkpt lat="45.1580505" lon="10.6901262"><ele>22.0</ele><time>2026-04-26T07:55:45.385Z</time></trkpt><trkpt lat="45.1579914" lon="10.6902085"><ele>22.0</ele><time>2026-04-26T07:55:47.384Z</time></trkpt><trkpt lat="45.157935" lon="10.6902863"><ele>22.0</ele><time>2026-04-26T07:55:49.384Z</time></trkpt><trkpt lat="45.1578819" lon="10.6903612"><ele>22.0</ele><time>2026-04-26T07:55:51.383Z</time></trkpt><trkpt lat="45.157832" lon="10.6904334"><ele>22.0</ele><time>2026-04-26T07:55:53.384Z</time></trkpt><trkpt lat="45.1577842" lon="10.690501"><ele>22.0</ele><time>2026-04-26T07:55:55.385Z</time></trkpt><trkpt lat="45.1577377" lon="10.6905649"><ele>22.0</ele><time>2026-04-26T07:55:57.385Z</time></trkpt><trkpt lat="45.1576699" lon="10.6906545"><ele>22.0</ele><time>2026-04-26T07:56:00.384Z</time></trkpt><trkpt lat="45.1576042" lon="10.6907497"><ele>22.0</ele><time>2026-04-26T07:56:03.385Z</time></trkpt><trkpt lat="45.1575378" lon="10.6908411"><ele>22.0</ele><time>2026-04-26T07:56:06.385Z</time></trkpt><trkpt lat="45.1574716" lon="10.6909301"><ele>22.0</ele><time>2026-04-26T07:56:09.384Z</time></trkpt><trkpt lat="45.1574053" lon="10.6910196"><ele>22.0</ele><time>2026-04-26T07:56:12.384Z</time></trkpt><trkpt lat="45.1573349" lon="10.6911061"><ele>22.333333333333332</ele><time>2026-04-26T07:56:15.384Z</time></trkpt><trkpt lat="45.1572671" lon="10.6911983"><ele>22.666666666666664</ele><time>2026-04-26T07:56:18.385Z</time></trkpt><trkpt lat="45.1572054" lon="10.6912935"><ele>23.0</ele><time>2026-04-26T07:56:21.385Z</time></trkpt><trkpt lat="45.1571616" lon="10.6913578"><ele>23.333333333333332</ele><time>2026-04-26T07:56:23.385Z</time></trkpt><trkpt lat="45.1571155" lon="10.6914201"><ele>23.666666666666668</ele><time>2026-04-26T07:56:25.385Z</time></trkpt><trkpt lat="45.1570678" lon="10.6914787"><ele>24.0</ele><time>2026-04-26T07:56:27.384Z</time></trkpt><trkpt lat="45.1570001" lon="10.6915711"><ele>23.999999999999996</ele><time>2026-04-26T07:56:30.384Z</time></trkpt><trkpt lat="45.1569562" lon="10.6916376"><ele>24.0</ele><time>2026-04-26T07:56:32.385Z</time></trkpt><trkpt lat="45.1568901" lon="10.6917325"><ele>24.0</ele><time>2026-04-26T07:56:35.384Z</time></trkpt><trkpt lat="45.1568443" lon="10.6917997"><ele>24.0</ele><time>2026-04-26T07:56:37.385Z</time></trkpt><trkpt lat="45.1567963" lon="10.6918664"><ele>24.0</ele><time>2026-04-26T07:56:39.384Z</time></trkpt><trkpt lat="45.156748" lon="10.6919324"><ele>23.999999999999996</ele><time>2026-04-26T07:56:41.385Z</time></trkpt><trkpt lat="45.1567" lon="10.6919922"><ele>24.0</ele><time>2026-04-26T07:56:43.384Z</time></trkpt><trkpt lat="45.1566289" lon="10.6920748"><ele>24.166666666666668</ele><time>2026-04-26T07:56:46.384Z</time></trkpt><trkpt lat="45.1565635" lon="10.6921593"><ele>24.333333333333336</ele><time>2026-04-26T07:56:49.384Z</time></trkpt><trkpt lat="45.1565155" lon="10.6922325"><ele>24.5</ele><time>2026-04-26T07:56:52.385Z</time></trkpt><trkpt lat="45.1564638" lon="10.6923082"><ele>24.666666666666668</ele><time>2026-04-26T07:56:55.384Z</time></trkpt><trkpt lat="45.1564002" lon="10.6923992"><ele>24.833333333333336</ele><time>2026-04-26T07:56:58.384Z</time></trkpt><trkpt lat="45.1563406" lon="10.6924888"><ele>25.0</ele><time>2026-04-26T07:57:01.384Z</time></trkpt><trkpt lat="45.1562815" lon="10.6925782"><ele>25.333333333333336</ele><time>2026-04-26T07:57:04.383Z</time></trkpt><trkpt lat="45.1562226" lon="10.6926652"><ele>25.666666666666668</ele><time>2026-04-26T07:57:07.384Z</time></trkpt><trkpt lat="45.1561638" lon="10.6927407"><ele>26.0</ele><time>2026-04-26T07:57:10.384Z</time></trkpt><trkpt lat="45.1561033" lon="10.6928226"><ele>26.333333333333336</ele><time>2026-04-26T07:57:13.383Z</time></trkpt><trkpt lat="45.1560497" lon="10.6929142"><ele>26.666666666666668</ele><time>2026-04-26T07:57:16.383Z</time></trkpt><trkpt lat="45.1560006" lon="10.6929976"><ele>27.0</ele><time>2026-04-26T07:57:19.383Z</time></trkpt><trkpt lat="45.1559455" lon="10.6930888"><ele>28.0</ele><time>2026-04-26T07:57:22.383Z</time></trkpt><trkpt lat="45.1558881" lon="10.6931831"><ele>28.0</ele><time>2026-04-26T07:57:25.382Z</time></trkpt><trkpt lat="45.155828" lon="10.6932423"><ele>28.0</ele><time>2026-04-26T07:57:28.384Z</time></trkpt><trkpt lat="45.1557477" lon="10.693285"><ele>28.0</ele><time>2026-04-26T07:57:31.384Z</time></trkpt><trkpt lat="45.1556794" lon="10.6933692"><ele>27.0</ele><time>2026-04-26T07:57:34.383Z</time></trkpt><trkpt lat="45.1556237" lon="10.6934711"><ele>27.0</ele><time>2026-04-26T07:57:37.382Z</time></trkpt><trkpt lat="45.1556237" lon="10.6934711"><ele>27.0</ele><time>2026-04-26T07:57:37.382Z</time></trkpt></trkseg><trkseg><trkpt lat="45.1533919" lon="10.6963427"><ele>25.000000000000004</ele><time>2026-04-26T08:18:53.377Z</time></trkpt><trkpt lat="45.1533429" lon="10.6964222"><ele>25.0</ele><time>2026-04-26T08:18:56.377Z</time></trkpt><trkpt lat="45.1532984" lon="10.6965065"><ele>25.0</ele><time>2026-04-26T08:18:59.377Z</time></trkpt><trkpt lat="45.1532585" lon="10.696586"><ele>25.0</ele><time>2026-04-26T08:19:02.376Z</time></trkpt><trkpt lat="45.1532219" lon="10.6966724"><ele>25.0</ele><time>2026-04-26T08:19:05.375Z</time></trkpt><trkpt lat="45.1531853" lon="10.6967622"><ele>25.000000000000004</ele><time>2026-04-26T08:19:08.377Z</time></trkpt><trkpt lat="45.1531487" lon="10.6968643"><ele>25.0</ele><time>2026-04-26T08:19:11.376Z</time></trkpt><trkpt lat="45.1531025" lon="10.6969755"><ele>25.166666666666668</ele><time>2026-04-26T08:19:14.378Z</time></trkpt><trkpt lat="45.1530696" lon="10.697096"><ele>25.333333333333336</ele><time>2026-04-26T08:19:17.376Z</time></trkpt><trkpt lat="45.1530394" lon="10.6971936"><ele>25.5</ele><time>2026-04-26T08:19:20.377Z</time></trkpt><trkpt lat="45.1530174" lon="10.6972942"><ele>25.666666666666664</ele><time>2026-04-26T08:19:23.376Z</time></trkpt><trkpt lat="45.1529955" lon="10.6973991"><ele>25.833333333333332</ele><time>2026-04-26T08:19:26.377Z</time></trkpt><trkpt lat="45.1529767" lon="10.6975079"><ele>26.0</ele><time>2026-04-26T08:19:29.376Z</time></trkpt><trkpt lat="45.1529507" lon="10.6976249"><ele>25.999999999999996</ele><time>2026-04-26T08:19:32.376Z</time></trkpt><trkpt lat="45.1529302" lon="10.6977463"><ele>26.0</ele><time>2026-04-26T08:19:35.377Z</time></trkpt><trkpt lat="45.1529098" lon="10.6978639"><ele>26.0</ele><time>2026-04-26T08:19:38.378Z</time></trkpt><trkpt lat="45.1528832" lon="10.6979768"><ele>26.0</ele><time>2026-04-26T08:19:41.377Z</time></trkpt><trkpt lat="45.1528541" lon="10.6981005"><ele>25.999999999999996</ele><time>2026-04-26T08:19:44.377Z</time></trkpt><trkpt lat="45.15283" lon="10.6982265"><ele>26.0</ele><time>2026-04-26T08:19:47.378Z</time></trkpt><trkpt lat="45.1528096" lon="10.6983469"><ele>25.999999999999996</ele><time>2026-04-26T08:19:50.378Z</time></trkpt><trkpt lat="45.1527844" lon="10.6984652"><ele>26.0</ele><time>2026-04-26T08:19:53.377Z</time></trkpt><trkpt lat="45.1527557" lon="10.6985756"><ele>26.0</ele><time>2026-04-26T08:19:56.377Z</time></trkpt><trkpt lat="45.1527308" lon="10.6987098"><ele>26.0</ele><time>2026-04-26T08:19:59.376Z</time></trkpt><trkpt lat="45.1527097" lon="10.6988119"><ele>25.999999999999996</ele><time>2026-04-26T08:20:01.377Z</time></trkpt><trkpt lat="45.1526933" lon="10.6989133"><ele>26.0</ele><time>2026-04-26T08:20:03.376Z</time></trkpt><trkpt lat="45.1526727" lon="10.6990175"><ele>26.0</ele><time>2026-04-26T08:20:05.376Z</time></trkpt><trkpt lat="45.1526563" lon="10.6991207"><ele>26.0</ele><time>2026-04-26T08:20:07.377Z</time></trkpt><trkpt lat="45.1526324" lon="10.6992195"><ele>26.0</ele><time>2026-04-26T08:20:09.376Z</time></trkpt><trkpt lat="45.1526053" lon="10.6993141"><ele>26.0</ele><time>2026-04-26T08:20:11.377Z</time></trkpt><trkpt lat="45.1525847" lon="10.6994188"><ele>26.0</ele><time>2026-04-26T08:20:13.377Z</time></trkpt><trkpt lat="45.152566" lon="10.6995216"><ele>26.0</ele><time>2026-04-26T08:20:15.377Z</time></trkpt><trkpt lat="45.1525456" lon="10.6996145"><ele>26.0</ele><time>2026-04-26T08:20:17.378Z</time></trkpt><trkpt lat="45.1525344" lon="10.6997129"><ele>26.0</ele><time>2026-04-26T08:20:19.377Z</time></trkpt><trkpt lat="45.1525169" lon="10.6998098"><ele>26.0</ele><time>2026-04-26T08:20:21.377Z</time></trkpt><trkpt lat="45.1524991" lon="10.6999056"><ele>26.0</ele><time>2026-04-26T08:20:23.376Z</time></trkpt><trkpt lat="45.1524843" lon="10.6999943"><ele>26.0</ele><time>2026-04-26T08:20:25.376Z</time></trkpt><trkpt lat="45.1524711" lon="10.7000819"><ele>26.0</ele><time>2026-04-26T08:20:27.376Z</time></trkpt><trkpt lat="45.1524601" lon="10.7001727"><ele>26.0</ele><time>2026-04-26T08:20:29.376Z</time></trkpt><trkpt lat="45.1524935" lon="10.7002905"><ele>26.0</ele><time>2026-04-26T08:20:32.376Z</time></trkpt><trkpt lat="45.1524927" lon="10.7003894"><ele>25.999999999999996</ele><time>2026-04-26T08:20:35.378Z</time></trkpt><trkpt lat="45.1524571" lon="10.7004919"><ele>26.0</ele><time>2026-04-26T08:20:39.377Z</time></trkpt><trkpt lat="45.1524412" lon="10.7006058"><ele>26.0</ele><time>2026-04-26T08:20:43.377Z</time></trkpt><trkpt lat="45.1524276" lon="10.7006982"><ele>26.0</ele><time>2026-04-26T08:20:46.376Z</time></trkpt><trkpt lat="45.1524208" lon="10.7008041"><ele>25.999999999999996</ele><time>2026-04-26T08:20:49.376Z</time></trkpt><trkpt lat="45.1524105" lon="10.7009213"><ele>26.0</ele><time>2026-04-26T08:20:52.376Z</time></trkpt><trkpt lat="45.1524002" lon="10.7010466"><ele>25.833333333333332</ele><time>2026-04-26T08:20:55.377Z</time></trkpt><trkpt lat="45.1524138" lon="10.7011768"><ele>25.666666666666664</ele><time>2026-04-26T08:20:58.376Z</time></trkpt><trkpt lat="45.1524261" lon="10.7012986"><ele>25.5</ele><time>2026-04-26T08:21:00.377Z</time></trkpt><trkpt lat="45.152441" lon="10.701405"><ele>25.333333333333336</ele><time>2026-04-26T08:21:02.377Z</time></trkpt><trkpt lat="45.1524506" lon="10.7015144"><ele>25.166666666666668</ele><time>2026-04-26T08:21:04.377Z</time></trkpt><trkpt lat="45.1524568" lon="10.701616"><ele>25.0</ele><time>2026-04-26T08:21:06.376Z</time></trkpt><trkpt lat="45.1524711" lon="10.7017098"><ele>25.000000000000004</ele><time>2026-04-26T08:21:08.376Z</time></trkpt><trkpt lat="45.1524832" lon="10.7018042"><ele>25.0</ele><time>2026-04-26T08:21:10.376Z</time></trkpt><trkpt lat="45.1524944" lon="10.7019109"><ele>25.0</ele><time>2026-04-26T08:21:12.377Z</time></trkpt><trkpt lat="45.1525099" lon="10.7020125"><ele>25.0</ele><time>2026-04-26T08:21:14.375Z</time></trkpt><trkpt lat="45.1525215" lon="10.7021202"><ele>25.0</ele><time>2026-04-26T08:21:16.375Z</time></trkpt><trkpt lat="45.1525398" lon="10.702225"><ele>25.000000000000004</ele><time>2026-04-26T08:21:18.376Z</time></trkpt><trkpt lat="45.1525499" lon="10.7023268"><ele>25.0</ele><time>2026-04-26T08:21:20.375Z</time></trkpt><trkpt lat="45.1525614" lon="10.7024294"><ele>25.000000000000004</ele><time>2026-04-26T08:21:22.376Z</time></trkpt><trkpt lat="45.1525787" lon="10.7025396"><ele>25.0</ele><time>2026-04-26T08:21:24.377Z</time></trkpt><trkpt lat="45.1525971" lon="10.7026577"><ele>25.0</ele><time>2026-04-26T08:21:26.377Z</time></trkpt><trkpt lat="45.1526047" lon="10.7027826"><ele>25.0</ele><time>2026-04-26T08:21:28.376Z</time></trkpt><trkpt lat="45.1526242" lon="10.7029125"><ele>25.000000000000004</ele><time>2026-04-26T08:21:30.375Z</time></trkpt><trkpt lat="45.152641" lon="10.7030426"><ele>25.0</ele><time>2026-04-26T08:21:32.375Z</time></trkpt><trkpt lat="45.1526498" lon="10.7031767"><ele>25.0</ele><time>2026-04-26T08:21:34.377Z</time></trkpt><trkpt lat="45.1526508" lon="10.7033112"><ele>25.0</ele><time>2026-04-26T08:21:36.375Z</time></trkpt><trkpt lat="45.1526658" lon="10.7034422"><ele>25.0</ele><time>2026-04-26T08:21:38.377Z</time></trkpt><trkpt lat="45.152677" lon="10.7035742"><ele>25.0</ele><time>2026-04-26T08:21:40.377Z</time></trkpt><trkpt lat="45.1526851" lon="10.7037075"><ele>25.0</ele><time>2026-04-26T08:21:42.376Z</time></trkpt><trkpt lat="45.1526905" lon="10.7038425"><ele>25.0</ele><time>2026-04-26T08:21:44.377Z</time></trkpt><trkpt lat="45.1526878" lon="10.7039678"><ele>25.0</ele><time>2026-04-26T08:21:46.377Z</time></trkpt><trkpt lat="45.1526808" lon="10.7040999"><ele>25.0</ele><time>2026-04-26T08:21:48.377Z</time></trkpt><trkpt lat="45.1526745" lon="10.7042303"><ele>25.0</ele><time>2026-04-26T08:21:50.376Z</time></trkpt><trkpt lat="45.1526752" lon="10.7043556"><ele>25.0</ele><time>2026-04-26T08:21:52.377Z</time></trkpt><trkpt lat="45.1526746" lon="10.7044813"><ele>25.000000000000004</ele><time>2026-04-26T08:21:54.375Z</time></trkpt><trkpt lat="45.1526752" lon="10.7046127"><ele>25.0</ele><time>2026-04-26T08:21:56.377Z</time></trkpt><trkpt lat="45.1526748" lon="10.7047383"><ele>25.0</ele><time>2026-04-26T08:21:58.376Z</time></trkpt><trkpt lat="45.1526755" lon="10.7048616"><ele>25.0</ele><time>2026-04-26T08:22:00.376Z</time></trkpt><trkpt lat="45.1526718" lon="10.7049829"><ele>25.000000000000004</ele><time>2026-04-26T08:22:02.377Z</time></trkpt><trkpt lat="45.1526741" lon="10.7051033"><ele>25.0</ele><time>2026-04-26T08:22:04.375Z</time></trkpt><trkpt lat="45.1526733" lon="10.7052234"><ele>25.166666666666668</ele><time>2026-04-26T08:22:06.377Z</time></trkpt><trkpt lat="45.1526705" lon="10.7053388"><ele>25.333333333333336</ele><time>2026-04-26T08:22:08.376Z</time></trkpt><trkpt lat="45.1526702" lon="10.7054537"><ele>25.5</ele><time>2026-04-26T08:22:10.377Z</time></trkpt><trkpt lat="45.152669" lon="10.7055711"><ele>25.666666666666664</ele><time>2026-04-26T08:22:12.376Z</time></trkpt><trkpt lat="45.1526698" lon="10.705688"><ele>25.833333333333332</ele><time>2026-04-26T08:22:14.377Z</time></trkpt><trkpt lat="45.1526732" lon="10.7058048"><ele>26.0</ele><time>2026-04-26T08:22:16.376Z</time></trkpt><trkpt lat="45.1526756" lon="10.7059214"><ele>25.999999999999996</ele><time>2026-04-26T08:22:18.376Z</time></trkpt><trkpt lat="45.1526777" lon="10.706037"><ele>26.0</ele><time>2026-04-26T08:22:20.376Z</time></trkpt><trkpt lat="45.1526815" lon="10.7061536"><ele>26.0</ele><time>2026-04-26T08:22:22.376Z</time></trkpt><trkpt lat="45.1526787" lon="10.7062652"><ele>26.0</ele><time>2026-04-26T08:22:24.377Z</time></trkpt><trkpt lat="45.1526604" lon="10.7063776"><ele>25.999999999999996</ele><time>2026-04-26T08:22:26.377Z</time></trkpt><trkpt lat="45.1526607" lon="10.706496"><ele>26.0</ele><time>2026-04-26T08:22:28.377Z</time></trkpt><trkpt lat="45.1526666" lon="10.7066118"><ele>25.833333333333332</ele><time>2026-04-26T08:22:30.376Z</time></trkpt><trkpt lat="45.1526754" lon="10.7067232"><ele>25.666666666666664</ele><time>2026-04-26T08:22:32.377Z</time></trkpt><trkpt lat="45.1526757" lon="10.7068344"><ele>25.5</ele><time>2026-04-26T08:22:34.376Z</time></trkpt><trkpt lat="45.1526734" lon="10.7069485"><ele>25.333333333333336</ele><time>2026-04-26T08:22:36.376Z</time></trkpt><trkpt lat="45.1526725" lon="10.7070627"><ele>25.166666666666668</ele><time>2026-04-26T08:22:38.376Z</time></trkpt><trkpt lat="45.152674" lon="10.7071777"><ele>25.0</ele><time>2026-04-26T08:22:40.376Z</time></trkpt><trkpt lat="45.1526717" lon="10.7072979"><ele>25.000000000000004</ele><time>2026-04-26T08:22:42.376Z</time></trkpt><trkpt lat="45.1526705" lon="10.7074258"><ele>25.0</ele><time>2026-04-26T08:22:44.375Z</time></trkpt><trkpt lat="45.1526676" lon="10.7075498"><ele>25.0</ele><time>2026-04-26T08:22:46.376Z</time></trkpt><trkpt lat="45.15267" lon="10.7076834"><ele>25.0</ele><time>2026-04-26T08:22:48.375Z</time></trkpt><trkpt lat="45.1526743" lon="10.707811"><ele>25.000000000000004</ele><time>2026-04-26T08:22:50.376Z</time></trkpt><trkpt lat="45.1526756" lon="10.7079343"><ele>25.0</ele><time>2026-04-26T08:22:52.376Z</time></trkpt><trkpt lat="45.1526737" lon="10.7080599"><ele>25.0</ele><time>2026-04-26T08:22:54.376Z</time></trkpt><trkpt lat="45.1526776" lon="10.7081834"><ele>25.0</ele><time>2026-04-26T08:22:56.376Z</time></trkpt><trkpt lat="45.1526817" lon="10.708315"><ele>25.0</ele><time>2026-04-26T08:22:58.376Z</time></trkpt><trkpt lat="45.1526889" lon="10.7084495"><ele>25.0</ele><time>2026-04-26T08:23:00.377Z</time></trkpt><trkpt lat="45.152683" lon="10.7085871"><ele>25.0</ele><time>2026-04-26T08:23:02.376Z</time></trkpt><trkpt lat="45.1526878" lon="10.7087164"><ele>25.2</ele><time>2026-04-26T08:23:04.376Z</time></trkpt><trkpt lat="45.1526991" lon="10.7088538"><ele>25.4</ele><time>2026-04-26T08:23:06.376Z</time></trkpt><trkpt lat="45.1526934" lon="10.7089961"><ele>25.6</ele><time>2026-04-26T08:23:08.376Z</time></trkpt><trkpt lat="45.1526956" lon="10.709138"><ele>25.8</ele><time>2026-04-26T08:23:10.376Z</time></trkpt><trkpt lat="45.1526957" lon="10.7092802"><ele>26.0</ele><time>2026-04-26T08:23:12.376Z</time></trkpt><trkpt lat="45.1526999" lon="10.7094276"><ele>26.0</ele><time>2026-04-26T08:23:14.374Z</time></trkpt><trkpt lat="45.1527058" lon="10.7095715"><ele>26.0</ele><time>2026-04-26T08:23:16.377Z</time></trkpt><trkpt lat="45.1527137" lon="10.7097156"><ele>26.0</ele><time>2026-04-26T08:23:18.376Z</time></trkpt><trkpt lat="45.1527155" lon="10.7098555"><ele>26.0</ele><time>2026-04-26T08:23:20.376Z</time></trkpt><trkpt lat="45.1527176" lon="10.7099961"><ele>26.0</ele><time>2026-04-26T08:23:22.376Z</time></trkpt><trkpt lat="45.1527289" lon="10.7101371"><ele>25.8</ele><time>2026-04-26T08:23:24.376Z</time></trkpt><trkpt lat="45.1527365" lon="10.7102728"><ele>25.6</ele><time>2026-04-26T08:23:26.376Z</time></trkpt><trkpt lat="45.1527429" lon="10.7104175"><ele>25.4</ele><time>2026-04-26T08:23:28.376Z</time></trkpt><trkpt lat="45.1527636" lon="10.7105624"><ele>25.2</ele><time>2026-04-26T08:23:30.375Z</time></trkpt><trkpt lat="45.1527792" lon="10.7107038"><ele>25.0</ele><time>2026-04-26T08:23:32.375Z</time></trkpt><trkpt lat="45.1527904" lon="10.7108331"><ele>25.0</ele><time>2026-04-26T08:23:34.376Z</time></trkpt><trkpt lat="45.1528012" lon="10.7109676"><ele>25.0</ele><time>2026-04-26T08:23:36.376Z</time></trkpt><trkpt lat="45.1528139" lon="10.7110951"><ele>25.0</ele><time>2026-04-26T08:23:38.376Z</time></trkpt><trkpt lat="45.1528254" lon="10.7112308"><ele>25.0</ele><time>2026-04-26T08:23:40.376Z</time></trkpt><trkpt lat="45.152846" lon="10.7113633"><ele>25.0</ele><time>2026-04-26T08:23:42.376Z</time></trkpt><trkpt lat="45.1528624" lon="10.7114935"><ele>25.4</ele><time>2026-04-26T08:23:44.377Z</time></trkpt><trkpt lat="45.1528542" lon="10.711627"><ele>25.8</ele><time>2026-04-26T08:23:46.375Z</time></trkpt><trkpt lat="45.1528366" lon="10.7117599"><ele>26.200000000000003</ele><time>2026-04-26T08:23:48.376Z</time></trkpt><trkpt lat="45.1528517" lon="10.711894"><ele>26.6</ele><time>2026-04-26T08:23:50.376Z</time></trkpt><trkpt lat="45.1528668" lon="10.7120174"><ele>27.0</ele><time>2026-04-26T08:23:52.376Z</time></trkpt><trkpt lat="45.1528796" lon="10.7121317"><ele>27.166666666666668</ele><time>2026-04-26T08:23:54.376Z</time></trkpt><trkpt lat="45.1528999" lon="10.7122576"><ele>27.333333333333336</ele><time>2026-04-26T08:23:56.375Z</time></trkpt><trkpt lat="45.1529267" lon="10.7123719"><ele>27.5</ele><time>2026-04-26T08:23:58.375Z</time></trkpt><trkpt lat="45.1529528" lon="10.712499"><ele>27.666666666666668</ele><time>2026-04-26T08:24:00.375Z</time></trkpt><trkpt lat="45.1529624" lon="10.7126345"><ele>27.833333333333336</ele><time>2026-04-26T08:24:02.376Z</time></trkpt><trkpt lat="45.1529842" lon="10.7127479"><ele>28.0</ele><time>2026-04-26T08:24:04.376Z</time></trkpt><trkpt lat="45.1530051" lon="10.712871"><ele>27.666666666666668</ele><time>2026-04-26T08:24:06.375Z</time></trkpt><trkpt lat="45.1530301" lon="10.7129877"><ele>27.333333333333336</ele><time>2026-04-26T08:24:08.376Z</time></trkpt><trkpt lat="45.1530515" lon="10.7131081"><ele>27.0</ele><time>2026-04-26T08:24:10.375Z</time></trkpt><trkpt lat="45.1530684" lon="10.7132217"><ele>26.666666666666664</ele><time>2026-04-26T08:24:12.376Z</time></trkpt><trkpt lat="45.1530886" lon="10.7133333"><ele>26.333333333333332</ele><time>2026-04-26T08:24:14.376Z</time></trkpt><trkpt lat="45.15311" lon="10.7134514"><ele>26.0</ele><time>2026-04-26T08:24:16.376Z</time></trkpt><trkpt lat="45.1531344" lon="10.7135651"><ele>25.999999999999996</ele><time>2026-04-26T08:24:18.376Z</time></trkpt><trkpt lat="45.153158" lon="10.7136885"><ele>26.0</ele><time>2026-04-26T08:24:20.375Z</time></trkpt><trkpt lat="45.15318" lon="10.713803"><ele>26.0</ele><time>2026-04-26T08:24:22.376Z</time></trkpt><trkpt lat="45.1532043" lon="10.7139144"><ele>26.0</ele><time>2026-04-26T08:24:24.376Z</time></trkpt><trkpt lat="45.1532274" lon="10.7140284"><ele>25.999999999999996</ele><time>2026-04-26T08:24:26.376Z</time></trkpt><trkpt lat="45.1532458" lon="10.7141416"><ele>26.0</ele><time>2026-04-26T08:24:28.376Z</time></trkpt><trkpt lat="45.1532585" lon="10.7142439"><ele>26.333333333333332</ele><time>2026-04-26T08:24:30.376Z</time></trkpt><trkpt lat="45.1532573" lon="10.7143337"><ele>26.666666666666664</ele><time>2026-04-26T08:24:32.375Z</time></trkpt><trkpt lat="45.1532647" lon="10.7144639"><ele>27.0</ele><time>2026-04-26T08:24:35.376Z</time></trkpt><trkpt lat="45.1532645" lon="10.7145696"><ele>27.333333333333336</ele><time>2026-04-26T08:24:37.376Z</time></trkpt><trkpt lat="45.1532682" lon="10.7146693"><ele>27.666666666666668</ele><time>2026-04-26T08:24:39.375Z</time></trkpt><trkpt lat="45.1532746" lon="10.7148029"><ele>28.0</ele><time>2026-04-26T08:24:41.375Z</time></trkpt><trkpt lat="45.1532795" lon="10.7149177"><ele>28.000000000000004</ele><time>2026-04-26T08:24:43.375Z</time></trkpt><trkpt lat="45.1532786" lon="10.7150404"><ele>28.0</ele><time>2026-04-26T08:24:45.375Z</time></trkpt><trkpt lat="45.1532805" lon="10.7151692"><ele>28.0</ele><time>2026-04-26T08:24:47.375Z</time></trkpt><trkpt lat="45.1532798" lon="10.7152925"><ele>28.0</ele><time>2026-04-26T08:24:49.375Z</time></trkpt><trkpt lat="45.1532798" lon="10.7154024"><ele>28.000000000000004</ele><time>2026-04-26T08:24:51.376Z</time></trkpt><trkpt lat="45.1532776" lon="10.7155179"><ele>28.0</ele><time>2026-04-26T08:24:53.375Z</time></trkpt><trkpt lat="45.1532725" lon="10.7156357"><ele>27.833333333333336</ele><time>2026-04-26T08:24:55.375Z</time></trkpt><trkpt lat="45.153274" lon="10.7157506"><ele>27.666666666666668</ele><time>2026-04-26T08:24:57.376Z</time></trkpt><trkpt lat="45.1532764" lon="10.7158585"><ele>27.5</ele><time>2026-04-26T08:24:59.375Z</time></trkpt><trkpt lat="45.1532846" lon="10.7159704"><ele>27.333333333333336</ele><time>2026-04-26T08:25:01.376Z</time></trkpt><trkpt lat="45.1532908" lon="10.7160787"><ele>27.166666666666668</ele><time>2026-04-26T08:25:03.376Z</time></trkpt><trkpt lat="45.1533069" lon="10.7161824"><ele>27.0</ele><time>2026-04-26T08:25:05.376Z</time></trkpt><trkpt lat="45.1533304" lon="10.7162861"><ele>27.0</ele><time>2026-04-26T08:25:07.376Z</time></trkpt><trkpt lat="45.1533335" lon="10.716395"><ele>27.0</ele><time>2026-04-26T08:25:09.376Z</time></trkpt><trkpt lat="45.1533549" lon="10.7165029"><ele>27.0</ele><time>2026-04-26T08:25:11.376Z</time></trkpt><trkpt lat="45.1533703" lon="10.716615"><ele>27.0</ele><time>2026-04-26T08:25:13.375Z</time></trkpt><trkpt lat="45.1533875" lon="10.7167287"><ele>27.0</ele><time>2026-04-26T08:25:15.376Z</time></trkpt><trkpt lat="45.1534017" lon="10.7168402"><ele>27.0</ele><time>2026-04-26T08:25:17.376Z</time></trkpt><trkpt lat="45.1534135" lon="10.7169564"><ele>27.0</ele><time>2026-04-26T08:25:19.375Z</time></trkpt><trkpt lat="45.1534201" lon="10.7170682"><ele>27.0</ele><time>2026-04-26T08:25:21.376Z</time></trkpt><trkpt lat="45.1534158" lon="10.7171864"><ele>27.0</ele><time>2026-04-26T08:25:23.375Z</time></trkpt><trkpt lat="45.1534154" lon="10.7173023"><ele>27.0</ele><time>2026-04-26T08:25:25.373Z</time></trkpt><trkpt lat="45.1534284" lon="10.7174184"><ele>27.0</ele><time>2026-04-26T08:25:27.375Z</time></trkpt><trkpt lat="45.1534426" lon="10.7175355"><ele>27.0</ele><time>2026-04-26T08:25:29.376Z</time></trkpt><trkpt lat="45.1534524" lon="10.7176488"><ele>26.833333333333332</ele><time>2026-04-26T08:25:31.375Z</time></trkpt><trkpt lat="45.1534607" lon="10.7177597"><ele>26.666666666666664</ele><time>2026-04-26T08:25:33.377Z</time></trkpt><trkpt lat="45.1534687" lon="10.717876"><ele>26.5</ele><time>2026-04-26T08:25:35.376Z</time></trkpt><trkpt lat="45.1534828" lon="10.7179883"><ele>26.333333333333332</ele><time>2026-04-26T08:25:37.376Z</time></trkpt><trkpt lat="45.1534977" lon="10.7181084"><ele>26.166666666666664</ele><time>2026-04-26T08:25:39.374Z</time></trkpt><trkpt lat="45.1535127" lon="10.7182145"><ele>26.0</ele><time>2026-04-26T08:25:41.375Z</time></trkpt><trkpt lat="45.1535218" lon="10.7183392"><ele>26.0</ele><time>2026-04-26T08:25:43.376Z</time></trkpt><trkpt lat="45.1535321" lon="10.7184659"><ele>26.0</ele><time>2026-04-26T08:25:45.375Z</time></trkpt><trkpt lat="45.153548" lon="10.7185936"><ele>26.0</ele><time>2026-04-26T08:25:47.375Z</time></trkpt><trkpt lat="45.1535811" lon="10.7187072"><ele>26.0</ele><time>2026-04-26T08:25:49.375Z</time></trkpt><trkpt lat="45.1536003" lon="10.7188408"><ele>26.0</ele><time>2026-04-26T08:25:51.375Z</time></trkpt><trkpt lat="45.1536157" lon="10.7189754"><ele>25.833333333333332</ele><time>2026-04-26T08:25:53.375Z</time></trkpt><trkpt lat="45.1536315" lon="10.7191208"><ele>25.666666666666664</ele><time>2026-04-26T08:25:55.375Z</time></trkpt><trkpt lat="45.1536429" lon="10.7192521"><ele>25.5</ele><time>2026-04-26T08:25:57.375Z</time></trkpt><trkpt lat="45.153653" lon="10.7193653"><ele>25.333333333333336</ele><time>2026-04-26T08:25:59.376Z</time></trkpt><trkpt lat="45.153666" lon="10.7194742"><ele>25.166666666666668</ele><time>2026-04-26T08:26:01.376Z</time></trkpt><trkpt lat="45.1536768" lon="10.7195994"><ele>25.0</ele><time>2026-04-26T08:26:03.375Z</time></trkpt><trkpt lat="45.1536875" lon="10.7197192"><ele>25.000000000000004</ele><time>2026-04-26T08:26:05.376Z</time></trkpt><trkpt lat="45.1536902" lon="10.719836"><ele>25.0</ele><time>2026-04-26T08:26:07.375Z</time></trkpt><trkpt lat="45.1536975" lon="10.7199506"><ele>25.0</ele><time>2026-04-26T08:26:09.375Z</time></trkpt><trkpt lat="45.153708" lon="10.7200495"><ele>25.0</ele><time>2026-04-26T08:26:11.376Z</time></trkpt><trkpt lat="45.1537172" lon="10.7201719"><ele>25.000000000000004</ele><time>2026-04-26T08:26:14.375Z</time></trkpt><trkpt lat="45.1537259" lon="10.7202625"><ele>25.0</ele><time>2026-04-26T08:26:16.376Z</time></trkpt><trkpt lat="45.1537301" lon="10.7203716"><ele>25.000000000000004</ele><time>2026-04-26T08:26:18.375Z</time></trkpt><trkpt lat="45.153741" lon="10.7204861"><ele>25.0</ele><time>2026-04-26T08:26:20.375Z</time></trkpt><trkpt lat="45.1537589" lon="10.7206028"><ele>25.0</ele><time>2026-04-26T08:26:22.375Z</time></trkpt><trkpt lat="45.1537715" lon="10.7207149"><ele>25.0</ele><time>2026-04-26T08:26:24.375Z</time></trkpt><trkpt lat="45.1537797" lon="10.7208266"><ele>25.000000000000004</ele><time>2026-04-26T08:26:26.375Z</time></trkpt><trkpt lat="45.1537875" lon="10.7209363"><ele>25.0</ele><time>2026-04-26T08:26:28.376Z</time></trkpt><trkpt lat="45.1537891" lon="10.7210534"><ele>25.333333333333336</ele><time>2026-04-26T08:26:30.374Z</time></trkpt><trkpt lat="45.1537992" lon="10.7211734"><ele>25.666666666666668</ele><time>2026-04-26T08:26:32.374Z</time></trkpt><trkpt lat="45.1538077" lon="10.7212861"><ele>26.0</ele><time>2026-04-26T08:26:34.375Z</time></trkpt><trkpt lat="45.1538193" lon="10.7214022"><ele>26.333333333333336</ele><time>2026-04-26T08:26:36.375Z</time></trkpt><trkpt lat="45.1538284" lon="10.721519"><ele>26.666666666666668</ele><time>2026-04-26T08:26:38.375Z</time></trkpt><trkpt lat="45.1538401" lon="10.7216382"><ele>27.0</ele><time>2026-04-26T08:26:40.375Z</time></trkpt><trkpt lat="45.1538538" lon="10.7217552"><ele>27.0</ele><time>2026-04-26T08:26:42.374Z</time></trkpt><trkpt lat="45.1538633" lon="10.7218716"><ele>27.0</ele><time>2026-04-26T08:26:44.374Z</time></trkpt><trkpt lat="45.1538679" lon="10.7219903"><ele>27.0</ele><time>2026-04-26T08:26:46.376Z</time></trkpt><trkpt lat="45.1538793" lon="10.7221071"><ele>27.0</ele><time>2026-04-26T08:26:48.374Z</time></trkpt><trkpt lat="45.1538917" lon="10.7222262"><ele>27.0</ele><time>2026-04-26T08:26:50.376Z</time></trkpt><trkpt lat="45.153902" lon="10.7223439"><ele>27.0</ele><time>2026-04-26T08:26:52.375Z</time></trkpt><trkpt lat="45.153909" lon="10.7224615"><ele>27.0</ele><time>2026-04-26T08:26:54.375Z</time></trkpt><trkpt lat="45.1539176" lon="10.7225738"><ele>27.0</ele><time>2026-04-26T08:26:56.375Z</time></trkpt><trkpt lat="45.1539276" lon="10.7226873"><ele>27.0</ele><time>2026-04-26T08:26:58.376Z</time></trkpt><trkpt lat="45.1539398" lon="10.7228035"><ele>27.0</ele><time>2026-04-26T08:27:00.376Z</time></trkpt><trkpt lat="45.1539509" lon="10.7229249"><ele>27.0</ele><time>2026-04-26T08:27:02.375Z</time></trkpt><trkpt lat="45.1539631" lon="10.7230431"><ele>27.0</ele><time>2026-04-26T08:27:04.375Z</time></trkpt><trkpt lat="45.1539695" lon="10.7231505"><ele>27.0</ele><time>2026-04-26T08:27:06.375Z</time></trkpt><trkpt lat="45.1539743" lon="10.7232571"><ele>27.0</ele><time>2026-04-26T08:27:08.375Z</time></trkpt><trkpt lat="45.1539866" lon="10.7233508"><ele>27.0</ele><time>2026-04-26T08:27:10.374Z</time></trkpt><trkpt lat="45.154001" lon="10.7234447"><ele>27.0</ele><time>2026-04-26T08:27:12.374Z</time></trkpt><trkpt lat="45.1540143" lon="10.723569"><ele>27.0</ele><time>2026-04-26T08:27:15.375Z</time></trkpt><trkpt lat="45.1540234" lon="10.7236779"><ele>27.0</ele><time>2026-04-26T08:27:18.375Z</time></trkpt><trkpt lat="45.1540276" lon="10.7237845"><ele>27.0</ele><time>2026-04-26T08:27:21.375Z</time></trkpt><trkpt lat="45.1540233" lon="10.7236599"><ele>27.0</ele><time>2026-04-26T08:27:27.374Z</time></trkpt><trkpt lat="45.1540152" lon="10.7235624"><ele>27.0</ele><time>2026-04-26T08:27:30.375Z</time></trkpt><trkpt lat="45.1539817" lon="10.723444"><ele>27.0</ele><time>2026-04-26T08:27:33.375Z</time></trkpt><trkpt lat="45.1539771" lon="10.7233508"><ele>27.0</ele><time>2026-04-26T08:27:35.375Z</time></trkpt><trkpt lat="45.1539728" lon="10.7232528"><ele>27.0</ele><time>2026-04-26T08:27:37.375Z</time></trkpt><trkpt lat="45.1539724" lon="10.7231525"><ele>27.0</ele><time>2026-04-26T08:27:39.374Z</time></trkpt><trkpt lat="45.1539828" lon="10.7230392"><ele>27.0</ele><time>2026-04-26T08:27:41.374Z</time></trkpt><trkpt lat="45.1539768" lon="10.7229304"><ele>27.0</ele><time>2026-04-26T08:27:43.374Z</time></trkpt><trkpt lat="45.1539695" lon="10.7228167"><ele>27.0</ele><time>2026-04-26T08:27:45.375Z</time></trkpt><trkpt lat="45.1539521" lon="10.7226973"><ele>27.0</ele><time>2026-04-26T08:27:47.373Z</time></trkpt><trkpt lat="45.1539487" lon="10.7225988"><ele>27.0</ele><time>2026-04-26T08:27:49.374Z</time></trkpt><trkpt lat="45.1538948" lon="10.7225118"><ele>27.0</ele><time>2026-04-26T08:27:52.374Z</time></trkpt><trkpt lat="45.1539036" lon="10.7223925"><ele>27.000000000000004</ele><time>2026-04-26T08:28:13.374Z</time></trkpt><trkpt lat="45.1538943" lon="10.7222787"><ele>27.000000000000004</ele><time>2026-04-26T08:28:15.375Z</time></trkpt><trkpt lat="45.1538842" lon="10.7221601"><ele>27.0</ele><time>2026-04-26T08:28:17.375Z</time></trkpt><trkpt lat="45.153869" lon="10.7220157"><ele>27.0</ele><time>2026-04-26T08:28:19.375Z</time></trkpt><trkpt lat="45.1538586" lon="10.7218707"><ele>27.0</ele><time>2026-04-26T08:28:21.373Z</time></trkpt><trkpt lat="45.1538518" lon="10.7217136"><ele>27.0</ele><time>2026-04-26T08:28:23.374Z</time></trkpt><trkpt lat="45.1538377" lon="10.7215475"><ele>27.0</ele><time>2026-04-26T08:28:25.375Z</time></trkpt><trkpt lat="45.1538294" lon="10.7214558"><ele>27.0</ele><time>2026-04-26T08:28:26.374Z</time></trkpt><trkpt lat="45.1538169" lon="10.7213638"><ele>27.0</ele><time>2026-04-26T08:28:27.374Z</time></trkpt><trkpt lat="45.1538111" lon="10.721271"><ele>27.0</ele><time>2026-04-26T08:28:28.374Z</time></trkpt><trkpt lat="45.1538028" lon="10.7211808"><ele>27.0</ele><time>2026-04-26T08:28:29.374Z</time></trkpt><trkpt lat="45.1537956" lon="10.7210896"><ele>27.0</ele><time>2026-04-26T08:28:30.375Z</time></trkpt><trkpt lat="45.1537863" lon="10.7209968"><ele>25.0</ele><time>2026-04-26T08:28:31.374Z</time></trkpt></trkseg><trkseg><trkpt lat="45.1539145" lon="10.7225025"><ele>29.000000000000004</ele><time>2026-04-26T08:47:14.369Z</time></trkpt><trkpt lat="45.1539405" lon="10.7226014"><ele>29.0</ele><time>2026-04-26T08:47:31.368Z</time></trkpt><trkpt lat="45.1539504" lon="10.7226916"><ele>29.000000000000004</ele><time>2026-04-26T08:47:34.369Z</time></trkpt><trkpt lat="45.1539523" lon="10.7227877"><ele>29.000000000000004</ele><time>2026-04-26T08:47:37.369Z</time></trkpt><trkpt lat="45.1539549" lon="10.722877"><ele>29.0</ele><time>2026-04-26T08:47:40.368Z</time></trkpt><trkpt lat="45.1539608" lon="10.7229733"><ele>29.000000000000004</ele><time>2026-04-26T08:47:43.369Z</time></trkpt><trkpt lat="45.1539673" lon="10.7230698"><ele>29.000000000000004</ele><time>2026-04-26T08:47:46.369Z</time></trkpt><trkpt lat="45.1539728" lon="10.7231755"><ele>28.85714285714286</ele><time>2026-04-26T08:47:49.368Z</time></trkpt><trkpt lat="45.1539712" lon="10.7232737"><ele>28.714285714285715</ele><time>2026-04-26T08:47:52.369Z</time></trkpt><trkpt lat="45.153984" lon="10.7233954"><ele>28.571428571428573</ele><time>2026-04-26T08:47:56.369Z</time></trkpt><trkpt lat="45.1539939" lon="10.7235309"><ele>28.42857142857143</ele><time>2026-04-26T08:47:59.369Z</time></trkpt><trkpt lat="45.1540011" lon="10.7236261"><ele>28.285714285714285</ele><time>2026-04-26T08:48:01.369Z</time></trkpt><trkpt lat="45.154002" lon="10.7237156"><ele>28.142857142857142</ele><time>2026-04-26T08:48:03.369Z</time></trkpt><trkpt lat="45.1540133" lon="10.7238069"><ele>28.0</ele><time>2026-04-26T08:48:05.368Z</time></trkpt><trkpt lat="45.1540388" lon="10.7239016"><ele>28.000000000000004</ele><time>2026-04-26T08:48:07.371Z</time></trkpt><trkpt lat="45.1540851" lon="10.7239879"><ele>28.0</ele><time>2026-04-26T08:48:09.369Z</time></trkpt><trkpt lat="45.1541382" lon="10.7240513"><ele>28.0</ele><time>2026-04-26T08:48:11.37Z</time></trkpt><trkpt lat="45.1542183" lon="10.7241248"><ele>28.0</ele><time>2026-04-26T08:48:14.369Z</time></trkpt><trkpt lat="45.1542703" lon="10.7241812"><ele>28.000000000000004</ele><time>2026-04-26T08:48:16.369Z</time></trkpt><trkpt lat="45.1543276" lon="10.7242508"><ele>28.0</ele><time>2026-04-26T08:48:18.368Z</time></trkpt><trkpt lat="45.1543674" lon="10.7243482"><ele>27.500000000000004</ele><time>2026-04-26T08:48:20.369Z</time></trkpt><trkpt lat="45.154387" lon="10.7244643"><ele>27.0</ele><time>2026-04-26T08:48:22.369Z</time></trkpt><trkpt lat="45.154384" lon="10.7245763"><ele>26.5</ele><time>2026-04-26T08:48:24.368Z</time></trkpt><trkpt lat="45.1543587" lon="10.7246787"><ele>26.0</ele><time>2026-04-26T08:48:26.369Z</time></trkpt><trkpt lat="45.154327" lon="10.724762"><ele>25.500000000000004</ele><time>2026-04-26T08:48:28.369Z</time></trkpt><trkpt lat="45.1542911" lon="10.7248561"><ele>25.0</ele><time>2026-04-26T08:48:30.37Z</time></trkpt><trkpt lat="45.1542504" lon="10.7249529"><ele>25.000000000000004</ele><time>2026-04-26T08:48:32.37Z</time></trkpt><trkpt lat="45.1542084" lon="10.7250373"><ele>25.0</ele><time>2026-04-26T08:48:34.369Z</time></trkpt><trkpt lat="45.1541712" lon="10.7251246"><ele>25.0</ele><time>2026-04-26T08:48:36.369Z</time></trkpt><trkpt lat="45.1541471" lon="10.7252272"><ele>25.0</ele><time>2026-04-26T08:48:38.37Z</time></trkpt><trkpt lat="45.1541335" lon="10.725331"><ele>25.0</ele><time>2026-04-26T08:48:40.368Z</time></trkpt><trkpt lat="45.1541234" lon="10.7254344"><ele>25.000000000000004</ele><time>2026-04-26T08:48:42.369Z</time></trkpt><trkpt lat="45.1541259" lon="10.7255421"><ele>25.0</ele><time>2026-04-26T08:48:44.368Z</time></trkpt><trkpt lat="45.154132" lon="10.7256479"><ele>25.000000000000004</ele><time>2026-04-26T08:48:46.369Z</time></trkpt><trkpt lat="45.1541459" lon="10.7257524"><ele>25.0</ele><time>2026-04-26T08:48:48.368Z</time></trkpt><trkpt lat="45.1541539" lon="10.7258591"><ele>25.0</ele><time>2026-04-26T08:48:50.369Z</time></trkpt><trkpt lat="45.1541701" lon="10.7259648"><ele>25.0</ele><time>2026-04-26T08:48:52.368Z</time></trkpt><trkpt lat="45.1541964" lon="10.7260778"><ele>25.000000000000004</ele><time>2026-04-26T08:48:54.369Z</time></trkpt><trkpt lat="45.1542206" lon="10.7262055"><ele>25.0</ele><time>2026-04-26T08:48:56.369Z</time></trkpt><trkpt lat="45.1542313" lon="10.7263385"><ele>25.0</ele><time>2026-04-26T08:48:58.368Z</time></trkpt><trkpt lat="45.1542416" lon="10.7264639"><ele>25.0</ele><time>2026-04-26T08:49:00.369Z</time></trkpt><trkpt lat="45.1542397" lon="10.7265966"><ele>25.0</ele><time>2026-04-26T08:49:02.368Z</time></trkpt><trkpt lat="45.1542453" lon="10.7267277"><ele>25.0</ele><time>2026-04-26T08:49:04.369Z</time></trkpt><trkpt lat="45.154255" lon="10.7268612"><ele>25.0</ele><time>2026-04-26T08:49:06.369Z</time></trkpt><trkpt lat="45.1542615" lon="10.7269798"><ele>25.000000000000004</ele><time>2026-04-26T08:49:08.37Z</time></trkpt><trkpt lat="45.1542646" lon="10.7271115"><ele>25.0</ele><time>2026-04-26T08:49:10.369Z</time></trkpt><trkpt lat="45.1542564" lon="10.7272446"><ele>25.0</ele><time>2026-04-26T08:49:12.369Z</time></trkpt><trkpt lat="45.1542365" lon="10.7273717"><ele>25.0</ele><time>2026-04-26T08:49:14.369Z</time></trkpt><trkpt lat="45.1542376" lon="10.7274853"><ele>25.000000000000004</ele><time>2026-04-26T08:49:16.368Z</time></trkpt><trkpt lat="45.1542507" lon="10.7276029"><ele>25.0</ele><time>2026-04-26T08:49:18.369Z</time></trkpt><trkpt lat="45.1542555" lon="10.7277198"><ele>24.833333333333336</ele><time>2026-04-26T08:49:20.369Z</time></trkpt><trkpt lat="45.1542606" lon="10.7278425"><ele>24.666666666666668</ele><time>2026-04-26T08:49:22.368Z</time></trkpt><trkpt lat="45.1542654" lon="10.7279703"><ele>24.5</ele><time>2026-04-26T08:49:24.369Z</time></trkpt><trkpt lat="45.1542773" lon="10.7280992"><ele>24.333333333333336</ele><time>2026-04-26T08:49:26.369Z</time></trkpt><trkpt lat="45.1542882" lon="10.7282316"><ele>24.166666666666668</ele><time>2026-04-26T08:49:28.368Z</time></trkpt><trkpt lat="45.1542967" lon="10.7283513"><ele>24.0</ele><time>2026-04-26T08:49:30.368Z</time></trkpt><trkpt lat="45.1543012" lon="10.7284884"><ele>24.166666666666668</ele><time>2026-04-26T08:49:32.368Z</time></trkpt><trkpt lat="45.1543057" lon="10.7286226"><ele>24.333333333333336</ele><time>2026-04-26T08:49:34.367Z</time></trkpt><trkpt lat="45.1543223" lon="10.7287475"><ele>24.5</ele><time>2026-04-26T08:49:36.369Z</time></trkpt><trkpt lat="45.1543553" lon="10.7288636"><ele>24.666666666666668</ele><time>2026-04-26T08:49:38.369Z</time></trkpt><trkpt lat="45.1543806" lon="10.728975"><ele>24.833333333333336</ele><time>2026-04-26T08:49:40.369Z</time></trkpt><trkpt lat="45.1543845" lon="10.729093"><ele>25.0</ele><time>2026-04-26T08:49:42.368Z</time></trkpt><trkpt lat="45.1543919" lon="10.7292077"><ele>25.000000000000004</ele><time>2026-04-26T08:49:44.369Z</time></trkpt><trkpt lat="45.1543984" lon="10.7293226"><ele>25.0</ele><time>2026-04-26T08:49:46.368Z</time></trkpt><trkpt lat="45.1543987" lon="10.7294412"><ele>25.0</ele><time>2026-04-26T08:49:48.369Z</time></trkpt><trkpt lat="45.1544082" lon="10.7295558"><ele>25.0</ele><time>2026-04-26T08:49:50.368Z</time></trkpt><trkpt lat="45.1544187" lon="10.7296806"><ele>25.000000000000004</ele><time>2026-04-26T08:49:52.369Z</time></trkpt><trkpt lat="45.1544212" lon="10.7298081"><ele>25.0</ele><time>2026-04-26T08:49:54.369Z</time></trkpt><trkpt lat="45.1544302" lon="10.7299348"><ele>25.0</ele><time>2026-04-26T08:49:56.369Z</time></trkpt><trkpt lat="45.1544303" lon="10.7300762"><ele>25.0</ele><time>2026-04-26T08:49:58.369Z</time></trkpt><trkpt lat="45.1544454" lon="10.730225"><ele>25.0</ele><time>2026-04-26T08:50:00.368Z</time></trkpt><trkpt lat="45.1544608" lon="10.7303739"><ele>25.0</ele><time>2026-04-26T08:50:02.369Z</time></trkpt><trkpt lat="45.1544697" lon="10.7305316"><ele>25.0</ele><time>2026-04-26T08:50:04.368Z</time></trkpt><trkpt lat="45.1544854" lon="10.7306796"><ele>25.000000000000004</ele><time>2026-04-26T08:50:06.369Z</time></trkpt><trkpt lat="45.1545578" lon="10.7307436"><ele>25.0</ele><time>2026-04-26T08:50:08.368Z</time></trkpt><trkpt lat="45.1546355" lon="10.7307873"><ele>25.0</ele><time>2026-04-26T08:50:10.368Z</time></trkpt><trkpt lat="45.1546642" lon="10.7308764"><ele>25.0</ele><time>2026-04-26T08:50:12.369Z</time></trkpt><trkpt lat="45.1546739" lon="10.7309882"><ele>25.000000000000004</ele><time>2026-04-26T08:50:14.368Z</time></trkpt><trkpt lat="45.1546351" lon="10.7311012"><ele>25.0</ele><time>2026-04-26T08:50:16.368Z</time></trkpt><trkpt lat="45.1545793" lon="10.7312087"><ele>24.4</ele><time>2026-04-26T08:50:18.369Z</time></trkpt><trkpt lat="45.1545839" lon="10.7313447"><ele>23.8</ele><time>2026-04-26T08:50:20.367Z</time></trkpt><trkpt lat="45.1546175" lon="10.7314671"><ele>23.200000000000003</ele><time>2026-04-26T08:50:22.368Z</time></trkpt><trkpt lat="45.1546466" lon="10.7315977"><ele>22.6</ele><time>2026-04-26T08:50:24.369Z</time></trkpt><trkpt lat="45.1546696" lon="10.7317182"><ele>22.0</ele><time>2026-04-26T08:50:26.369Z</time></trkpt><trkpt lat="45.1547028" lon="10.731844"><ele>21.857142857142858</ele><time>2026-04-26T08:50:28.369Z</time></trkpt><trkpt lat="45.1547324" lon="10.7319542"><ele>21.714285714285715</ele><time>2026-04-26T08:50:30.369Z</time></trkpt><trkpt lat="45.154758" lon="10.7320559"><ele>21.57142857142857</ele><time>2026-04-26T08:50:32.369Z</time></trkpt><trkpt lat="45.1547785" lon="10.7321572"><ele>21.42857142857143</ele><time>2026-04-26T08:50:34.368Z</time></trkpt><trkpt lat="45.1547978" lon="10.7322498"><ele>21.285714285714285</ele><time>2026-04-26T08:50:36.369Z</time></trkpt><trkpt lat="45.154817" lon="10.7323428"><ele>21.142857142857142</ele><time>2026-04-26T08:50:38.369Z</time></trkpt><trkpt lat="45.15483" lon="10.7324438"><ele>21.0</ele><time>2026-04-26T08:50:40.368Z</time></trkpt><trkpt lat="45.154835" lon="10.7325474"><ele>21.0</ele><time>2026-04-26T08:50:42.367Z</time></trkpt><trkpt lat="45.1548332" lon="10.7326475"><ele>21.0</ele><time>2026-04-26T08:50:44.368Z</time></trkpt><trkpt lat="45.1548191" lon="10.7327472"><ele>21.0</ele><time>2026-04-26T08:50:46.367Z</time></trkpt><trkpt lat="45.1547924" lon="10.7328491"><ele>21.0</ele><time>2026-04-26T08:50:48.369Z</time></trkpt><trkpt lat="45.1547501" lon="10.7329497"><ele>21.0</ele><time>2026-04-26T08:50:50.368Z</time></trkpt><trkpt lat="45.1547042" lon="10.7330498"><ele>21.0</ele><time>2026-04-26T08:50:52.368Z</time></trkpt><trkpt lat="45.1546543" lon="10.7331399"><ele>21.666666666666668</ele><time>2026-04-26T08:50:54.368Z</time></trkpt><trkpt lat="45.1546091" lon="10.7332268"><ele>22.333333333333336</ele><time>2026-04-26T08:50:56.367Z</time></trkpt><trkpt lat="45.1545776" lon="10.7333315"><ele>23.0</ele><time>2026-04-26T08:50:58.368Z</time></trkpt><trkpt lat="45.1545693" lon="10.7334514"><ele>23.666666666666668</ele><time>2026-04-26T08:51:00.368Z</time></trkpt><trkpt lat="45.1545781" lon="10.7335737"><ele>24.333333333333336</ele><time>2026-04-26T08:51:02.367Z</time></trkpt><trkpt lat="45.1545827" lon="10.7336899"><ele>25.0</ele><time>2026-04-26T08:51:04.368Z</time></trkpt><trkpt lat="45.1545858" lon="10.733806"><ele>25.000000000000004</ele><time>2026-04-26T08:51:06.368Z</time></trkpt><trkpt lat="45.1545877" lon="10.7339178"><ele>25.0</ele><time>2026-04-26T08:51:08.368Z</time></trkpt><trkpt lat="45.1545871" lon="10.7340208"><ele>25.0</ele><time>2026-04-26T08:51:10.368Z</time></trkpt><trkpt lat="45.1545894" lon="10.7341226"><ele>25.0</ele><time>2026-04-26T08:51:12.367Z</time></trkpt><trkpt lat="45.1545949" lon="10.73423"><ele>25.000000000000004</ele><time>2026-04-26T08:51:14.368Z</time></trkpt><trkpt lat="45.1545976" lon="10.734343"><ele>25.0</ele><time>2026-04-26T08:51:16.368Z</time></trkpt><trkpt lat="45.1545925" lon="10.7344519"><ele>24.666666666666668</ele><time>2026-04-26T08:51:18.368Z</time></trkpt><trkpt lat="45.1545911" lon="10.7345606"><ele>24.333333333333336</ele><time>2026-04-26T08:51:20.368Z</time></trkpt><trkpt lat="45.1545972" lon="10.7346675"><ele>24.0</ele><time>2026-04-26T08:51:22.369Z</time></trkpt><trkpt lat="45.1546047" lon="10.7347742"><ele>23.666666666666668</ele><time>2026-04-26T08:51:24.367Z</time></trkpt><trkpt lat="45.1546151" lon="10.7348861"><ele>23.333333333333336</ele><time>2026-04-26T08:51:26.368Z</time></trkpt><trkpt lat="45.1546208" lon="10.7350081"><ele>23.0</ele><time>2026-04-26T08:51:28.369Z</time></trkpt><trkpt lat="45.1546195" lon="10.7351346"><ele>23.2</ele><time>2026-04-26T08:51:30.368Z</time></trkpt><trkpt lat="45.1546112" lon="10.7352648"><ele>23.4</ele><time>2026-04-26T08:51:32.368Z</time></trkpt><trkpt lat="45.1546113" lon="10.7353924"><ele>23.599999999999998</ele><time>2026-04-26T08:51:34.368Z</time></trkpt><trkpt lat="45.1546058" lon="10.7355172"><ele>23.799999999999997</ele><time>2026-04-26T08:51:36.368Z</time></trkpt><trkpt lat="45.1545992" lon="10.7356427"><ele>24.0</ele><time>2026-04-26T08:51:38.367Z</time></trkpt><trkpt lat="45.154603" lon="10.7357762"><ele>24.0</ele><time>2026-04-26T08:51:40.368Z</time></trkpt><trkpt lat="45.1546057" lon="10.7359097"><ele>24.0</ele><time>2026-04-26T08:51:42.368Z</time></trkpt><trkpt lat="45.1546022" lon="10.7360495"><ele>24.0</ele><time>2026-04-26T08:51:44.367Z</time></trkpt><trkpt lat="45.1546008" lon="10.7361861"><ele>24.0</ele><time>2026-04-26T08:51:46.368Z</time></trkpt><trkpt lat="45.1545972" lon="10.736309"><ele>24.0</ele><time>2026-04-26T08:51:48.369Z</time></trkpt><trkpt lat="45.1546014" lon="10.7364449"><ele>24.333333333333332</ele><time>2026-04-26T08:51:50.368Z</time></trkpt><trkpt lat="45.1545917" lon="10.7365681"><ele>24.666666666666664</ele><time>2026-04-26T08:51:52.369Z</time></trkpt><trkpt lat="45.1545851" lon="10.736691"><ele>25.0</ele><time>2026-04-26T08:51:54.369Z</time></trkpt><trkpt lat="45.1545787" lon="10.736806"><ele>25.333333333333332</ele><time>2026-04-26T08:51:56.368Z</time></trkpt><trkpt lat="45.1545618" lon="10.7369221"><ele>25.666666666666664</ele><time>2026-04-26T08:51:58.368Z</time></trkpt><trkpt lat="45.1545629" lon="10.7370499"><ele>26.0</ele><time>2026-04-26T08:52:00.368Z</time></trkpt><trkpt lat="45.1545564" lon="10.7371797"><ele>26.0</ele><time>2026-04-26T08:52:02.367Z</time></trkpt><trkpt lat="45.1545536" lon="10.737323"><ele>26.0</ele><time>2026-04-26T08:52:04.366Z</time></trkpt><trkpt lat="45.1545427" lon="10.737456"><ele>26.0</ele><time>2026-04-26T08:52:06.369Z</time></trkpt><trkpt lat="45.1545369" lon="10.7375925"><ele>26.0</ele><time>2026-04-26T08:52:08.368Z</time></trkpt><trkpt lat="45.1545348" lon="10.7377335"><ele>26.0</ele><time>2026-04-26T08:52:10.368Z</time></trkpt><trkpt lat="45.154538" lon="10.7378684"><ele>26.0</ele><time>2026-04-26T08:52:12.368Z</time></trkpt><trkpt lat="45.1545379" lon="10.7380081"><ele>26.0</ele><time>2026-04-26T08:52:14.369Z</time></trkpt><trkpt lat="45.1545363" lon="10.7381563"><ele>26.0</ele><time>2026-04-26T08:52:16.367Z</time></trkpt><trkpt lat="45.1545303" lon="10.7383001"><ele>26.0</ele><time>2026-04-26T08:52:18.368Z</time></trkpt><trkpt lat="45.1545343" lon="10.7384507"><ele>26.0</ele><time>2026-04-26T08:52:20.368Z</time></trkpt><trkpt lat="45.154524" lon="10.7385969"><ele>25.6</ele><time>2026-04-26T08:52:22.368Z</time></trkpt><trkpt lat="45.1545175" lon="10.7387383"><ele>25.200000000000003</ele><time>2026-04-26T08:52:24.368Z</time></trkpt><trkpt lat="45.1545176" lon="10.7388849"><ele>24.799999999999997</ele><time>2026-04-26T08:52:26.368Z</time></trkpt><trkpt lat="45.1545163" lon="10.7390251"><ele>24.4</ele><time>2026-04-26T08:52:28.367Z</time></trkpt><trkpt lat="45.1545196" lon="10.7391613"><ele>24.0</ele><time>2026-04-26T08:52:30.368Z</time></trkpt><trkpt lat="45.1545169" lon="10.7393001"><ele>24.0</ele><time>2026-04-26T08:52:32.367Z</time></trkpt><trkpt lat="45.1545113" lon="10.7394375"><ele>24.0</ele><time>2026-04-26T08:52:34.368Z</time></trkpt><trkpt lat="45.1544977" lon="10.7395807"><ele>24.0</ele><time>2026-04-26T08:52:36.368Z</time></trkpt><trkpt lat="45.1544838" lon="10.7397151"><ele>24.0</ele><time>2026-04-26T08:52:38.368Z</time></trkpt><trkpt lat="45.154466" lon="10.7398435"><ele>24.0</ele><time>2026-04-26T08:52:40.367Z</time></trkpt><trkpt lat="45.154475" lon="10.7399782"><ele>24.0</ele><time>2026-04-26T08:52:42.368Z</time></trkpt><trkpt lat="45.1544748" lon="10.7401031"><ele>24.0</ele><time>2026-04-26T08:52:44.369Z</time></trkpt><trkpt lat="45.1544661" lon="10.7402343"><ele>24.0</ele><time>2026-04-26T08:52:46.367Z</time></trkpt><trkpt lat="45.1544629" lon="10.7403743"><ele>24.0</ele><time>2026-04-26T08:52:48.368Z</time></trkpt><trkpt lat="45.1544632" lon="10.7405022"><ele>24.0</ele><time>2026-04-26T08:52:50.368Z</time></trkpt><trkpt lat="45.1544639" lon="10.7406168"><ele>24.166666666666668</ele><time>2026-04-26T08:52:52.368Z</time></trkpt><trkpt lat="45.154454" lon="10.7407372"><ele>24.333333333333336</ele><time>2026-04-26T08:52:54.368Z</time></trkpt><trkpt lat="45.154434" lon="10.7408558"><ele>24.5</ele><time>2026-04-26T08:52:56.367Z</time></trkpt><trkpt lat="45.1544093" lon="10.7409769"><ele>24.666666666666668</ele><time>2026-04-26T08:52:58.368Z</time></trkpt><trkpt lat="45.1543821" lon="10.7411052"><ele>24.833333333333336</ele><time>2026-04-26T08:53:00.368Z</time></trkpt><trkpt lat="45.1543597" lon="10.7412336"><ele>25.0</ele><time>2026-04-26T08:53:02.367Z</time></trkpt><trkpt lat="45.1543343" lon="10.7413668"><ele>24.8</ele><time>2026-04-26T08:53:04.367Z</time></trkpt><trkpt lat="45.1543101" lon="10.7414931"><ele>24.6</ele><time>2026-04-26T08:53:06.368Z</time></trkpt><trkpt lat="45.1542845" lon="10.7416151"><ele>24.4</ele><time>2026-04-26T08:53:08.367Z</time></trkpt><trkpt lat="45.1542586" lon="10.741746"><ele>24.2</ele><time>2026-04-26T08:53:10.368Z</time></trkpt><trkpt lat="45.1542291" lon="10.7418804"><ele>24.0</ele><time>2026-04-26T08:53:12.368Z</time></trkpt><trkpt lat="45.154203" lon="10.7420145"><ele>24.0</ele><time>2026-04-26T08:53:14.368Z</time></trkpt><trkpt lat="45.154195" lon="10.742138"><ele>24.0</ele><time>2026-04-26T08:53:16.367Z</time></trkpt><trkpt lat="45.1541913" lon="10.7422705"><ele>24.0</ele><time>2026-04-26T08:53:18.368Z</time></trkpt><trkpt lat="45.1541847" lon="10.7423885"><ele>24.0</ele><time>2026-04-26T08:53:20.366Z</time></trkpt><trkpt lat="45.1541917" lon="10.7425039"><ele>24.0</ele><time>2026-04-26T08:53:22.367Z</time></trkpt><trkpt lat="45.1541849" lon="10.7426062"><ele>24.0</ele><time>2026-04-26T08:53:24.367Z</time></trkpt><trkpt lat="45.1541758" lon="10.7427195"><ele>24.166666666666668</ele><time>2026-04-26T08:53:26.368Z</time></trkpt><trkpt lat="45.1541693" lon="10.7428399"><ele>24.333333333333336</ele><time>2026-04-26T08:53:28.367Z</time></trkpt><trkpt lat="45.1541674" lon="10.7429631"><ele>24.5</ele><time>2026-04-26T08:53:30.368Z</time></trkpt><trkpt lat="45.1541695" lon="10.7430795"><ele>24.666666666666668</ele><time>2026-04-26T08:53:32.367Z</time></trkpt><trkpt lat="45.1541672" lon="10.7431986"><ele>24.833333333333336</ele><time>2026-04-26T08:53:34.368Z</time></trkpt><trkpt lat="45.1541663" lon="10.7433266"><ele>25.0</ele><time>2026-04-26T08:53:36.368Z</time></trkpt><trkpt lat="45.1541647" lon="10.7434471"><ele>25.2</ele><time>2026-04-26T08:53:38.367Z</time></trkpt><trkpt lat="45.1541648" lon="10.7435697"><ele>25.4</ele><time>2026-04-26T08:53:40.368Z</time></trkpt><trkpt lat="45.1541735" lon="10.7437056"><ele>25.6</ele><time>2026-04-26T08:53:42.368Z</time></trkpt><trkpt lat="45.1541829" lon="10.7438248"><ele>25.8</ele><time>2026-04-26T08:53:44.367Z</time></trkpt><trkpt lat="45.1541848" lon="10.7439622"><ele>26.0</ele><time>2026-04-26T08:53:46.367Z</time></trkpt><trkpt lat="45.1541921" lon="10.7440943"><ele>25.999999999999996</ele><time>2026-04-26T08:53:48.367Z</time></trkpt><trkpt lat="45.1542067" lon="10.7442038"><ele>26.0</ele><time>2026-04-26T08:53:50.368Z</time></trkpt><trkpt lat="45.1542113" lon="10.7443241"><ele>26.0</ele><time>2026-04-26T08:53:52.367Z</time></trkpt><trkpt lat="45.1542367" lon="10.7444381"><ele>26.0</ele><time>2026-04-26T08:53:54.366Z</time></trkpt><trkpt lat="45.1542615" lon="10.7445437"><ele>25.999999999999996</ele><time>2026-04-26T08:53:56.366Z</time></trkpt><trkpt lat="45.1542896" lon="10.7446402"><ele>26.0</ele><time>2026-04-26T08:53:58.366Z</time></trkpt><trkpt lat="45.1543087" lon="10.7447622"><ele>26.142857142857142</ele><time>2026-04-26T08:54:01.368Z</time></trkpt><trkpt lat="45.1543287" lon="10.7448526"><ele>26.28571428571429</ele><time>2026-04-26T08:54:03.367Z</time></trkpt><trkpt lat="45.1543513" lon="10.7449428"><ele>26.42857142857143</ele><time>2026-04-26T08:54:05.367Z</time></trkpt><trkpt lat="45.1543807" lon="10.7450232"><ele>26.57142857142857</ele><time>2026-04-26T08:54:07.368Z</time></trkpt><trkpt lat="45.1543991" lon="10.745124"><ele>26.714285714285715</ele><time>2026-04-26T08:54:09.367Z</time></trkpt><trkpt lat="45.1544211" lon="10.7452318"><ele>26.857142857142858</ele><time>2026-04-26T08:54:11.368Z</time></trkpt><trkpt lat="45.1544417" lon="10.7453365"><ele>27.0</ele><time>2026-04-26T08:54:13.367Z</time></trkpt><trkpt lat="45.1544638" lon="10.7454338"><ele>27.0</ele><time>2026-04-26T08:54:15.367Z</time></trkpt><trkpt lat="45.1544813" lon="10.7455319"><ele>27.0</ele><time>2026-04-26T08:54:17.367Z</time></trkpt><trkpt lat="45.1544985" lon="10.7456226"><ele>27.0</ele><time>2026-04-26T08:54:19.366Z</time></trkpt><trkpt lat="45.154513" lon="10.7457461"><ele>27.0</ele><time>2026-04-26T08:54:22.368Z</time></trkpt><trkpt lat="45.154524" lon="10.7458343"><ele>27.0</ele><time>2026-04-26T08:54:24.366Z</time></trkpt><trkpt lat="45.1545297" lon="10.745938"><ele>27.0</ele><time>2026-04-26T08:54:26.367Z</time></trkpt><trkpt lat="45.1545326" lon="10.7460578"><ele>27.0</ele><time>2026-04-26T08:54:28.366Z</time></trkpt><trkpt lat="45.15454" lon="10.7461579"><ele>27.166666666666668</ele><time>2026-04-26T08:54:30.367Z</time></trkpt><trkpt lat="45.1545462" lon="10.7462532"><ele>27.333333333333336</ele><time>2026-04-26T08:54:32.366Z</time></trkpt><trkpt lat="45.1545577" lon="10.7463741"><ele>27.5</ele><time>2026-04-26T08:54:35.366Z</time></trkpt><trkpt lat="45.1545643" lon="10.7464799"><ele>27.666666666666668</ele><time>2026-04-26T08:54:39.368Z</time></trkpt><trkpt lat="45.1545748" lon="10.7465876"><ele>27.833333333333336</ele><time>2026-04-26T08:54:42.367Z</time></trkpt><trkpt lat="45.1545765" lon="10.7467069"><ele>28.0</ele><time>2026-04-26T08:54:45.366Z</time></trkpt><trkpt lat="45.1545836" lon="10.7468289"><ele>28.166666666666668</ele><time>2026-04-26T08:54:48.366Z</time></trkpt><trkpt lat="45.1545905" lon="10.7469591"><ele>28.333333333333336</ele><time>2026-04-26T08:54:51.366Z</time></trkpt><trkpt lat="45.1546075" lon="10.747088"><ele>28.5</ele><time>2026-04-26T08:54:54.368Z</time></trkpt><trkpt lat="45.1546236" lon="10.7471833"><ele>28.666666666666664</ele><time>2026-04-26T08:54:56.367Z</time></trkpt><trkpt lat="45.1546363" lon="10.7472864"><ele>28.833333333333332</ele><time>2026-04-26T08:54:58.366Z</time></trkpt><trkpt lat="45.154648" lon="10.7473909"><ele>29.0</ele><time>2026-04-26T08:55:00.367Z</time></trkpt><trkpt lat="45.1546605" lon="10.7475014"><ele>28.999999999999996</ele><time>2026-04-26T08:55:02.367Z</time></trkpt><trkpt lat="45.1546669" lon="10.7476155"><ele>29.0</ele><time>2026-04-26T08:55:04.367Z</time></trkpt><trkpt lat="45.1546723" lon="10.7477277"><ele>29.0</ele><time>2026-04-26T08:55:06.367Z</time></trkpt><trkpt lat="45.1546783" lon="10.7478374"><ele>29.0</ele><time>2026-04-26T08:55:08.367Z</time></trkpt><trkpt lat="45.15469" lon="10.7479422"><ele>28.999999999999996</ele><time>2026-04-26T08:55:10.367Z</time></trkpt><trkpt lat="45.1547021" lon="10.7480422"><ele>29.0</ele><time>2026-04-26T08:55:12.367Z</time></trkpt><trkpt lat="45.1547068" lon="10.7481406"><ele>28.85714285714286</ele><time>2026-04-26T08:55:14.367Z</time></trkpt><trkpt lat="45.1547144" lon="10.7482409"><ele>28.714285714285715</ele><time>2026-04-26T08:55:16.367Z</time></trkpt><trkpt lat="45.1547238" lon="10.7483428"><ele>28.571428571428573</ele><time>2026-04-26T08:55:18.367Z</time></trkpt><trkpt lat="45.1547358" lon="10.7484375"><ele>28.42857142857143</ele><time>2026-04-26T08:55:20.367Z</time></trkpt><trkpt lat="45.1547492" lon="10.7485252"><ele>28.285714285714285</ele><time>2026-04-26T08:55:23.367Z</time></trkpt><trkpt lat="45.1547589" lon="10.7486383"><ele>28.142857142857142</ele><time>2026-04-26T08:55:26.367Z</time></trkpt><trkpt lat="45.1547703" lon="10.7487264"><ele>28.0</ele><time>2026-04-26T08:55:28.366Z</time></trkpt><trkpt lat="45.1547863" lon="10.74882"><ele>28.0</ele><time>2026-04-26T08:55:30.367Z</time></trkpt><trkpt lat="45.1547989" lon="10.7489186"><ele>28.0</ele><time>2026-04-26T08:55:32.366Z</time></trkpt><trkpt lat="45.1548066" lon="10.749017"><ele>28.0</ele><time>2026-04-26T08:55:34.367Z</time></trkpt><trkpt lat="45.1548143" lon="10.7491172"><ele>28.0</ele><time>2026-04-26T08:55:36.367Z</time></trkpt><trkpt lat="45.1548187" lon="10.7492236"><ele>28.0</ele><time>2026-04-26T08:55:38.367Z</time></trkpt><trkpt lat="45.154825" lon="10.7493318"><ele>28.0</ele><time>2026-04-26T08:55:40.367Z</time></trkpt><trkpt lat="45.1548298" lon="10.749434"><ele>28.0</ele><time>2026-04-26T08:55:42.367Z</time></trkpt><trkpt lat="45.1548403" lon="10.7495357"><ele>28.000000000000004</ele><time>2026-04-26T08:55:44.366Z</time></trkpt><trkpt lat="45.1548511" lon="10.7496368"><ele>28.0</ele><time>2026-04-26T08:55:46.367Z</time></trkpt><trkpt lat="45.1548512" lon="10.7497398"><ele>28.0</ele><time>2026-04-26T08:55:48.367Z</time></trkpt><trkpt lat="45.154856" lon="10.7498405"><ele>28.0</ele><time>2026-04-26T08:55:50.367Z</time></trkpt><trkpt lat="45.1548658" lon="10.7499432"><ele>28.000000000000004</ele><time>2026-04-26T08:55:52.366Z</time></trkpt><trkpt lat="45.1548783" lon="10.7500401"><ele>28.0</ele><time>2026-04-26T08:55:54.367Z</time></trkpt><trkpt lat="45.1548924" lon="10.7501724"><ele>27.666666666666668</ele><time>2026-04-26T08:55:57.367Z</time></trkpt><trkpt lat="45.1549002" lon="10.7502612"><ele>27.333333333333336</ele><time>2026-04-26T08:55:59.366Z</time></trkpt><trkpt lat="45.154922" lon="10.7503899"><ele>27.0</ele><time>2026-04-26T08:56:02.366Z</time></trkpt><trkpt lat="45.1549291" lon="10.7505212"><ele>26.666666666666664</ele><time>2026-04-26T08:56:05.367Z</time></trkpt><trkpt lat="45.1549332" lon="10.7506354"><ele>26.333333333333332</ele><time>2026-04-26T08:56:07.367Z</time></trkpt><trkpt lat="45.1549416" lon="10.7507383"><ele>26.0</ele><time>2026-04-26T08:56:09.367Z</time></trkpt><trkpt lat="45.1549417" lon="10.7508353"><ele>25.999999999999996</ele><time>2026-04-26T08:56:11.366Z</time></trkpt><trkpt lat="45.1549502" lon="10.7509748"><ele>26.0</ele><time>2026-04-26T08:56:14.367Z</time></trkpt><trkpt lat="45.1549563" lon="10.7510715"><ele>26.0</ele><time>2026-04-26T08:56:17.367Z</time></trkpt><trkpt lat="45.1549661" lon="10.7511686"><ele>26.0</ele><time>2026-04-26T08:56:26.365Z</time></trkpt><trkpt lat="45.1549746" lon="10.7512924"><ele>25.999999999999996</ele><time>2026-04-26T08:56:29.365Z</time></trkpt><trkpt lat="45.154983" lon="10.7513889"><ele>26.0</ele><time>2026-04-26T08:56:31.367Z</time></trkpt><trkpt lat="45.154989" lon="10.7514913"><ele>25.999999999999996</ele><time>2026-04-26T08:56:33.367Z</time></trkpt><trkpt lat="45.1549939" lon="10.7516007"><ele>26.0</ele><time>2026-04-26T08:56:35.367Z</time></trkpt><trkpt lat="45.1550034" lon="10.7517161"><ele>26.0</ele><time>2026-04-26T08:56:37.366Z</time></trkpt><trkpt lat="45.1550098" lon="10.7518227"><ele>26.0</ele><time>2026-04-26T08:56:39.367Z</time></trkpt><trkpt lat="45.1550225" lon="10.7519368"><ele>25.999999999999996</ele><time>2026-04-26T08:56:41.367Z</time></trkpt><trkpt lat="45.1550442" lon="10.752042"><ele>26.0</ele><time>2026-04-26T08:56:43.365Z</time></trkpt><trkpt lat="45.1550622" lon="10.7521677"><ele>25.999999999999996</ele><time>2026-04-26T08:56:46.366Z</time></trkpt><trkpt lat="45.1551308" lon="10.7521928"><ele>26.0</ele><time>2026-04-26T08:56:48.366Z</time></trkpt><trkpt lat="45.1551952" lon="10.7522117"><ele>26.0</ele><time>2026-04-26T08:56:50.366Z</time></trkpt><trkpt lat="45.1552867" lon="10.7522044"><ele>26.0</ele><time>2026-04-26T08:56:53.367Z</time></trkpt><trkpt lat="45.1553634" lon="10.7522496"><ele>25.999999999999996</ele><time>2026-04-26T08:56:56.367Z</time></trkpt><trkpt lat="45.155441" lon="10.7522435"><ele>26.0</ele><time>2026-04-26T08:56:59.367Z</time></trkpt><trkpt lat="45.1555277" lon="10.7522381"><ele>26.0</ele><time>2026-04-26T08:57:02.366Z</time></trkpt><trkpt lat="45.1556197" lon="10.7522461"><ele>26.0</ele><time>2026-04-26T08:57:05.367Z</time></trkpt><trkpt lat="45.1556827" lon="10.7522488"><ele>26.0</ele><time>2026-04-26T08:57:07.366Z</time></trkpt><trkpt lat="45.1557759" lon="10.7522625"><ele>26.0</ele><time>2026-04-26T08:57:10.367Z</time></trkpt><trkpt lat="45.155842" lon="10.7522768"><ele>26.0</ele><time>2026-04-26T08:57:12.366Z</time></trkpt><trkpt lat="45.1559111" lon="10.7522812"><ele>26.0</ele><time>2026-04-26T08:57:14.367Z</time></trkpt><trkpt lat="45.1559748" lon="10.7522841"><ele>26.0</ele><time>2026-04-26T08:57:16.367Z</time></trkpt><trkpt lat="45.1560481" lon="10.7522777"><ele>26.142857142857142</ele><time>2026-04-26T08:57:19.367Z</time></trkpt><trkpt lat="45.1560665" lon="10.7521906"><ele>26.28571428571429</ele><time>2026-04-26T08:57:24.366Z</time></trkpt><trkpt lat="45.1560776" lon="10.7520857"><ele>26.42857142857143</ele><time>2026-04-26T08:57:28.366Z</time></trkpt><trkpt lat="45.1560719" lon="10.7519894"><ele>26.57142857142857</ele><time>2026-04-26T08:57:31.366Z</time></trkpt><trkpt lat="45.1560853" lon="10.7518899"><ele>26.714285714285715</ele><time>2026-04-26T08:57:36.366Z</time></trkpt><trkpt lat="45.156097" lon="10.7517684"><ele>26.857142857142858</ele><time>2026-04-26T08:57:40.365Z</time></trkpt><trkpt lat="45.1560945" lon="10.7516779"><ele>27.0</ele><time>2026-04-26T08:57:42.365Z</time></trkpt><trkpt lat="45.1560837" lon="10.7515823"><ele>27.0</ele><time>2026-04-26T08:57:44.366Z</time></trkpt><trkpt lat="45.156099" lon="10.751464"><ele>27.0</ele><time>2026-04-26T08:57:47.365Z</time></trkpt><trkpt lat="45.1561662" lon="10.7514741"><ele>27.0</ele><time>2026-04-26T08:57:50.367Z</time></trkpt><trkpt lat="45.1562432" lon="10.7514428"><ele>27.0</ele><time>2026-04-26T08:57:54.366Z</time></trkpt><trkpt lat="45.1563171" lon="10.7514318"><ele>27.0</ele><time>2026-04-26T08:57:57.366Z</time></trkpt><trkpt lat="45.1563957" lon="10.7514238"><ele>27.0</ele><time>2026-04-26T08:58:01.366Z</time></trkpt><trkpt lat="45.1564602" lon="10.7514232"><ele>27.166666666666668</ele><time>2026-04-26T08:58:04.367Z</time></trkpt><trkpt lat="45.1565378" lon="10.7514161"><ele>27.333333333333336</ele><time>2026-04-26T08:58:07.366Z</time></trkpt><trkpt lat="45.1566223" lon="10.751438"><ele>27.5</ele><time>2026-04-26T08:58:10.366Z</time></trkpt><trkpt lat="45.1566991" lon="10.7514545"><ele>27.666666666666668</ele><time>2026-04-26T08:58:13.365Z</time></trkpt><trkpt lat="45.1567787" lon="10.7514827"><ele>27.833333333333336</ele><time>2026-04-26T08:58:16.367Z</time></trkpt><trkpt lat="45.15687" lon="10.7515051"><ele>28.0</ele><time>2026-04-26T08:58:19.366Z</time></trkpt><trkpt lat="45.1569554" lon="10.751534"><ele>28.000000000000004</ele><time>2026-04-26T08:58:22.366Z</time></trkpt><trkpt lat="45.1570388" lon="10.7515569"><ele>28.0</ele><time>2026-04-26T08:58:25.365Z</time></trkpt><trkpt lat="45.1571223" lon="10.7515922"><ele>28.0</ele><time>2026-04-26T08:58:28.366Z</time></trkpt><trkpt lat="45.157196" lon="10.7516155"><ele>28.0</ele><time>2026-04-26T08:58:31.366Z</time></trkpt><trkpt lat="45.1572581" lon="10.7516395"><ele>28.000000000000004</ele><time>2026-04-26T08:58:34.366Z</time></trkpt><trkpt lat="45.1573378" lon="10.7516703"><ele>28.0</ele><time>2026-04-26T08:58:38.366Z</time></trkpt><trkpt lat="45.157404" lon="10.7516947"><ele>27.666666666666668</ele><time>2026-04-26T08:58:41.366Z</time></trkpt><trkpt lat="45.157474" lon="10.7517291"><ele>27.333333333333336</ele><time>2026-04-26T08:58:44.366Z</time></trkpt><trkpt lat="45.157538" lon="10.7517504"><ele>27.0</ele><time>2026-04-26T08:58:47.366Z</time></trkpt><trkpt lat="45.1576255" lon="10.7517729"><ele>26.666666666666664</ele><time>2026-04-26T08:58:51.365Z</time></trkpt><trkpt lat="45.1577039" lon="10.7518023"><ele>26.333333333333332</ele><time>2026-04-26T08:58:54.366Z</time></trkpt><trkpt lat="45.1577835" lon="10.7518306"><ele>26.0</ele><time>2026-04-26T08:58:57.366Z</time></trkpt><trkpt lat="45.1578522" lon="10.7518495"><ele>26.0</ele><time>2026-04-26T08:59:00.367Z</time></trkpt><trkpt lat="45.1579213" lon="10.7518712"><ele>26.0</ele><time>2026-04-26T08:59:03.366Z</time></trkpt><trkpt lat="45.1579844" lon="10.7518898"><ele>26.0</ele><time>2026-04-26T08:59:06.366Z</time></trkpt><trkpt lat="45.1580502" lon="10.7519118"><ele>26.0</ele><time>2026-04-26T08:59:09.366Z</time></trkpt><trkpt lat="45.1581195" lon="10.751943"><ele>26.0</ele><time>2026-04-26T08:59:12.366Z</time></trkpt><trkpt lat="45.1581824" lon="10.7519852"><ele>26.0</ele><time>2026-04-26T08:59:15.365Z</time></trkpt><trkpt lat="45.158247" lon="10.7520183"><ele>26.0</ele><time>2026-04-26T08:59:19.366Z</time></trkpt><trkpt lat="45.1583004" lon="10.7520803"><ele>25.333333333333332</ele><time>2026-04-26T08:59:23.365Z</time></trkpt><trkpt lat="45.1583002" lon="10.7521842"><ele>24.666666666666664</ele><time>2026-04-26T08:59:27.365Z</time></trkpt><trkpt lat="45.15829" lon="10.7522801"><ele>24.0</ele><time>2026-04-26T08:59:30.366Z</time></trkpt><trkpt lat="45.1582583" lon="10.7523866"><ele>23.333333333333332</ele><time>2026-04-26T08:59:33.365Z</time></trkpt><trkpt lat="45.1582499" lon="10.7525106"><ele>22.666666666666664</ele><time>2026-04-26T08:59:36.366Z</time></trkpt><trkpt lat="45.1582219" lon="10.7526214"><ele>22.0</ele><time>2026-04-26T08:59:38.366Z</time></trkpt><trkpt lat="45.1582096" lon="10.7527284"><ele>21.666666666666664</ele><time>2026-04-26T08:59:40.366Z</time></trkpt><trkpt lat="45.1582067" lon="10.7528416"><ele>21.333333333333332</ele><time>2026-04-26T08:59:43.365Z</time></trkpt><trkpt lat="45.1582568" lon="10.7529386"><ele>21.0</ele><time>2026-04-26T08:59:46.366Z</time></trkpt><trkpt lat="45.1583294" lon="10.7529935"><ele>20.666666666666668</ele><time>2026-04-26T08:59:48.365Z</time></trkpt><trkpt lat="45.1584019" lon="10.753032"><ele>20.333333333333336</ele><time>2026-04-26T08:59:50.366Z</time></trkpt><trkpt lat="45.1584621" lon="10.7530681"><ele>20.0</ele><time>2026-04-26T08:59:52.366Z</time></trkpt><trkpt lat="45.1585168" lon="10.7531389"><ele>20.0</ele><time>2026-04-26T08:59:54.365Z</time></trkpt><trkpt lat="45.1585479" lon="10.7532299"><ele>20.0</ele><time>2026-04-26T08:59:56.365Z</time></trkpt><trkpt lat="45.1585613" lon="10.7533583"><ele>20.0</ele><time>2026-04-26T08:59:59.365Z</time></trkpt><trkpt lat="45.1585931" lon="10.753479"><ele>20.0</ele><time>2026-04-26T09:00:02.366Z</time></trkpt><trkpt lat="45.1586131" lon="10.7535998"><ele>20.0</ele><time>2026-04-26T09:00:05.366Z</time></trkpt><trkpt lat="45.1586368" lon="10.7537336"><ele>20.0</ele><time>2026-04-26T09:00:08.364Z</time></trkpt><trkpt lat="45.158654" lon="10.7538199"><ele>20.5</ele><time>2026-04-26T09:00:10.364Z</time></trkpt><trkpt lat="45.1586743" lon="10.7539379"><ele>21.0</ele><time>2026-04-26T09:00:13.366Z</time></trkpt><trkpt lat="45.1586916" lon="10.7540505"><ele>21.5</ele><time>2026-04-26T09:00:16.366Z</time></trkpt><trkpt lat="45.1587015" lon="10.7541542"><ele>22.0</ele><time>2026-04-26T09:00:19.365Z</time></trkpt><trkpt lat="45.1587228" lon="10.7542604"><ele>22.5</ele><time>2026-04-26T09:00:22.365Z</time></trkpt><trkpt lat="45.1587197" lon="10.754358"><ele>23.0</ele><time>2026-04-26T09:00:25.364Z</time></trkpt><trkpt lat="45.1587313" lon="10.7544784"><ele>23.0</ele><time>2026-04-26T09:00:29.364Z</time></trkpt><trkpt lat="45.1587453" lon="10.7545879"><ele>23.0</ele><time>2026-04-26T09:00:32.365Z</time></trkpt><trkpt lat="45.1587379" lon="10.7547087"><ele>23.0</ele><time>2026-04-26T09:00:35.366Z</time></trkpt><trkpt lat="45.1587446" lon="10.754839"><ele>23.0</ele><time>2026-04-26T09:00:38.364Z</time></trkpt><trkpt lat="45.1587549" lon="10.7549662"><ele>23.0</ele><time>2026-04-26T09:00:41.365Z</time></trkpt><trkpt lat="45.1587765" lon="10.7550755"><ele>23.0</ele><time>2026-04-26T09:00:44.366Z</time></trkpt><trkpt lat="45.1587925" lon="10.7551946"><ele>23.0</ele><time>2026-04-26T09:00:47.365Z</time></trkpt><trkpt lat="45.1587997" lon="10.7553051"><ele>18.0</ele><time>2026-04-26T09:00:50.366Z</time></trkpt><trkpt lat="45.1587852" lon="10.755402"><ele>18.0</ele><time>2026-04-26T09:00:54.365Z</time></trkpt></trkseg><trkseg><trkpt lat="45.1567809" lon="10.7622949"><ele>21.0</ele><time>2026-04-26T09:11:04.362Z</time></trkpt><trkpt lat="45.1567739" lon="10.762389"><ele>21.0</ele><time>2026-04-26T09:11:07.362Z</time></trkpt><trkpt lat="45.1567583" lon="10.7624837"><ele>21.0</ele><time>2026-04-26T09:11:10.362Z</time></trkpt><trkpt lat="45.1567806" lon="10.7625692"><ele>21.0</ele><time>2026-04-26T09:11:13.362Z</time></trkpt><trkpt lat="45.1568349" lon="10.7626312"><ele>21.0</ele><time>2026-04-26T09:11:16.362Z</time></trkpt><trkpt lat="45.1569158" lon="10.7626682"><ele>21.0</ele><time>2026-04-26T09:11:20.362Z</time></trkpt><trkpt lat="45.1569839" lon="10.7627012"><ele>21.0</ele><time>2026-04-26T09:11:23.363Z</time></trkpt><trkpt lat="45.1570573" lon="10.7627394"><ele>21.166666666666668</ele><time>2026-04-26T09:11:26.363Z</time></trkpt><trkpt lat="45.1571367" lon="10.7627886"><ele>21.333333333333332</ele><time>2026-04-26T09:11:29.362Z</time></trkpt><trkpt lat="45.157217" lon="10.7628545"><ele>21.5</ele><time>2026-04-26T09:11:32.363Z</time></trkpt><trkpt lat="45.1572736" lon="10.7628943"><ele>21.666666666666664</ele><time>2026-04-26T09:11:34.362Z</time></trkpt><trkpt lat="45.1573572" lon="10.7629512"><ele>21.833333333333332</ele><time>2026-04-26T09:11:37.362Z</time></trkpt><trkpt lat="45.1574164" lon="10.7629932"><ele>22.0</ele><time>2026-04-26T09:11:39.361Z</time></trkpt><trkpt lat="45.1574764" lon="10.7630312"><ele>22.0</ele><time>2026-04-26T09:11:41.362Z</time></trkpt><trkpt lat="45.1575371" lon="10.7630658"><ele>22.0</ele><time>2026-04-26T09:11:43.362Z</time></trkpt><trkpt lat="45.1576005" lon="10.7631016"><ele>22.0</ele><time>2026-04-26T09:11:45.362Z</time></trkpt><trkpt lat="45.1576607" lon="10.7631419"><ele>22.0</ele><time>2026-04-26T09:11:47.361Z</time></trkpt><trkpt lat="45.1577458" lon="10.7631925"><ele>22.0</ele><time>2026-04-26T09:11:50.362Z</time></trkpt><trkpt lat="45.1578058" lon="10.7632276"><ele>22.0</ele><time>2026-04-26T09:11:52.361Z</time></trkpt><trkpt lat="45.1578649" lon="10.7632712"><ele>22.0</ele><time>2026-04-26T09:11:54.362Z</time></trkpt><trkpt lat="45.1579202" lon="10.763322"><ele>22.0</ele><time>2026-04-26T09:11:56.362Z</time></trkpt><trkpt lat="45.1579472" lon="10.7634466"><ele>22.0</ele><time>2026-04-26T09:11:59.362Z</time></trkpt><trkpt lat="45.1579407" lon="10.7635782"><ele>22.0</ele><time>2026-04-26T09:12:02.361Z</time></trkpt><trkpt lat="45.1579379" lon="10.7637089"><ele>22.0</ele><time>2026-04-26T09:12:05.361Z</time></trkpt><trkpt lat="45.1579249" lon="10.7637994"><ele>22.0</ele><time>2026-04-26T09:12:07.362Z</time></trkpt><trkpt lat="45.1579068" lon="10.7638902"><ele>22.0</ele><time>2026-04-26T09:12:09.361Z</time></trkpt><trkpt lat="45.1578629" lon="10.7640061"><ele>22.142857142857142</ele><time>2026-04-26T09:12:12.362Z</time></trkpt><trkpt lat="45.1578283" lon="10.7640852"><ele>22.285714285714285</ele><time>2026-04-26T09:12:14.36Z</time></trkpt><trkpt lat="45.1577952" lon="10.764164"><ele>22.42857142857143</ele><time>2026-04-26T09:12:16.36Z</time></trkpt><trkpt lat="45.1577527" lon="10.7642378"><ele>22.57142857142857</ele><time>2026-04-26T09:12:18.36Z</time></trkpt><trkpt lat="45.1577078" lon="10.7643081"><ele>22.71428571428571</ele><time>2026-04-26T09:12:20.36Z</time></trkpt><trkpt lat="45.1576718" lon="10.764383"><ele>22.857142857142858</ele><time>2026-04-26T09:12:22.361Z</time></trkpt><trkpt lat="45.1576491" lon="10.7644696"><ele>23.0</ele><time>2026-04-26T09:12:24.361Z</time></trkpt><trkpt lat="45.1576076" lon="10.7645811"><ele>23.0</ele><time>2026-04-26T09:12:27.362Z</time></trkpt><trkpt lat="45.1576149" lon="10.7647006"><ele>23.0</ele><time>2026-04-26T09:12:30.361Z</time></trkpt><trkpt lat="45.1576275" lon="10.7648245"><ele>23.0</ele><time>2026-04-26T09:12:33.362Z</time></trkpt><trkpt lat="45.1576344" lon="10.7649565"><ele>23.0</ele><time>2026-04-26T09:12:36.361Z</time></trkpt><trkpt lat="45.1576348" lon="10.7650863"><ele>23.0</ele><time>2026-04-26T09:12:39.362Z</time></trkpt><trkpt lat="45.1576256" lon="10.7652181"><ele>23.0</ele><time>2026-04-26T09:12:42.36Z</time></trkpt><trkpt lat="45.1576121" lon="10.7653118"><ele>23.0</ele><time>2026-04-26T09:12:44.36Z</time></trkpt><trkpt lat="45.157596" lon="10.7654028"><ele>23.0</ele><time>2026-04-26T09:12:46.36Z</time></trkpt><trkpt lat="45.1575923" lon="10.7655348"><ele>23.0</ele><time>2026-04-26T09:12:49.361Z</time></trkpt><trkpt lat="45.1575924" lon="10.7656596"><ele>23.0</ele><time>2026-04-26T09:12:52.362Z</time></trkpt><trkpt lat="45.1575888" lon="10.7657918"><ele>23.0</ele><time>2026-04-26T09:12:55.362Z</time></trkpt><trkpt lat="45.1575791" lon="10.7659237"><ele>23.0</ele><time>2026-04-26T09:12:58.36Z</time></trkpt><trkpt lat="45.1575671" lon="10.7660204"><ele>23.0</ele><time>2026-04-26T09:13:00.361Z</time></trkpt><trkpt lat="45.1575498" lon="10.7661215"><ele>23.0</ele><time>2026-04-26T09:13:02.362Z</time></trkpt><trkpt lat="45.1575414" lon="10.7662269"><ele>23.0</ele><time>2026-04-26T09:13:04.362Z</time></trkpt><trkpt lat="45.1575305" lon="10.7663307"><ele>23.0</ele><time>2026-04-26T09:13:06.361Z</time></trkpt><trkpt lat="45.1575155" lon="10.7664312"><ele>23.0</ele><time>2026-04-26T09:13:08.36Z</time></trkpt><trkpt lat="45.1575075" lon="10.7665306"><ele>23.0</ele><time>2026-04-26T09:13:10.363Z</time></trkpt><trkpt lat="45.1574982" lon="10.7666332"><ele>22.666666666666668</ele><time>2026-04-26T09:13:12.362Z</time></trkpt><trkpt lat="45.1574906" lon="10.7667352"><ele>22.333333333333336</ele><time>2026-04-26T09:13:14.36Z</time></trkpt><trkpt lat="45.1574824" lon="10.7668414"><ele>22.0</ele><time>2026-04-26T09:13:16.361Z</time></trkpt><trkpt lat="45.1574675" lon="10.7669497"><ele>21.666666666666668</ele><time>2026-04-26T09:13:18.36Z</time></trkpt><trkpt lat="45.1574533" lon="10.7670591"><ele>21.333333333333332</ele><time>2026-04-26T09:13:20.36Z</time></trkpt><trkpt lat="45.1574344" lon="10.7671693"><ele>21.0</ele><time>2026-04-26T09:13:22.362Z</time></trkpt><trkpt lat="45.1574219" lon="10.7672825"><ele>21.0</ele><time>2026-04-26T09:13:24.361Z</time></trkpt><trkpt lat="45.1574036" lon="10.7673872"><ele>21.0</ele><time>2026-04-26T09:13:26.36Z</time></trkpt><trkpt lat="45.1573671" lon="10.7674899"><ele>21.0</ele><time>2026-04-26T09:13:28.36Z</time></trkpt><trkpt lat="45.157344" lon="10.7675948"><ele>21.0</ele><time>2026-04-26T09:13:30.362Z</time></trkpt><trkpt lat="45.1573171" lon="10.767706"><ele>21.0</ele><time>2026-04-26T09:13:32.36Z</time></trkpt><trkpt lat="45.1572896" lon="10.7678195"><ele>21.0</ele><time>2026-04-26T09:13:34.359Z</time></trkpt><trkpt lat="45.1572533" lon="10.767929"><ele>22.0</ele><time>2026-04-26T09:13:36.36Z</time></trkpt><trkpt lat="45.157215" lon="10.768039"><ele>23.0</ele><time>2026-04-26T09:13:38.361Z</time></trkpt><trkpt lat="45.1571754" lon="10.7681354"><ele>24.0</ele><time>2026-04-26T09:13:40.362Z</time></trkpt><trkpt lat="45.157131" lon="10.7682268"><ele>25.0</ele><time>2026-04-26T09:13:42.361Z</time></trkpt><trkpt lat="45.1570935" lon="10.7683208"><ele>26.0</ele><time>2026-04-26T09:13:44.36Z</time></trkpt><trkpt lat="45.1570503" lon="10.7684062"><ele>27.0</ele><time>2026-04-26T09:13:46.361Z</time></trkpt><trkpt lat="45.1569984" lon="10.7684783"><ele>26.857142857142858</ele><time>2026-04-26T09:13:48.361Z</time></trkpt><trkpt lat="45.1569449" lon="10.7685514"><ele>26.714285714285715</ele><time>2026-04-26T09:13:50.361Z</time></trkpt><trkpt lat="45.1568922" lon="10.7686266"><ele>26.57142857142857</ele><time>2026-04-26T09:13:52.361Z</time></trkpt><trkpt lat="45.1568435" lon="10.7686964"><ele>26.42857142857143</ele><time>2026-04-26T09:13:54.36Z</time></trkpt><trkpt lat="45.1567912" lon="10.7687619"><ele>26.28571428571429</ele><time>2026-04-26T09:13:56.36Z</time></trkpt><trkpt lat="45.1567396" lon="10.7688185"><ele>26.142857142857142</ele><time>2026-04-26T09:13:58.361Z</time></trkpt><trkpt lat="45.1566668" lon="10.7688805"><ele>26.0</ele><time>2026-04-26T09:14:01.361Z</time></trkpt><trkpt lat="45.156599" lon="10.768941"><ele>26.0</ele><time>2026-04-26T09:14:04.361Z</time></trkpt><trkpt lat="45.1565406" lon="10.7690068"><ele>26.0</ele><time>2026-04-26T09:14:07.361Z</time></trkpt><trkpt lat="45.1564851" lon="10.7690503"><ele>26.0</ele><time>2026-04-26T09:14:09.361Z</time></trkpt><trkpt lat="45.1564151" lon="10.7691177"><ele>26.0</ele><time>2026-04-26T09:14:12.362Z</time></trkpt><trkpt lat="45.1563538" lon="10.7691713"><ele>26.0</ele><time>2026-04-26T09:14:15.362Z</time></trkpt><trkpt lat="45.1562901" lon="10.7692287"><ele>26.0</ele><time>2026-04-26T09:14:18.361Z</time></trkpt><trkpt lat="45.156226" lon="10.7692725"><ele>26.0</ele><time>2026-04-26T09:14:21.361Z</time></trkpt><trkpt lat="45.1561625" lon="10.7693054"><ele>29.0</ele><time>2026-04-26T09:14:24.36Z</time></trkpt></trkseg></trk></gpx>